# Wetter Temperatur Luftdruck Luftfeuchtigkeit Sichtweite Windgeschwindigkeit Windrichtung Zeit
1 Clear 20 1011 88 14484 2.1 10 08:38 14.07.2020
2 Clear 20 1011 88 14484 2.1 10 08:20 14.07.2020
3 Clear 21 1011 93 14484 2.6 20 07:44 14.07.2020
4 Clear 21 1011 88 14484 3.1 10 07:19 14.07.2020
5 Clear 21 1011 88 14484 3.1 10 06:58 14.07.2020
6 Clouds 21 1011 83 14484 4.1 360 06:27 14.07.2020
7 Clouds 21 1011 83 14484 4.1 360 05:50 14.07.2020
8 Clouds 22 1011 73 14484 3.6 10 04:52 14.07.2020
9 Clouds 22 1011 73 14484 3.6 10 04:33 14.07.2020
10 Clouds 24 1009 60 24140 4.6 300 03:29 14.07.2020
11 Clouds 26 1009 57 14484 5.1 250 02:29 14.07.2020
12 Clear 27 1008 47 14484 3.6 290 01:41 14.07.2020
13 Clear 27 1008 47 14484 3.6 290 01:23 14.07.2020
14 Clouds 27 1008 45 14484 4.1 250 00:43 14.07.2020
15 Clouds 28 1008 45 14484 4.1 250 00:23 14.07.2020
16 Clouds 27 1007 51 14484 3.6 290 23:39 13.07.2020
17 Clouds 27 1007 51 14484 3.6 290 23:20 13.07.2020
18 Clouds 27 1007 54 14484 5.7 320 22:57 13.07.2020
19 Clouds 27 1007 51 11265 4.1 270 22:39 13.07.2020
20 Clouds 27 1007 51 11265 4.1 270 22:19 13.07.2020
21 Clouds 27 1007 48 14484 6.2 230 21:55 13.07.2020
22 Clouds 28 1007 48 14484 6.2 230 21:36 13.07.2020
23 Clouds 28 1007 48 14484 5.7 240 21:18 13.07.2020
24 Clouds 28 1007 48 14484 5.7 240 20:54 13.07.2020
25 Clouds 28 1007 48 14484 5.7 240 20:54 13.07.2020
26 Clouds 28 1007 48 14484 5.7 240 20:36 13.07.2020
27 Clouds 27 1007 50 14484 3.6 310 20:18 13.07.2020
28 Clouds 27 1008 47 32767 5.7 280 19:42 13.07.2020
29 Clouds 27 1007 50 14484 3.6 310 19:23 13.07.2020
30 Clouds 27 1008 50 14484 2.6 290 18:57 13.07.2020
31 Clouds 26 1008 50 14484 2.6 290 18:38 13.07.2020
32 Clouds 26 1008 53 14484 2.1 280 18:19 13.07.2020
33 Clouds 25 1008 53 14484 2.1 280 17:55 13.07.2020
34 Clouds 26 1008 53 14484 2.1 280 17:37 13.07.2020
35 Clear 25 1008 64 14484 1.5 340 17:18 13.07.2020
36 Clear 25 1008 64 14484 1.5 340 16:42 13.07.2020
37 Clear 25 1008 64 14484 1.5 340 16:42 13.07.2020
38 Clear 24 1008 64 14484 1.5 340 16:21 13.07.2020
39 Clouds 23 1008 68 14484 2.6 350 15:58 13.07.2020
40 Clouds 23 1008 68 14484 2.6 350 15:39 13.07.2020
41 Clouds 22 1008 68 14484 2.6 350 15:20 13.07.2020
42 Clouds 21 1008 73 14484 2.1 310 14:58 13.07.2020
43 Clouds 21 1008 73 14484 2.1 310 14:58 13.07.2020
44 Clouds 21 1008 73 14484 2.1 310 14:39 13.07.2020
45 Clouds 21 1008 73 14484 2.1 310 14:20 13.07.2020
46 Clouds 21 1007 73 14484 2.6 320 13:55 13.07.2020
47 Clouds 20 1007 73 14484 2.6 320 13:37 13.07.2020
48 Clouds 20 1007 72 14484 3.1 310 13:19 13.07.2020
49 Clouds 20 1007 72 14484 3.1 310 12:43 13.07.2020
50 Clouds 20 1007 72 14484 3.1 310 12:22 13.07.2020
51 Clouds 20 1006 82 14484 2.6 330 11:56 13.07.2020
52 Clouds 20 1006 82 14484 2.6 330 11:36 13.07.2020
53 Clouds 20 1006 77 14484 2.1 330 11:18 13.07.2020
54 Clouds 20 1006 77 14484 2.1 330 10:38 13.07.2020
55 Clouds 20 1006 77 14484 2.1 330 10:20 13.07.2020
56 Clouds 20 1006 77 14484 2.6 350 09:43 13.07.2020
57 Clouds 21 1006 77 14484 2.6 350 09:24 13.07.2020
58 Clouds 21 1006 73 14484 2.1 330 08:53 13.07.2020
59 Clouds 21 1006 73 14484 2.1 330 08:34 13.07.2020
60 Clouds 21 1006 73 14484 2.6 350 07:42 13.07.2020
61 Clouds 22 1006 73 14484 2.6 330 07:19 13.07.2020
62 Clouds 22 1006 73 14484 2.6 330 06:42 13.07.2020
63 Clouds 22 1006 73 14484 2.6 330 06:22 13.07.2020
64 Clear 23 1005 73 14484 2.1 330 04:37 13.07.2020
65 Clouds 25 1004 57 32767 6.2 290 01:57 13.07.2020
66 Clouds 26 1003 57 14484 5.7 290 01:28 13.07.2020
67 Clouds 27 1003 57 14484 6.2 280 00:59 13.07.2020
68 Clouds 27 1003 57 14484 6.2 280 00:27 13.07.2020
69 Clouds 27 1003 57 14484 5.7 270 23:58 12.07.2020
70 Clouds 27 1002 57 14484 7.2 270 23:40 12.07.2020
71 Clouds 27 1002 57 14484 7.2 270 23:21 12.07.2020
72 Clouds 28 1001 58 14484 7.7 260 22:54 12.07.2020
73 Clouds 28 1001 58 14484 7.7 260 22:36 12.07.2020
74 Clouds 28 1001 58 14484 7.7 260 22:36 12.07.2020
75 Clouds 28 1001 58 14484 8.7 270 22:18 12.07.2020
76 Clouds 28 1001 58 14484 8.7 270 21:42 12.07.2020
77 Clouds 28 1001 58 14484 8.7 270 21:20 12.07.2020
78 Clouds 27 1000 65 14484 8.2 270 20:59 12.07.2020
79 Clouds 28 1000 65 14484 8.2 270 20:41 12.07.2020
80 Clouds 27 1000 65 14484 8.2 270 20:20 12.07.2020
81 Clouds 27 1000 78 14484 5.1 280 19:58 12.07.2020
82 Clouds 27 1000 78 14484 5.1 280 19:39 12.07.2020
83 Clouds 27 1000 78 14484 5.1 280 19:39 12.07.2020
84 Clouds 27 1000 88 14484 5.1 250 19:18 12.07.2020
85 Rain 26 1000 88 12874 8.2 250 18:43 12.07.2020
86 Rain 26 1000 88 12874 8.2 250 18:43 12.07.2020
87 Rain 25 1000 88 12874 8.2 250 18:21 12.07.2020
88 Rain 26 999 83 11265 7.2 220 17:58 12.07.2020
89 Rain 26 999 83 11265 7.2 220 17:37 12.07.2020
90 Rain 26 999 83 11265 7.2 220 17:19 12.07.2020
91 Clouds 26 999 74 14484 7.7 230 16:45 12.07.2020
92 Clouds 26 999 74 14484 7.7 230 16:21 12.07.2020
93 Clouds 25 999 74 14484 5.7 270 15:46 12.07.2020
94 Clouds 25 999 74 14484 5.7 270 15:27 12.07.2020
95 Clouds 24 999 78 14484 4.6 270 14:57 12.07.2020
96 Clouds 24 998 83 14484 5.1 270 14:38 12.07.2020
97 Clouds 23 998 94 14484 2.6 250 14:19 12.07.2020
98 Clouds 23 998 94 14484 2.6 250 14:19 12.07.2020
99 Clouds 23 998 94 14484 2.6 250 13:39 12.07.2020
100 Clouds 23 998 94 14484 2.6 250 13:21 12.07.2020
101 Clouds 23 997 100 14484 3.1 270 12:55 12.07.2020
102 Clouds 22 997 100 14484 3.1 270 12:36 12.07.2020
103 Clouds 22 997 100 11265 2.1 200 12:18 12.07.2020
104 Clouds 22 998 100 12874 2.6 220 11:44 12.07.2020
105 Clouds 22 998 100 12874 2.6 220 11:20 12.07.2020
106 Clouds 22 998 100 14484 2.6 220 10:43 12.07.2020
107 Clouds 22 998 100 14484 2.6 220 10:23 12.07.2020
108 Clouds 22 997 100 14484 2.1 210 09:58 12.07.2020
109 Clouds 22 997 100 14484 2.1 210 09:40 12.07.2020
110 Clouds 22 997 100 14484 2.1 210 09:20 12.07.2020
111 Clear 22 998 94 14484 2.1 190 08:54 12.07.2020
112 Clear 22 998 94 14484 2.1 190 08:36 12.07.2020
113 Clouds 22 998 100 14484 2.1 200 08:18 12.07.2020
114 Clouds 22 998 100 14484 2.1 200 07:42 12.07.2020
115 Rain 23 999 100 14484 2.6 200 07:22 12.07.2020
116 Clouds 23 999 100 14484 2.6 180 06:51 12.07.2020
117 Clouds 23 999 100 14484 2.1 170 06:21 12.07.2020
118 Clouds 23 999 100 14484 2.1 170 05:42 12.07.2020
119 Clouds 23 999 100 14484 2.6 220 04:57 12.07.2020
120 Rain 23 1000 94 14484 4.6 170 04:28 12.07.2020
121 Rain 25 1000 78 14484 3.6 220 03:36 12.07.2020
122 Clouds 25 999 88 24140 4.1 220 02:55 12.07.2020
123 Clouds 26 999 78 14484 3.6 230 01:46 12.07.2020
124 Clouds 27 999 74 14484 5.1 240 00:54 12.07.2020
125 Clouds 27 999 74 14484 5.1 240 00:23 12.07.2020
126 Clouds 27 999 69 14484 6.7 220 23:58 11.07.2020
127 Clouds 27 999 69 14484 6.7 220 23:39 11.07.2020
128 Clouds 27 999 69 14484 6.7 220 23:20 11.07.2020
129 Clouds 27 999 69 14484 7.2 240 22:55 11.07.2020
130 Clouds 27 999 74 14484 7.2 240 22:37 11.07.2020
131 Clouds 27 999 74 14484 7.2 240 22:37 11.07.2020
132 Clouds 26 999 88 14484 6.2 220 22:18 11.07.2020
133 Clouds 26 999 88 14484 6.2 220 21:42 11.07.2020
134 Clouds 25 999 88 14484 6.2 220 21:23 11.07.2020
135 Clouds 25 999 94 14484 4.1 210 20:58 11.07.2020
136 Rain 24 999 100 4828 5.1 190 20:39 11.07.2020
137 Rain 24 999 100 4828 5.1 190 20:39 11.07.2020
138 Rain 24 999 100 4828 5.1 190 20:21 11.07.2020
139 Rain 24 999 94 14484 4.1 140 19:58 11.07.2020
140 Rain 24 999 94 9656 3.6 110 19:40 11.07.2020
141 Rain 23 999 94 9656 3.6 110 19:21 11.07.2020
142 Rain 23 1000 100 8047 5.1 110 18:56 11.07.2020
143 Rain 23 1000 100 6437 3.1 120 18:37 11.07.2020
144 Rain 24 1001 94 6437 2.1 160 18:19 11.07.2020
145 Rain 24 1001 94 6437 3.6 120 17:43 11.07.2020
146 Rain 24 1001 94 6437 3.6 120 17:22 11.07.2020
147 Rain 24 1001 88 8047 3.1 70 16:59 11.07.2020
148 Clouds 25 1001 74 14484 4.1 60 16:39 11.07.2020
149 Clouds 25 1001 74 14484 4.1 60 16:20 11.07.2020
150 Clouds 25 1002 74 14484 5.1 60 15:57 11.07.2020
151 Clouds 25 1002 74 14484 5.1 60 15:38 11.07.2020
152 Clouds 25 1002 74 14484 5.1 60 15:19 11.07.2020
153 Clouds 26 1003 74 14484 5.1 80 14:55 11.07.2020
154 Clouds 25 1003 74 14484 5.1 80 14:36 11.07.2020
155 Clouds 24 1004 88 14484 4.1 30 14:18 11.07.2020
156 Clouds 24 1004 88 14484 4.1 30 13:41 11.07.2020
157 Clouds 24 1004 88 14484 4.1 30 13:21 11.07.2020
158 Clouds 23 1005 83 14484 3.6 80 12:55 11.07.2020
159 Clouds 23 1005 83 14484 3.6 80 12:37 11.07.2020
160 Clouds 23 1005 83 14484 4.6 70 12:18 11.07.2020
161 Rain 23 1005 78 14484 4.1 80 11:41 11.07.2020
162 Rain 23 1005 78 14484 4.1 80 11:21 11.07.2020
163 Clouds 24 1006 83 14484 2.6 70 10:56 11.07.2020
164 Clouds 24 1006 83 14484 2.6 70 10:38 11.07.2020
165 Clouds 24 1006 83 14484 2.6 70 10:19 11.07.2020
166 Clouds 25 1007 69 14484 2.6 100 09:39 11.07.2020
167 Clouds 25 1007 69 14484 2.6 100 09:20 11.07.2020
168 Clouds 25 1008 65 14484 4.1 130 08:46 11.07.2020
169 Clouds 25 1008 65 14484 4.1 130 08:28 11.07.2020
170 Clouds 26 1008 65 14484 5.1 130 07:56 11.07.2020
171 Clouds 26 1008 65 14484 5.1 130 07:36 11.07.2020
172 Clouds 27 1009 69 14484 3.6 130 07:18 11.07.2020
173 Clouds 27 1009 69 14484 3.6 130 06:27 11.07.2020
174 Clear 27 1010 65 14484 3.1 160 05:54 11.07.2020
175 Clear 28 1010 65 14484 3.1 160 05:19 11.07.2020
176 Clear 29 1010 58 14484 4.6 160 04:50 11.07.2020
177 Clear 29 1010 58 14484 4.6 160 04:20 11.07.2020
178 Clear 29 1010 58 14484 4.6 160 04:20 11.07.2020
179 Clear 31 1009 55 14484 4.6 180 02:55 11.07.2020
180 Clear 31 1009 55 14484 4.6 180 02:35 11.07.2020
181 Clear 33 1009 52 14484 4.6 180 01:27 11.07.2020
182 Clear 33 1010 44 14484 6.2 190 00:58 11.07.2020
183 Clear 34 1010 44 14484 6.2 190 00:38 11.07.2020
184 Clear 34 1011 39 14484 7.7 160 00:19 11.07.2020
185 Clear 34 1011 39 14484 7.7 160 23:56 10.07.2020
186 Clear 34 1011 39 14484 7.7 160 23:38 10.07.2020
187 Clear 35 1011 47 14484 5.1 160 23:18 10.07.2020
188 Clear 35 1011 47 14484 5.1 160 22:42 10.07.2020
189 Clear 35 1011 47 14484 5.1 160 22:19 10.07.2020
190 Clear 35 1012 47 14484 5.1 190 21:40 10.07.2020
191 Clear 35 1012 47 14484 5.1 190 21:21 10.07.2020
192 Clear 35 1012 49 14484 4.1 160 20:59 10.07.2020
193 Clear 35 1012 49 14484 4.1 160 20:40 10.07.2020
194 Clear 35 1012 49 14484 4.1 160 20:21 10.07.2020
195 Clear 35 1013 46 14484 5.1 170 19:57 10.07.2020
196 Clear 34 1013 46 14484 5.1 170 19:39 10.07.2020
197 Clear 34 1013 55 14484 4.1 150 19:19 10.07.2020
198 Clear 33 1013 55 14484 4.1 150 18:41 10.07.2020
199 Clear 32 1014 59 14484 3.6 190 18:20 10.07.2020
200 Clear 32 1014 59 14484 3.6 190 17:57 10.07.2020
201 Clear 32 1014 59 14484 3.6 190 17:38 10.07.2020
202 Clear 32 1014 59 14484 3.6 190 17:20 10.07.2020
203 Clear 31 1014 66 14484 3.6 170 16:42 10.07.2020
204 Clear 32 1014 66 14484 3.6 170 16:20 10.07.2020
205 Clear 31 1014 70 14484 3.1 150 15:47 10.07.2020
206 Clear 29 1014 70 14484 3.1 150 15:26 10.07.2020
207 Clear 27 1014 74 14484 3.1 180 14:56 10.07.2020
208 Clear 28 1014 74 14484 3.1 180 14:38 10.07.2020
209 Clear 27 1014 74 14484 3.1 180 14:20 10.07.2020
210 Clear 27 1014 78 14484 3.1 170 13:57 10.07.2020
211 Clear 26 1014 78 14484 3.1 170 13:38 10.07.2020
212 Clear 25 1014 78 14484 3.1 170 13:20 10.07.2020
213 Clear 24 1014 88 14484 2.6 180 12:55 10.07.2020
214 Clear 24 1014 88 14484 2.6 180 12:37 10.07.2020
215 Clear 24 1014 88 14484 1 160 12:18 10.07.2020
216 Clear 24 1014 88 14484 1 160 11:39 10.07.2020
217 Clear 24 1013 88 14484 1.5 140 11:19 10.07.2020
218 Clear 25 1013 88 14484 1.5 140 10:56 10.07.2020
219 Clear 25 1013 88 14484 1.5 140 10:38 10.07.2020
220 Clear 25 1013 83 14484 1.5 140 10:18 10.07.2020
221 Clear 25 1013 83 14484 1.5 140 09:40 10.07.2020
222 Clear 25 1013 83 14484 1.5 140 09:22 10.07.2020
223 Clear 25 1013 83 14484 1.5 120 08:58 10.07.2020
224 Clear 26 1013 83 14484 1.5 120 08:40 10.07.2020
225 Clear 26 1013 61 24140 2.1 150 08:22 10.07.2020
226 Clear 26 1013 78 14484 0.92 125 07:44 10.07.2020
227 Clear 27 1013 78 14484 1.41 157 07:23 10.07.2020
228 Clear 27 1013 58 24140 3.1 180 06:52 10.07.2020
229 Clear 27 1013 58 24140 3.1 180 06:32 10.07.2020
230 Clouds 28 1013 54 24140 3.6 160 05:20 10.07.2020
231 Clear 29 1012 62 14484 2.1 180 03:44 10.07.2020
232 Clear 31 1012 55 14484 3.6 160 02:53 10.07.2020
233 Clear 32 1012 55 14484 4.1 150 01:57 10.07.2020
234 Clear 33 1012 46 14484 4.6 180 00:54 10.07.2020
235 Clouds 34 1012 52 14484 4.6 170 00:22 10.07.2020
236 Clouds 34 1012 52 14484 4.6 170 23:55 09.07.2020
237 Clouds 34 1012 52 14484 4.6 170 23:37 09.07.2020
238 Clouds 33 1013 52 14484 5.1 170 23:18 09.07.2020
239 Clouds 33 1013 52 14484 5.1 170 22:56 09.07.2020
240 Clouds 33 1013 52 14484 5.1 170 22:38 09.07.2020
241 Clouds 33 1013 52 14484 5.1 170 22:19 09.07.2020
242 Clear 34 1013 55 14484 4.6 160 21:39 09.07.2020
243 Clear 34 1013 55 14484 4.6 160 21:20 09.07.2020
244 Clouds 34 1013 52 14484 4.1 180 20:59 09.07.2020
245 Clouds 33 1013 52 14484 4.1 180 20:40 09.07.2020
246 Clouds 33 1013 52 14484 4.1 180 20:22 09.07.2020
247 Clear 32 1013 62 14484 3.6 190 19:43 09.07.2020
248 Clear 32 1013 62 14484 3.6 190 19:22 09.07.2020
249 Clear 32 1014 66 14484 4.1 150 18:57 09.07.2020
250 Clear 32 1014 66 14484 4.1 150 18:39 09.07.2020
251 Clear 30 1014 70 14484 3.1 160 18:19 09.07.2020
252 Clear 30 1014 70 14484 3.1 160 17:43 09.07.2020
253 Clear 30 1014 70 14484 3.1 160 17:23 09.07.2020
254 Clear 29 1014 69 14484 2.6 190 16:58 09.07.2020
255 Clear 29 1014 69 14484 2.6 190 16:38 09.07.2020
256 Clear 29 1014 69 14484 2.6 190 16:19 09.07.2020
257 Clear 28 1014 69 14484 3.1 170 15:58 09.07.2020
258 Clear 28 1014 69 14484 3.1 170 15:38 09.07.2020
259 Clear 25 1014 83 14484 3.1 160 15:18 09.07.2020
260 Clear 25 1014 83 14484 3.1 160 14:58 09.07.2020
261 Clear 25 1014 83 14484 3.1 160 14:39 09.07.2020
262 Clear 25 1014 83 14484 3.1 160 14:20 09.07.2020
263 Clear 24 1014 94 14484 2.1 140 13:56 09.07.2020
264 Clear 24 1014 94 14484 2.1 140 13:38 09.07.2020
265 Clouds 22 1013 94 24140 2.1 140 13:19 09.07.2020
266 Mist 22 1013 100 9656 2.6 160 12:42 09.07.2020
267 Mist 21 1013 100 9656 2.6 160 12:23 09.07.2020
268 Mist 21 1013 100 9656 2.6 160 11:57 09.07.2020
269 Clouds 21 1013 88 24140 2.6 140 11:39 09.07.2020
270 Clear 21 1012 88 24140 1.5 200 11:19 09.07.2020
271 Clear 21 1012 88 24140 1.5 200 10:56 09.07.2020
272 Clear 21 1012 88 24140 1.5 200 10:38 09.07.2020
273 Clear 21 1012 88 24140 2.1 110 10:19 09.07.2020
274 Clear 21 1012 100 14484 1.5 140 09:43 09.07.2020
275 Clear 22 1012 88 24140 2.1 110 09:23 09.07.2020
276 Clear 22 1012 100 14484 1.5 160 08:52 09.07.2020
277 Clear 22 1012 83 24140 2.1 140 08:27 09.07.2020
278 Clear 22 1012 94 14484 2.1 140 07:56 09.07.2020
279 Clear 23 1012 94 14484 2.1 140 07:38 09.07.2020
280 Clear 23 1012 100 14484 2.6 130 07:20 09.07.2020
281 Clear 23 1012 83 24140 1 0 06:21 09.07.2020
282 Clear 24 1012 100 14484 2.1 150 05:53 09.07.2020
283 Clear 24 1012 88 14484 2.6 140 04:29 09.07.2020
284 Clear 26 1011 78 14484 2.6 180 03:22 09.07.2020
285 Clear 28 1011 69 14484 4.6 160 01:56 09.07.2020
286 Clear 28 1011 65 14484 3.6 130 01:19 09.07.2020
287 Clear 29 1011 65 14484 3.6 130 00:41 09.07.2020
288 Clear 29 1011 69 14484 1.5 260 00:22 09.07.2020
289 Clear 28 1011 69 14484 1.5 260 23:43 08.07.2020
290 Clear 29 1011 69 14484 1.5 260 23:25 08.07.2020
291 Clouds 29 1011 65 24140 2.6 210 22:56 08.07.2020
292 Clear 28 1011 78 14484 2.1 80 22:38 08.07.2020
293 Clear 28 1011 78 14484 2.1 80 22:38 08.07.2020
294 Clear 26 1011 78 14484 2.1 80 22:20 08.07.2020
295 Clear 26 1011 78 14484 2.1 80 22:20 08.07.2020
296 Clear 25 1011 83 14484 2.1 0 21:56 08.07.2020
297 Thunderstorm 24 1011 88 11265 3.1 320 21:37 08.07.2020
298 Thunderstorm 24 1011 88 11265 3.1 320 21:37 08.07.2020
299 Thunderstorm 23 1011 88 11265 3.1 320 21:19 08.07.2020
300 Thunderstorm 28 1011 62 14484 3.1 300 20:42 08.07.2020
301 Thunderstorm 28 1011 62 14484 3.1 300 20:24 08.07.2020
302 Clouds 29 1011 66 14484 3.1 340 19:57 08.07.2020
303 Rain 29 1012 58 24140 4.1 220 19:38 08.07.2020
304 Rain 29 1011 74 14484 2.6 270 19:20 08.07.2020
305 Rain 28 1011 69 14484 3.6 220 18:42 08.07.2020
306 Rain 28 1011 69 14484 3.6 220 18:21 08.07.2020
307 Clouds 28 1012 74 14484 3.6 210 17:58 08.07.2020
308 Clouds 27 1012 74 14484 3.6 210 17:39 08.07.2020
309 Clouds 27 1012 74 14484 3.6 210 17:21 08.07.2020
310 Clouds 26 1012 83 14484 3.1 190 16:58 08.07.2020
311 Clouds 26 1012 83 14484 3.1 190 16:38 08.07.2020
312 Clouds 25 1012 88 14484 4.6 170 16:19 08.07.2020
313 Clouds 25 1012 88 14484 4.6 170 15:58 08.07.2020
314 Clouds 24 1012 88 14484 4.6 170 15:38 08.07.2020
315 Clouds 24 1012 88 14484 4.6 170 15:19 08.07.2020
316 Clouds 24 1012 94 14484 3.6 190 14:44 08.07.2020
317 Clouds 24 1012 94 14484 3.6 190 14:25 08.07.2020
318 Mist 23 1012 100 9656 2.6 180 13:58 08.07.2020
319 Clouds 22 1012 100 11265 4.6 160 13:40 08.07.2020
320 Clouds 22 1013 94 14484 2.6 170 13:19 08.07.2020
321 Rain 22 1013 94 14484 2.6 130 12:42 08.07.2020
322 Rain 22 1013 100 14484 1 0 12:20 08.07.2020
323 Rain 22 1013 100 14484 1 0 11:56 08.07.2020
324 Thunderstorm 22 1013 94 6437 4.1 300 11:38 08.07.2020
325 Thunderstorm 22 1013 94 6437 4.1 300 11:19 08.07.2020
326 Clouds 23 1012 94 14484 3.1 160 10:43 08.07.2020
327 Clouds 23 1012 94 14484 3.1 160 10:24 08.07.2020
328 Thunderstorm 23 1012 78 14484 3.1 210 09:46 08.07.2020
329 Thunderstorm 24 1012 78 14484 3.1 210 09:25 08.07.2020
330 Clouds 24 1012 73 14484 4.6 180 08:57 08.07.2020
331 Clouds 24 1012 73 14484 4.6 180 08:38 08.07.2020
332 Clouds 24 1012 73 14484 4.6 180 08:19 08.07.2020
333 Clouds 25 1012 73 14484 4.6 190 07:43 08.07.2020
334 Clouds 25 1012 73 14484 4.6 190 07:22 08.07.2020
335 Clouds 25 1012 69 14484 5.1 190 06:46 08.07.2020
336 Clouds 25 1012 69 14484 5.1 190 06:28 08.07.2020
337 Thunderstorm 25 1012 69 14484 5.1 190 05:49 08.07.2020
338 Thunderstorm 26 1012 65 14484 5.1 180 04:50 08.07.2020
339 Clouds 27 1012 65 14484 5.1 170 04:19 08.07.2020
340 Clear 30 1012 54 14484 5.7 170 02:19 08.07.2020
341 Clear 31 1012 51 14484 4.6 170 01:38 08.07.2020
342 Clear 31 1012 46 14484 7.2 190 00:56 08.07.2020
343 Clear 32 1012 46 14484 7.2 190 00:22 08.07.2020
344 Clear 33 1012 40 14484 7.7 180 23:44 07.07.2020
345 Clear 33 1012 40 14484 7.7 180 23:22 07.07.2020
346 Clear 33 1012 40 14484 7.7 180 23:22 07.07.2020
347 Clear 33 1013 38 14484 5.7 170 22:58 07.07.2020
348 Clear 33 1013 38 14484 5.7 170 22:39 07.07.2020
349 Clear 33 1013 38 14484 5.7 170 22:20 07.07.2020
350 Clear 32 1014 40 14484 6.7 180 21:58 07.07.2020
351 Clear 32 1014 40 14484 6.7 180 21:38 07.07.2020
352 Clear 32 1014 40 14484 6.7 180 21:38 07.07.2020
353 Clear 32 1014 40 14484 6.7 180 21:38 07.07.2020
354 Clear 32 1014 40 14484 6.7 180 21:19 07.07.2020
355 Clear 32 1015 45 14484 6.7 200 20:55 07.07.2020
356 Clear 31 1015 45 14484 6.7 200 20:36 07.07.2020
357 Clear 30 1015 48 14484 5.7 210 20:18 07.07.2020
358 Clear 30 1015 48 14484 5.7 210 20:18 07.07.2020
359 Clear 31 1015 48 14484 5.7 210 19:39 07.07.2020
360 Clear 31 1016 48 14484 5.1 170 19:20 07.07.2020
361 Clear 30 1016 48 14484 5.1 170 18:55 07.07.2020
362 Clear 30 1016 48 14484 5.1 170 18:37 07.07.2020
363 Clear 28 1016 51 14484 5.7 170 18:19 07.07.2020
364 Clear 28 1016 51 14484 5.7 170 17:56 07.07.2020
365 Clear 28 1016 51 14484 5.7 170 17:37 07.07.2020
366 Clear 28 1016 51 14484 5.7 170 17:19 07.07.2020
367 Clouds 26 1016 65 0 3.6 162 16:42 07.07.2020
368 Clouds 25 1017 64 14484 4.6 170 16:23 07.07.2020
369 Clouds 25 1017 64 14484 4.6 170 16:23 07.07.2020
370 Clouds 26 1017 64 14484 4.6 170 15:56 07.07.2020
371 Clouds 25 1017 64 14484 4.6 170 15:37 07.07.2020
372 Clouds 22 1017 64 14484 4.6 170 15:19 07.07.2020
373 Clear 22 1018 64 14484 3.1 160 14:46 07.07.2020
374 Clear 21 1018 64 14484 3.1 160 14:24 07.07.2020
375 Clear 21 1018 68 14484 2.1 130 13:46 07.07.2020
376 Clear 19 1018 68 14484 2.1 130 13:21 07.07.2020
377 Clouds 19 1017 72 32767 3.1 90 12:58 07.07.2020
378 Clouds 18 1017 72 32767 3.1 90 12:40 07.07.2020
379 Clouds 18 1017 77 24140 3.6 30 12:21 07.07.2020
380 Clouds 18 1017 77 24140 3.6 30 11:48 07.07.2020
381 Clouds 18 1017 77 24140 3.6 30 11:24 07.07.2020
382 Clouds 18 1017 63 24140 3.1 30 10:59 07.07.2020
383 Clouds 18 1017 63 24140 3.1 30 10:41 07.07.2020
384 Clouds 19 1017 55 24140 1.5 30 10:21 07.07.2020
385 Clear 19 1017 72 14484 1 0 09:55 07.07.2020
386 Clear 19 1017 72 14484 1 0 09:37 07.07.2020
387 Clear 20 1018 68 14484 1 140 09:18 07.07.2020
388 Clear 20 1018 68 14484 1 140 08:40 07.07.2020
389 Clear 20 1018 68 14484 1 140 08:21 07.07.2020
390 Clear 21 1017 46 24140 1.5 0 07:41 07.07.2020
391 Clear 21 1018 60 14484 1 140 07:21 07.07.2020
392 Clear 22 1018 60 14484 1 140 06:49 07.07.2020
393 Clear 22 1018 60 14484 1 140 06:28 07.07.2020
394 Clear 23 1018 56 14484 2.1 140 05:51 07.07.2020
395 Clear 23 1018 56 14484 2.1 140 05:20 07.07.2020
396 Clear 24 1018 44 14484 1.5 170 04:38 07.07.2020
397 Clear 25 1017 41 14484 2.6 190 03:35 07.07.2020
398 Clear 28 1017 34 14484 2.6 130 02:21 07.07.2020
399 Clouds 29 1017 30 14484 3.1 130 01:22 07.07.2020
400 Clouds 30 1017 28 14484 3.6 110 00:42 07.07.2020
401 Clouds 29 1017 28 14484 3.6 110 00:23 07.07.2020
402 Clear 30 1017 28 14484 3.1 140 23:46 06.07.2020
403 Clear 30 1017 28 14484 3.1 140 23:26 06.07.2020
404 Clouds 29 1018 27 14484 1.5 0 22:59 06.07.2020
405 Clouds 29 1018 27 14484 1.5 0 22:40 06.07.2020
406 Clouds 29 1018 27 14484 1.5 0 22:19 06.07.2020
407 Clear 30 1018 28 14484 1 0 21:57 06.07.2020
408 Clear 30 1018 28 14484 1 0 21:38 06.07.2020
409 Clear 30 1018 28 14484 1 0 21:19 06.07.2020
410 Clear 29 1018 30 14484 1 0 20:57 06.07.2020
411 Clear 29 1018 30 14484 1 0 20:37 06.07.2020
412 Clouds 29 1019 36 14484 2.65 184 20:19 06.07.2020
413 Clouds 29 1019 30 32767 3.1 190 19:56 06.07.2020
414 Clouds 29 1019 30 32767 3.1 190 19:37 06.07.2020
415 Clear 28 1019 44 14484 1.5 0 19:18 06.07.2020
416 Clear 28 1019 44 14484 1.5 0 18:41 06.07.2020
417 Clear 27 1019 47 14484 2.1 0 18:23 06.07.2020
418 Clear 26 1019 47 14484 2.1 0 17:59 06.07.2020
419 Clear 26 1019 47 14484 2.1 0 17:40 06.07.2020
420 Clear 26 1019 47 14484 2.1 0 17:20 06.07.2020
421 Clear 25 1019 53 14484 1 0 16:44 06.07.2020
422 Clear 25 1019 53 14484 1 0 16:25 06.07.2020
423 Clear 23 1019 64 14484 1.21 92 15:59 06.07.2020
424 Clear 23 1019 64 14484 1.21 92 15:41 06.07.2020
425 Clear 22 1019 64 14484 1.37 60 15:23 06.07.2020
426 Clear 21 1018 72 14484 1 0 14:55 06.07.2020
427 Clear 20 1018 72 14484 1 0 14:37 06.07.2020
428 Clear 18 1018 88 14484 2.1 50 14:18 06.07.2020
429 Clear 18 1018 88 14484 2.1 50 13:44 06.07.2020
430 Clear 17 1018 88 14484 2.1 50 13:26 06.07.2020
431 Clouds 17 1018 82 24140 2.1 10 12:56 06.07.2020
432 Clear 16 1018 93 14484 1.5 10 12:38 06.07.2020
433 Clear 16 1017 87 14484 1 290 12:18 06.07.2020
434 Clear 15 1017 87 14484 1 290 11:57 06.07.2020
435 Clear 16 1017 87 14484 1 290 11:37 06.07.2020
436 Clear 16 1017 82 14484 2.1 50 11:18 06.07.2020
437 Clear 16 1017 82 14484 2.1 50 10:42 06.07.2020
438 Clear 16 1017 82 14484 2.1 50 10:42 06.07.2020
439 Clear 16 1016 82 14484 1.38 22 10:21 06.07.2020
440 Clear 16 1016 82 14484 1.38 22 09:56 06.07.2020
441 Clear 16 1016 82 14484 1.38 22 09:38 06.07.2020
442 Clear 16 1016 82 14484 1.41 25 09:20 06.07.2020
443 Clear 17 1016 82 14484 1.3 24 08:42 06.07.2020
444 Clear 17 1016 82 14484 1.56 37 08:24 06.07.2020
445 Clear 17 1016 72 14484 1 0 07:58 06.07.2020
446 Clear 17 1016 72 14484 1 0 07:40 06.07.2020
447 Clear 17 1016 72 14484 1 0 07:21 06.07.2020
448 Clear 18 1016 72 14484 1.91 33 06:39 06.07.2020
449 Clear 19 1015 68 14484 2.08 21 06:20 06.07.2020
450 Clear 19 1015 68 14484 2.39 15 05:33 06.07.2020
451 Clear 20 1015 63 14484 1 50 04:52 06.07.2020
452 Clear 22 1014 56 14484 2.6 360 03:26 06.07.2020
453 Clouds 24 1014 50 14484 3.6 50 02:22 06.07.2020
454 Clouds 25 1013 47 14484 5.7 20 01:26 06.07.2020
455 Clouds 26 1013 44 14484 6.2 20 00:36 06.07.2020
456 Clouds 27 1012 42 14484 5.7 20 00:18 06.07.2020
457 Clouds 26 1012 42 14484 5.7 20 23:41 05.07.2020
458 Clouds 27 1012 42 14484 5.7 20 23:23 05.07.2020
459 Clouds 26 1013 44 14484 5.1 10 22:59 05.07.2020
460 Clouds 26 1013 44 14484 5.1 10 22:40 05.07.2020
461 Clouds 27 1013 44 14484 5.1 10 22:20 05.07.2020
462 Clouds 27 1012 42 14484 2.6 0 21:57 05.07.2020
463 Clouds 27 1012 42 14484 2.6 0 21:38 05.07.2020
464 Clouds 27 1013 39 14484 3.6 60 21:18 05.07.2020
465 Clouds 28 1013 39 14484 3.6 60 20:57 05.07.2020
466 Clouds 28 1013 39 14484 3.6 60 20:38 05.07.2020
467 Clouds 27 1013 39 14484 3.6 60 20:20 05.07.2020
468 Clouds 27 1013 41 14484 3.1 350 19:43 05.07.2020
469 Clouds 27 1013 41 14484 3.1 350 19:43 05.07.2020
470 Clouds 27 1013 41 14484 4.1 360 19:21 05.07.2020
471 Clouds 26 1013 41 14484 4.1 360 18:56 05.07.2020
472 Clouds 26 1013 41 14484 4.1 360 18:37 05.07.2020
473 Clouds 26 1013 41 14484 4.1 360 18:37 05.07.2020
474 Clouds 26 1013 44 32767 2.1 260 18:19 05.07.2020
475 Clouds 26 1013 44 32767 2.1 260 17:43 05.07.2020
476 Clouds 25 1013 50 14484 1.5 0 17:20 05.07.2020
477 Clouds 24 1013 53 32767 3.1 260 16:59 05.07.2020
478 Clouds 24 1013 64 14484 3.6 230 16:41 05.07.2020
479 Clouds 22 1013 64 14484 3.6 230 16:22 05.07.2020
480 Clouds 20 1013 68 14484 4.6 230 15:41 05.07.2020
481 Clouds 20 1013 68 14484 4.6 230 15:20 05.07.2020
482 Clouds 20 1013 64 14484 2.1 210 14:59 05.07.2020
483 Clouds 20 1013 64 14484 2.1 210 14:40 05.07.2020
484 Clouds 20 1013 64 14484 2.1 210 14:20 05.07.2020
485 Clear 20 1013 64 14484 3.1 250 13:41 05.07.2020
486 Clear 20 1013 64 14484 3.1 250 13:23 05.07.2020
487 Clear 20 1013 59 14484 2.1 260 12:46 05.07.2020
488 Clear 19 1013 59 14484 2.1 260 12:26 05.07.2020
489 Clear 18 1012 63 14484 2.6 270 11:58 05.07.2020
490 Clear 18 1012 63 14484 2.6 270 11:39 05.07.2020
491 Clear 19 1012 63 14484 2.6 270 11:21 05.07.2020
492 Clear 19 1012 52 14484 2.6 290 10:58 05.07.2020
493 Clear 19 1012 52 14484 2.6 290 10:39 05.07.2020
494 Clear 20 1012 52 14484 1 270 10:19 05.07.2020
495 Clear 20 1012 52 14484 1 270 09:55 05.07.2020
496 Clear 20 1012 52 14484 1 270 09:37 05.07.2020
497 Clouds 21 1012 46 14484 1.5 320 09:18 05.07.2020
498 Clouds 21 1012 46 14484 1.5 320 08:43 05.07.2020
499 Clouds 21 1012 46 14484 1.5 320 08:25 05.07.2020
500 Clouds 22 1012 43 14484 2.1 320 07:47 05.07.2020
501 Clouds 22 1012 43 14484 2.1 320 07:29 05.07.2020
502 Clouds 23 1012 38 14484 4.6 320 06:50 05.07.2020
503 Clouds 24 1012 41 14484 4.6 330 05:41 05.07.2020
504 Clouds 25 1012 34 14484 5.7 310 03:31 05.07.2020
505 Clouds 27 1012 28 14484 7.7 310 02:43 05.07.2020
506 Clouds 27 1012 28 14484 7.7 310 02:25 05.07.2020
507 Clear 28 1011 26 14484 3.6 240 01:33 05.07.2020
508 Clear 30 1012 25 14484 5.1 280 00:59 05.07.2020
509 Clouds 30 1011 28 14484 5.1 210 00:40 05.07.2020
510 Clear 30 1012 25 14484 2.6 0 00:20 05.07.2020
511 Clear 30 1012 25 14484 2.6 0 23:47 04.07.2020
512 Clear 30 1012 25 14484 2.6 0 23:28 04.07.2020
513 Clear 30 1012 27 14484 4.1 220 22:57 04.07.2020
514 Clear 30 1012 27 14484 4.1 220 22:37 04.07.2020
515 Clear 30 1012 27 14484 4.1 220 22:19 04.07.2020
516 Clear 30 1012 25 14484 3.6 0 21:42 04.07.2020
517 Clear 30 1012 25 14484 3.6 0 21:23 04.07.2020
518 Clear 30 1012 20 14484 3.6 0 20:58 04.07.2020
519 Clear 30 1012 20 14484 3.6 0 20:39 04.07.2020
520 Clear 30 1013 25 14484 4.6 330 20:19 04.07.2020
521 Clear 30 1013 25 14484 4.6 330 19:45 04.07.2020
522 Clear 29 1013 25 14484 4.6 330 19:22 04.07.2020
523 Clear 29 1013 30 14484 3.1 0 18:55 04.07.2020
524 Clear 29 1013 30 14484 3.1 0 18:37 04.07.2020
525 Clear 27 1014 36 14484 2.6 290 18:19 04.07.2020
526 Clear 27 1014 36 14484 2.6 290 17:42 04.07.2020
527 Clear 26 1014 36 14484 2.6 290 17:24 04.07.2020
528 Clear 26 1014 41 14484 1.5 330 16:57 04.07.2020
529 Clear 26 1014 41 14484 1.5 330 16:38 04.07.2020
530 Clear 25 1014 41 14484 1.5 330 16:19 04.07.2020
531 Clear 25 1014 44 14484 3.6 360 15:46 04.07.2020
532 Clear 24 1014 44 14484 3.6 360 15:28 04.07.2020
533 Clouds 23 1014 46 32767 3.1 0 14:59 04.07.2020
534 Clear 23 1013 49 14484 3.1 10 14:38 04.07.2020
535 Clear 22 1013 49 14484 3.1 10 14:19 04.07.2020
536 Clear 21 1013 63 14484 2.26 18 13:58 04.07.2020
537 Clear 20 1013 63 14484 2.26 18 13:40 04.07.2020
538 Clouds 20 1013 67 32767 1.66 16 13:18 04.07.2020
539 Clear 18 1013 77 14484 1.5 70 12:42 04.07.2020
540 Clouds 18 1012 72 24140 1.5 330 12:21 04.07.2020
541 Clear 17 1012 72 14484 1.5 10 11:56 04.07.2020
542 Clear 17 1012 72 14484 1.5 10 11:37 04.07.2020
543 Clouds 18 1012 63 24140 1.5 330 11:19 04.07.2020
544 Clear 18 1012 67 14484 1.5 20 10:41 04.07.2020
545 Clear 18 1012 67 14484 1.5 20 10:22 04.07.2020
546 Clear 18 1012 72 14484 1.5 350 09:58 04.07.2020
547 Clear 18 1012 72 14484 1.5 350 09:58 04.07.2020
548 Clear 19 1012 72 14484 1.5 350 09:37 04.07.2020
549 Clear 19 1012 72 14484 1.5 350 09:19 04.07.2020
550 Clear 19 1012 77 14484 2.1 350 08:47 04.07.2020
551 Clear 20 1012 77 14484 2.1 350 08:28 04.07.2020
552 Clear 20 1011 77 14484 1.5 330 07:49 04.07.2020
553 Clear 20 1011 77 14484 1.5 330 07:31 04.07.2020
554 Clear 21 1011 68 14484 1 0 06:55 04.07.2020
555 Clear 22 1011 68 14484 1 0 06:23 04.07.2020
556 Clouds 24 1011 53 14484 1 210 05:36 04.07.2020
557 Clouds 24 1011 53 14484 1.26 246 04:50 04.07.2020
558 Clouds 27 1011 47 14484 1 0 03:18 04.07.2020
559 Clouds 28 1011 47 14484 1 0 02:26 04.07.2020
560 Clouds 28 1011 39 14484 2.1 50 01:35 04.07.2020
561 Clouds 29 1010 37 14484 4.1 20 00:44 04.07.2020
562 Clouds 30 1010 37 14484 4.1 20 00:25 04.07.2020
563 Clouds 30 1011 37 14484 3.6 30 23:41 03.07.2020
564 Clouds 30 1011 37 14484 3.6 30 23:19 03.07.2020
565 Clear 30 1011 35 14484 4.1 350 22:59 03.07.2020
566 Clear 30 1011 35 14484 4.1 350 22:39 03.07.2020
567 Clear 30 1011 35 14484 4.1 350 22:21 03.07.2020
568 Clouds 30 1011 37 14484 3.6 340 21:54 03.07.2020
569 Clouds 30 1011 37 14484 3.6 340 21:36 03.07.2020
570 Clear 30 1012 37 14484 4.6 0 21:18 03.07.2020
571 Clear 30 1012 37 14484 4.6 0 20:42 03.07.2020
572 Clear 29 1012 37 14484 4.6 0 20:23 03.07.2020
573 Clear 28 1012 45 14484 4.6 20 19:42 03.07.2020
574 Clouds 28 1012 61 14484 4.1 20 19:21 03.07.2020
575 Clouds 28 1012 61 14484 4.1 20 19:21 03.07.2020
576 Clouds 27 1012 61 14484 4.1 20 18:57 03.07.2020
577 Clouds 26 1012 61 14484 4.1 20 18:39 03.07.2020
578 Clouds 26 1012 69 14484 3.1 350 18:21 03.07.2020
579 Clouds 25 1012 69 14484 3.1 350 17:44 03.07.2020
580 Clouds 25 1012 69 14484 3.1 350 17:23 03.07.2020
581 Clouds 24 1012 73 14484 3.1 20 16:58 03.07.2020
582 Clouds 23 1012 73 14484 3.1 20 16:39 03.07.2020
583 Clouds 23 1012 73 14484 3.1 20 16:19 03.07.2020
584 Clear 21 1013 77 14484 3.6 10 15:39 03.07.2020
585 Clear 21 1013 77 14484 3.6 10 15:20 03.07.2020
586 Clouds 20 1012 82 14484 4.6 10 14:55 03.07.2020
587 Clouds 20 1012 82 14484 4.6 10 14:36 03.07.2020
588 Clouds 20 1012 82 14484 4.6 10 14:36 03.07.2020
589 Clear 19 1012 82 14484 3.1 20 14:18 03.07.2020
590 Clear 19 1012 82 14484 3.1 20 13:41 03.07.2020
591 Clear 19 1012 82 14484 3.1 20 13:22 03.07.2020
592 Clear 18 1011 88 14484 4.1 360 12:43 03.07.2020
593 Clear 18 1011 88 14484 4.1 360 12:22 03.07.2020
594 Clear 18 1011 93 14484 3.6 360 11:54 03.07.2020
595 Clear 18 1011 93 14484 3.6 360 11:36 03.07.2020
596 Clear 18 1011 88 14484 3.1 10 11:18 03.07.2020
597 Clear 18 1011 88 14484 3.1 10 10:42 03.07.2020
598 Clear 18 1011 88 14484 3.1 10 10:21 03.07.2020
599 Clear 19 1010 88 14484 4.1 10 09:59 03.07.2020
600 Clear 19 1010 88 14484 4.1 10 09:40 03.07.2020
601 Clear 19 1010 88 14484 4.1 10 09:21 03.07.2020
602 Clear 20 1010 93 14484 4.6 10 08:57 03.07.2020
603 Clear 20 1010 93 14484 4.6 10 08:38 03.07.2020
604 Clear 21 1010 94 14484 3.6 20 08:18 03.07.2020
605 Clear 21 1010 94 14484 3.6 20 07:43 03.07.2020
606 Clear 22 1010 94 14484 3.6 20 07:22 03.07.2020
607 Clouds 22 1009 94 14484 2.1 20 06:38 03.07.2020
608 Clouds 23 1009 94 14484 1.5 360 05:55 03.07.2020
609 Clouds 23 1009 94 14484 1.5 360 05:55 03.07.2020
610 Clouds 23 1009 94 14484 1.5 360 05:55 03.07.2020
611 Clouds 24 1009 88 14484 1.5 10 04:26 03.07.2020
612 Rain 24 1008 78 14484 1.78 223 02:57 03.07.2020
613 Rain 25 1008 78 12874 2.14 317 02:32 03.07.2020
614 Clouds 25 1008 69 14484 9.3 350 01:51 03.07.2020
615 Clouds 26 1008 69 14484 9.3 350 01:22 03.07.2020
616 Clouds 29 1007 40 14484 3.6 330 00:42 03.07.2020
617 Rain 28 1007 48 14484 4.1 310 00:18 03.07.2020
618 Rain 29 1008 54 24140 4.1 320 23:43 02.07.2020
619 Clouds 30 1007 45 14484 3.1 340 23:20 02.07.2020
620 Clouds 31 1007 45 14484 4.1 310 22:57 02.07.2020
621 Clouds 30 1007 45 14484 4.1 310 22:38 02.07.2020
622 Clouds 29 1007 45 14484 4.1 310 22:20 02.07.2020
623 Clouds 28 1007 54 14484 4.6 290 21:54 02.07.2020
624 Clouds 28 1007 54 14484 4.6 290 21:36 02.07.2020
625 Rain 28 1007 61 24140 4.6 280 21:18 02.07.2020
626 Clouds 28 1008 61 24140 5.7 290 20:42 02.07.2020
627 Clouds 28 1007 51 14484 4.6 300 20:20 02.07.2020
628 Rain 28 1007 58 24140 5.1 280 19:56 02.07.2020
629 Clouds 28 1007 58 14484 4.1 240 19:38 02.07.2020
630 Clouds 29 1007 51 14484 5.7 220 19:20 02.07.2020
631 Clouds 29 1007 51 14484 5.7 220 18:57 02.07.2020
632 Clouds 29 1007 51 14484 5.7 220 18:38 02.07.2020
633 Clouds 29 1007 51 14484 5.1 230 18:20 02.07.2020
634 Clouds 29 1007 51 14484 5.1 230 17:39 02.07.2020
635 Clouds 29 1007 51 14484 5.1 230 17:20 02.07.2020
636 Clear 29 1007 58 14484 4.6 200 16:56 02.07.2020
637 Clear 29 1007 58 14484 4.6 200 16:38 02.07.2020
638 Clear 28 1007 58 14484 4.6 200 16:19 02.07.2020
639 Clear 27 1007 65 14484 4.1 220 15:55 02.07.2020
640 Clear 27 1007 65 14484 4.1 220 15:36 02.07.2020
641 Clouds 23 1008 78 14484 4.6 210 15:18 02.07.2020
642 Clouds 23 1008 78 14484 4.6 210 14:42 02.07.2020
643 Clouds 23 1008 83 14484 3.1 210 14:19 02.07.2020
644 Clouds 22 1008 83 14484 3.1 210 13:55 02.07.2020
645 Clouds 22 1008 83 14484 3.1 210 13:36 02.07.2020
646 Clear 22 1008 83 14484 3.1 210 13:18 02.07.2020
647 Clear 21 1008 83 14484 3.1 210 12:40 02.07.2020
648 Clear 21 1008 83 14484 3.1 210 12:21 02.07.2020
649 Clear 21 1008 88 14484 2.6 210 11:44 02.07.2020
650 Clear 21 1008 88 14484 2.6 210 11:26 02.07.2020
651 Clear 21 1007 83 14484 3.1 230 10:57 02.07.2020
652 Clear 21 1007 83 14484 3.1 230 10:39 02.07.2020
653 Clear 21 1007 83 14484 3.1 230 10:21 02.07.2020
654 Clear 22 1008 83 14484 2.6 210 09:42 02.07.2020
655 Clear 22 1008 83 14484 2.6 210 09:21 02.07.2020
656 Clear 22 1008 78 14484 3.6 200 08:57 02.07.2020
657 Clear 22 1008 78 14484 3.6 200 08:38 02.07.2020
658 Clouds 23 1008 73 14484 2.1 210 08:19 02.07.2020
659 Clouds 23 1008 73 14484 2.1 210 07:41 02.07.2020
660 Clouds 23 1008 73 14484 2.1 210 07:20 02.07.2020
661 Clouds 23 1009 64 14484 1.5 200 06:41 02.07.2020
662 Clouds 24 1009 64 14484 1.5 200 06:20 02.07.2020
663 Rain 25 1009 57 14484 2.6 200 05:47 02.07.2020
664 Clouds 26 1009 47 14484 2.1 200 04:50 02.07.2020
665 Clouds 27 1009 44 14484 1 60 03:33 02.07.2020
666 Clouds 29 1009 39 14484 3.1 80 01:49 02.07.2020
667 Clouds 30 1009 37 14484 3.6 40 00:28 02.07.2020
668 Clouds 30 1009 40 14484 3.6 360 23:57 01.07.2020
669 Clouds 31 1009 40 14484 3.6 360 23:38 01.07.2020
670 Clouds 31 1009 40 14484 3.6 360 23:20 01.07.2020
671 Clear 30 1010 42 14484 5.1 20 22:54 01.07.2020
672 Clear 30 1010 42 14484 5.1 20 22:36 01.07.2020
673 Clear 30 1011 45 14484 2.6 330 22:18 01.07.2020
674 Clear 30 1011 45 14484 2.6 330 21:55 01.07.2020
675 Clear 30 1011 45 14484 2.6 330 21:37 01.07.2020
676 Clouds 29 1011 48 14484 3.6 360 21:19 01.07.2020
677 Clouds 29 1011 48 14484 3.6 360 20:44 01.07.2020
678 Clouds 29 1011 48 14484 3.6 360 20:25 01.07.2020
679 Clouds 28 1012 54 14484 3.1 30 19:56 01.07.2020
680 Clouds 28 1012 54 14484 3.1 30 19:38 01.07.2020
681 Clouds 28 1012 54 14484 3.1 30 19:20 01.07.2020
682 Clouds 27 1013 54 14484 5.7 340 18:54 01.07.2020
683 Clouds 27 1013 54 14484 5.7 340 18:36 01.07.2020
684 Clouds 26 1013 61 14484 3.6 20 18:18 01.07.2020
685 Clouds 26 1013 61 14484 3.6 20 17:41 01.07.2020
686 Clouds 26 1013 61 14484 3.6 20 17:41 01.07.2020
687 Clouds 26 1013 61 14484 3.6 20 17:19 01.07.2020
688 Clouds 25 1013 69 14484 4.1 30 16:48 01.07.2020
689 Clouds 25 1013 69 14484 4.1 30 16:29 01.07.2020
690 Clear 24 1014 73 14484 2.6 20 15:58 01.07.2020
691 Clear 23 1014 73 14484 2.6 20 15:40 01.07.2020
692 Clear 22 1014 73 14484 2.6 20 15:21 01.07.2020
693 Clear 21 1014 77 14484 3.6 10 14:47 01.07.2020
694 Clear 21 1014 77 14484 3.6 10 14:22 01.07.2020
695 Clouds 20 1013 82 14484 3.1 30 13:59 01.07.2020
696 Clouds 20 1013 82 14484 3.1 30 13:40 01.07.2020
697 Clouds 20 1013 82 14484 3.1 30 13:21 01.07.2020
698 Clouds 20 1013 82 14484 3.1 30 13:21 01.07.2020
699 Clouds 19 1013 93 14484 2.6 30 12:58 01.07.2020
700 Clouds 18 1013 93 14484 2.6 30 12:39 01.07.2020
701 Clouds 18 1013 88 24140 3.1 30 12:21 01.07.2020
702 Clouds 18 1013 88 24140 3.1 30 11:55 01.07.2020
703 Clouds 18 1013 88 24140 3.1 30 11:37 01.07.2020
704 Clouds 18 1014 82 24140 4.1 10 11:18 01.07.2020
705 Clear 18 1013 100 14484 2.6 10 10:42 01.07.2020
706 Clear 18 1013 100 14484 2.6 10 10:23 01.07.2020
707 Clear 18 1013 93 14484 4.1 360 09:59 01.07.2020
708 Clear 18 1013 93 14484 4.1 360 09:37 01.07.2020
709 Clear 18 1013 93 14484 4.1 360 09:19 01.07.2020
710 Clouds 19 1014 88 14484 2.6 20 08:55 01.07.2020
711 Clouds 19 1014 88 14484 2.6 20 08:37 01.07.2020
712 Clear 19 1014 88 14484 2.6 30 08:18 01.07.2020
713 Clear 19 1014 88 14484 2.6 30 07:39 01.07.2020
714 Clear 19 1014 88 14484 2.6 30 07:20 01.07.2020
715 Clear 20 1014 88 14484 4.6 10 06:50 01.07.2020
716 Clear 20 1014 88 14484 4.6 10 06:28 01.07.2020
717 Clouds 20 1015 82 14484 4.1 20 05:23 01.07.2020
718 Clouds 21 1015 77 14484 2.6 40 03:48 01.07.2020
719 Clouds 22 1015 77 14484 2.6 40 03:27 01.07.2020
720 Clouds 22 1015 73 14484 5.1 40 02:41 01.07.2020
721 Clouds 23 1015 73 14484 6.2 40 01:49 01.07.2020
722 Clouds 24 1014 64 24140 7.2 20 00:45 01.07.2020
723 Clouds 24 1014 65 14484 7.2 60 00:25 01.07.2020
724 Clouds 24 1014 61 14484 7.2 40 23:42 30.06.2020
725 Clouds 24 1014 61 14484 7.2 40 23:23 30.06.2020
726 Clouds 24 1015 64 14484 6.7 50 22:59 30.06.2020
727 Clouds 23 1015 64 14484 6.7 50 22:41 30.06.2020
728 Clouds 23 1015 69 14484 6.7 50 22:18 30.06.2020
729 Clouds 23 1015 69 14484 6.7 50 21:41 30.06.2020
730 Clouds 23 1015 69 14484 6.7 50 21:19 30.06.2020
731 Clouds 23 1015 69 14484 7.2 60 20:57 30.06.2020
732 Clouds 23 1016 69 24140 7.7 40 20:39 30.06.2020
733 Clouds 23 1016 73 14484 6.2 50 20:20 30.06.2020
734 Clouds 23 1016 73 14484 6.7 30 19:43 30.06.2020
735 Clouds 22 1016 73 14484 7.2 20 19:20 30.06.2020
736 Clouds 21 1016 73 14484 7.2 20 18:54 30.06.2020
737 Clouds 21 1016 73 14484 7.2 20 18:36 30.06.2020
738 Clouds 20 1016 88 14484 5.1 20 18:18 30.06.2020
739 Rain 19 1016 88 14484 4.1 30 17:38 30.06.2020
740 Rain 19 1016 88 14484 4.1 30 17:20 30.06.2020
741 Rain 20 1016 88 14484 5.7 40 16:55 30.06.2020
742 Clouds 20 1016 82 14484 4.6 40 16:36 30.06.2020
743 Clouds 20 1016 82 14484 5.1 50 16:18 30.06.2020
744 Clouds 20 1016 82 14484 5.1 50 15:42 30.06.2020
745 Clouds 19 1016 82 14484 5.1 50 15:22 30.06.2020
746 Clouds 20 1016 82 14484 5.1 30 14:58 30.06.2020
747 Clouds 20 1016 82 14484 5.1 30 14:40 30.06.2020
748 Clouds 19 1016 82 14484 5.1 30 14:21 30.06.2020
749 Clouds 19 1016 77 14484 6.2 40 13:42 30.06.2020
750 Clouds 19 1016 77 14484 6.2 40 13:21 30.06.2020
751 Clouds 19 1015 77 14484 5.1 30 12:59 30.06.2020
752 Clouds 19 1015 77 14484 5.1 30 12:41 30.06.2020
753 Clouds 19 1015 77 14484 5.1 30 12:23 30.06.2020
754 Clouds 19 1015 77 14484 4.6 30 11:59 30.06.2020
755 Clouds 19 1015 77 14484 4.6 30 11:39 30.06.2020
756 Clouds 19 1015 77 14484 4.6 30 11:20 30.06.2020
757 Clouds 19 1015 77 14484 4.6 30 11:20 30.06.2020
758 Clouds 19 1015 82 14484 2.6 30 10:59 30.06.2020
759 Clouds 22 1006 83 14484 2.1 230 16:44 28.06.2020
760 Clouds 22 1006 83 14484 2.1 230 16:26 28.06.2020
761 Clouds 22 1006 83 14484 2.1 230 16:26 28.06.2020
762 Clouds 22 1006 83 14484 2.1 250 15:58 28.06.2020
763 Clouds 21 1006 88 14484 2.6 250 15:39 28.06.2020
764 Clouds 21 1006 88 14484 2.6 250 15:20 28.06.2020
765 Clouds 20 1006 88 14484 2.6 220 14:55 28.06.2020
766 Clouds 20 1006 88 14484 2.6 220 14:37 28.06.2020
767 Clouds 20 1006 88 14484 2.6 220 14:19 28.06.2020
768 Clouds 20 1005 88 14484 3.1 220 13:38 28.06.2020
769 Clouds 20 1005 88 14484 3.1 220 13:20 28.06.2020
770 Clouds 19 1005 93 14484 2.1 190 12:57 28.06.2020
771 Clouds 19 1005 93 14484 2.1 190 12:38 28.06.2020
772 Clouds 19 1004 93 14484 2.1 180 12:19 28.06.2020
773 Clouds 19 1004 93 14484 2.1 180 11:58 28.06.2020
774 Clouds 19 1004 93 14484 2.1 180 11:39 28.06.2020
775 Clouds 18 1004 93 14484 2.1 180 11:20 28.06.2020
776 Clouds 18 1004 93 14484 2.1 180 11:20 28.06.2020
777 Clouds 19 1004 93 14484 1.5 170 10:57 28.06.2020
778 Clouds 19 1004 93 14484 1.5 170 10:38 28.06.2020
779 Clouds 19 1004 93 14484 1.5 170 10:19 28.06.2020
780 Clouds 19 1004 88 14484 3.1 190 09:40 28.06.2020
781 Clouds 19 1004 88 14484 3.1 190 09:21 28.06.2020
782 Clouds 19 1004 93 14484 2.1 160 08:51 28.06.2020
783 Clouds 19 1004 93 14484 2.1 160 08:33 28.06.2020
784 Mist 20 1004 100 9656 2.1 150 07:53 28.06.2020
785 Mist 20 1004 100 9656 2.1 150 07:31 28.06.2020
786 Clouds 19 1004 100 12874 1.5 80 06:53 28.06.2020
787 Rain 20 1004 88 12874 2.6 340 06:31 28.06.2020
788 Rain 21 1003 68 14484 2.6 180 05:27 28.06.2020
789 Clouds 23 1004 53 14484 3.1 170 03:45 28.06.2020
790 Clouds 24 1004 50 14484 4.1 180 02:51 28.06.2020
791 Clouds 25 1004 50 14484 4.1 180 02:19 28.06.2020
792 Clouds 26 1004 54 14484 3.1 180 01:27 28.06.2020
793 Clouds 26 1003 54 14484 4.1 150 00:51 28.06.2020
794 Clouds 26 1003 54 14484 4.1 150 00:29 28.06.2020
795 Clouds 26 1004 47 14484 1.5 270 23:45 27.06.2020
796 Clouds 26 1004 47 14484 1.5 270 23:24 27.06.2020
797 Clouds 26 1004 50 14484 2.6 160 22:59 27.06.2020
798 Clouds 26 1004 50 14484 2.6 160 22:41 27.06.2020
799 Clouds 26 1004 50 14484 2.6 160 22:23 27.06.2020
800 Clouds 26 1004 50 14484 3.1 180 21:57 27.06.2020
801 Clouds 26 1004 50 14484 3.1 180 21:39 27.06.2020
802 Clouds 26 1004 50 14484 3.1 180 21:20 27.06.2020
803 Clouds 25 1005 57 14484 3.6 160 20:45 27.06.2020
804 Clouds 25 1005 57 14484 3.6 160 20:19 27.06.2020
805 Clouds 24 1006 64 14484 3.1 140 19:57 27.06.2020
806 Clouds 23 1006 64 14484 3.1 140 19:37 27.06.2020
807 Clouds 23 1006 60 14484 1 0 19:19 27.06.2020
808 Clouds 22 1006 60 14484 1 0 18:47 27.06.2020
809 Clouds 22 1006 60 14484 1 0 18:28 27.06.2020
810 Clouds 21 1006 56 14484 2.1 190 17:59 27.06.2020
811 Clouds 21 1006 56 14484 2.1 190 17:59 27.06.2020
812 Clouds 21 1006 56 14484 2.1 190 17:40 27.06.2020
813 Clouds 21 1006 56 14484 2.1 190 17:20 27.06.2020
814 Clouds 21 1006 56 14484 1.5 220 16:56 27.06.2020
815 Rain 21 1006 64 14484 2.6 190 16:38 27.06.2020
816 Rain 21 1006 64 14484 2.6 190 16:18 27.06.2020
817 Clouds 20 1007 64 14484 3.1 210 15:42 27.06.2020
818 Clouds 20 1007 64 14484 3.1 210 15:23 27.06.2020
819 Clouds 20 1007 68 14484 3.6 180 14:56 27.06.2020
820 Clouds 20 1007 68 14484 3.6 180 14:37 27.06.2020
821 Clouds 20 1007 68 14484 3.6 180 14:19 27.06.2020
822 Clouds 19 1007 68 14484 2.1 190 13:41 27.06.2020
823 Clouds 19 1007 77 14484 3.1 200 13:20 27.06.2020
824 Clouds 19 1007 77 14484 3.1 200 12:58 27.06.2020
825 Clouds 19 1007 77 14484 3.1 200 12:40 27.06.2020
826 Clouds 19 1007 72 14484 3.1 200 12:21 27.06.2020
827 Clouds 19 1007 72 14484 3.1 200 12:21 27.06.2020
828 Clouds 19 1007 72 14484 3.1 200 11:57 27.06.2020
829 Clouds 19 1007 72 14484 3.1 200 11:37 27.06.2020
830 Clouds 19 1007 72 14484 3.1 200 11:19 27.06.2020
831 Clouds 19 1007 77 14484 3.6 180 10:40 27.06.2020
832 Clouds 19 1007 77 14484 3.6 180 10:19 27.06.2020
833 Rain 19 1007 77 14484 4.1 180 09:57 27.06.2020
834 Clouds 20 1007 77 14484 3.6 190 09:38 27.06.2020
835 Clouds 20 1007 77 14484 3.6 190 09:20 27.06.2020
836 Clouds 19 1008 77 14484 2.6 110 08:42 27.06.2020
837 Clouds 19 1008 77 14484 2.6 110 08:22 27.06.2020
838 Clouds 19 1007 72 14484 1.5 230 07:47 27.06.2020
839 Clouds 20 1007 72 14484 1.5 230 07:25 27.06.2020
840 Rain 20 1007 68 14484 3.1 210 06:51 27.06.2020
841 Clouds 21 1008 72 14484 3.6 200 06:33 27.06.2020
842 Clouds 21 1008 64 14484 2.1 190 04:44 27.06.2020
843 Clouds 21 1009 56 14484 3.6 220 04:18 27.06.2020
844 Clouds 22 1009 56 14484 3.6 220 03:43 27.06.2020
845 Clouds 23 1008 50 14484 5.7 210 02:42 27.06.2020
846 Clouds 23 1008 50 14484 5.7 210 02:22 27.06.2020
847 Clouds 24 1009 47 14484 4.6 220 01:24 27.06.2020
848 Clouds 24 1009 41 14484 5.1 250 00:42 27.06.2020
849 Clouds 24 1009 44 14484 4.1 250 23:47 26.06.2020
850 Clouds 24 1009 44 14484 4.1 250 23:27 26.06.2020
851 Clouds 24 1009 38 14484 7.2 270 22:58 26.06.2020
852 Clouds 24 1009 38 14484 7.2 270 22:39 26.06.2020
853 Clouds 24 1009 38 14484 7.2 270 22:21 26.06.2020
854 Clouds 25 1009 44 14484 7.2 230 21:58 26.06.2020
855 Clouds 25 1009 44 14484 7.2 230 21:39 26.06.2020
856 Clouds 25 1009 44 14484 7.2 230 21:20 26.06.2020
857 Clouds 26 1009 42 14484 8.7 220 20:47 26.06.2020
858 Clouds 27 1009 42 14484 8.7 220 20:27 26.06.2020
859 Clouds 25 1010 44 14484 8.2 240 19:55 26.06.2020
860 Clouds 25 1010 44 14484 8.2 240 19:37 26.06.2020
861 Clouds 25 1011 47 14484 6.2 230 19:18 26.06.2020
862 Clouds 24 1011 47 14484 6.2 230 18:41 26.06.2020
863 Clouds 24 1011 47 14484 6.2 230 18:23 26.06.2020
864 Clouds 24 1011 47 14484 6.7 230 17:45 26.06.2020
865 Clouds 24 1011 47 14484 6.7 230 17:45 26.06.2020
866 Clouds 24 1011 47 14484 6.7 230 17:27 26.06.2020
867 Clouds 24 1011 49 14484 6.2 230 16:59 26.06.2020
868 Clouds 23 1011 49 14484 6.2 230 16:41 26.06.2020
869 Clouds 23 1011 49 14484 6.2 230 16:21 26.06.2020
870 Clear 23 1011 56 14484 5.7 230 15:41 26.06.2020
871 Clear 21 1011 56 14484 5.7 230 15:21 26.06.2020
872 Clear 20 1012 68 14484 5.7 240 14:58 26.06.2020
873 Clear 21 1012 68 14484 5.7 240 14:39 26.06.2020
874 Clear 20 1012 68 14484 5.7 240 14:21 26.06.2020
875 Clear 19 1011 72 14484 6.7 230 13:45 26.06.2020
876 Clear 19 1011 72 14484 6.7 230 13:23 26.06.2020
877 Clouds 18 1012 72 14484 4.1 220 12:56 26.06.2020
878 Clouds 18 1012 72 14484 4.1 220 12:38 26.06.2020
879 Clear 17 1012 72 14484 4.6 220 12:19 26.06.2020
880 Clear 17 1012 72 14484 4.6 220 11:56 26.06.2020
881 Clear 17 1012 72 14484 4.6 220 11:38 26.06.2020
882 Clear 17 1012 72 14484 4.6 220 11:19 26.06.2020
883 Clear 18 1012 63 14484 3.6 220 10:56 26.06.2020
884 Clear 18 1012 63 14484 3.6 220 10:37 26.06.2020
885 Clear 18 1011 63 14484 4.1 230 10:18 26.06.2020
886 Clear 18 1011 63 14484 4.1 230 09:42 26.06.2020
887 Clear 18 1011 63 14484 4.1 230 09:22 26.06.2020
888 Clouds 19 1011 55 14484 5.1 210 08:51 26.06.2020
889 Clouds 19 1011 55 14484 5.1 210 08:28 26.06.2020
890 Clouds 19 1011 59 14484 4.1 220 07:52 26.06.2020
891 Clouds 19 1011 59 14484 4.1 220 07:24 26.06.2020
892 Clear 19 1011 67 14484 2.6 200 06:57 26.06.2020
893 Clear 19 1011 67 14484 2.6 200 06:35 26.06.2020
894 Clear 19 1011 68 14484 2.6 180 05:58 26.06.2020
895 Clear 19 1011 68 14484 2.6 180 05:33 26.06.2020
896 Clouds 22 1011 46 14484 3.6 250 02:42 26.06.2020
897 Clouds 23 1011 46 14484 3.6 250 02:22 26.06.2020
898 Clouds 23 1011 46 32767 6.7 260 01:19 26.06.2020
899 Clouds 24 1010 44 32767 6.7 230 00:39 26.06.2020
900 Clouds 24 1010 44 14484 7.7 240 00:18 26.06.2020
901 Clouds 24 1010 44 14484 7.7 240 23:39 25.06.2020
902 Clouds 24 1010 41 14484 10.3 240 23:18 25.06.2020
903 Clouds 24 1010 41 14484 10.3 240 22:54 25.06.2020
904 Clouds 25 1010 41 14484 10.3 240 22:36 25.06.2020
905 Clouds 24 1011 47 32767 8.7 220 22:18 25.06.2020
906 Rain 24 1011 53 14484 6.7 260 21:54 25.06.2020
907 Clouds 23 1011 49 14484 6.2 250 21:36 25.06.2020
908 Clouds 23 1011 49 14484 9.3 260 21:18 25.06.2020
909 Clouds 23 1011 49 14484 9.3 260 20:43 25.06.2020
910 Clouds 23 1011 49 14484 9.3 260 20:23 25.06.2020
911 Clouds 23 1010 47 14484 8.7 250 19:57 25.06.2020
912 Clouds 23 1010 47 14484 8.7 250 19:38 25.06.2020
913 Clouds 23 1010 53 14484 9.3 250 19:18 25.06.2020
914 Clouds 23 1010 53 14484 9.3 250 18:55 25.06.2020
915 Clouds 23 1010 53 14484 9.3 250 18:36 25.06.2020
916 Clouds 23 1010 53 14484 9.3 250 18:36 25.06.2020
917 Clouds 22 1010 53 14484 8.7 250 18:18 25.06.2020
918 Clouds 22 1010 53 14484 8.7 250 17:39 25.06.2020
919 Clouds 21 1010 53 14484 8.7 250 17:19 25.06.2020
920 Clouds 20 1009 60 14484 10.3 240 16:41 25.06.2020
921 Clouds 20 1009 60 14484 10.3 240 16:21 25.06.2020
922 Clouds 20 1009 56 14484 11.3 230 15:45 25.06.2020
923 Clouds 20 1009 56 14484 11.3 230 15:27 25.06.2020
924 Clouds 19 1009 63 14484 8.7 230 14:58 25.06.2020
925 Clouds 19 1009 63 14484 8.7 230 14:40 25.06.2020
926 Clouds 19 1009 63 14484 8.7 230 14:22 25.06.2020
927 Clouds 19 1008 63 14484 6.7 210 13:56 25.06.2020
928 Clouds 19 1008 63 14484 6.7 210 13:37 25.06.2020
929 Clouds 18 1008 68 32767 7.7 210 13:19 25.06.2020
930 Clear 17 1008 72 14484 5.7 190 12:44 25.06.2020
931 Clear 17 1007 67 14484 5.1 200 12:20 25.06.2020
932 Clear 17 1007 67 14484 5.1 200 11:58 25.06.2020
933 Clear 17 1007 67 14484 5.1 200 11:38 25.06.2020
934 Clear 16 1007 67 14484 5.1 200 11:20 25.06.2020
935 Clear 16 1007 67 14484 5.1 200 11:20 25.06.2020
936 Clouds 16 1007 72 24140 7.2 220 10:42 25.06.2020
937 Clouds 16 1007 72 24140 7.2 220 10:23 25.06.2020
938 Clouds 16 1007 72 24140 7.2 220 10:23 25.06.2020
939 Clear 16 1007 76 14484 3.6 160 09:41 25.06.2020
940 Clear 16 1007 76 14484 3.6 160 09:23 25.06.2020
941 Clear 17 1007 63 14484 4.6 210 08:49 25.06.2020
942 Clear 17 1007 63 14484 4.6 210 08:21 25.06.2020
943 Clear 17 1007 63 14484 5.1 220 07:57 25.06.2020
944 Clear 17 1007 63 14484 5.1 220 07:38 25.06.2020
945 Clear 18 1007 55 14484 7.2 220 07:20 25.06.2020
946 Clear 18 1007 55 14484 7.2 220 06:30 25.06.2020
947 Clouds 19 1007 59 14484 5.1 190 05:55 25.06.2020
948 Clouds 19 1007 59 14484 5.1 190 05:29 25.06.2020
949 Clear 20 1006 56 14484 6.7 240 03:36 25.06.2020
950 Clear 21 1005 52 14484 7.7 250 02:45 25.06.2020
951 Clouds 21 1005 52 32767 9.3 240 02:19 25.06.2020
952 Clouds 21 1005 49 14484 9.3 240 01:41 25.06.2020
953 Clouds 22 1004 53 14484 9.8 240 00:50 25.06.2020
954 Clouds 22 1004 53 14484 9.8 240 00:22 25.06.2020
955 Clouds 22 1004 46 14484 10.8 240 23:58 24.06.2020
956 Clouds 22 1004 46 14484 10.8 240 23:38 24.06.2020
957 Clouds 23 1004 46 14484 10.8 240 23:19 24.06.2020
958 Clouds 23 1003 41 14484 12.9 240 22:42 24.06.2020
959 Clouds 23 1003 41 14484 12.9 240 22:42 24.06.2020
960 Clouds 23 1003 41 14484 12.9 240 22:21 24.06.2020
961 Clear 24 1003 44 14484 12.3 250 21:57 24.06.2020
962 Clear 24 1003 44 14484 12.3 250 21:37 24.06.2020
963 Clear 24 1003 44 14484 12.3 250 21:19 24.06.2020
964 Clear 24 1003 47 14484 13.4 250 20:59 24.06.2020
965 Clouds 24 1003 50 14484 8.2 250 20:40 24.06.2020
966 Clouds 24 1003 50 14484 8.2 250 20:40 24.06.2020
967 Clouds 24 1003 50 14484 8.2 250 20:21 24.06.2020
968 Clouds 24 1002 53 14484 9.8 250 19:59 24.06.2020
969 Clouds 24 1002 53 14484 9.8 250 19:39 24.06.2020
970 Clouds 24 1002 53 14484 9.8 250 19:20 24.06.2020
971 Clouds 23 1002 57 14484 10.3 230 18:58 24.06.2020
972 Clouds 23 1002 57 14484 10.3 230 18:39 24.06.2020
973 Clouds 23 1002 57 14484 10.3 230 18:39 24.06.2020
974 Clouds 23 1002 57 14484 10.3 230 18:20 24.06.2020
975 Clouds 23 1002 56 14484 7.7 250 17:56 24.06.2020
976 Clouds 23 1002 56 14484 7.7 250 17:37 24.06.2020
977 Clouds 22 1002 56 14484 7.7 250 17:18 24.06.2020
978 Clouds 22 1002 56 14484 7.7 250 17:18 24.06.2020
979 Clouds 22 1002 56 14484 7.7 250 17:18 24.06.2020
980 Clouds 22 1002 68 14484 7.7 230 16:56 24.06.2020
981 Clouds 22 1002 68 14484 7.7 230 16:56 24.06.2020
982 Clouds 22 1002 68 14484 7.7 230 16:37 24.06.2020
983 Clouds 21 1002 68 14484 7.7 230 16:19 24.06.2020
984 Clouds 21 1002 77 14484 9.3 230 15:55 24.06.2020
985 Clouds 20 1002 77 14484 9.3 230 15:37 24.06.2020
986 Clouds 20 1002 77 14484 7.7 240 15:18 24.06.2020
987 Clouds 20 1002 77 14484 10.3 250 14:42 24.06.2020
988 Clouds 20 1002 77 14484 10.3 250 14:22 24.06.2020
989 Clouds 20 1001 88 14484 8.2 230 13:43 24.06.2020
990 Clouds 20 1001 88 14484 8.2 230 13:22 24.06.2020
991 Rain 21 1000 94 14484 4.1 230 12:55 24.06.2020
992 Rain 21 1000 94 14484 2.6 200 12:36 24.06.2020
993 Clouds 21 1000 94 14484 5.1 240 12:18 24.06.2020
994 Rain 21 1000 94 8047 6.7 230 11:42 24.06.2020
995 Rain 21 1000 94 9656 3.1 220 11:24 24.06.2020
996 Rain 22 1000 94 14484 3.1 220 10:59 24.06.2020
997 Mist 22 1000 94 9656 2.6 200 10:40 24.06.2020
998 Rain 22 1000 94 12874 4.1 220 10:18 24.06.2020
999 Rain 22 1000 94 12874 4.1 220 09:42 24.06.2020
1000 Rain 22 1000 94 12874 4.1 220 09:21 24.06.2020
1001 Clouds 23 999 78 14484 7.2 180 08:42 24.06.2020
1002 Clouds 24 999 78 14484 7.2 180 08:20 24.06.2020
1003 Clouds 24 999 83 14484 6.2 160 07:50 24.06.2020
1004 Clouds 24 999 83 14484 6.2 160 07:31 24.06.2020
1005 Clouds 23 1000 94 14484 2.6 120 06:50 24.06.2020
1006 Clouds 23 1000 94 14484 2.6 120 06:25 24.06.2020
1007 Clouds 23 1001 94 14484 2.1 130 05:56 24.06.2020
1008 Clouds 23 1001 94 14484 4.1 140 04:46 24.06.2020
1009 Clouds 23 1001 94 14484 4.1 140 04:27 24.06.2020
1010 Clouds 23 1001 94 14484 2.6 130 03:34 24.06.2020
1011 Clouds 23 1001 94 14484 2.1 320 02:50 24.06.2020
1012 Thunderstorm 23 1001 88 8047 7.7 240 01:41 24.06.2020
1013 Thunderstorm 28 1000 43 14484 6.2 180 00:47 24.06.2020
1014 Thunderstorm 31 1000 43 14484 6.2 180 00:27 24.06.2020
1015 Clear 32 1001 41 14484 6.2 160 23:46 23.06.2020
1016 Clear 32 1001 41 14484 6.2 160 23:20 23.06.2020
1017 Clouds 32 1001 44 14484 7.2 220 22:54 23.06.2020
1018 Clouds 33 1001 44 14484 7.2 220 22:36 23.06.2020
1019 Clouds 32 1002 58 14484 3.1 230 22:18 23.06.2020
1020 Clouds 32 1002 58 14484 3.1 230 22:18 23.06.2020
1021 Clouds 32 1002 58 14484 3.1 230 21:40 23.06.2020
1022 Clouds 31 1003 49 14484 6.7 180 21:19 23.06.2020
1023 Clouds 31 1003 49 14484 6.7 180 20:56 23.06.2020
1024 Clouds 31 1003 49 14484 6.7 180 20:37 23.06.2020
1025 Clear 32 1004 43 14484 8.2 160 20:18 23.06.2020
1026 Clear 32 1004 43 14484 8.2 160 19:45 23.06.2020
1027 Clear 33 1004 43 14484 8.2 160 19:27 23.06.2020
1028 Clear 33 1005 46 14484 5.1 170 18:42 23.06.2020
1029 Clear 31 1005 52 14484 4.6 170 18:19 23.06.2020
1030 Clear 31 1005 52 14484 4.6 170 17:58 23.06.2020
1031 Clear 31 1005 52 14484 4.6 170 17:39 23.06.2020
1032 Clear 30 1005 52 14484 4.6 170 17:20 23.06.2020
1033 Clear 30 1005 55 14484 4.1 170 16:55 23.06.2020
1034 Clear 30 1005 55 14484 4.1 170 16:37 23.06.2020
1035 Clear 29 1006 61 14484 4.1 180 16:18 23.06.2020
1036 Clear 29 1006 61 14484 4.1 180 15:44 23.06.2020
1037 Clear 27 1006 61 14484 4.1 180 15:25 23.06.2020
1038 Clear 26 1007 74 14484 4.6 170 14:58 23.06.2020
1039 Clear 26 1007 74 14484 4.6 170 14:40 23.06.2020
1040 Clear 24 1007 83 14484 2.1 130 14:18 23.06.2020
1041 Clear 24 1007 83 14484 2.1 130 13:55 23.06.2020
1042 Clear 24 1007 83 14484 2.1 130 13:37 23.06.2020
1043 Clouds 24 1007 78 32767 1.5 90 13:19 23.06.2020
1044 Clear 23 1007 88 14484 1 100 12:40 23.06.2020
1045 Clear 22 1007 88 14484 1 100 12:22 23.06.2020
1046 Clear 22 1008 88 14484 1.5 130 11:54 23.06.2020
1047 Clear 22 1008 88 14484 1.5 130 11:36 23.06.2020
1048 Clouds 22 1008 83 24140 1 0 11:18 23.06.2020
1049 Clouds 22 1008 83 24140 1 0 10:41 23.06.2020
1050 Clouds 22 1008 83 24140 1 0 10:41 23.06.2020
1051 Clouds 22 1008 83 24140 1 0 10:41 23.06.2020
1052 Clear 22 1008 78 24140 1 0 10:22 23.06.2020
1053 Clouds 22 1008 83 14484 1.22 172 09:59 23.06.2020
1054 Clouds 22 1008 83 14484 1.22 172 09:41 23.06.2020
1055 Clouds 23 1008 83 14484 1.25 210 09:20 23.06.2020
1056 Clear 23 1008 78 14484 3.1 130 08:47 23.06.2020
1057 Clear 23 1008 78 14484 3.1 130 08:28 23.06.2020
1058 Clear 23 1009 73 14484 1 190 07:58 23.06.2020
1059 Clear 23 1009 73 14484 1 190 07:39 23.06.2020
1060 Clear 24 1009 69 14484 3.6 210 07:21 23.06.2020
1061 Clear 25 1009 69 14484 3.6 210 06:47 23.06.2020
1062 Clear 25 1009 69 14484 3.6 210 06:29 23.06.2020
1063 Clear 25 1009 65 14484 3.1 220 05:39 23.06.2020
1064 Clouds 27 1009 48 14484 3.1 290 03:29 23.06.2020
1065 Clouds 28 1009 48 14484 6.7 280 02:55 23.06.2020
1066 Clouds 28 1009 48 14484 6.7 280 02:36 23.06.2020
1067 Clear 30 1009 48 14484 3.6 170 01:47 23.06.2020
1068 Clear 30 1009 48 14484 3.6 170 01:29 23.06.2020
1069 Clear 32 1009 46 14484 6.2 160 00:56 23.06.2020
1070 Clear 33 1009 46 14484 6.2 160 00:24 23.06.2020
1071 Thunderstorm 34 1009 26 14484 5.7 270 23:56 22.06.2020
1072 Clear 34 1009 32 14484 6.2 230 23:38 22.06.2020
1073 Clear 34 1009 36 14484 6.2 240 23:19 22.06.2020
1074 Clear 34 1009 36 14484 6.2 240 22:56 22.06.2020
1075 Clear 34 1009 36 14484 6.2 240 22:37 22.06.2020
1076 Clouds 34 1010 38 14484 3.6 220 22:19 22.06.2020
1077 Clouds 34 1010 38 14484 3.6 220 21:57 22.06.2020
1078 Clouds 34 1010 38 14484 3.6 220 21:38 22.06.2020
1079 Clouds 34 1010 38 14484 3.6 220 21:20 22.06.2020
1080 Clear 33 1011 41 14484 4.1 200 20:41 22.06.2020
1081 Clear 33 1011 41 14484 4.1 200 20:22 22.06.2020
1082 Clear 33 1011 41 14484 5.7 220 19:45 22.06.2020
1083 Clear 32 1012 43 14484 4.6 250 19:21 22.06.2020
1084 Clear 32 1012 43 14484 4.6 250 18:59 22.06.2020
1085 -273 0 0 0 0 0 18:59 22.06.2020
1086 Clear 32 1012 43 14484 4.6 250 18:40 22.06.2020
1087 Clear 32 1012 43 14484 4.6 250 18:21 22.06.2020
1088 Clear 30 1012 48 14484 3.6 220 17:57 22.06.2020
1089 Clear 30 1012 48 14484 3.6 220 17:38 22.06.2020
1090 Clear 30 1012 48 14484 3.6 220 17:19 22.06.2020
1091 Clear 29 1013 54 14484 3.6 200 16:55 22.06.2020
1092 Clear 30 1013 54 14484 3.6 200 16:37 22.06.2020
1093 Clear 29 1013 54 14484 3.6 200 16:18 22.06.2020
1094 Clear 29 1013 58 14484 3.1 210 15:42 22.06.2020
1095 Clear 28 1013 58 14484 3.1 210 15:24 22.06.2020
1096 Clear 26 1013 61 14484 3.1 230 14:56 22.06.2020
1097 Clear 26 1013 61 14484 3.1 230 14:36 22.06.2020
1098 Clear 26 1013 61 14484 3.1 230 14:18 22.06.2020
1099 Clear 25 1013 73 14484 2.1 220 13:40 22.06.2020
1100 Clear 25 1013 73 14484 2.1 220 13:21 22.06.2020
1101 Clear 23 1013 88 14484 2.1 180 12:59 22.06.2020
1102 Clear 23 1013 88 14484 2.1 180 12:40 22.06.2020
1103 Clear 22 1013 88 14484 2.1 180 12:22 22.06.2020
1104 Clear 22 1013 83 14484 1 150 11:38 22.06.2020
1105 Clear 22 1013 83 14484 1 150 11:19 22.06.2020
1106 Clear 22 1012 78 14484 1.87 207 10:57 22.06.2020
1107 Clear 23 1012 78 14484 1.87 207 10:38 22.06.2020
1108 Clear 23 1012 78 14484 1.9 203 10:19 22.06.2020
1109 Clear 23 1012 83 14484 2.6 170 09:57 22.06.2020
1110 Clear 23 1012 83 14484 2.6 170 09:39 22.06.2020
1111 Clear 24 1012 83 14484 2.6 170 09:19 22.06.2020
1112 Clear 24 1012 78 14484 2.1 180 08:56 22.06.2020
1113 Clear 24 1012 78 14484 2.1 180 08:38 22.06.2020
1114 Clear 24 1012 78 14484 2.1 180 08:18 22.06.2020
1115 Clouds 25 1012 65 14484 2.6 170 07:46 22.06.2020
1116 Clouds 25 1012 65 14484 2.6 170 07:25 22.06.2020
1117 Clouds 26 1011 61 14484 3.1 250 06:39 22.06.2020
1118 Clouds 26 1011 61 14484 3.1 250 06:20 22.06.2020
1119 Clouds 27 1012 61 14484 3.1 220 05:42 22.06.2020
1120 Clear 28 1011 51 14484 4.1 230 03:47 22.06.2020
1121 Clear 31 1011 43 14484 4.6 230 02:19 22.06.2020
1122 Clear 31 1011 43 14484 6.2 230 00:59 22.06.2020
1123 Clear 32 1011 43 14484 6.2 230 00:38 22.06.2020
1124 Clouds 32 1011 41 14484 5.1 230 23:57 21.06.2020
1125 Clouds 32 1011 41 14484 5.1 230 23:38 21.06.2020
1126 Clouds 32 1011 41 14484 5.1 230 23:20 21.06.2020
1127 Clouds 33 1012 41 14484 3.6 180 22:56 21.06.2020
1128 Clouds 33 1012 41 14484 3.6 180 22:36 21.06.2020
1129 Clouds 33 1012 41 14484 3.6 180 22:18 21.06.2020
1130 Clouds 32 1012 40 14484 1 0 21:56 21.06.2020
1131 Clouds 33 1012 40 14484 1 0 21:37 21.06.2020
1132 Clouds 32 1012 40 14484 1 0 21:19 21.06.2020
1133 Clouds 32 1013 43 14484 2.1 0 20:57 21.06.2020
1134 Clouds 32 1013 43 14484 2.1 0 20:36 21.06.2020
1135 Clouds 33 1013 43 14484 2.1 0 20:18 21.06.2020
1136 Clouds 32 1013 46 14484 4.1 180 19:41 21.06.2020
1137 Clouds 32 1013 46 14484 4.1 180 19:22 21.06.2020
1138 Clear 32 1014 52 14484 2.6 140 18:57 21.06.2020
1139 Clear 31 1014 52 14484 2.6 140 18:39 21.06.2020
1140 Clear 31 1014 52 14484 2.6 140 18:21 21.06.2020
1141 Clear 30 1014 48 14484 1.5 0 17:57 21.06.2020
1142 Clear 30 1014 48 14484 1.5 0 17:38 21.06.2020
1143 Clear 30 1014 48 14484 1.5 0 17:19 21.06.2020
1144 Haze 28 1015 57 9656 2.6 0 16:41 21.06.2020
1145 Haze 28 1015 57 9656 2.6 0 16:22 21.06.2020
1146 Haze 26 1015 69 6437 2.1 40 15:56 21.06.2020
1147 Haze 25 1015 69 6437 2.1 40 15:36 21.06.2020
1148 Haze 23 1015 73 4828 2.1 360 15:18 21.06.2020
1149 Haze 23 1015 73 4828 2.1 360 14:39 21.06.2020
1150 Haze 23 1015 73 4828 2.1 360 14:20 21.06.2020
1151 Haze 23 1015 82 6437 2.1 20 13:56 21.06.2020
1152 Haze 22 1015 82 6437 2.1 20 13:38 21.06.2020
1153 Haze 22 1015 82 6437 2.1 20 13:19 21.06.2020
1154 Clear 21 1014 93 14484 2.6 10 12:44 21.06.2020
1155 Clear 20 1014 93 14484 2.6 10 12:26 21.06.2020
1156 Clear 20 1014 93 14484 2.6 10 12:26 21.06.2020
1157 Clear 21 1014 88 14484 1.5 30 11:58 21.06.2020
1158 Clouds 21 1014 83 24140 1 360 11:40 21.06.2020
1159 Clouds 21 1014 83 24140 1 360 11:22 21.06.2020
1160 Clear 21 1014 83 14484 1.5 220 10:56 21.06.2020
1161 Clear 22 1014 83 14484 1.5 220 10:38 21.06.2020
1162 Clear 22 1014 83 14484 1.5 220 10:20 21.06.2020
1163 Clear 22 1014 77 14484 1.5 190 09:41 21.06.2020
1164 Clear 23 1014 77 14484 1.5 190 09:19 21.06.2020
1165 Clear 22 1014 73 14484 0.98 165 08:57 21.06.2020
1166 Clear 23 1014 73 14484 0.98 165 08:39 21.06.2020
1167 Clear 23 1014 73 14484 1.13 167 08:19 21.06.2020
1168 Clear 23 1014 73 14484 2.1 220 07:41 21.06.2020
1169 Clear 23 1014 73 14484 2.1 220 07:23 21.06.2020
1170 Clear 24 1014 69 14484 3.6 210 06:50 21.06.2020
1171 Clear 25 1014 69 14484 3.6 210 06:19 21.06.2020
1172 Clear 25 1014 65 14484 3.6 230 05:57 21.06.2020
1173 Clear 26 1014 61 14484 2.6 220 04:29 21.06.2020
1174 Clear 28 1013 54 14484 3.6 220 03:19 21.06.2020
1175 Clear 29 1013 45 14484 4.6 230 02:22 21.06.2020
1176 Clear 30 1013 35 14484 4.1 210 01:37 21.06.2020
1177 Clear 31 1013 35 14484 4.1 210 01:18 21.06.2020
1178 Clear 32 1013 33 14484 4.1 240 00:42 21.06.2020
1179 Clear 33 1013 33 14484 4.1 240 00:23 21.06.2020
1180 Clear 33 1013 31 14484 3.1 230 23:45 20.06.2020
1181 Clear 33 1013 31 14484 3.1 230 23:22 20.06.2020
1182 Clear 33 1014 31 14484 5.1 240 22:57 20.06.2020
1183 Clear 33 1014 31 14484 5.1 240 22:39 20.06.2020
1184 Clear 33 1014 31 14484 5.1 240 22:20 20.06.2020
1185 Clear 33 1014 29 14484 4.6 250 21:58 20.06.2020
1186 Clear 33 1014 29 14484 4.6 250 21:39 20.06.2020
1187 Clear 33 1014 29 14484 4.6 250 21:20 20.06.2020
1188 Clear 32 1014 35 14484 5.1 220 20:58 20.06.2020
1189 Clear 32 1014 35 14484 5.1 220 20:40 20.06.2020
1190 Clear 32 1014 35 14484 5.1 220 20:20 20.06.2020
1191 Clear 32 1015 40 14484 5.1 230 19:57 20.06.2020
1192 Clear 32 1015 40 14484 5.1 230 19:38 20.06.2020
1193 Clear 31 1015 40 14484 5.1 230 19:19 20.06.2020
1194 Clear 31 1016 45 14484 5.7 230 18:42 20.06.2020
1195 Clear 30 1016 45 14484 5.7 230 18:20 20.06.2020
1196 Clear 29 1016 51 14484 3.6 250 17:57 20.06.2020
1197 Clear 29 1016 51 14484 3.6 250 17:39 20.06.2020
1198 Clear 29 1016 51 14484 3.6 250 17:20 20.06.2020
1199 Clear 28 1016 51 14484 5.7 220 16:42 20.06.2020
1200 Clear 28 1016 51 14484 5.7 220 16:19 20.06.2020
1201 Clear 27 1016 57 14484 4.6 210 15:58 20.06.2020
1202 Clear 26 1016 57 14484 4.6 210 15:40 20.06.2020
1203 Clear 26 1016 57 14484 4.6 210 15:18 20.06.2020
1204 Clear 25 1016 61 14484 4.1 230 14:43 20.06.2020
1205 Clear 25 1016 61 14484 4.1 230 14:21 20.06.2020
1206 Clear 24 1016 60 14484 4.6 230 13:42 20.06.2020
1207 Clear 23 1016 60 14484 4.6 230 13:24 20.06.2020
1208 Clouds 22 1016 68 14484 3.6 250 12:57 20.06.2020
1209 Clouds 22 1016 68 14484 3.6 250 12:38 20.06.2020
1210 Clouds 22 1016 68 14484 3.6 250 12:19 20.06.2020
1211 Clear 21 1015 64 14484 5.1 240 11:55 20.06.2020
1212 Clear 22 1015 64 14484 5.1 240 11:36 20.06.2020
1213 Clear 22 1015 64 14484 5.1 240 11:18 20.06.2020
1214 Clouds 22 1015 64 14484 3.6 250 10:44 20.06.2020
1215 Clouds 22 1015 64 14484 3.6 250 10:21 20.06.2020
1216 Clouds 22 1015 60 14484 4.1 260 09:55 20.06.2020
1217 Clouds 22 1015 60 14484 4.1 260 09:36 20.06.2020
1218 Clouds 23 1015 60 14484 4.1 260 09:18 20.06.2020
1219 Clear 23 1015 57 14484 3.1 260 08:45 20.06.2020
1220 Clear 24 1015 57 14484 3.1 260 08:27 20.06.2020
1221 Clear 24 1015 64 14484 3.1 240 07:51 20.06.2020
1222 Clear 24 1015 64 14484 3.1 240 07:27 20.06.2020
1223 Clear 24 1015 69 14484 3.6 230 06:54 20.06.2020
1224 Clear 25 1015 69 14484 3.6 230 06:23 20.06.2020
1225 Clear 26 1015 61 14484 4.1 220 05:52 20.06.2020
1226 Clear 26 1014 57 14484 3.1 220 04:52 20.06.2020
1227 Clear 30 1014 48 14484 4.1 220 02:27 20.06.2020
1228 Clear 30 1014 45 14484 4.1 230 01:48 20.06.2020
1229 Clear 32 1014 38 14484 4.6 280 00:55 20.06.2020
1230 Clear 32 1014 38 14484 4.6 280 00:21 20.06.2020
1231 Clear 32 1014 40 14484 5.7 230 23:55 19.06.2020
1232 Clear 32 1014 40 14484 5.7 230 23:37 19.06.2020
1233 Clear 32 1014 40 14484 5.7 230 23:18 19.06.2020
1234 Clear 32 1014 40 14484 4.6 260 22:40 19.06.2020
1235 Clear 32 1014 40 14484 4.6 260 22:22 19.06.2020
1236 Clear 32 1015 40 14484 4.6 260 21:58 19.06.2020
1237 Clear 32 1015 40 14484 4.6 260 21:38 19.06.2020
1238 Clear 32 1015 40 14484 4.6 260 21:18 19.06.2020
1239 Clear 31 1016 40 14484 5.7 250 20:58 19.06.2020
1240 Clear 31 1016 40 14484 5.7 250 20:40 19.06.2020
1241 Clear 31 1016 40 14484 5.7 250 20:21 19.06.2020
1242 Clear 31 1016 48 14484 6.7 240 19:57 19.06.2020
1243 Clear 31 1016 48 14484 6.7 240 19:39 19.06.2020
1244 Clear 31 1016 48 14484 6.7 240 19:21 19.06.2020
1245 Clear 30 1017 51 14484 5.7 230 18:55 19.06.2020
1246 Clear 29 1017 51 14484 5.7 230 18:37 19.06.2020
1247 Clear 29 1017 51 14484 5.7 230 18:19 19.06.2020
1248 Clear 28 1017 54 14484 6.2 230 17:40 19.06.2020
1249 Clear 28 1017 54 14484 6.2 230 17:22 19.06.2020
1250 Clear 27 1017 61 14484 6.2 220 16:57 19.06.2020
1251 Clear 27 1017 61 14484 6.2 220 16:37 19.06.2020
1252 Clear 27 1017 61 14484 6.2 220 16:19 19.06.2020
1253 Clear 26 1018 61 14484 7.2 230 15:43 19.06.2020
1254 Clear 25 1018 61 14484 7.2 230 15:25 19.06.2020
1255 Clear 25 1018 64 14484 6.2 240 14:56 19.06.2020
1256 Clear 24 1018 64 14484 6.2 240 14:38 19.06.2020
1257 Clear 24 1018 64 14484 6.2 240 14:20 19.06.2020
1258 Clear 23 1018 64 14484 7.2 240 13:45 19.06.2020
1259 Clear 23 1018 64 14484 7.2 240 13:27 19.06.2020
1260 Clear 22 1018 68 14484 4.1 230 12:58 19.06.2020
1261 Clear 22 1018 68 14484 4.1 230 12:40 19.06.2020
1262 Clear 21 1018 68 14484 4.1 230 12:18 19.06.2020
1263 Clear 21 1017 68 14484 4.1 220 11:40 19.06.2020
1264 Clear 21 1017 68 14484 4.1 220 11:19 19.06.2020
1265 Clear 21 1017 68 14484 3.6 190 10:59 19.06.2020
1266 Clear 21 1017 68 14484 3.6 190 10:40 19.06.2020
1267 Clear 21 1017 68 14484 3.6 190 10:19 19.06.2020
1268 Clear 21 1016 68 14484 2.1 210 09:44 19.06.2020
1269 Clear 21 1016 68 14484 2.1 210 09:25 19.06.2020
1270 Clear 21 1016 68 14484 1.84 225 08:58 19.06.2020
1271 Clear 21 1016 68 14484 1.84 225 08:38 19.06.2020
1272 Clear 22 1016 68 14484 1.93 221 08:20 19.06.2020
1273 Clear 22 1016 60 14484 1.5 200 07:40 19.06.2020
1274 Clear 22 1016 60 14484 1.5 200 07:21 19.06.2020
1275 Clear 23 1016 56 14484 3.1 220 06:44 19.06.2020
1276 Clear 24 1016 56 14484 3.1 220 06:20 19.06.2020
1277 Clear 26 1016 44 14484 3.1 200 04:30 19.06.2020
1278 Clear 28 1016 39 14484 2.6 210 03:29 19.06.2020
1279 Clear 32 1016 29 14484 5.1 230 01:45 19.06.2020
1280 Clear 32 1016 29 14484 5.7 230 00:43 19.06.2020
1281 Clear 32 1016 29 14484 5.7 230 00:22 19.06.2020
1282 Clear 33 1016 24 14484 5.7 240 23:56 18.06.2020
1283 Clear 33 1016 24 14484 5.7 240 23:37 18.06.2020
1284 Clear 33 1016 24 14484 5.7 240 23:19 18.06.2020
1285 Clear 33 1017 24 14484 6.2 250 22:39 18.06.2020
1286 Clear 33 1017 24 14484 6.2 250 22:20 18.06.2020
1287 Clear 32 1018 29 14484 5.7 240 21:56 18.06.2020
1288 Clear 32 1018 29 14484 5.7 240 21:37 18.06.2020
1289 Clear 32 1018 29 14484 5.7 240 21:18 18.06.2020
1290 Clear 32 1018 29 14484 7.2 250 20:40 18.06.2020
1291 Clear 32 1018 29 14484 7.2 250 20:20 18.06.2020
1292 Clear 30 1018 31 14484 7.2 270 19:57 18.06.2020
1293 Clear 31 1019 31 14484 5.1 220 19:38 18.06.2020
1294 Clear 31 1019 31 14484 5.1 220 19:19 18.06.2020
1295 Clear 30 1020 33 14484 6.7 230 18:39 18.06.2020
1296 Clear 30 1020 33 14484 6.7 230 18:21 18.06.2020
1297 Clear 28 1020 39 14484 4.6 250 17:54 18.06.2020
1298 Clear 28 1020 39 14484 4.6 250 17:36 18.06.2020
1299 Clear 27 1020 39 14484 4.6 250 17:18 18.06.2020
1300 Clear 26 1020 42 14484 4.6 220 16:42 18.06.2020
1301 Clear 26 1020 42 14484 4.6 220 16:24 18.06.2020
1302 Clear 26 1021 47 14484 4.6 230 15:58 18.06.2020
1303 Clear 26 1021 47 14484 4.6 230 15:39 18.06.2020
1304 Clear 25 1021 47 14484 4.6 230 15:20 18.06.2020
1305 Clear 22 1021 56 14484 3.1 190 14:56 18.06.2020
1306 Clear 22 1021 56 14484 3.1 190 14:38 18.06.2020
1307 Clear 22 1021 56 14484 3.1 190 14:20 18.06.2020
1308 Clear 21 1021 64 14484 2.1 200 13:47 18.06.2020
1309 Clear 20 1021 64 14484 2.1 200 13:28 18.06.2020
1310 Clear 19 1020 77 14484 2.1 160 12:57 18.06.2020
1311 Clear 19 1020 77 14484 2.1 160 12:39 18.06.2020
1312 Clear 18 1020 77 14484 2.1 160 12:20 18.06.2020
1313 Clear 18 1020 77 14484 1.5 120 11:57 18.06.2020
1314 Clear 18 1020 77 14484 1.5 120 11:38 18.06.2020
1315 Clear 18 1020 77 14484 1.5 120 11:19 18.06.2020
1316 Clear 19 1020 68 14484 4.1 210 10:40 18.06.2020
1317 Clear 19 1020 68 14484 4.1 210 10:19 18.06.2020
1318 Clear 20 1020 60 14484 1.5 230 09:46 18.06.2020
1319 Clear 20 1020 60 14484 1.5 230 09:27 18.06.2020
1320 Clear 20 1020 60 14484 2.6 230 08:58 18.06.2020
1321 Clear 21 1020 60 14484 2.6 230 08:38 18.06.2020
1322 Clear 21 1020 60 14484 2.6 230 08:19 18.06.2020
1323 Clear 21 1020 60 14484 2.1 210 07:45 18.06.2020
1324 Clear 20 1020 60 14484 2.1 210 07:25 18.06.2020
1325 Clear 22 1019 56 14484 3.1 220 06:42 18.06.2020
1326 Clear 23 1020 53 14484 2.6 210 05:34 18.06.2020
1327 Clear 23 1020 41 14484 1.5 230 04:21 18.06.2020
1328 Clear 29 1020 32 14484 4.6 230 01:49 18.06.2020
1329 Clear 29 1020 32 14484 4.6 230 01:27 18.06.2020
1330 Clear 30 1020 28 14484 5.1 220 00:54 18.06.2020
1331 Clear 30 1020 28 14484 5.1 220 00:32 18.06.2020
1332 Clear 30 1020 28 14484 4.6 250 23:56 17.06.2020
1333 Clear 30 1020 28 14484 4.6 250 23:38 17.06.2020
1334 Clear 30 1020 28 14484 4.6 250 23:19 17.06.2020
1335 Clear 30 1021 27 14484 4.6 220 22:57 17.06.2020
1336 Clear 30 1021 27 14484 4.6 220 22:57 17.06.2020
1337 Clear 30 1021 27 14484 4.6 220 22:37 17.06.2020
1338 Clear 30 1021 27 14484 4.6 220 22:37 17.06.2020
1339 Clear 30 1021 27 14484 4.6 220 22:19 17.06.2020
1340 Clear 30 1022 28 14484 5.7 210 21:40 17.06.2020
1341 Clear 30 1022 28 14484 5.7 210 21:22 17.06.2020
1342 Clear 29 1023 30 14484 5.7 230 20:57 17.06.2020
1343 Clear 29 1023 30 14484 5.7 230 20:38 17.06.2020
1344 Clear 29 1023 30 14484 5.7 230 20:19 17.06.2020
1345 Clear 29 1023 32 14484 4.1 270 19:44 17.06.2020
1346 Clear 28 1023 32 14484 4.1 270 19:23 17.06.2020
1347 Clear 28 1024 32 14484 6.7 220 18:58 17.06.2020
1348 Clear 28 1024 32 14484 6.7 220 18:40 17.06.2020
1349 Clear 28 1024 32 14484 6.7 220 18:40 17.06.2020
1350 Clear 28 1024 32 14484 6.7 220 18:21 17.06.2020
1351 Clear 26 1024 39 14484 5.7 240 17:43 17.06.2020
1352 Clear 26 1024 39 14484 5.7 240 17:22 17.06.2020
1353 Clear 26 1024 39 14484 5.7 240 17:22 17.06.2020
1354 Clear 25 1024 47 14484 4.1 210 16:57 17.06.2020
1355 Clear 24 1024 47 14484 4.1 210 16:38 17.06.2020
1356 Clear 24 1024 47 14484 4.1 210 16:20 17.06.2020
1357 Clear 24 1025 49 14484 3.6 190 15:56 17.06.2020
1358 Clear 22 1025 60 14484 3.1 220 15:38 17.06.2020
1359 Clear 20 1025 60 14484 3.1 220 15:18 17.06.2020
1360 Clear 20 1025 60 14484 3.1 220 14:56 17.06.2020
1361 Clear 20 1025 60 14484 3.1 220 14:38 17.06.2020
1362 Clear 20 1025 60 14484 3.1 220 14:19 17.06.2020
1363 Clear 19 1025 63 14484 2.6 210 13:41 17.06.2020
1364 Clear 18 1025 63 14484 2.6 210 13:22 17.06.2020
1365 Clear 17 1025 76 14484 1.5 170 12:58 17.06.2020
1366 Clear 17 1025 76 14484 1.5 170 12:40 17.06.2020
1367 Clear 16 1025 76 14484 1.5 170 12:20 17.06.2020
1368 Clear 15 1024 76 14484 1.5 170 11:44 17.06.2020
1369 Clear 15 1024 76 14484 1.5 170 11:26 17.06.2020
1370 Clear 16 1024 71 14484 1.5 180 10:56 17.06.2020
1371 Clear 15 1024 71 14484 1.5 180 10:37 17.06.2020
1372 Clear 16 1024 71 14484 1.5 180 10:18 17.06.2020
1373 Clear 16 1024 71 14484 2.1 160 09:55 17.06.2020
1374 Clear 16 1024 71 14484 2.1 160 09:36 17.06.2020
1375 Clear 16 1024 71 14484 2.1 160 09:18 17.06.2020
1376 Clear 17 1024 67 14484 2.18 235 08:42 17.06.2020
1377 Clear 17 1024 67 14484 1.88 229 08:19 17.06.2020
1378 Clear 17 1024 63 14484 1 140 07:43 17.06.2020
1379 Clear 17 1024 63 14484 1 140 07:23 17.06.2020
1380 Clear 18 1024 52 14484 1.5 200 06:58 17.06.2020
1381 Clear 19 1024 52 14484 1.5 200 06:39 17.06.2020
1382 Clear 19 1024 52 14484 1.5 200 06:21 17.06.2020
1383 Clear 19 1024 48 14484 2.6 210 05:48 17.06.2020
1384 Clear 21 1024 40 14484 2.6 180 04:36 17.06.2020
1385 Clear 26 1025 29 14484 2.1 220 01:59 17.06.2020
1386 Clear 27 1025 28 14484 2.1 210 00:49 17.06.2020
1387 Clear 28 1025 28 14484 2.1 210 00:30 17.06.2020
1388 Clear 28 1025 26 14484 2.1 250 23:58 16.06.2020
1389 Clear 28 1025 26 14484 2.1 250 23:40 16.06.2020
1390 Clear 28 1025 26 14484 2.1 250 23:22 16.06.2020
1391 Clear 28 1026 26 14484 5.7 260 22:57 16.06.2020
1392 Clear 28 1026 26 14484 5.7 260 22:38 16.06.2020
1393 Clear 28 1026 26 14484 5.7 260 22:19 16.06.2020
1394 Clear 28 1027 28 14484 6.2 240 21:57 16.06.2020
1395 Clear 28 1027 28 14484 6.2 240 21:39 16.06.2020
1396 Clear 28 1027 28 14484 6.2 240 21:20 16.06.2020
1397 Clear 27 1027 29 14484 3.1 170 20:43 16.06.2020
1398 Clear 27 1027 29 14484 3.1 170 20:22 16.06.2020
1399 Clear 27 1028 29 14484 3.1 0 19:58 16.06.2020
1400 Clear 27 1028 29 14484 3.1 0 19:40 16.06.2020
1401 Clear 27 1028 29 14484 3.1 0 19:22 16.06.2020
1402 Clear 26 1029 33 14484 2.1 0 18:58 16.06.2020
1403 Clear 26 1029 33 14484 2.1 0 18:39 16.06.2020
1404 Clear 25 1029 33 14484 2.1 0 18:20 16.06.2020
1405 Clear 24 1029 36 14484 2.6 0 17:56 16.06.2020
1406 Clear 24 1029 36 14484 2.6 0 17:37 16.06.2020
1407 Clear 24 1029 36 14484 2.6 0 17:19 16.06.2020
1408 Clear 23 1030 40 14484 2.6 210 16:56 16.06.2020
1409 Clear 23 1030 40 14484 2.6 210 16:38 16.06.2020
1410 Clear 23 1030 40 14484 2.6 210 16:19 16.06.2020
1411 Clear 22 1030 49 14484 2.1 200 15:56 16.06.2020
1412 Clear 22 1030 49 14484 2.1 200 15:38 16.06.2020
1413 Clear 20 1030 49 14484 2.1 200 15:20 16.06.2020
1414 Clear 18 1030 59 14484 2.1 170 14:43 16.06.2020
1415 Clear 18 1030 59 14484 2.1 170 14:43 16.06.2020
1416 Clear 18 1030 59 14484 2.1 170 14:25 16.06.2020
1417 Clear 18 1030 62 14484 2.1 190 13:57 16.06.2020
1418 Clear 17 1030 62 14484 2.1 190 13:39 16.06.2020
1419 Clear 16 1030 62 14484 2.1 190 13:20 16.06.2020
1420 Clear 13 1029 76 14484 1 160 12:42 16.06.2020
1421 Clear 13 1029 76 14484 1 160 12:21 16.06.2020
1422 Clear 12 1029 76 14484 2.1 150 11:56 16.06.2020
1423 Clear 12 1029 76 14484 2.1 150 11:38 16.06.2020
1424 Clear 13 1029 76 14484 2.1 150 11:19 16.06.2020
1425 Clear 13 1029 71 24140 1.58 222 10:55 16.06.2020
1426 Clear 13 1029 71 24140 1.58 222 10:37 16.06.2020
1427 Clear 14 1029 71 24140 1.81 220 10:18 16.06.2020
1428 Clear 13 1029 71 14484 1.81 220 09:43 16.06.2020
1429 Clear 14 1029 71 14484 1.46 228 09:22 16.06.2020
1430 Clear 15 1029 62 14484 1 210 08:48 16.06.2020
1431 Clear 15 1029 62 14484 1 210 08:30 16.06.2020
1432 Clear 16 1029 54 14484 1.5 220 07:51 16.06.2020
1433 Clear 16 1029 54 14484 1.5 220 07:29 16.06.2020
1434 Clear 16 1029 51 14484 1 180 06:56 16.06.2020
1435 Clear 16 1029 51 14484 1 180 06:33 16.06.2020
1436 Clear 17 1029 45 14484 1 200 05:50 16.06.2020
1437 Clear 18 1029 37 14484 1.5 220 04:54 16.06.2020
1438 Clear 20 1028 34 14484 2.6 220 03:53 16.06.2020
1439 Clear 22 1028 35 14484 2.6 170 02:33 16.06.2020
1440 Clear 23 1028 27 14484 2.34 226 01:33 16.06.2020
1441 Clear 23 1028 27 14484 1.5 250 00:52 16.06.2020
1442 Clear 24 1028 27 14484 1.5 250 00:22 16.06.2020
1443 Clear 24 1029 29 14484 2.6 0 23:43 15.06.2020
1444 Clear 25 1029 29 14484 2.6 0 23:24 15.06.2020
1445 Clear 25 1029 29 14484 1.5 170 23:00 15.06.2020
1446 Clear 24 1029 29 14484 1.5 170 22:41 15.06.2020
1447 Clear 24 1029 29 14484 1.5 170 22:41 15.06.2020
1448 Clear 25 1029 29 14484 1.5 170 22:22 15.06.2020
1449 Clear 24 1030 31 14484 1.5 0 21:58 15.06.2020
1450 Clear 24 1030 31 14484 1.5 0 21:38 15.06.2020
1451 Clear 24 1030 31 14484 1.5 0 21:20 15.06.2020
1452 Clear 24 1030 31 14484 2.6 350 20:57 15.06.2020
1453 Clear 24 1030 31 14484 2.6 350 20:38 15.06.2020
1454 Clear 23 1030 31 14484 2.6 350 20:19 15.06.2020
1455 Clear 23 1031 31 14484 2.6 100 19:57 15.06.2020
1456 Clear 23 1031 31 14484 2.6 100 19:38 15.06.2020
1457 Clear 23 1031 31 14484 2.6 100 19:20 15.06.2020
1458 Clouds 22 1031 33 14484 4.1 0 18:56 15.06.2020
1459 Clouds 23 1031 33 14484 4.1 0 18:37 15.06.2020
1460 Clouds 22 1031 33 14484 4.1 0 18:19 15.06.2020
1461 Clear 21 1032 40 14484 3.6 360 17:56 15.06.2020
1462 Clear 21 1032 40 14484 3.6 360 17:37 15.06.2020
1463 Clear 21 1032 40 14484 3.6 360 17:18 15.06.2020
1464 Clear 20 1033 48 14484 3.1 30 16:41 15.06.2020
1465 Clear 19 1033 48 14484 3.1 30 16:19 15.06.2020
1466 Clear 19 1033 59 14484 2.1 30 15:56 15.06.2020
1467 Clear 18 1033 59 14484 2.1 30 15:38 15.06.2020
1468 Clear 17 1033 59 14484 2.1 30 15:19 15.06.2020
1469 Clear 15 1033 67 14484 2.6 20 14:42 15.06.2020
1470 Clear 15 1033 67 14484 2.6 20 14:21 15.06.2020
1471 Clear 14 1032 76 14484 3.6 360 13:59 15.06.2020
1472 Clouds 14 1032 62 32767 3.6 30 13:41 15.06.2020
1473 Clouds 14 1032 62 32767 3.6 30 13:41 15.06.2020
1474 Clear 13 1032 76 14484 3.6 360 13:23 15.06.2020
1475 Clouds 11 1032 71 24140 3.1 10 12:58 15.06.2020
1476 Clear 10 1032 87 14484 1.5 360 12:39 15.06.2020
1477 Clear 10 1032 87 14484 1.5 360 12:21 15.06.2020
1478 Clear 9 1031 87 14484 1 360 11:45 15.06.2020
1479 Clear 9 1031 87 14484 1 360 11:25 15.06.2020
1480 Clear 9 1031 75 14484 2.32 20 10:56 15.06.2020
1481 Clear 9 1031 75 14484 2.32 20 10:38 15.06.2020
1482 Clear 9 1031 75 14484 2.18 23 10:19 15.06.2020
1483 Clear 9 1031 75 14484 2.18 23 10:19 15.06.2020
1484 Clear 10 1031 81 14484 1 60 09:41 15.06.2020
1485 Clear 10 1031 81 14484 1 60 09:22 15.06.2020
1486 Clear 10 1031 75 14484 2.36 17 08:43 15.06.2020
1487 Clear 10 1031 75 14484 2.28 15 08:24 15.06.2020
1488 Clear 11 1031 70 14484 2.28 15 07:50 15.06.2020
1489 Clear 12 1031 70 14484 2.28 15 07:32 15.06.2020
1490 Clear 13 1031 66 14484 1.98 14 06:53 15.06.2020
1491 Clear 13 1031 66 14484 2.07 19 06:26 15.06.2020
1492 Clear 13 1031 58 14484 1.5 10 05:48 15.06.2020
1493 Clear 13 1031 58 14484 1.5 10 05:27 15.06.2020
1494 Clear 15 1030 50 14484 2.1 10 04:21 15.06.2020
1495 Clear 17 1030 44 14484 2.1 100 03:48 15.06.2020
1496 Clear 18 1030 34 14484 4.1 80 02:55 15.06.2020
1497 Clear 19 1030 34 14484 4.1 80 02:19 15.06.2020
1498 Clear 20 1030 34 14484 2.6 40 01:40 15.06.2020
1499 Clear 20 1030 34 14484 2.6 40 01:22 15.06.2020
1500 Clouds 20 1030 30 14484 3.6 60 00:41 15.06.2020
1501 Clouds 20 1030 30 14484 3.6 60 00:22 15.06.2020
1502 Clouds 21 1030 28 14484 6.2 60 23:55 14.06.2020
1503 Clouds 20 1030 28 14484 6.2 60 23:36 14.06.2020
1504 Clouds 20 1030 28 14484 6.2 60 23:18 14.06.2020
1505 Clouds 20 1030 32 14484 4.1 60 22:55 14.06.2020
1506 Clouds 20 1030 32 14484 4.1 60 22:37 14.06.2020
1507 Clouds 21 1030 32 14484 4.1 60 22:18 14.06.2020
1508 Clouds 20 1030 34 14484 4.6 30 21:55 14.06.2020
1509 Clouds 20 1030 34 14484 4.6 30 21:36 14.06.2020
1510 Clouds 20 1030 34 14484 4.6 30 21:18 14.06.2020
1511 Clouds 20 1030 34 14484 4.6 20 20:55 14.06.2020
1512 Clouds 20 1030 34 14484 4.6 20 20:36 14.06.2020
1513 Clouds 20 1030 34 14484 4.6 20 20:18 14.06.2020
1514 Clouds 20 1031 37 14484 4.6 30 19:54 14.06.2020
1515 Clouds 20 1031 37 14484 4.6 30 19:36 14.06.2020
1516 Clouds 19 1031 37 14484 4.6 30 19:18 14.06.2020
1517 Clouds 19 1031 34 14484 3.1 70 18:55 14.06.2020
1518 Clouds 20 1031 34 14484 3.1 70 18:36 14.06.2020
1519 Clouds 20 1031 34 14484 3.1 70 18:18 14.06.2020
1520 Clouds 19 1032 34 14484 5.7 70 17:40 14.06.2020
1521 Clouds 19 1032 34 14484 5.7 70 17:20 14.06.2020
1522 Clear 18 1032 48 14484 2.6 40 16:58 14.06.2020
1523 Clear 18 1032 48 14484 2.6 40 16:39 14.06.2020
1524 Clear 17 1032 48 14484 2.6 40 16:19 14.06.2020
1525 Clear 16 1032 54 14484 4.1 20 15:55 14.06.2020
1526 Clear 16 1032 54 14484 4.1 20 15:36 14.06.2020
1527 Clear 15 1032 54 14484 4.1 20 15:18 14.06.2020
1528 Clear 14 1031 62 14484 4.6 40 14:41 14.06.2020
1529 Clear 14 1031 62 14484 4.6 40 14:23 14.06.2020
1530 Clouds 13 1031 54 32767 5.7 40 13:59 14.06.2020
1531 Clouds 13 1031 54 32767 5.7 40 13:40 14.06.2020
1532 Clouds 13 1031 54 32767 5.7 40 13:40 14.06.2020
1533 Clouds 12 1031 54 32767 5.7 40 13:21 14.06.2020
1534 Clouds 11 1030 61 24140 3.6 20 12:57 14.06.2020
1535 Clouds 11 1030 61 24140 3.6 20 12:39 14.06.2020
1536 Clear 10 1030 81 14484 3.1 30 12:21 14.06.2020
1537 Clear 9 1030 81 14484 1.5 10 11:57 14.06.2020
1538 Clear 9 1030 81 14484 1.5 10 11:38 14.06.2020
1539 Clear 9 1030 81 14484 1.5 10 11:20 14.06.2020
1540 Clear 10 1029 70 14484 1 0 10:42 14.06.2020
1541 Clear 10 1029 70 14484 1 0 10:20 14.06.2020
1542 Clear 11 1029 70 14484 1.5 360 09:51 14.06.2020
1543 Clear 11 1029 70 14484 1.5 360 09:26 14.06.2020
1544 Clear 11 1029 75 14484 3.6 360 08:59 14.06.2020
1545 Clear 11 1029 75 14484 3.6 360 08:41 14.06.2020
1546 Clouds 12 1029 57 24140 3.6 20 08:19 14.06.2020
1547 Clouds 13 1028 62 14484 2.1 20 07:52 14.06.2020
1548 Clouds 13 1028 62 14484 2.1 20 07:32 14.06.2020
1549 Clouds 13 1028 71 14484 3.1 10 06:39 14.06.2020
1550 Clouds 14 1028 66 14484 1.5 190 05:45 14.06.2020
1551 Clouds 14 1028 66 14484 1.5 190 05:18 14.06.2020
1552 Clouds 14 1027 58 14484 1 190 04:35 14.06.2020
1553 Clouds 14 1026 54 14484 1.79 207 03:36 14.06.2020
1554 Clear 15 1026 51 14484 1.5 350 02:31 14.06.2020
1555 Clouds 16 1026 47 14484 2.1 330 01:47 14.06.2020
1556 Clouds 16 1026 47 14484 2.1 330 01:26 14.06.2020
1557 Clouds 17 1025 48 14484 1 0 00:42 14.06.2020
1558 Clouds 17 1025 48 14484 1 0 00:20 14.06.2020
1559 Clouds 17 1025 45 14484 3.6 340 23:44 13.06.2020
1560 Clouds 17 1025 45 14484 3.6 340 23:25 13.06.2020
1561 Clouds 16 1025 44 14484 1.5 0 22:58 13.06.2020
1562 Clouds 16 1025 44 14484 1.5 0 22:37 13.06.2020
1563 Clouds 16 1025 44 14484 1.5 0 22:18 13.06.2020
1564 Clouds 15 1025 54 14484 2.6 270 21:56 13.06.2020
1565 Clouds 16 1025 54 14484 2.6 270 21:38 13.06.2020
1566 Clouds 15 1025 54 14484 2.6 270 21:20 13.06.2020
1567 Rain 14 1025 58 14484 5.7 280 20:43 13.06.2020
1568 Clouds 14 1025 50 14484 2.6 330 20:19 13.06.2020
1569 Clouds 14 1025 58 14484 3.6 270 19:57 13.06.2020
1570 Clouds 14 1025 58 14484 3.6 270 19:36 13.06.2020
1571 Clouds 14 1025 58 14484 3.6 270 19:18 13.06.2020
1572 Clouds 14 1025 58 14484 3.1 240 18:55 13.06.2020
1573 Clouds 13 1025 58 14484 3.1 240 18:37 13.06.2020
1574 Clouds 13 1025 58 14484 3.1 240 18:18 13.06.2020
1575 Clouds 12 1025 58 14484 3.1 320 17:42 13.06.2020
1576 Clouds 12 1025 58 14484 3.1 320 17:23 13.06.2020
1577 Clouds 12 1024 57 14484 3.6 320 16:58 13.06.2020
1578 Clouds 12 1024 57 14484 3.6 320 16:40 13.06.2020
1579 Clouds 12 1024 57 14484 3.6 320 16:19 13.06.2020
1580 Clouds 12 1024 62 14484 2.6 290 15:59 13.06.2020
1581 Clouds 12 1024 62 14484 2.6 290 15:39 13.06.2020
1582 Clouds 11 1024 62 14484 2.6 290 15:20 13.06.2020
1583 Clouds 9 1023 66 14484 2.1 300 14:43 13.06.2020
1584 Clouds 9 1023 66 14484 2.1 300 14:22 13.06.2020
1585 Clouds 9 1023 66 14484 3.1 290 13:56 13.06.2020
1586 Clouds 9 1023 66 14484 3.1 290 13:37 13.06.2020
1587 Clouds 9 1023 66 14484 3.1 290 13:18 13.06.2020
1588 Clouds 8 1022 65 14484 3.6 290 12:42 13.06.2020
1589 Clouds 8 1022 65 14484 3.6 290 12:24 13.06.2020
1590 Clouds 8 1022 65 14484 3.1 290 11:55 13.06.2020
1591 Clouds 8 1022 65 14484 3.1 290 11:37 13.06.2020
1592 Clouds 8 1022 65 14484 3.1 290 11:18 13.06.2020
1593 Clouds 8 1021 61 14484 3.1 300 10:42 13.06.2020
1594 Clouds 8 1021 61 14484 3.1 300 10:23 13.06.2020
1595 Clouds 8 1021 61 14484 4.1 310 09:55 13.06.2020
1596 Clouds 8 1021 61 14484 4.1 310 09:36 13.06.2020
1597 Clouds 8 1021 61 14484 4.1 310 09:18 13.06.2020
1598 Clouds 9 1020 57 14484 4.6 310 08:44 13.06.2020
1599 Clouds 9 1020 57 14484 4.6 310 08:26 13.06.2020
1600 Clouds 9 1020 57 14484 4.1 320 07:44 13.06.2020
1601 Clouds 9 1020 57 14484 4.1 320 07:25 13.06.2020
1602 Clouds 10 1020 60 14484 6.2 310 06:44 13.06.2020
1603 Clouds 10 1020 57 14484 6.2 310 06:25 13.06.2020
1604 Clouds 11 1020 57 14484 5.7 320 05:30 13.06.2020
1605 Clouds 12 1019 58 14484 6.2 300 04:41 13.06.2020
1606 Clouds 13 1019 54 24140 6.2 310 03:43 13.06.2020
1607 Clouds 15 1017 38 14484 7.2 280 02:52 13.06.2020
1608 Clouds 16 1017 38 14484 7.2 280 02:18 13.06.2020
1609 Clouds 16 1017 41 14484 8.2 280 01:25 13.06.2020
1610 Clouds 17 1017 42 32767 8.7 290 00:56 13.06.2020
1611 Clear 17 1016 39 14484 9.3 290 00:37 13.06.2020
1612 Clear 18 1016 39 14484 9.3 290 00:19 13.06.2020
1613 Clouds 19 1015 37 14484 9.3 280 23:39 12.06.2020
1614 Clouds 19 1015 37 14484 9.3 280 23:18 12.06.2020
1615 Clear 20 1015 37 14484 10.3 270 22:55 12.06.2020
1616 Clear 19 1015 37 14484 10.3 270 22:36 12.06.2020
1617 Clear 20 1015 37 14484 10.3 270 22:18 12.06.2020
1618 Clear 20 1014 37 14484 11.8 260 21:42 12.06.2020
1619 Clear 20 1014 37 14484 11.8 260 21:23 12.06.2020
1620 Clear 20 1014 37 14484 11.8 260 21:23 12.06.2020
1621 Clouds 20 1014 40 14484 9.3 250 20:57 12.06.2020
1622 Clouds 20 1014 40 14484 9.3 250 20:38 12.06.2020
1623 Clouds 20 1014 40 14484 9.3 250 20:19 12.06.2020
1624 Clouds 21 1013 37 14484 9.3 270 19:44 12.06.2020
1625 Clouds 21 1013 37 14484 9.3 270 19:22 12.06.2020
1626 Clear 21 1013 38 14484 14.4 230 18:58 12.06.2020
1627 Clear 21 1013 38 14484 14.4 230 18:37 12.06.2020
1628 Clear 21 1013 38 14484 14.4 230 18:18 12.06.2020
1629 Clear 21 1013 43 14484 12.3 240 17:43 12.06.2020
1630 Clear 21 1013 43 14484 12.3 240 17:25 12.06.2020
1631 Clouds 21 1013 49 14484 11.8 240 16:47 12.06.2020
1632 Clouds 21 1013 49 14484 11.8 240 16:23 12.06.2020
1633 Clouds 19 1013 63 14484 11.3 230 15:53 12.06.2020
1634 Clouds 19 1013 63 14484 11.3 230 15:29 12.06.2020
1635 Clouds 19 1013 63 14484 8.2 240 14:59 12.06.2020
1636 Clouds 19 1013 63 14484 8.2 240 14:41 12.06.2020
1637 Clouds 19 1013 63 14484 8.2 240 14:22 12.06.2020
1638 Clear 19 1014 72 14484 4.6 210 13:56 12.06.2020
1639 Clear 19 1014 72 14484 4.6 210 13:37 12.06.2020
1640 Clear 18 1014 72 14484 4.6 210 13:18 12.06.2020
1641 Clear 17 1014 82 14484 3.1 180 12:39 12.06.2020
1642 Clear 16 1014 82 14484 3.1 180 12:19 12.06.2020
1643 Clear 16 1014 77 14484 4.1 190 11:44 12.06.2020
1644 Clear 16 1014 77 14484 4.1 190 11:23 12.06.2020
1645 Clear 16 1015 82 14484 4.6 170 10:56 12.06.2020
1646 Clear 16 1015 82 14484 4.6 170 10:38 12.06.2020
1647 Clear 16 1015 82 14484 4.6 170 10:19 12.06.2020
1648 Clear 16 1015 82 14484 3.1 180 09:44 12.06.2020
1649 Clear 16 1015 82 14484 3.1 180 09:20 12.06.2020
1650 Clouds 16 1015 72 14484 3.6 170 08:41 12.06.2020
1651 Clouds 16 1015 72 14484 3.6 170 08:23 12.06.2020
1652 Clouds 17 1016 77 14484 3.1 190 07:43 12.06.2020
1653 Clouds 17 1016 77 14484 3.1 190 07:24 12.06.2020
1654 Clear 18 1016 67 14484 3.1 170 06:44 12.06.2020
1655 Clear 18 1016 67 14484 3.1 170 06:23 12.06.2020
1656 Clouds 19 1016 59 14484 4.1 240 05:50 12.06.2020
1657 Clouds 19 1016 59 14484 4.1 240 05:25 12.06.2020
1658 Clear 20 1015 49 14484 9.3 240 03:56 12.06.2020
1659 Clear 21 1014 49 14484 7.7 240 02:43 12.06.2020
1660 Clear 22 1013 40 14484 8.2 240 01:51 12.06.2020
1661 Clear 23 1013 40 14484 8.2 240 01:21 12.06.2020
1662 Clear 24 1012 41 14484 9.8 250 00:41 12.06.2020
1663 Clear 24 1012 41 14484 9.8 250 00:22 12.06.2020
1664 Clear 24 1011 38 14484 12.9 250 23:58 11.06.2020
1665 Clear 25 1011 38 14484 12.9 250 23:40 11.06.2020
1666 Clear 25 1011 38 14484 12.9 250 23:20 11.06.2020
1667 Clouds 25 1010 47 32767 11.8 230 22:57 11.06.2020
1668 Clouds 26 1009 39 14484 15.4 240 22:38 11.06.2020
1669 Clouds 26 1009 39 14484 15.4 240 22:19 11.06.2020
1670 Clouds 26 1009 44 24140 13.4 220 21:54 11.06.2020
1671 Clear 26 1009 42 14484 15.4 240 21:36 11.06.2020
1672 Clear 26 1009 42 14484 15.4 240 21:18 11.06.2020
1673 Clouds 26 1008 44 14484 15.9 230 20:43 11.06.2020
1674 Clouds 26 1008 51 14484 10.8 250 20:21 11.06.2020
1675 Clouds 26 1008 54 14484 15.9 250 19:44 11.06.2020
1676 Clouds 26 1008 54 14484 15.9 250 19:23 11.06.2020
1677 Clouds 27 1007 51 14484 14.4 240 18:59 11.06.2020
1678 Clouds 27 1007 51 14484 14.4 240 18:41 11.06.2020
1679 Clouds 27 1006 65 14484 8.7 230 18:20 11.06.2020
1680 Clouds 27 1006 65 14484 8.7 230 17:56 11.06.2020
1681 Clouds 26 1006 65 14484 8.7 230 17:37 11.06.2020
1682 Clouds 25 1006 73 14484 7.2 210 17:19 11.06.2020
1683 Clouds 25 1006 73 14484 7.2 210 16:55 11.06.2020
1684 Clouds 24 1006 73 14484 7.2 210 16:37 11.06.2020
1685 Clouds 23 1006 83 14484 6.7 210 16:18 11.06.2020
1686 Rain 22 1007 83 14484 6.7 210 15:42 11.06.2020
1687 Rain 22 1007 83 14484 6.7 210 15:23 11.06.2020
1688 Rain 22 1006 83 14484 5.1 190 14:55 11.06.2020
1689 Clouds 22 1006 94 14484 7.7 180 14:37 11.06.2020
1690 Clouds 22 1005 100 14484 6.7 170 14:19 11.06.2020
1691 Clouds 22 1005 100 14484 6.7 170 13:54 11.06.2020
1692 Clouds 22 1005 100 14484 6.7 170 13:36 11.06.2020
1693 Rain 22 1005 94 8047 11.3 180 13:18 11.06.2020
1694 Rain 22 1005 78 14484 12.3 170 12:39 11.06.2020
1695 Rain 22 1004 73 24140 9.8 160 12:20 11.06.2020
1696 Rain 23 1004 73 24140 9.8 160 11:59 11.06.2020
1697 Clouds 23 1004 73 24140 8.7 160 11:40 11.06.2020
1698 Clouds 23 1004 73 24140 8.2 150 11:22 11.06.2020
1699 Clouds 23 1005 69 14484 7.2 180 10:57 11.06.2020
1700 Clouds 23 1005 69 14484 7.2 180 10:39 11.06.2020
1701 Clouds 23 1005 69 14484 7.2 180 10:39 11.06.2020
1702 Clouds 22 1006 69 14484 8.7 170 10:18 11.06.2020
1703 Clouds 22 1005 68 24140 7.2 130 09:43 11.06.2020
1704 Clouds 22 1005 68 24140 7.2 130 09:25 11.06.2020
1705 Clouds 22 1007 64 14484 8.2 170 08:44 11.06.2020
1706 Clouds 22 1006 68 24140 7.2 140 08:21 11.06.2020
1707 -273 0 0 0 0 0 07:59 11.06.2020
1708 Clouds 22 1007 64 14484 9.3 170 07:41 11.06.2020
1709 Clouds 22 1007 64 14484 9.3 170 07:41 11.06.2020
1710 Clouds 22 1007 64 14484 9.3 170 07:22 11.06.2020
1711 Clouds 22 1007 64 14484 9.3 170 07:22 11.06.2020
1712 Clear 22 1007 64 14484 8.7 170 06:31 11.06.2020
1713 Clear 22 1007 60 14484 6.7 160 05:53 11.06.2020
1714 Clouds 23 1008 60 14484 4.1 160 03:59 11.06.2020
1715 Clouds 24 1008 60 14484 4.1 160 03:25 11.06.2020
1716 Clouds 25 1008 53 14484 10.3 170 02:45 11.06.2020
1717 Clouds 26 1008 53 14484 12.9 170 01:56 11.06.2020
1718 Clouds 26 1009 50 14484 7.7 160 01:34 11.06.2020
1719 Clouds 26 1009 50 14484 9.3 170 00:56 11.06.2020
1720 Clouds 26 1009 50 14484 9.3 170 00:38 11.06.2020
1721 Clouds 26 1009 50 14484 8.7 170 00:18 11.06.2020
1722 Clouds 26 1009 50 14484 8.7 170 23:39 10.06.2020
1723 Clouds 26 1009 50 14484 8.7 170 23:21 10.06.2020
1724 Clouds 25 1010 50 14484 8.7 180 22:40 10.06.2020
1725 Clouds 25 1010 50 14484 8.7 180 22:22 10.06.2020
1726 Clouds 25 1011 53 14484 6.7 150 21:59 10.06.2020
1727 Clouds 25 1011 53 14484 6.7 150 21:41 10.06.2020
1728 Clouds 25 1011 53 14484 6.7 170 21:19 10.06.2020
1729 Clouds 25 1011 53 14484 6.7 170 20:58 10.06.2020
1730 Clouds 25 1011 53 14484 6.7 170 20:40 10.06.2020
1731 Clouds 25 1011 53 14484 6.7 170 20:40 10.06.2020
1732 Clouds 25 1011 53 14484 6.7 170 20:21 10.06.2020
1733 Clouds 25 1012 50 14484 8.7 150 19:59 10.06.2020
1734 Clouds 25 1012 50 14484 8.7 150 19:38 10.06.2020
1735 Clouds 25 1013 50 14484 7.7 160 19:18 10.06.2020
1736 Clouds 25 1013 50 14484 7.7 160 18:42 10.06.2020
1737 Clouds 24 1013 50 14484 7.7 160 18:22 10.06.2020
1738 Clouds 23 1013 56 14484 6.7 140 17:59 10.06.2020
1739 Clouds 23 1013 56 14484 6.7 140 17:41 10.06.2020
1740 Clouds 23 1013 56 14484 6.7 140 17:20 10.06.2020
1741 Clear 22 1013 56 14484 5.7 170 16:59 10.06.2020
1742 Clear 22 1013 56 14484 5.7 170 16:41 10.06.2020
1743 Clear 21 1013 56 14484 5.7 170 16:22 10.06.2020
1744 Clear 21 1014 60 14484 5.1 120 15:57 10.06.2020
1745 Clear 21 1014 60 14484 5.1 120 15:37 10.06.2020
1746 Clear 18 1014 68 14484 4.6 110 15:19 10.06.2020
1747 Clear 18 1014 68 14484 4.6 110 14:41 10.06.2020
1748 Clear 18 1014 68 14484 4.6 110 14:22 10.06.2020
1749 Clouds 17 1014 72 14484 4.6 100 13:58 10.06.2020
1750 Clouds 17 1014 72 14484 4.6 100 13:39 10.06.2020
1751 Clouds 16 1014 72 24140 3.1 80 13:21 10.06.2020
1752 Clear 15 1014 76 14484 3.6 110 12:42 10.06.2020
1753 Clouds 15 1014 77 24140 3.6 90 12:20 10.06.2020
1754 Clear 14 1015 87 14484 3.6 100 11:56 10.06.2020
1755 Clear 14 1015 87 14484 3.6 100 11:38 10.06.2020
1756 Clear 14 1015 87 14484 2.6 100 11:19 10.06.2020
1757 Clear 14 1015 87 14484 2.6 100 10:44 10.06.2020
1758 Clouds 15 1015 72 24140 3.6 110 10:25 10.06.2020
1759 Clear 14 1015 87 14484 2.6 110 09:59 10.06.2020
1760 Clouds 15 1015 72 24140 3.6 110 09:39 10.06.2020
1761 Clouds 15 1015 67 24140 2.6 110 09:20 10.06.2020
1762 Clouds 15 1015 67 24140 2.6 110 09:20 10.06.2020
1763 Clouds 15 1015 67 24140 2.6 110 08:43 10.06.2020
1764 Clouds 15 1015 63 24140 2.1 130 08:23 10.06.2020
1765 Clouds 16 1015 63 24140 2.1 130 07:43 10.06.2020
1766 Clouds 16 1015 63 24140 2.6 130 07:24 10.06.2020
1767 Clouds 16 1015 63 24140 2.6 130 06:59 10.06.2020
1768 Clouds 16 1015 63 24140 2.6 130 06:39 10.06.2020
1769 Clear 16 1015 67 14484 1 130 06:18 10.06.2020
1770 Clear 16 1015 67 14484 1 130 05:51 10.06.2020
1771 Clear 17 1015 59 14484 1.5 130 05:19 10.06.2020
1772 Clear 17 1015 59 14484 1.5 130 04:29 10.06.2020
1773 Clear 20 1014 52 14484 2.1 20 02:49 10.06.2020
1774 Clear 21 1014 49 14484 3.1 320 01:51 10.06.2020
1775 Clear 21 1014 49 14484 3.1 320 01:28 10.06.2020
1776 Clear 22 1013 46 14484 1.5 0 00:39 10.06.2020
1777 Clear 22 1013 43 14484 4.1 320 00:21 10.06.2020
1778 Clear 22 1013 43 14484 4.1 320 23:54 09.06.2020
1779 Clear 22 1013 43 14484 4.1 320 23:36 09.06.2020
1780 Clouds 22 1013 46 14484 2.6 350 23:18 09.06.2020
1781 Clouds 22 1013 46 14484 2.6 350 22:54 09.06.2020
1782 Clouds 22 1013 46 14484 2.6 350 22:36 09.06.2020
1783 Clouds 22 1013 49 14484 4.1 70 22:18 09.06.2020
1784 Clouds 22 1013 49 14484 4.1 70 21:54 09.06.2020
1785 Clouds 22 1013 49 14484 4.1 70 21:54 09.06.2020
1786 Clouds 21 1013 49 14484 4.1 70 21:36 09.06.2020
1787 Clouds 21 1013 49 14484 4.1 70 21:36 09.06.2020
1788 Clouds 21 1013 49 14484 2.6 80 21:18 09.06.2020
1789 Clouds 21 1013 49 14484 2.6 80 20:54 09.06.2020
1790 Clouds 21 1013 49 14484 2.6 80 20:36 09.06.2020
1791 Clouds 20 1013 55 14484 4.6 360 20:18 09.06.2020
1792 Clouds 20 1013 55 14484 4.6 360 19:54 09.06.2020
1793 Clouds 20 1013 55 14484 4.6 360 19:54 09.06.2020
1794 Clouds 20 1013 55 14484 4.6 360 19:36 09.06.2020
1795 Clouds 19 1013 55 14484 4.1 70 19:18 09.06.2020
1796 Clouds 18 1013 55 14484 4.1 70 18:42 09.06.2020
1797 Clouds 18 1013 55 14484 4.1 70 18:24 09.06.2020
1798 Clouds 17 1013 55 14484 5.1 50 17:57 09.06.2020
1799 Clouds 17 1013 55 14484 5.1 50 17:38 09.06.2020
1800 Clouds 17 1013 55 14484 5.1 50 17:20 09.06.2020
1801 Clouds 17 1013 59 14484 2.1 60 16:46 09.06.2020
1802 Clouds 17 1013 59 14484 2.1 60 16:28 09.06.2020
1803 Clouds 16 1013 63 14484 2.6 50 15:59 09.06.2020
1804 Clouds 16 1013 63 14484 2.6 50 15:39 09.06.2020
1805 Clouds 16 1013 63 14484 2.6 50 15:21 09.06.2020
1806 Clouds 16 1013 63 14484 3.1 20 14:55 09.06.2020
1807 Clouds 16 1013 63 14484 3.1 20 14:37 09.06.2020
1808 Clouds 16 1013 63 14484 3.1 240 14:18 09.06.2020
1809 Clouds 16 1013 63 14484 3.1 240 13:43 09.06.2020
1810 Clouds 16 1013 63 14484 3.1 240 13:21 09.06.2020
1811 Clouds 16 1013 67 14484 1 90 12:59 09.06.2020
1812 Clouds 16 1013 67 14484 1 90 12:41 09.06.2020
1813 Clouds 16 1013 55 14484 1 270 12:19 09.06.2020
1814 Clouds 16 1013 55 14484 1 270 11:55 09.06.2020
1815 Clouds 16 1013 55 14484 1 270 11:37 09.06.2020
1816 Clouds 16 1013 62 14484 1 80 11:19 09.06.2020
1817 Clouds 16 1013 62 14484 1 80 10:45 09.06.2020
1818 Clouds 16 1013 62 14484 1 80 10:25 09.06.2020
1819 Clouds 16 1013 51 14484 3.1 10 09:55 09.06.2020
1820 Clouds 16 1013 51 14484 3.1 10 09:36 09.06.2020
1821 Clouds 17 1013 48 14484 5.1 20 09:18 09.06.2020
1822 Clouds 17 1014 51 14484 3.6 330 08:39 09.06.2020
1823 Clouds 17 1014 48 14484 4.6 340 08:20 09.06.2020
1824 Clouds 18 1013 42 14484 3.1 350 07:40 09.06.2020
1825 Clouds 18 1014 37 14484 3.6 320 07:22 09.06.2020
1826 Clouds 19 1014 37 14484 3.6 320 06:55 09.06.2020
1827 Clouds 19 1012 39 14484 1 0 06:36 09.06.2020
1828 Clouds 20 1013 34 14484 3.1 310 05:36 09.06.2020
1829 Clouds 20 1013 30 14484 5.7 280 03:52 09.06.2020
1830 Clouds 22 1013 28 14484 5.1 250 01:54 09.06.2020
1831 Clouds 22 1013 28 14484 5.1 250 01:36 09.06.2020
1832 Clouds 22 1013 33 14484 6.7 230 01:18 09.06.2020
1833 Clouds 23 1014 27 32767 5.7 270 00:39 09.06.2020
1834 Clouds 23 1014 33 14484 4.6 210 00:18 09.06.2020
1835 Clouds 23 1014 27 32767 6.7 270 23:41 08.06.2020
1836 Clouds 23 1014 33 14484 4.6 210 23:20 08.06.2020
1837 Clouds 23 1014 35 14484 5.1 210 22:56 08.06.2020
1838 Clouds 23 1014 35 14484 5.1 210 22:38 08.06.2020
1839 Clear 23 1015 35 14484 5.1 240 22:20 08.06.2020
1840 Clear 23 1015 35 14484 5.1 240 21:55 08.06.2020
1841 Clear 23 1015 35 14484 5.1 240 21:37 08.06.2020
1842 Clear 22 1016 32 14484 3.1 290 21:18 08.06.2020
1843 Clear 22 1016 32 14484 3.1 290 20:54 08.06.2020
1844 Clear 22 1016 32 14484 3.1 290 20:36 08.06.2020
1845 Clear 22 1016 35 14484 6.7 280 20:18 08.06.2020
1846 Clear 21 1016 35 14484 6.7 280 19:43 08.06.2020
1847 Clear 21 1016 37 14484 3.1 350 19:21 08.06.2020
1848 Clear 20 1016 37 14484 3.1 350 18:43 08.06.2020
1849 Clear 19 1017 42 14484 4.6 310 18:21 08.06.2020
1850 Clear 19 1017 42 14484 4.6 310 17:58 08.06.2020
1851 Clear 18 1017 42 14484 4.6 310 17:39 08.06.2020
1852 Clear 18 1017 42 14484 4.6 310 17:21 08.06.2020
1853 Clear 18 1017 45 14484 4.6 290 16:58 08.06.2020
1854 Clear 17 1017 45 14484 4.6 290 16:39 08.06.2020
1855 Clear 17 1017 45 14484 4.6 290 16:39 08.06.2020
1856 Clear 17 1017 45 14484 4.6 290 16:21 08.06.2020
1857 Clear 16 1018 48 14484 4.6 340 15:42 08.06.2020
1858 Clear 16 1018 48 14484 4.6 340 15:22 08.06.2020
1859 Clear 15 1017 54 14484 5.1 340 14:58 08.06.2020
1860 Clear 15 1017 54 14484 5.1 340 14:39 08.06.2020
1861 Clear 14 1016 58 14484 4.1 350 14:19 08.06.2020
1862 Clear 14 1016 58 14484 4.1 350 13:43 08.06.2020
1863 Clear 14 1016 58 14484 4.1 350 13:23 08.06.2020
1864 Clouds 12 1016 62 32767 3.6 320 12:43 08.06.2020
1865 Clouds 12 1016 58 32767 3.1 330 12:20 08.06.2020
1866 Clouds 12 1016 58 32767 3.1 330 11:59 08.06.2020
1867 Clouds 12 1016 58 32767 3.1 330 11:40 08.06.2020
1868 Clear 12 1015 66 14484 2.6 30 11:21 08.06.2020
1869 Clear 12 1015 66 14484 2.6 30 11:21 08.06.2020
1870 Clear 12 1015 62 14484 4.6 340 10:58 08.06.2020
1871 Clear 12 1015 62 14484 4.6 340 10:38 08.06.2020
1872 Clear 12 1015 66 14484 3.1 340 10:20 08.06.2020
1873 Clear 13 1015 66 14484 3.1 340 09:57 08.06.2020
1874 Clear 13 1015 66 14484 3.1 340 09:57 08.06.2020
1875 Clear 13 1015 66 14484 3.1 340 09:39 08.06.2020
1876 Clear 13 1015 58 24140 3.6 320 09:20 08.06.2020
1877 Clear 13 1015 58 14484 1.5 350 08:42 08.06.2020
1878 Clear 13 1015 58 14484 1.5 350 08:20 08.06.2020
1879 Clouds 14 1015 54 24140 2.6 310 07:43 08.06.2020
1880 Clear 14 1014 62 14484 1.5 350 07:21 08.06.2020
1881 Clear 14 1014 62 14484 1.5 350 06:48 08.06.2020
1882 Clear 15 1014 62 14484 1.5 350 06:28 08.06.2020
1883 Clear 15 1015 58 14484 1.5 320 05:43 08.06.2020
1884 Clouds 18 1015 44 14484 2.1 360 04:27 08.06.2020
1885 Clouds 20 1014 37 14484 3.1 350 02:32 08.06.2020
1886 Clouds 21 1013 32 14484 5.7 360 01:45 08.06.2020
1887 Clouds 21 1013 32 14484 5.7 360 01:25 08.06.2020
1888 Clouds 21 1013 30 14484 5.1 340 00:29 08.06.2020
1889 Clouds 21 1013 30 14484 5.1 340 00:29 08.06.2020
1890 Clouds 22 1013 30 14484 5.1 320 23:41 07.06.2020
1891 Clouds 21 1013 33 14484 5.7 360 23:20 07.06.2020
1892 Clouds 21 1013 33 14484 5.7 360 22:59 07.06.2020
1893 Clouds 21 1013 33 14484 5.7 360 22:59 07.06.2020
1894 Clouds 21 1013 33 14484 5.7 360 22:39 07.06.2020
1895 Clouds 22 1014 33 14484 7.7 10 22:19 07.06.2020
1896 Clouds 22 1014 33 14484 7.7 10 21:58 07.06.2020
1897 Clouds 22 1014 33 14484 7.7 10 21:37 07.06.2020
1898 Clouds 21 1014 30 14484 6.7 320 21:19 07.06.2020
1899 Clouds 21 1014 30 14484 6.7 320 20:54 07.06.2020
1900 Clouds 21 1014 30 14484 6.7 320 20:36 07.06.2020
1901 Clouds 20 1014 34 14484 7.7 340 20:18 07.06.2020
1902 Clouds 21 1014 34 14484 7.7 340 19:54 07.06.2020
1903 Clouds 21 1014 34 14484 7.7 340 19:54 07.06.2020
1904 Clouds 21 1014 34 14484 7.7 340 19:36 07.06.2020
1905 Clouds 20 1014 42 14484 3.6 10 19:18 07.06.2020
1906 Clouds 19 1014 42 14484 3.6 10 18:40 07.06.2020
1907 Clouds 20 1014 42 14484 3.6 10 18:22 07.06.2020
1908 Clear 19 1015 45 14484 5.7 350 17:59 07.06.2020
1909 Clear 19 1015 45 14484 5.7 350 17:40 07.06.2020
1910 Clear 19 1015 45 14484 5.7 350 17:21 07.06.2020
1911 Clouds 18 1015 55 14484 4.1 360 16:44 07.06.2020
1912 Clouds 18 1015 55 14484 4.1 360 16:22 07.06.2020
1913 Clouds 18 1015 51 32767 4.1 10 15:45 07.06.2020
1914 Clouds 16 1015 58 14484 6.7 20 15:24 07.06.2020
1915 Clouds 15 1015 71 14484 4.1 10 14:59 07.06.2020
1916 Clouds 15 1015 71 14484 4.1 10 14:37 07.06.2020
1917 Clouds 14 1014 58 32767 4.6 10 14:18 07.06.2020
1918 Clouds 14 1014 58 32767 4.6 10 13:45 07.06.2020
1919 Clouds 14 1014 58 32767 4.6 10 13:45 07.06.2020
1920 Clouds 14 1014 58 32767 4.6 10 13:45 07.06.2020
1921 Clouds 14 1014 62 32767 3.6 360 13:19 07.06.2020
1922 Clouds 13 1014 62 32767 3.6 360 12:44 07.06.2020
1923 Clouds 13 1013 66 32767 2.6 330 12:26 07.06.2020
1924 Clear 12 1013 81 14484 3.6 340 11:56 07.06.2020
1925 Clear 12 1013 81 14484 3.6 340 11:38 07.06.2020
1926 Clear 12 1013 81 14484 3.6 340 11:38 07.06.2020
1927 Clear 12 1013 81 14484 3.6 340 11:20 07.06.2020
1928 Clear 12 1012 87 14484 2.6 320 10:58 07.06.2020
1929 Clear 12 1012 87 14484 2.6 320 10:39 07.06.2020
1930 Clear 12 1012 81 14484 2.6 350 10:19 07.06.2020
1931 Clear 12 1012 81 14484 2.6 350 10:19 07.06.2020
1932 Clear 12 1012 81 14484 2.6 350 09:56 07.06.2020
1933 Clear 12 1012 81 14484 2.6 350 09:37 07.06.2020
1934 Clear 12 1012 81 14484 2.6 350 09:19 07.06.2020
1935 Clear 13 1012 76 14484 1.5 40 08:44 07.06.2020
1936 Clear 13 1012 76 14484 1.5 40 08:23 07.06.2020
1937 Clear 13 1012 76 14484 1.5 40 08:23 07.06.2020
1938 Clouds 14 1012 67 24140 2.6 320 07:46 07.06.2020
1939 Clouds 14 1012 67 24140 2.6 320 07:28 07.06.2020
1940 Clear 15 1012 76 14484 2.6 350 06:25 07.06.2020
1941 Clouds 15 1011 71 14484 2.1 360 05:36 07.06.2020
1942 Clouds 17 1010 52 24140 5.1 20 04:20 07.06.2020
1943 Clouds 17 1010 52 24140 5.1 20 04:20 07.06.2020
1944 Clouds 18 1009 59 14484 6.2 20 02:31 07.06.2020
1945 Clouds 18 1009 59 14484 6.2 20 02:31 07.06.2020
1946 Clouds 19 1008 52 14484 9.3 10 01:44 07.06.2020
1947 Clouds 19 1008 52 14484 9.3 10 01:24 07.06.2020
1948 Clouds 21 1007 52 14484 7.2 340 00:41 07.06.2020
1949 Clouds 21 1006 56 14484 5.1 300 00:18 07.06.2020
1950 Clouds 21 1006 56 14484 5.1 300 23:56 06.06.2020
1951 Clouds 21 1006 56 14484 5.1 300 23:36 06.06.2020
1952 Clouds 21 1006 64 14484 4.1 300 23:18 06.06.2020
1953 Clouds 22 1006 64 14484 4.1 300 22:55 06.06.2020
1954 Rain 22 1006 68 14484 7.7 330 22:37 06.06.2020
1955 Rain 22 1006 60 14484 11.3 320 22:18 06.06.2020
1956 Clouds 23 1005 38 14484 10.8 330 21:43 06.06.2020
1957 Clouds 24 1005 38 14484 10.8 330 21:22 06.06.2020
1958 Clouds 25 1005 41 14484 8.2 280 20:55 06.06.2020
1959 Clouds 25 1005 41 14484 8.2 280 20:36 06.06.2020
1960 Clouds 25 1005 47 14484 7.7 250 20:18 06.06.2020
1961 Clouds 25 1005 47 14484 7.7 250 19:54 06.06.2020
1962 Clouds 25 1005 47 14484 7.7 250 19:36 06.06.2020
1963 Clouds 25 1006 47 14484 4.1 280 19:18 06.06.2020
1964 Clouds 24 1006 47 14484 4.1 280 18:42 06.06.2020
1965 Clouds 24 1006 47 14484 4.1 280 18:23 06.06.2020
1966 Clear 24 1006 53 14484 2.1 310 17:44 06.06.2020
1967 Clear 23 1006 53 14484 2.1 310 17:21 06.06.2020
1968 Clear 23 1006 68 14484 1 0 16:58 06.06.2020
1969 Clear 23 1006 68 14484 1 0 16:39 06.06.2020
1970 Clear 22 1006 68 14484 1 0 16:21 06.06.2020
1971 Clear 22 1006 72 14484 2.1 350 15:55 06.06.2020
1972 Clear 21 1006 72 14484 2.1 350 15:36 06.06.2020
1973 Clouds 20 1006 82 14484 3.6 20 15:18 06.06.2020
1974 Clouds 20 1006 82 14484 3.6 20 14:39 06.06.2020
1975 Clouds 19 1006 82 14484 3.6 20 14:20 06.06.2020
1976 Clouds 18 1006 93 14484 3.6 350 13:55 06.06.2020
1977 Mist 18 1006 93 9656 4.1 340 13:37 06.06.2020
1978 Mist 18 1006 100 6437 2.6 150 13:18 06.06.2020
1979 Clouds 18 1006 93 32767 2.1 30 12:42 06.06.2020
1980 Mist 18 1006 100 6437 2.6 150 12:22 06.06.2020
1981 Mist 18 1006 100 4828 1 90 11:58 06.06.2020
1982 Mist 18 1006 100 4828 1 90 11:58 06.06.2020
1983 Clouds 18 1006 93 24140 3.1 30 11:38 06.06.2020
1984 Clouds 18 1006 93 24140 2.6 0 11:19 06.06.2020
1985 Mist 18 1006 100 4023 2.6 20 10:57 06.06.2020
1986 Mist 18 1006 93 6437 3.13 14 10:39 06.06.2020
1987 Mist 18 1006 93 6437 3.13 14 10:39 06.06.2020
1988 Mist 18 1006 93 6437 1.88 35 10:20 06.06.2020
1989 Rain 18 1006 93 14484 3.1 170 09:45 06.06.2020
1990 Rain 18 1006 93 14484 3.1 170 09:27 06.06.2020
1991 Rain 18 1006 93 14484 2.6 140 08:56 06.06.2020
1992 Clouds 18 1006 93 14484 1 0 08:38 06.06.2020
1993 Rain 18 1006 93 19312 1 0 08:19 06.06.2020
1994 Thunderstorm 18 1006 88 14484 1.5 90 07:45 06.06.2020
1995 Clouds 18 1007 82 14484 2.29 170 07:21 06.06.2020
1996 Rain 19 1007 88 14484 2.6 290 06:46 06.06.2020
1997 Rain 19 1007 88 14484 2.6 290 06:27 06.06.2020
1998 Clouds 19 1007 82 14484 1.5 50 05:53 06.06.2020
1999 Rain 19 1008 82 16093 2.1 30 05:27 06.06.2020
2000 Clouds 22 1007 44 14484 4.1 310 04:42 06.06.2020
2001 Clouds 26 1007 39 14484 4.1 240 02:45 06.06.2020
2002 Clear 27 1006 36 14484 4.6 230 01:54 06.06.2020
2003 Clear 28 1006 34 14484 6.7 210 01:18 06.06.2020
2004 Clear 29 1006 30 14484 6.2 280 00:43 06.06.2020
2005 Clear 29 1006 30 14484 6.2 280 00:25 06.06.2020
2006 Clouds 30 1007 30 14484 6.2 270 23:55 05.06.2020
2007 Clouds 30 1007 30 14484 6.2 270 23:36 05.06.2020
2008 Clear 30 1007 33 14484 5.7 270 23:18 05.06.2020
2009 Clear 30 1007 33 14484 5.7 270 23:18 05.06.2020
2010 Clear 30 1007 33 14484 5.7 270 22:41 05.06.2020
2011 Clear 29 1007 33 14484 5.7 270 22:23 05.06.2020
2012 -273 0 0 0 0 0 21:58 05.06.2020
2013 Clear 29 1007 37 14484 6.2 290 21:40 05.06.2020
2014 Clear 28 1007 37 14484 6.2 290 21:20 05.06.2020
2015 Clear 28 1007 37 14484 6.7 250 20:57 05.06.2020
2016 Clear 28 1007 37 14484 6.7 250 20:38 05.06.2020
2017 Clear 28 1007 37 14484 6.7 250 20:19 05.06.2020
2018 Clear 28 1008 37 14484 5.7 250 19:40 05.06.2020
2019 Clear 28 1008 37 14484 5.7 250 19:40 05.06.2020
2020 Clear 28 1008 37 14484 5.7 250 19:22 05.06.2020
2021 Clear 27 1008 50 14484 5.7 260 18:56 05.06.2020
2022 Clear 27 1008 50 14484 5.7 260 18:38 05.06.2020
2023 Clear 26 1008 57 14484 6.2 220 18:19 05.06.2020
2024 Clear 26 1008 57 14484 6.2 220 17:56 05.06.2020
2025 Clear 25 1008 57 14484 6.2 220 17:37 05.06.2020
2026 Clear 24 1008 64 14484 6.7 240 17:18 05.06.2020
2027 Clear 23 1008 64 14484 6.7 240 16:38 05.06.2020
2028 Clear 23 1008 64 14484 6.7 240 16:20 05.06.2020
2029 Clear 23 1008 60 14484 2.6 210 15:43 05.06.2020
2030 Clear 23 1008 60 14484 2.6 210 15:43 05.06.2020
2031 Clear 21 1008 60 14484 2.6 210 15:22 05.06.2020
2032 Clouds 19 1009 68 14484 1.5 200 14:58 05.06.2020
2033 Clouds 19 1009 68 14484 1.5 200 14:40 05.06.2020
2034 Clouds 20 1009 68 14484 1.5 200 14:22 05.06.2020
2035 Clouds 19 1009 63 14484 0.98 258 13:58 05.06.2020
2036 -273 0 0 0 0 0 13:58 05.06.2020
2037 Clouds 18 1009 63 14484 0.98 258 13:38 05.06.2020
2038 Clouds 17 1009 67 24140 2.6 0 13:19 05.06.2020
2039 Clouds 15 1009 76 14484 1 180 12:42 05.06.2020
2040 Clear 15 1008 67 14484 1.66 155 12:20 05.06.2020
2041 Clear 15 1008 67 14484 1.66 155 11:55 05.06.2020
2042 Clear 15 1008 67 14484 1.66 155 11:37 05.06.2020
2043 Clear 15 1008 62 14484 1 120 11:18 05.06.2020
2044 Clear 16 1008 62 14484 1 120 10:42 05.06.2020
2045 Clear 16 1008 62 14484 1 120 10:21 05.06.2020
2046 Clouds 16 1008 62 14484 1.5 150 09:58 05.06.2020
2047 Clouds 16 1008 62 14484 1.5 150 09:40 05.06.2020
2048 Clouds 17 1008 62 14484 1.5 150 09:21 05.06.2020
2049 Clouds 17 1009 59 14484 1.5 120 08:58 05.06.2020
2050 Clouds 17 1009 59 14484 1.5 120 08:40 05.06.2020
2051 Clouds 17 1009 59 14484 1.35 49 08:19 05.06.2020
2052 Clouds 17 1009 59 14484 1.35 49 07:53 05.06.2020
2053 Clouds 17 1009 59 14484 1.35 49 07:35 05.06.2020
2054 Clouds 18 1009 52 24140 3.1 40 06:51 05.06.2020
2055 Clouds 19 1009 55 14484 3.1 30 05:24 05.06.2020
2056 Clear 20 1008 56 14484 1.5 340 04:31 05.06.2020
2057 Clouds 21 1008 53 14484 3.1 270 03:49 05.06.2020
2058 Clear 23 1007 53 14484 4.6 240 02:39 05.06.2020
2059 Clear 24 1007 33 14484 9.8 250 02:18 05.06.2020
2060 Clear 25 1007 33 14484 9.8 250 01:36 05.06.2020
2061 Clear 25 1007 33 14484 9.8 250 01:36 05.06.2020
2062 Clouds 25 1006 47 14484 7.2 250 00:56 05.06.2020
2063 Clouds 25 1006 47 14484 7.2 250 00:37 05.06.2020
2064 Clouds 25 1006 50 14484 7.2 240 00:18 05.06.2020
2065 Clouds 26 1006 50 14484 7.2 240 23:42 04.06.2020
2066 Clouds 25 1006 50 14484 7.2 240 23:24 04.06.2020
2067 Clear 25 1006 50 14484 8.2 230 22:44 04.06.2020
2068 Clear 25 1006 50 14484 8.2 230 22:22 04.06.2020
2069 Clear 25 1006 53 14484 7.7 230 21:59 04.06.2020
2070 Clear 25 1006 53 14484 7.7 230 21:40 04.06.2020
2071 Clear 25 1006 53 14484 7.7 230 21:21 04.06.2020
2072 Clouds 24 1007 50 14484 7.7 240 20:57 04.06.2020
2073 Clouds 24 1007 50 14484 7.7 240 20:39 04.06.2020
2074 Clouds 24 1007 50 14484 7.7 240 20:20 04.06.2020
2075 Clear 23 1007 60 14484 6.2 230 19:55 04.06.2020
2076 Clear 23 1007 60 14484 6.2 230 19:37 04.06.2020
2077 Clouds 23 1007 64 14484 5.1 240 19:19 04.06.2020
2078 Clouds 22 1007 64 14484 5.1 240 18:40 04.06.2020
2079 Clouds 20 1007 68 14484 4.6 240 18:21 04.06.2020
2080 Clouds 20 1007 68 14484 4.6 240 17:59 04.06.2020
2081 Clouds 20 1007 68 14484 4.6 240 17:41 04.06.2020
2082 Clouds 19 1007 68 14484 4.6 240 17:20 04.06.2020
2083 Clouds 19 1007 68 14484 4.6 240 16:41 04.06.2020
2084 Clouds 19 1007 68 14484 4.6 240 16:21 04.06.2020
2085 Clouds 18 1007 77 14484 4.1 240 15:55 04.06.2020
2086 Clouds 18 1007 77 14484 4.1 240 15:37 04.06.2020
2087 Clouds 17 1006 90 0 3.49 252 15:19 04.06.2020
2088 Clouds 16 1007 81 0 3.49 252 14:38 04.06.2020
2089 Clouds 15 1007 100 14484 3.1 220 14:19 04.06.2020
2090 Clouds 15 1007 100 14484 3.1 220 13:54 04.06.2020
2091 Clouds 14 1007 100 14484 3.1 220 13:36 04.06.2020
2092 Clouds 14 1006 93 12874 2.6 210 13:18 04.06.2020
2093 Clouds 13 1006 100 11265 2.1 200 12:41 04.06.2020
2094 Clouds 12 1006 100 11265 2.1 200 12:23 04.06.2020
2095 Clouds 12 1006 100 11265 1.5 210 11:59 04.06.2020
2096 Mist 11 1005 93 9656 2.1 200 11:38 04.06.2020
2097 Mist 11 1005 93 9656 2.1 200 11:20 04.06.2020
2098 Fog 11 1005 93 603 1.5 190 10:57 04.06.2020
2099 Clear 12 1005 93 14484 1.5 160 10:38 04.06.2020
2100 Clear 12 1005 93 14484 1 0 10:19 04.06.2020
2101 Clear 12 1005 93 14484 1 0 10:19 04.06.2020
2102 Clear 12 1005 93 14484 1 0 09:43 04.06.2020
2103 Clear 12 1005 93 14484 1 0 09:24 04.06.2020
2104 Clear 12 1004 93 14484 2.6 230 08:46 04.06.2020
2105 Clear 12 1004 93 14484 2.6 230 08:27 04.06.2020
2106 Clear 13 1004 93 14484 1 0 07:52 04.06.2020
2107 Clear 13 1004 93 14484 1 0 07:29 04.06.2020
2108 Clear 13 1003 87 14484 1.5 260 06:44 04.06.2020
2109 Clear 13 1003 87 14484 1.5 260 06:26 04.06.2020
2110 Clouds 14 1003 87 14484 2.16 294 05:39 04.06.2020
2111 Clouds 14 1003 87 14484 1.61 270 05:20 04.06.2020
2112 Clouds 15 1002 82 14484 3.6 240 03:25 04.06.2020
2113 Clouds 16 1002 77 14484 3.1 270 01:57 04.06.2020
2114 Clouds 16 1001 82 14484 2.1 240 01:20 04.06.2020
2115 Clouds 16 1001 82 14484 2.1 240 00:49 04.06.2020
2116 Clouds 16 1001 82 12874 3.1 220 23:55 03.06.2020
2117 Clouds 16 1001 82 12874 3.1 220 23:36 03.06.2020
2118 Clouds 16 1001 82 12874 3.1 220 23:36 03.06.2020
2119 Clouds 16 1001 82 14484 2.1 230 23:18 03.06.2020
2120 Clouds 15 1001 82 14484 2.1 230 22:39 03.06.2020
2121 Mist 15 1001 87 8047 1 0 22:19 03.06.2020
2122 Mist 15 1001 87 8047 1 0 22:19 03.06.2020
2123 Mist 15 1001 87 8047 1 0 21:58 03.06.2020
2124 Clouds 15 1001 82 12874 2.1 310 21:39 03.06.2020
2125 Clouds 15 1001 82 12874 2.1 310 21:21 03.06.2020
2126 Clouds 15 1001 82 12874 2.1 310 21:21 03.06.2020
2127 Clouds 15 1001 82 14484 2.1 330 20:57 03.06.2020
2128 Clouds 14 1001 82 14484 1.5 340 20:38 03.06.2020
2129 Clouds 15 1001 87 14484 0.91 310 20:20 03.06.2020
2130 Clouds 14 1001 87 14484 0.91 310 19:56 03.06.2020
2131 Clouds 14 1001 87 14484 0.91 310 19:37 03.06.2020
2132 Clouds 14 1001 93 11265 1.5 360 19:19 03.06.2020
2133 Clouds 14 1001 93 11265 1.5 360 18:54 03.06.2020
2134 Clouds 13 1001 93 11265 1.5 360 18:36 03.06.2020
2135 Clouds 13 1002 93 11265 2.1 10 18:18 03.06.2020
2136 Clouds 13 1002 93 12874 2.1 20 17:41 03.06.2020
2137 Clouds 13 1002 93 12874 2.1 20 17:21 03.06.2020
2138 Clouds 13 1003 93 11265 2.1 350 16:55 03.06.2020
2139 Clouds 12 1003 93 11265 2.1 350 16:37 03.06.2020
2140 Clouds 12 1003 93 11265 2.1 350 16:37 03.06.2020
2141 Mist 12 1003 100 9656 1.5 360 16:18 03.06.2020
2142 Mist 12 1003 100 9656 1.5 360 15:41 03.06.2020
2143 Mist 12 1003 100 9656 1.5 360 15:21 03.06.2020
2144 Mist 12 1003 93 4828 2.6 10 14:57 03.06.2020
2145 Mist 11 1003 93 4828 2.6 10 14:38 03.06.2020
2146 Mist 11 1003 93 4828 2.6 10 14:20 03.06.2020
2147 Mist 11 1004 93 9656 2.1 10 13:38 03.06.2020
2148 Clouds 11 1003 100 14484 2.6 10 13:19 03.06.2020
2149 Clouds 11 1003 100 14484 2.6 10 12:43 03.06.2020
2150 Clouds 11 1003 100 14484 2.6 10 12:22 03.06.2020
2151 Clouds 11 1004 93 14484 2.1 10 11:57 03.06.2020
2152 Clouds 11 1004 93 14484 2.1 10 11:38 03.06.2020
2153 Clouds 11 1004 93 14484 2.1 10 11:20 03.06.2020
2154 Rain 11 1004 93 14484 1.5 10 10:41 03.06.2020
2155 Rain 11 1004 93 14484 1.5 10 10:22 03.06.2020
2156 Clouds 12 1005 93 14484 1 340 09:45 03.06.2020
2157 Clouds 12 1005 93 14484 1 340 09:20 03.06.2020
2158 Clouds 12 1005 93 14484 1.5 20 08:58 03.06.2020
2159 Clouds 12 1005 93 14484 1.5 20 08:58 03.06.2020
2160 Rain 12 1005 93 14484 1.5 100 08:40 03.06.2020
2161 Clouds 12 1006 93 14484 2.1 70 08:19 03.06.2020
2162 Clouds 12 1006 93 14484 2.1 70 07:42 03.06.2020
2163 Clouds 13 1006 87 14484 1.5 130 07:20 03.06.2020
2164 Clouds 13 1006 87 14484 1.5 130 06:52 03.06.2020
2165 Clouds 13 1007 87 14484 1 0 06:30 03.06.2020
2166 Clouds 13 1008 87 14484 1.5 90 05:47 03.06.2020
2167 Clouds 13 1008 87 14484 2.1 60 04:56 03.06.2020
2168 Clouds 14 1008 76 14484 1.5 50 03:50 03.06.2020
2169 Clouds 14 1008 76 14484 1.5 50 03:20 03.06.2020
2170 Rain 16 1009 62 14484 2.6 90 01:53 03.06.2020
2171 Clouds 16 1009 59 14484 3.1 110 00:44 03.06.2020
2172 Clouds 17 1009 59 14484 3.1 110 00:25 03.06.2020
2173 Clouds 17 1009 55 14484 3.6 80 23:52 02.06.2020
2174 Clouds 17 1009 55 14484 3.6 80 23:28 02.06.2020
2175 Clouds 16 1010 55 14484 3.6 90 22:57 02.06.2020
2176 Clouds 16 1010 55 14484 3.6 90 22:38 02.06.2020
2177 Clouds 16 1011 55 14484 3.1 110 22:19 02.06.2020
2178 Clouds 17 1011 55 14484 3.1 110 21:56 02.06.2020
2179 Clouds 16 1011 55 14484 3.1 110 21:38 02.06.2020
2180 Clouds 15 1011 55 14484 3.1 110 21:19 02.06.2020
2181 Clouds 16 1011 59 14484 2.6 120 20:58 02.06.2020
2182 Rain 16 1012 55 14484 1 0 20:39 02.06.2020
2183 Rain 16 1012 55 14484 1 0 20:20 02.06.2020
2184 Clouds 16 1012 55 14484 4.6 120 19:43 02.06.2020
2185 Clouds 15 1012 55 14484 4.6 120 19:25 02.06.2020
2186 Clouds 15 1014 66 14484 4.6 130 18:58 02.06.2020
2187 Clouds 15 1014 66 14484 4.6 130 18:39 02.06.2020
2188 Clouds 14 1015 66 14484 2.6 150 18:20 02.06.2020
2189 Clouds 13 1015 66 14484 2.6 150 17:55 02.06.2020
2190 Clouds 13 1015 66 14484 2.6 150 17:37 02.06.2020
2191 Clouds 12 1015 66 14484 2.6 150 17:18 02.06.2020
2192 Clouds 12 1016 76 14484 3.1 90 16:41 02.06.2020
2193 Clouds 11 1016 76 14484 3.1 90 16:21 02.06.2020
2194 Clouds 11 1016 76 14484 3.1 90 16:21 02.06.2020
2195 Clouds 11 1016 76 14484 2.1 140 15:59 02.06.2020
2196 Clouds 11 1016 76 14484 2.1 140 15:40 02.06.2020
2197 Clouds 11 1016 76 14484 2.1 140 15:20 02.06.2020
2198 Clouds 11 1016 76 14484 2.1 140 15:20 02.06.2020
2199 Clouds 10 1017 81 14484 2.1 120 14:46 02.06.2020
2200 Clouds 10 1017 81 14484 2.1 120 14:27 02.06.2020
2201 Clouds 10 1017 87 32767 3.1 100 13:55 02.06.2020
2202 Clouds 9 1017 93 14484 2.6 110 13:36 02.06.2020
2203 Clouds 8 1017 87 32767 2.1 110 13:18 02.06.2020
2204 Clouds 8 1017 87 32767 2.1 110 12:55 02.06.2020
2205 Clouds 8 1017 87 32767 2.1 110 12:37 02.06.2020
2206 Clouds 8 1017 87 32767 2.6 100 12:18 02.06.2020
2207 Clouds 7 1017 87 32767 2.6 100 11:41 02.06.2020
2208 Clouds 7 1017 87 24140 2.1 90 11:22 02.06.2020
2209 Clouds 6 1017 87 24140 2.1 90 10:55 02.06.2020
2210 Clouds 6 1017 87 24140 2.1 90 10:37 02.06.2020
2211 Clouds 6 1017 93 14484 1 90 10:19 02.06.2020
2212 Clear 6 1017 93 14484 1 80 09:42 02.06.2020
2213 Clear 6 1017 93 14484 1 80 09:21 02.06.2020
2214 Clouds 7 1017 87 24140 1 120 08:53 02.06.2020
2215 Clouds 7 1017 87 24140 1 120 08:28 02.06.2020
2216 Clear 7 1018 93 14484 1 0 07:58 02.06.2020
2217 Clear 7 1018 93 14484 1 0 07:33 02.06.2020
2218 Clear 7 1018 93 14484 1 200 06:59 02.06.2020
2219 Clear 7 1018 93 14484 1 200 06:37 02.06.2020
2220 Clear 8 1018 81 14484 1 0 05:37 02.06.2020
2221 Clear 9 1019 81 14484 1.5 190 04:23 02.06.2020
2222 Clouds 11 1018 62 14484 2.6 270 02:37 02.06.2020
2223 Clouds 12 1018 66 14484 3.6 280 01:55 02.06.2020
2224 Clouds 12 1018 71 14484 3.6 300 00:51 02.06.2020
2225 Clouds 12 1019 71 14484 3.1 280 00:21 02.06.2020
2226 Clouds 12 1019 71 14484 3.1 280 23:39 01.06.2020
2227 Clouds 12 1019 71 14484 3.1 280 23:20 01.06.2020
2228 Rain 12 1018 62 14484 8.7 260 22:58 01.06.2020
2229 Clouds 12 1018 58 14484 5.7 280 22:39 01.06.2020
2230 Clouds 13 1018 58 14484 5.7 280 22:19 01.06.2020
2231 Rain 13 1018 54 14484 6.7 290 21:42 01.06.2020
2232 Rain 13 1018 54 14484 6.7 290 21:22 01.06.2020
2233 Clouds 14 1018 47 14484 8.7 270 20:59 01.06.2020
2234 Clouds 14 1018 47 14484 6.2 270 20:41 01.06.2020
2235 Clouds 14 1018 47 14484 6.2 270 20:21 01.06.2020
2236 Clouds 14 1018 47 14484 6.2 270 20:21 01.06.2020
2237 Clouds 14 1018 44 14484 9.3 250 19:59 01.06.2020
2238 Clouds 15 1018 44 14484 9.3 250 19:41 01.06.2020
2239 Clouds 15 1019 41 14484 5.7 270 19:20 01.06.2020
2240 Clouds 15 1019 41 14484 5.7 270 18:58 01.06.2020
2241 Clouds 15 1019 41 14484 5.7 270 18:39 01.06.2020
2242 Clouds 14 1020 54 14484 5.7 230 18:19 01.06.2020
2243 Clouds 14 1020 54 14484 5.7 230 17:55 01.06.2020
2244 Clouds 14 1020 54 14484 5.7 230 17:36 01.06.2020
2245 Clouds 14 1019 51 0 4.47 276 17:18 01.06.2020
2246 Clouds 13 1019 52 0 2.68 255 16:39 01.06.2020
2247 Clouds 12 1021 71 14484 4.1 260 16:20 01.06.2020
2248 Clouds 12 1021 71 14484 4.1 260 15:55 01.06.2020
2249 Clouds 11 1021 71 14484 4.1 260 15:37 01.06.2020
2250 Clouds 10 1022 76 14484 3.6 230 15:18 01.06.2020
2251 Clouds 10 1022 76 14484 3.6 230 14:56 01.06.2020
2252 Clouds 9 1022 76 14484 3.6 230 14:37 01.06.2020
2253 Clouds 8 1022 81 32767 1.5 270 14:18 01.06.2020
2254 Clouds 8 1022 81 32767 1.5 270 13:42 01.06.2020
2255 Clouds 8 1022 81 32767 1.5 270 13:21 01.06.2020
2256 Clouds 6 1022 86 14484 1 190 12:58 01.06.2020
2257 Clouds 6 1022 86 14484 1 190 12:40 01.06.2020
2258 Clouds 6 1022 86 14484 1 190 12:40 01.06.2020
2259 Clouds 5 1022 86 14484 1 190 12:21 01.06.2020
2260 Clear 5 1021 86 14484 2.1 230 11:57 01.06.2020
2261 Clear 5 1021 86 14484 2.1 230 11:37 01.06.2020
2262 Clear 5 1021 86 14484 2.1 230 11:18 01.06.2020
2263 Clear 4 1021 86 14484 1.89 266 10:55 01.06.2020
2264 Clear 4 1021 86 14484 1.89 266 10:36 01.06.2020
2265 Clear 5 1021 86 14484 2.48 262 10:18 01.06.2020
2266 Clear 6 1021 80 14484 2.1 320 09:44 01.06.2020
2267 Clear 5 1021 80 14484 2.1 320 09:25 01.06.2020
2268 Clear 6 1021 81 14484 2.6 300 08:55 01.06.2020
2269 Clear 6 1021 81 14484 2.6 300 08:33 01.06.2020
2270 Clear 7 1020 75 14484 2.1 290 07:58 01.06.2020
2271 Clear 7 1020 75 14484 2.1 290 07:39 01.06.2020
2272 Clear 7 1020 75 14484 2.1 290 07:21 01.06.2020
2273 Clear 7 1020 75 14484 3.1 270 06:49 01.06.2020
2274 Clouds 7 1020 75 14484 2.1 340 05:56 01.06.2020
2275 Clouds 8 1021 61 14484 3.6 300 04:56 01.06.2020
2276 Rain 9 1021 61 14484 4.6 290 03:55 01.06.2020
2277 Clouds 9 1020 65 14484 2.6 260 03:35 01.06.2020
2278 Clouds 10 1020 44 14484 4.1 300 02:42 01.06.2020
2279 Clouds 11 1020 40 14484 5.1 290 01:38 01.06.2020
2280 Clouds 11 1020 40 14484 5.1 290 01:18 01.06.2020
2281 Clouds 12 1019 37 14484 4.6 250 00:40 01.06.2020
2282 Clouds 12 1019 37 14484 4.6 250 00:21 01.06.2020
2283 Clouds 12 1019 37 14484 4.6 250 00:21 01.06.2020
2284 Clouds 12 1019 34 14484 6.2 310 23:59 31.05.2020
2285 Rain 12 1020 34 32767 7.2 280 23:40 31.05.2020
2286 Clouds 12 1019 34 14484 6.2 310 23:22 31.05.2020
2287 Clouds 12 1019 34 14484 5.7 290 22:58 31.05.2020
2288 Clouds 12 1019 34 14484 5.7 290 22:58 31.05.2020
2289 Clouds 12 1019 34 14484 5.7 290 22:40 31.05.2020
2290 Clouds 12 1019 34 14484 5.7 290 22:21 31.05.2020
2291 Clouds 12 1020 34 32767 5.7 290 21:57 31.05.2020
2292 Clouds 12 1020 34 14484 5.1 320 21:38 31.05.2020
2293 Clouds 12 1020 34 14484 5.1 320 21:20 31.05.2020
2294 Clouds 12 1019 37 14484 5.7 340 20:42 31.05.2020
2295 Clouds 11 1019 37 14484 5.7 290 20:24 31.05.2020
2296 Clouds 11 1019 40 14484 7.2 310 19:56 31.05.2020
2297 Clouds 11 1019 40 14484 7.2 310 19:37 31.05.2020
2298 Clouds 11 1019 40 14484 7.2 310 19:19 31.05.2020
2299 Clouds 11 1019 40 14484 4.1 270 18:44 31.05.2020
2300 Clouds 11 1019 40 14484 4.1 270 18:25 31.05.2020
2301 Clouds 11 1019 39 32767 4.1 300 17:59 31.05.2020
2302 Clouds 11 1019 39 32767 4.1 300 17:40 31.05.2020
2303 Clouds 11 1019 42 32767 4.1 300 17:20 31.05.2020
2304 Clouds 10 1019 49 14484 6.7 300 16:41 31.05.2020
2305 Clouds 10 1019 49 14484 6.7 300 16:21 31.05.2020
2306 Clouds 9 1020 49 14484 4.6 300 15:55 31.05.2020
2307 Clouds 9 1020 49 14484 4.6 300 15:36 31.05.2020
2308 Clouds 8 1020 49 14484 4.6 300 15:18 31.05.2020
2309 Clear 9 1019 49 14484 6.2 340 14:40 31.05.2020
2310 Clear 8 1019 49 14484 6.2 340 14:19 31.05.2020
2311 Clear 8 1019 65 14484 5.7 320 13:55 31.05.2020
2312 Clear 8 1019 65 14484 5.7 320 13:37 31.05.2020
2313 Clear 7 1019 65 14484 5.7 320 13:19 31.05.2020
2314 Clouds 7 1018 70 14484 4.1 310 12:43 31.05.2020
2315 Clouds 7 1018 70 14484 4.1 310 12:24 31.05.2020
2316 Clear 7 1017 75 14484 3.1 290 11:56 31.05.2020
2317 Clear 7 1017 75 14484 3.1 290 11:38 31.05.2020
2318 Clear 7 1017 75 14484 3.1 290 11:19 31.05.2020
2319 Clear 7 1017 70 14484 4.1 320 10:44 31.05.2020
2320 Clear 7 1017 70 14484 4.1 320 10:44 31.05.2020
2321 Clear 7 1017 70 14484 4.1 320 10:26 31.05.2020
2322 Clouds 8 1016 70 14484 3.6 320 09:58 31.05.2020
2323 Clouds 8 1016 70 14484 3.6 320 09:40 31.05.2020
2324 Clouds 8 1016 70 14484 3.6 320 09:20 31.05.2020
2325 Clouds 9 1015 70 14484 7.7 320 08:43 31.05.2020
2326 Clouds 9 1015 70 14484 7.7 320 08:24 31.05.2020
2327 Clouds 9 1014 76 14484 7.7 340 07:52 31.05.2020
2328 Clouds 9 1014 76 14484 7.7 340 07:22 31.05.2020
2329 Clouds 9 1014 81 14484 8.2 330 06:57 31.05.2020
2330 Clouds 10 1013 81 14484 5.1 330 06:36 31.05.2020
2331 Rain 10 1012 87 9656 7.2 320 05:55 31.05.2020
2332 Mist 11 1012 87 9656 7.2 340 05:37 31.05.2020
2333 Rain 12 1011 93 24140 5.7 290 04:20 31.05.2020
2334 Rain 14 1010 93 14484 5.1 280 03:45 31.05.2020
2335 Clouds 14 1009 82 14484 6.7 270 02:50 31.05.2020
2336 Rain 14 1008 93 12874 10.3 280 01:47 31.05.2020
2337 Clouds 19 1007 46 14484 5.7 240 00:52 31.05.2020
2338 Clouds 21 1007 46 14484 5.7 240 00:28 31.05.2020
2339 Clouds 22 1008 40 32767 7.7 220 23:43 30.05.2020
2340 Clouds 22 1008 43 14484 7.2 250 23:25 30.05.2020
2341 Clear 22 1008 43 14484 6.2 220 22:59 30.05.2020
2342 Clear 22 1008 43 14484 6.2 220 22:40 30.05.2020
2343 Clear 21 1008 43 14484 6.2 220 22:21 30.05.2020
2344 Clouds 22 1009 46 14484 6.7 220 21:55 30.05.2020
2345 Clouds 22 1009 46 14484 6.7 220 21:37 30.05.2020
2346 Clouds 22 1009 46 14484 6.7 220 21:18 30.05.2020
2347 Clouds 21 1009 46 14484 4.1 210 20:56 30.05.2020
2348 Clouds 21 1009 46 14484 4.1 210 20:37 30.05.2020
2349 Clouds 22 1009 46 14484 4.1 210 20:19 30.05.2020
2350 Clouds 21 1010 49 14484 5.1 300 19:41 30.05.2020
2351 Clouds 21 1010 49 14484 5.1 300 19:21 30.05.2020
2352 Clouds 20 1010 52 14484 5.1 210 18:45 30.05.2020
2353 Clouds 19 1010 52 14484 5.1 210 18:22 30.05.2020
2354 Clouds 18 1011 55 14484 4.1 280 17:46 30.05.2020
2355 Clouds 18 1011 55 14484 4.1 280 17:27 30.05.2020
2356 Clouds 17 1011 63 14484 3.6 270 16:59 30.05.2020
2357 Clouds 17 1011 63 14484 3.6 270 16:59 30.05.2020
2358 Clouds 17 1011 63 14484 3.6 270 16:41 30.05.2020
2359 Clouds 18 1011 63 14484 3.6 270 16:21 30.05.2020
2360 Clouds 17 1011 67 14484 4.6 300 15:48 30.05.2020
2361 Clouds 16 1011 67 14484 4.6 300 15:28 30.05.2020
2362 Clouds 15 1010 72 14484 7.2 300 14:48 30.05.2020
2363 Clouds 15 1010 72 14484 7.2 300 14:30 30.05.2020
2364 Clouds 15 1008 87 14484 4.1 300 13:47 30.05.2020
2365 Clouds 15 1008 87 14484 4.1 300 13:27 30.05.2020
2366 Rain 15 1008 93 2816 3.6 310 12:57 30.05.2020
2367 Rain 15 1007 87 4023 5.7 330 12:39 30.05.2020
2368 Rain 15 1007 87 4023 5.7 330 12:19 30.05.2020
2369 Clouds 16 1005 77 14484 6.7 280 11:41 30.05.2020
2370 Clouds 17 1004 82 14484 9.8 230 11:23 30.05.2020
2371 -273 0 0 0 0 0 10:58 30.05.2020
2372 Clouds 18 1003 72 14484 9.3 230 10:38 30.05.2020
2373 Clouds 19 1003 72 14484 9.3 230 10:20 30.05.2020
2374 Clouds 19 1003 72 14484 11.3 220 09:45 30.05.2020
2375 Clouds 20 1003 72 14484 11.3 220 09:26 30.05.2020
2376 Clouds 20 1004 77 14484 8.2 220 08:45 30.05.2020
2377 Clouds 20 1004 77 14484 8.2 220 08:27 30.05.2020
2378 Clouds 20 1004 77 14484 5.7 220 07:41 30.05.2020
2379 Clouds 21 1004 77 14484 5.7 220 07:20 30.05.2020
2380 Clouds 21 1004 73 14484 6.7 210 06:31 30.05.2020
2381 Clouds 21 1004 73 14484 7.2 220 05:52 30.05.2020
2382 Clouds 21 1004 73 14484 7.2 210 05:20 30.05.2020
2383 Clouds 21 1005 83 14484 6.7 220 03:35 30.05.2020
2384 Rain 23 1005 73 14484 7.7 220 02:29 30.05.2020
2385 Rain 25 1004 65 14484 4.1 220 01:30 30.05.2020
2386 Clouds 27 1004 48 14484 6.2 220 00:36 30.05.2020
2387 Clouds 28 1004 48 14484 6.2 220 00:18 30.05.2020
2388 Clouds 28 1004 51 14484 6.2 210 23:41 29.05.2020
2389 Clouds 29 1004 51 14484 6.2 210 23:20 29.05.2020
2390 Clouds 29 1005 48 14484 5.1 230 22:58 29.05.2020
2391 Clouds 29 1005 48 14484 5.1 230 22:39 29.05.2020
2392 Clouds 29 1005 48 14484 5.1 230 22:19 29.05.2020
2393 Clouds 29 1006 48 14484 7.7 250 21:41 29.05.2020
2394 Clouds 29 1006 48 14484 7.7 250 21:21 29.05.2020
2395 Clouds 29 1006 48 14484 7.7 250 21:21 29.05.2020
2396 Clouds 29 1007 42 14484 11.8 240 20:59 29.05.2020
2397 Clouds 30 1007 42 14484 11.8 240 20:40 29.05.2020
2398 Clouds 30 1007 42 14484 11.8 240 20:19 29.05.2020
2399 Clear 30 1008 42 14484 11.8 260 19:56 29.05.2020
2400 Clear 30 1008 42 14484 11.8 260 19:37 29.05.2020
2401 Clear 31 1008 42 14484 11.8 260 19:19 29.05.2020
2402 Clear 30 1008 51 14484 9.3 230 18:44 29.05.2020
2403 Clear 29 1008 51 14484 9.3 230 18:19 29.05.2020
2404 Clear 29 1009 51 14484 9.3 230 17:56 29.05.2020
2405 Clear 29 1009 51 14484 9.3 230 17:37 29.05.2020
2406 Clear 29 1009 51 14484 9.3 230 17:19 29.05.2020
2407 Clouds 28 1009 57 14484 7.7 230 16:42 29.05.2020
2408 Clouds 28 1009 57 14484 7.7 230 16:23 29.05.2020
2409 Clouds 27 1010 65 14484 6.2 220 15:55 29.05.2020
2410 Clouds 27 1010 65 14484 6.2 220 15:37 29.05.2020
2411 Clouds 26 1010 65 14484 6.2 220 15:18 29.05.2020
2412 Clouds 25 1010 73 14484 6.2 190 14:39 29.05.2020
2413 Clouds 25 1010 73 14484 6.2 190 14:21 29.05.2020
2414 Clouds 24 1010 83 14484 4.6 190 13:43 29.05.2020
2415 Clouds 23 1010 83 14484 4.6 190 13:24 29.05.2020
2416 Clouds 22 1011 78 14484 3.6 190 12:58 29.05.2020
2417 Clouds 22 1011 78 14484 3.6 190 12:40 29.05.2020
2418 Clouds 22 1011 78 14484 3.6 190 12:21 29.05.2020
2419 Clouds 22 1011 69 14484 5.7 220 11:45 29.05.2020
2420 Clouds 22 1011 69 14484 5.7 220 11:26 29.05.2020
2421 Clear 22 1010 73 14484 6.7 220 10:57 29.05.2020
2422 Clear 22 1010 73 14484 6.7 220 10:36 29.05.2020
2423 Clear 22 1010 73 14484 6.7 220 10:18 29.05.2020
2424 Clouds 23 1010 78 14484 6.7 200 09:43 29.05.2020
2425 Clouds 23 1010 78 14484 6.7 200 09:20 29.05.2020
2426 Clouds 23 1010 78 14484 6.7 200 09:20 29.05.2020
2427 Clouds 24 1010 78 14484 5.7 180 08:48 29.05.2020
2428 Clouds 24 1010 78 14484 5.7 180 08:26 29.05.2020
2429 Clouds 24 1009 73 14484 9.3 180 07:59 29.05.2020
2430 Clouds 24 1009 73 14484 9.3 180 07:39 29.05.2020
2431 Clouds 24 1009 73 14484 9.3 180 07:21 29.05.2020
2432 Clouds 24 1010 73 14484 8.7 180 06:46 29.05.2020
2433 Clouds 24 1010 73 14484 8.7 180 06:27 29.05.2020
2434 Clouds 25 1010 69 14484 9.8 180 05:46 29.05.2020
2435 Clouds 26 1012 61 14484 6.2 180 02:37 29.05.2020
2436 Clouds 27 1012 61 14484 4.6 170 01:30 29.05.2020
2437 Clouds 28 1013 57 14484 7.2 170 00:55 29.05.2020
2438 Clouds 28 1013 57 14484 7.2 170 00:34 29.05.2020
2439 Clouds 29 1014 54 14484 6.7 170 23:59 28.05.2020
2440 Clouds 29 1014 54 14484 6.7 170 23:39 28.05.2020
2441 Clouds 29 1014 54 14484 6.7 170 23:19 28.05.2020
2442 Clouds 29 1014 54 14484 6.2 190 22:44 28.05.2020
2443 Clouds 29 1014 54 14484 6.2 190 22:26 28.05.2020
2444 Clouds 29 1014 51 14484 8.2 170 21:57 28.05.2020
2445 Clouds 29 1014 51 14484 8.2 170 21:39 28.05.2020
2446 Clouds 29 1014 51 14484 8.2 170 21:20 28.05.2020
2447 Clouds 29 1015 54 14484 5.7 180 20:57 28.05.2020
2448 Clouds 29 1015 54 14484 5.7 180 20:39 28.05.2020
2449 Clouds 29 1015 54 14484 5.7 180 20:18 28.05.2020
2450 Clouds 29 1016 48 14484 4.6 190 19:56 28.05.2020
2451 Clouds 28 1016 48 14484 4.6 190 19:38 28.05.2020
2452 Clouds 28 1016 48 14484 4.6 190 19:20 28.05.2020
2453 Clouds 29 1016 48 14484 8.2 230 18:43 28.05.2020
2454 Clouds 28 1016 48 14484 8.2 230 18:25 28.05.2020
2455 Clear 28 1017 51 14484 5.7 190 17:56 28.05.2020
2456 Clear 28 1017 51 14484 5.7 190 17:38 28.05.2020
2457 Clear 28 1017 51 14484 5.7 190 17:18 28.05.2020
2458 Clear 28 1017 51 14484 7.2 230 16:44 28.05.2020
2459 Clear 28 1017 51 14484 7.2 230 16:20 28.05.2020
2460 Clear 27 1018 54 14484 6.2 220 15:46 28.05.2020
2461 Clear 27 1018 54 14484 6.2 220 15:25 28.05.2020
2462 Clear 27 1018 54 14484 6.2 220 15:25 28.05.2020
2463 Clear 24 1018 61 14484 3.6 210 14:59 28.05.2020
2464 Clear 25 1018 61 14484 3.6 210 14:40 28.05.2020
2465 Clear 25 1018 61 14484 3.6 210 14:22 28.05.2020
2466 Clear 24 1018 73 14484 3.6 170 13:45 28.05.2020
2467 Clear 24 1018 73 14484 3.6 170 13:27 28.05.2020
2468 Clouds 23 1018 78 14484 3.1 170 12:43 28.05.2020
2469 Clouds 23 1018 78 14484 3.1 170 12:20 28.05.2020
2470 Clear 22 1017 73 14484 2.6 210 11:54 28.05.2020
2471 Clear 22 1017 73 14484 2.6 210 11:36 28.05.2020
2472 Clear 23 1017 73 14484 2.6 210 11:18 28.05.2020
2473 Clouds 24 1017 73 14484 2.6 190 10:42 28.05.2020
2474 Clouds 24 1017 73 14484 2.6 190 10:24 28.05.2020
2475 Clouds 23 1017 69 14484 3.6 200 09:41 28.05.2020
2476 Clouds 23 1017 69 14484 3.6 200 09:22 28.05.2020
2477 Clouds 24 1017 69 14484 3.6 200 08:57 28.05.2020
2478 Clouds 24 1017 69 14484 3.6 200 08:39 28.05.2020
2479 Clouds 24 1017 69 14484 3.6 200 08:20 28.05.2020
2480 Clouds 25 1017 73 14484 3.6 180 07:41 28.05.2020
2481 Clouds 25 1017 73 14484 3.6 180 07:23 28.05.2020
2482 Clouds 26 1017 69 14484 3.6 160 06:44 28.05.2020
2483 Clouds 26 1017 69 14484 3.6 160 06:26 28.05.2020
2484 Clear 26 1016 73 14484 2.1 180 05:38 28.05.2020
2485 Clear 27 1016 61 14484 2.6 210 04:36 28.05.2020
2486 Clouds 28 1016 58 14484 3.6 220 03:53 28.05.2020
2487 Clouds 30 1015 45 14484 3.6 190 02:55 28.05.2020
2488 Clouds 30 1015 45 14484 3.6 190 02:28 28.05.2020
2489 Clouds 31 1015 48 14484 4.1 210 01:45 28.05.2020
2490 Clouds 32 1015 38 14484 5.7 190 00:47 28.05.2020
2491 Clouds 33 1015 38 14484 5.7 190 00:19 28.05.2020
2492 Clouds 33 1015 38 14484 5.7 180 23:56 27.05.2020
2493 Clouds 33 1015 41 14484 5.7 180 23:37 27.05.2020
2494 Clouds 33 1015 41 14484 5.7 180 23:19 27.05.2020
2495 Clouds 34 1016 43 14484 9.3 190 22:41 27.05.2020
2496 Thunderstorm 34 1016 41 14484 6.2 170 22:23 27.05.2020
2497 Clouds 35 1016 41 14484 5.1 190 21:57 27.05.2020
2498 Clouds 33 1016 41 14484 5.1 190 21:39 27.05.2020
2499 Clouds 34 1016 41 14484 5.1 190 21:20 27.05.2020
2500 Clear 35 1017 39 14484 5.7 260 20:58 27.05.2020
2501 Clear 35 1017 39 14484 5.7 260 20:39 27.05.2020
2502 Clear 35 1017 39 14484 5.7 260 20:19 27.05.2020
2503 Clouds 33 1018 43 24140 4.1 210 19:46 27.05.2020
2504 Clouds 33 1018 43 24140 4.1 210 19:21 27.05.2020
2505 Clouds 33 1018 46 24140 3.1 220 18:54 27.05.2020
2506 Clouds 33 1018 46 24140 3.1 220 18:36 27.05.2020
2507 Clouds 32 1018 46 24140 3.1 220 18:18 27.05.2020
2508 Clouds 30 1019 48 24140 3.1 200 17:42 27.05.2020
2509 Clouds 30 1019 48 24140 3.1 200 17:23 27.05.2020
2510 Clear 29 1019 54 24140 3.6 180 16:56 27.05.2020
2511 Clear 29 1019 54 24140 3.6 180 16:38 27.05.2020
2512 Clear 29 1019 54 24140 3.6 180 16:19 27.05.2020
2513 Clear 29 1019 57 32767 1.5 170 15:49 27.05.2020
2514 Clear 26 1019 69 14484 2.6 200 15:23 27.05.2020
2515 Clear 24 1019 69 14484 2.6 200 14:55 27.05.2020
2516 Clear 24 1019 69 14484 2.6 200 14:37 27.05.2020
2517 Clear 25 1019 69 14484 2.6 200 14:19 27.05.2020
2518 Clear 25 1019 69 14484 2.6 200 14:19 27.05.2020
2519 Clear 24 1019 73 14484 3.1 180 13:41 27.05.2020
2520 Clear 24 1019 73 14484 3.1 180 13:23 27.05.2020
2521 Clear 22 1019 83 14484 2.1 180 12:42 27.05.2020
2522 Clear 22 1019 83 14484 2.1 180 12:24 27.05.2020
2523 -273 0 0 0 0 0 11:59 27.05.2020
2524 Clear 21 1018 82 14484 1 150 11:37 27.05.2020
2525 Clear 21 1018 82 14484 1 150 11:19 27.05.2020
2526 Clouds 21 1018 77 14484 2.1 160 10:55 27.05.2020
2527 Clouds 22 1018 77 14484 2.1 160 10:36 27.05.2020
2528 Clouds 22 1018 77 14484 2.1 160 10:18 27.05.2020
2529 Clouds 22 1018 73 14484 1.5 160 09:40 27.05.2020
2530 Clouds 23 1018 73 14484 1.5 160 09:21 27.05.2020
2531 Clouds 23 1018 69 14484 3.1 220 08:43 27.05.2020
2532 Clouds 23 1018 69 14484 3.1 220 08:25 27.05.2020
2533 Clouds 24 1018 65 14484 3.6 210 07:59 27.05.2020
2534 Clouds 24 1018 65 14484 3.6 210 07:40 27.05.2020
2535 Clouds 24 1018 65 14484 3.6 210 07:22 27.05.2020
2536 Clouds 24 1018 65 14484 2.6 230 06:43 27.05.2020
2537 Clouds 24 1018 65 14484 2.6 230 06:19 27.05.2020
2538 Clouds 25 1018 61 14484 2.1 220 05:47 27.05.2020
2539 Clouds 26 1018 57 14484 2.6 200 04:20 27.05.2020
2540 Clouds 30 1017 45 14484 2.6 190 02:31 27.05.2020
2541 Clouds 31 1016 43 14484 4.6 250 01:53 27.05.2020
2542 Clouds 31 1016 43 14484 4.6 250 01:53 27.05.2020
2543 Clouds 31 1016 43 14484 4.6 250 01:25 27.05.2020
2544 Clouds 31 1016 43 14484 5.7 250 00:45 27.05.2020
2545 Clouds 31 1016 43 14484 5.7 250 00:20 27.05.2020
2546 Clear 32 1016 41 14484 5.1 240 23:44 26.05.2020
2547 Clear 33 1016 41 14484 5.1 240 23:26 26.05.2020
2548 Clear 33 1017 43 14484 6.2 230 23:00 26.05.2020
2549 Clear 32 1017 43 14484 6.2 230 22:39 26.05.2020
2550 Clear 32 1017 43 14484 6.2 230 22:21 26.05.2020
2551 Clear 32 1017 46 14484 5.7 250 21:58 26.05.2020
2552 Clear 32 1017 46 14484 5.7 250 21:40 26.05.2020
2553 Clear 32 1017 46 14484 5.7 250 21:21 26.05.2020
2554 Clear 31 1018 48 14484 3.6 200 20:55 26.05.2020
2555 Clear 30 1018 48 14484 3.6 200 20:37 26.05.2020
2556 Clear 30 1018 48 14484 3.6 200 20:18 26.05.2020
2557 Clear 30 1019 51 14484 5.1 240 19:39 26.05.2020
2558 Clear 30 1019 51 14484 5.1 240 19:20 26.05.2020
2559 Clear 29 1019 58 14484 2.6 0 18:43 26.05.2020
2560 Clear 28 1019 58 14484 2.6 0 18:25 26.05.2020
2561 Clear 27 1019 61 14484 3.1 190 17:59 26.05.2020
2562 Clear 27 1019 61 14484 3.1 190 17:38 26.05.2020
2563 Clear 26 1019 61 14484 3.1 190 17:20 26.05.2020
2564 Clear 26 1020 65 14484 4.6 190 16:47 26.05.2020
2565 Clear 26 1020 65 14484 4.6 190 16:20 26.05.2020
2566 Clouds 25 1020 69 14484 3.6 170 15:56 26.05.2020
2567 Clouds 25 1020 69 14484 3.6 170 15:38 26.05.2020
2568 Clouds 23 1020 69 14484 3.6 170 15:19 26.05.2020
2569 Clouds 23 1020 69 14484 3.6 170 15:19 26.05.2020
2570 Clouds 21 1020 73 14484 3.6 170 14:44 26.05.2020
2571 Clouds 21 1020 73 14484 3.6 170 14:24 26.05.2020
2572 Clear 20 1020 77 14484 3.6 160 13:57 26.05.2020
2573 Clear 19 1020 77 14484 3.6 160 13:39 26.05.2020
2574 Clear 19 1020 77 14484 3.6 160 13:21 26.05.2020
2575 Clear 17 1020 87 14484 2.1 120 12:43 26.05.2020
2576 Clear 17 1020 87 14484 2.1 120 12:22 26.05.2020
2577 Clear 16 1019 93 14484 1 160 11:59 26.05.2020
2578 Clear 16 1019 93 14484 1 160 11:40 26.05.2020
2579 Clear 16 1019 93 14484 1 160 11:19 26.05.2020
2580 Clear 16 1019 87 14484 1.5 160 10:44 26.05.2020
2581 Clear 16 1019 87 14484 1.5 160 10:19 26.05.2020
2582 Clear 16 1018 87 14484 1 90 09:55 26.05.2020
2583 Clear 16 1018 87 14484 1 90 09:37 26.05.2020
2584 Clear 17 1019 87 24140 1 10 09:18 26.05.2020
2585 Clear 17 1019 77 14484 0.21 241 08:39 26.05.2020
2586 Clear 17 1019 77 14484 0.51 115 08:21 26.05.2020
2587 Clouds 18 1018 72 14484 1 160 07:41 26.05.2020
2588 Clouds 19 1018 72 14484 1 160 07:22 26.05.2020
2589 Clouds 19 1019 72 14484 0.87 77 06:52 26.05.2020
2590 Clouds 20 1019 72 14484 1.11 42 06:28 26.05.2020
2591 Clouds 19 1018 72 14484 1 60 05:41 26.05.2020
2592 Clouds 19 1018 72 14484 1 60 05:18 26.05.2020
2593 Clear 19 1018 72 14484 2.1 70 04:47 26.05.2020
2594 Clear 18 1018 72 14484 2.1 70 04:28 26.05.2020
2595 Clouds 21 1018 60 14484 1 120 03:45 26.05.2020
2596 Clouds 22 1017 56 14484 2.1 180 02:34 26.05.2020
2597 Clouds 22 1018 60 14484 1.5 190 01:43 26.05.2020
2598 Clouds 22 1018 56 14484 3.1 180 00:40 26.05.2020
2599 Clouds 22 1018 56 14484 3.1 180 00:21 26.05.2020
2600 Clouds 22 1018 64 14484 3.1 240 23:59 25.05.2020
2601 Clouds 22 1018 64 14484 3.1 240 23:38 25.05.2020
2602 Clouds 22 1018 64 14484 3.1 240 23:20 25.05.2020
2603 Clouds 22 1018 60 14484 4.6 250 22:56 25.05.2020
2604 Clouds 22 1018 60 14484 4.6 250 22:37 25.05.2020
2605 Clouds 22 1018 60 14484 4.6 250 22:37 25.05.2020
2606 Clouds 22 1018 60 14484 4.6 250 22:19 25.05.2020
2607 Clouds 22 1018 49 14484 5.1 180 21:58 25.05.2020
2608 Clouds 22 1018 49 14484 5.1 180 21:38 25.05.2020
2609 Clouds 22 1018 49 14484 5.1 180 21:19 25.05.2020
2610 Clouds 22 1018 49 14484 5.7 160 20:58 25.05.2020
2611 Clouds 22 1018 49 14484 5.7 160 20:40 25.05.2020
2612 Clouds 22 1018 49 14484 5.7 160 20:20 25.05.2020
2613 Clouds 23 1018 46 14484 8.2 170 19:55 25.05.2020
2614 Clouds 23 1018 46 14484 8.2 170 19:37 25.05.2020
2615 Clouds 23 1018 46 14484 8.2 170 19:18 25.05.2020
2616 Clouds 22 1019 46 14484 6.7 170 18:43 25.05.2020
2617 Clouds 22 1019 46 14484 6.7 170 18:21 25.05.2020
2618 Clouds 20 1019 55 14484 5.1 190 17:55 25.05.2020
2619 Clouds 20 1019 55 14484 5.1 190 17:37 25.05.2020
2620 Clouds 20 1019 55 14484 5.1 190 17:18 25.05.2020
2621 Clouds 19 1019 52 14484 5.7 180 16:41 25.05.2020
2622 Clouds 19 1019 52 14484 5.7 180 16:22 25.05.2020
2623 Clouds 19 1019 55 14484 5.7 180 15:58 25.05.2020
2624 Clouds 19 1019 55 14484 5.7 180 15:40 25.05.2020
2625 Clouds 18 1019 55 14484 5.7 180 15:18 25.05.2020
2626 Clouds 17 1019 59 14484 4.6 170 14:43 25.05.2020
2627 Clouds 17 1019 59 14484 4.6 170 14:24 25.05.2020
2628 Clouds 17 1019 55 14484 9.3 180 13:57 25.05.2020
2629 Clouds 17 1019 55 14484 9.3 180 13:37 25.05.2020
2630 Clouds 17 1019 55 14484 9.3 180 13:19 25.05.2020
2631 Clouds 17 1019 51 14484 7.7 180 12:54 25.05.2020
2632 Clouds 17 1019 51 14484 7.7 180 12:36 25.05.2020
2633 Clouds 17 1019 51 14484 7.7 180 12:18 25.05.2020
2634 Clouds 17 1018 48 14484 7.7 170 11:38 25.05.2020
2635 Clouds 17 1018 48 14484 7.7 170 11:38 25.05.2020
2636 Clouds 17 1018 48 14484 7.7 170 11:19 25.05.2020
2637 Clouds 17 1018 45 14484 6.7 180 10:45 25.05.2020
2638 Clouds 17 1018 45 14484 6.7 180 10:21 25.05.2020
2639 Clouds 18 1018 42 14484 6.2 180 09:59 25.05.2020
2640 Clouds 18 1018 42 14484 6.2 180 09:40 25.05.2020
2641 Clouds 18 1018 42 14484 6.2 180 09:19 25.05.2020
2642 Clouds 18 1018 42 14484 5.7 180 08:59 25.05.2020
2643 Clouds 18 1018 42 14484 5.7 180 08:37 25.05.2020
2644 Clouds 19 1018 42 14484 5.7 180 08:18 25.05.2020
2645 Clouds 19 1018 42 14484 6.2 180 07:45 25.05.2020
2646 Clouds 19 1018 42 14484 6.2 180 07:21 25.05.2020
2647 Clouds 20 1018 42 14484 5.1 160 06:54 25.05.2020
2648 Clouds 20 1018 42 14484 5.1 160 06:33 25.05.2020
2649 Clouds 21 1018 42 14484 3.6 130 04:19 25.05.2020
2650 Clouds 22 1018 40 14484 2.6 150 03:23 25.05.2020
2651 Clouds 22 1018 37 14484 2.6 170 02:45 25.05.2020
2652 Clouds 24 1018 36 14484 3.6 180 01:58 25.05.2020
2653 Clouds 24 1018 36 14484 3.6 180 01:30 25.05.2020
2654 Clear 25 1018 33 14484 5.1 160 00:43 25.05.2020
2655 Clear 25 1018 33 14484 5.1 160 00:23 25.05.2020
2656 Clouds 25 1019 38 14484 3.6 160 23:57 24.05.2020
2657 Clouds 25 1019 38 14484 3.6 160 23:37 24.05.2020
2658 Clouds 25 1019 38 14484 3.6 160 23:18 24.05.2020
2659 Clouds 24 1020 38 14484 4.1 170 22:41 24.05.2020
2660 Clouds 24 1020 38 14484 4.1 170 22:19 24.05.2020
2661 Clear 24 1020 36 14484 3.1 180 21:57 24.05.2020
2662 Clear 24 1020 36 14484 3.1 180 21:39 24.05.2020
2663 Clear 25 1020 36 14484 3.1 180 21:20 24.05.2020
2664 Clear 25 1021 36 14484 4.6 170 20:56 24.05.2020
2665 Clear 25 1021 36 14484 4.6 170 20:38 24.05.2020
2666 Clear 25 1021 36 14484 4.6 170 20:18 24.05.2020
2667 Clear 24 1021 41 14484 1.5 180 19:42 24.05.2020
2668 Clear 24 1021 41 14484 1.5 180 19:20 24.05.2020
2669 Clear 23 1022 38 14484 2.6 0 18:59 24.05.2020
2670 Clear 23 1022 38 14484 2.6 0 18:40 24.05.2020
2671 Clear 23 1022 38 14484 2.6 0 18:22 24.05.2020
2672 Clear 21 1023 35 14484 3.1 190 17:56 24.05.2020
2673 Clear 21 1023 35 14484 3.1 190 17:37 24.05.2020
2674 Clear 21 1023 35 14484 3.1 190 17:37 24.05.2020
2675 Clear 20 1023 35 14484 3.1 190 17:19 24.05.2020
2676 Clear 19 1023 37 14484 5.1 160 16:39 24.05.2020
2677 Clear 19 1023 37 14484 5.1 160 16:21 24.05.2020
2678 Clear 17 1023 39 14484 6.2 170 15:59 24.05.2020
2679 Clear 17 1023 39 14484 6.2 170 15:40 24.05.2020
2680 Clear 16 1023 39 14484 6.2 170 15:20 24.05.2020
2681 Clear 14 1023 47 14484 3.1 110 14:55 24.05.2020
2682 Clear 14 1023 47 14484 3.1 110 14:37 24.05.2020
2683 Clear 13 1023 47 14484 3.1 110 14:18 24.05.2020
2684 Clear 12 1023 57 14484 3.1 20 13:55 24.05.2020
2685 Clear 11 1023 57 14484 3.1 20 13:36 24.05.2020
2686 Clear 10 1023 57 14484 3.1 20 13:18 24.05.2020
2687 Clouds 10 1022 57 32767 4.1 30 12:55 24.05.2020
2688 Clouds 9 1022 57 32767 4.1 30 12:37 24.05.2020
2689 Clear 9 1023 65 14484 4.1 20 12:18 24.05.2020
2690 Clouds 8 1022 62 32767 4.1 20 11:45 24.05.2020
2691 Clouds 8 1022 60 32767 4.1 20 11:26 24.05.2020
2692 Clear 9 1022 60 14484 2.1 20 10:59 24.05.2020
2693 Clear 9 1022 60 14484 2.1 20 10:40 24.05.2020
2694 Clear 9 1022 56 14484 2.1 20 10:22 24.05.2020
2695 Clear 9 1022 56 14484 3.1 10 09:55 24.05.2020
2696 Clear 10 1022 57 24140 4.6 30 09:37 24.05.2020
2697 Clear 9 1022 54 14484 3.1 10 09:18 24.05.2020
2698 Clear 10 1021 54 14484 4.1 20 08:41 24.05.2020
2699 Clear 10 1021 54 14484 4.1 20 08:41 24.05.2020
2700 Clear 10 1021 52 14484 4.1 20 08:22 24.05.2020
2701 Clear 12 1021 50 14484 4.6 10 07:57 24.05.2020
2702 Clear 12 1021 50 14484 4.6 10 07:39 24.05.2020
2703 Clear 12 1021 50 14484 4.6 10 07:19 24.05.2020
2704 Clear 13 1021 52 14484 3.6 10 06:38 24.05.2020
2705 Clear 14 1020 35 24140 4.6 40 05:49 24.05.2020
2706 Clear 17 1020 56 14484 2.6 40 03:56 24.05.2020
2707 Clear 17 1020 56 14484 2.6 40 03:35 24.05.2020
2708 Clear 18 1020 33 14484 4.6 10 02:24 24.05.2020
2709 Clear 20 1020 28 14484 7.7 20 00:59 24.05.2020
2710 Clear 20 1020 28 14484 7.7 20 00:36 24.05.2020
2711 Clear 20 1020 28 14484 7.7 20 00:18 24.05.2020
2712 Clear 20 1020 28 14484 6.2 30 23:38 23.05.2020
2713 Clear 20 1020 28 14484 6.2 30 23:19 23.05.2020
2714 Clear 20 1021 28 14484 6.7 30 22:55 23.05.2020
2715 Clear 20 1021 28 14484 6.7 30 22:37 23.05.2020
2716 Clear 20 1021 28 14484 6.7 30 22:18 23.05.2020
2717 Clear 21 1020 26 14484 7.7 30 21:56 23.05.2020
2718 Clear 20 1020 26 14484 7.7 30 21:36 23.05.2020
2719 Clear 20 1020 26 14484 7.7 30 21:18 23.05.2020
2720 Clear 20 1020 26 14484 7.7 30 21:18 23.05.2020
2721 Clear 20 1021 38 14484 7.7 40 20:40 23.05.2020
2722 Clear 20 1021 40 14484 7.7 40 20:20 23.05.2020
2723 Clear 19 1021 28 14484 6.2 30 19:59 23.05.2020
2724 Clear 19 1021 28 14484 6.2 30 19:40 23.05.2020
2725 Clear 19 1021 28 14484 6.2 30 19:19 23.05.2020
2726 Clear 19 1021 28 14484 6.2 30 19:19 23.05.2020
2727 Clear 19 1021 24 14484 7.2 30 18:42 23.05.2020
2728 Clear 18 1021 24 14484 7.2 30 18:23 23.05.2020
2729 Clear 18 1021 23 14484 6.7 50 17:58 23.05.2020
2730 Clear 18 1021 23 14484 6.7 50 17:40 23.05.2020
2731 Clear 18 1021 23 14484 6.7 50 17:21 23.05.2020
2732 Clear 17 1021 27 14484 8.7 30 16:59 23.05.2020
2733 Clear 17 1021 27 14484 8.7 30 16:41 23.05.2020
2734 Clear 17 1021 27 14484 8.7 30 16:21 23.05.2020
2735 -273 0 0 0 0 0 15:59 23.05.2020
2736 Clear 16 1021 31 14484 6.2 50 15:40 23.05.2020
2737 Clear 16 1021 31 14484 6.2 50 15:22 23.05.2020
2738 Clear 15 1020 30 14484 7.7 40 14:43 23.05.2020
2739 Clear 15 1020 30 14484 7.7 40 14:24 23.05.2020
2740 Haze 15 1020 30 9656 7.7 40 13:56 23.05.2020
2741 Clear 14 1020 33 14484 7.7 40 13:37 23.05.2020
2742 Clear 15 1020 33 14484 7.7 40 13:18 23.05.2020
2743 Clear 15 1019 33 14484 6.7 20 12:41 23.05.2020
2744 Clear 15 1019 33 14484 6.7 20 12:20 23.05.2020
2745 Clouds 15 1018 23 32767 6.7 40 11:57 23.05.2020
2746 Clouds 15 1018 23 32767 6.7 40 11:39 23.05.2020
2747 Clouds 16 1018 23 32767 6.7 40 11:19 23.05.2020
2748 Clear 16 1018 33 14484 4.6 30 10:55 23.05.2020
2749 Clouds 17 1018 21 24140 5.7 50 10:37 23.05.2020
2750 Clouds 17 1018 21 24140 5.7 50 10:18 23.05.2020
2751 Clear 17 1017 30 14484 4.1 30 09:43 23.05.2020
2752 Clouds 19 1017 22 24140 5.1 50 09:24 23.05.2020
2753 Clear 19 1016 33 14484 3.1 40 08:58 23.05.2020
2754 Clear 18 1016 33 14484 3.1 40 08:38 23.05.2020
2755 Clear 19 1016 33 14484 3.1 40 08:19 23.05.2020
2756 Clear 19 1016 39 14484 5.1 20 07:44 23.05.2020
2757 Clear 19 1016 39 14484 5.1 20 07:44 23.05.2020
2758 Clear 18 1016 39 14484 5.1 20 07:22 23.05.2020
2759 Clear 19 1015 48 14484 2.1 350 06:42 23.05.2020
2760 Clear 20 1014 37 14484 1.5 40 05:55 23.05.2020
2761 Clear 20 1014 37 14484 1.5 40 05:55 23.05.2020
2762 Clear 23 1013 31 14484 6.2 240 03:52 23.05.2020
2763 Clear 24 1013 31 14484 6.2 240 03:24 23.05.2020
2764 Clear 25 1013 27 14484 7.2 240 02:40 23.05.2020
2765 Clear 26 1013 29 14484 6.7 240 01:48 23.05.2020
2766 Clear 26 1013 29 14484 6.7 240 01:18 23.05.2020
2767 Clear 28 1013 24 14484 6.7 250 00:42 23.05.2020
2768 Clear 28 1013 26 14484 8.2 230 23:59 22.05.2020
2769 Clear 28 1013 26 14484 8.2 230 23:41 22.05.2020
2770 Clear 28 1013 26 14484 8.2 230 23:22 22.05.2020
2771 Clear 28 1013 26 14484 9.3 230 22:58 22.05.2020
2772 Clear 28 1013 26 14484 9.3 230 22:40 22.05.2020
2773 Clear 28 1013 26 14484 9.3 230 22:20 22.05.2020
2774 Clear 28 1014 26 14484 8.7 230 21:47 22.05.2020
2775 Clear 28 1014 26 14484 8.7 230 21:23 22.05.2020
2776 Clear 28 1014 26 14484 8.7 230 21:23 22.05.2020
2777 Clear 27 1015 28 14484 9.8 230 20:59 22.05.2020
2778 Clear 27 1015 28 14484 9.8 230 20:41 22.05.2020
2779 Clear 27 1015 28 14484 9.8 230 20:20 22.05.2020
2780 Clear 26 1016 29 14484 8.7 240 19:45 22.05.2020
2781 Clear 26 1016 29 14484 8.7 240 19:26 22.05.2020
2782 Clear 26 1016 33 14484 6.7 230 18:55 22.05.2020
2783 Clear 25 1016 33 14484 6.7 230 18:37 22.05.2020
2784 Clear 25 1016 33 14484 6.7 230 18:37 22.05.2020
2785 Clear 24 1016 33 14484 6.7 230 18:19 22.05.2020
2786 Clear 22 1017 35 14484 4.6 250 17:40 22.05.2020
2787 Clear 23 1017 35 14484 4.6 250 17:20 22.05.2020
2788 Clear 21 1017 37 14484 7.2 240 16:57 22.05.2020
2789 Clear 21 1017 37 14484 7.2 240 16:39 22.05.2020
2790 Clear 21 1017 37 14484 7.2 240 16:19 22.05.2020
2791 Clear 20 1017 34 14484 8.2 240 15:54 22.05.2020
2792 Clear 20 1017 34 14484 8.2 240 15:54 22.05.2020
2793 Clear 20 1017 34 14484 8.2 240 15:36 22.05.2020
2794 Clear 19 1017 34 14484 8.2 240 15:18 22.05.2020
2795 Clear 17 1018 36 14484 8.7 240 14:39 22.05.2020
2796 Clear 17 1018 36 14484 8.7 240 14:20 22.05.2020
2797 Clear 16 1018 41 14484 6.2 230 13:42 22.05.2020
2798 Clear 15 1018 41 14484 6.2 230 13:19 22.05.2020
2799 Clear 14 1017 43 14484 7.2 230 12:43 22.05.2020
2800 Clear 13 1017 43 14484 7.2 230 12:24 22.05.2020
2801 Clear 13 1018 46 14484 4.6 220 11:48 22.05.2020
2802 Clear 13 1018 46 14484 4.6 220 11:22 22.05.2020
2803 Clear 13 1018 50 14484 4.1 220 10:59 22.05.2020
2804 Clear 12 1018 50 14484 4.1 220 10:39 22.05.2020
2805 Clear 13 1018 50 14484 4.1 220 10:20 22.05.2020
2806 Clear 13 1018 43 14484 5.1 230 09:57 22.05.2020
2807 Clear 13 1018 43 14484 5.1 230 09:38 22.05.2020
2808 Clear 14 1018 43 14484 5.1 230 09:18 22.05.2020
2809 Clear 15 1018 41 14484 4.1 220 08:43 22.05.2020
2810 Clear 15 1018 41 14484 4.1 220 08:20 22.05.2020
2811 Clear 15 1019 41 14484 3.1 210 07:52 22.05.2020
2812 Clear 14 1019 41 14484 3.1 210 07:24 22.05.2020
2813 Clear 15 1019 35 14484 4.1 200 06:54 22.05.2020
2814 Clear 16 1019 35 14484 4.1 200 06:32 22.05.2020
2815 Clear 17 1019 33 14484 3.1 190 05:38 22.05.2020
2816 Clear 18 1019 16 14484 4.1 270 04:50 22.05.2020
2817 Clear 20 1019 16 14484 4.1 270 04:19 22.05.2020
2818 Clear 20 1019 14 14484 6.2 270 03:45 22.05.2020
2819 Clear 21 1019 22 14484 4.1 240 02:59 22.05.2020
2820 Clear 24 1019 17 14484 6.2 240 01:52 22.05.2020
2821 Clear 24 1019 17 14484 6.2 240 01:24 22.05.2020
2822 Clear 25 1019 20 14484 8.2 250 00:40 22.05.2020
2823 Clear 25 1019 20 14484 8.2 250 00:22 22.05.2020
2824 Clear 25 1020 22 14484 5.7 250 23:42 21.05.2020
2825 Clear 25 1020 22 14484 5.7 250 23:24 21.05.2020
2826 Clear 25 1021 22 14484 7.7 250 22:57 21.05.2020
2827 Clear 25 1021 22 14484 7.7 250 22:38 21.05.2020
2828 Clear 25 1021 22 14484 7.7 250 22:19 21.05.2020
2829 Clear 25 1022 25 14484 6.2 250 21:55 21.05.2020
2830 Clear 25 1022 25 14484 6.2 250 21:37 21.05.2020
2831 Clear 25 1022 25 14484 6.2 250 21:18 21.05.2020
2832 Clear 24 1023 27 14484 6.2 240 20:42 21.05.2020
2833 Clear 24 1023 27 14484 6.2 240 20:22 21.05.2020
2834 Clear 23 1024 28 14484 4.6 230 19:41 21.05.2020
2835 Clear 23 1024 28 14484 4.6 230 19:21 21.05.2020
2836 Clear 23 1025 33 14484 6.7 230 18:59 21.05.2020
2837 Clear 22 1025 33 14484 6.7 230 18:39 21.05.2020
2838 Clear 22 1025 33 14484 6.7 230 18:19 21.05.2020
2839 Clear 21 1026 37 14484 6.7 230 17:57 21.05.2020
2840 Clear 21 1026 37 14484 6.7 230 17:39 21.05.2020
2841 Clear 21 1026 37 14484 6.7 230 17:21 21.05.2020
2842 Clear 20 1026 42 14484 7.2 230 16:45 21.05.2020
2843 Clear 20 1026 42 14484 7.2 230 16:23 21.05.2020
2844 Clear 19 1026 39 14484 7.7 230 15:45 21.05.2020
2845 Clear 18 1026 39 14484 7.7 230 15:24 21.05.2020
2846 Clear 17 1027 44 14484 6.2 240 14:56 21.05.2020
2847 Clear 17 1027 44 14484 6.2 240 14:36 21.05.2020
2848 Clear 17 1027 44 14484 6.2 240 14:18 21.05.2020
2849 Clear 16 1026 50 14484 4.6 210 13:39 21.05.2020
2850 Clear 16 1026 50 14484 4.6 210 13:39 21.05.2020
2851 Clear 15 1026 50 14484 4.6 210 13:21 21.05.2020
2852 Clear 14 1026 62 14484 2.6 190 12:55 21.05.2020
2853 Clear 14 1026 62 14484 2.6 190 12:36 21.05.2020
2854 Clear 13 1026 62 14484 2.6 190 12:18 21.05.2020
2855 Clear 13 1026 62 14484 4.6 220 11:41 21.05.2020
2856 Clear 13 1026 62 14484 4.6 220 11:23 21.05.2020
2857 Clear 11 1026 62 14484 2.1 220 10:55 21.05.2020
2858 Clear 11 1026 62 14484 2.1 220 10:37 21.05.2020
2859 Clear 12 1026 62 14484 2.1 220 10:18 21.05.2020
2860 Clear 12 1025 57 14484 1.5 190 09:43 21.05.2020
2861 Clear 12 1026 62 24140 1.5 250 09:25 21.05.2020
2862 Clear 12 1025 58 24140 2.42 252 08:59 21.05.2020
2863 Clear 12 1025 58 24140 2.42 252 08:40 21.05.2020
2864 Clear 13 1025 58 24140 2.49 225 08:22 21.05.2020
2865 Clear 13 1025 58 14484 1 130 07:44 21.05.2020
2866 Clear 13 1025 58 14484 1 130 07:25 21.05.2020
2867 Clear 14 1025 47 14484 1 190 06:48 21.05.2020
2868 Clear 15 1025 47 14484 2.1 190 05:53 21.05.2020
2869 Clear 18 1026 36 14484 2.6 210 04:53 21.05.2020
2870 Clear 20 1026 30 14484 3.1 190 03:21 21.05.2020
2871 Clear 21 1025 28 14484 3.1 220 02:38 21.05.2020
2872 Clear 21 1025 28 14484 3.1 220 02:20 21.05.2020
2873 Clear 22 1026 30 14484 3.1 220 01:42 21.05.2020
2874 Clear 22 1026 30 14484 3.1 220 01:19 21.05.2020
2875 Clear 23 1026 23 14484 2.1 270 00:45 21.05.2020
2876 Clear 23 1026 23 14484 2.1 270 00:45 21.05.2020
2877 Clear 23 1026 23 14484 2.1 270 00:22 21.05.2020
2878 Clear 24 1027 25 14484 4.6 230 23:41 20.05.2020
2879 Clear 24 1027 25 14484 4.6 230 23:20 20.05.2020
2880 Clear 24 1027 23 14484 2.1 0 22:57 20.05.2020
2881 Clear 24 1027 23 14484 2.1 0 22:38 20.05.2020
2882 Clear 24 1027 23 14484 2.1 0 22:20 20.05.2020
2883 Clear 24 1028 25 14484 1.5 0 21:40 20.05.2020
2884 Clear 23 1028 25 14484 1.5 0 21:21 20.05.2020
2885 Clear 23 1029 33 14484 1.5 0 20:44 20.05.2020
2886 Clear 23 1029 33 14484 1.5 0 20:25 20.05.2020
2887 Haze 22 1030 30 9656 1.33 259 19:57 20.05.2020
2888 Haze 22 1030 30 9656 1.33 259 19:38 20.05.2020
2889 Haze 22 1030 30 9656 1.45 280 19:19 20.05.2020
2890 Clear 20 1030 37 14484 1.45 280 18:44 20.05.2020
2891 Clear 20 1030 37 14484 1.51 291 18:26 20.05.2020
2892 Clear 18 1031 42 14484 3.1 270 17:44 20.05.2020
2893 Clear 18 1031 42 14484 3.1 270 17:24 20.05.2020
2894 Clear 18 1031 44 14484 2.1 0 16:59 20.05.2020
2895 Clear 17 1031 44 14484 2.1 0 16:39 20.05.2020
2896 Clear 17 1031 44 14484 2.1 0 16:21 20.05.2020
2897 Clear 15 1031 50 14484 1.02 323 15:55 20.05.2020
2898 Clear 15 1031 50 14484 1.02 323 15:36 20.05.2020
2899 Clear 14 1031 50 14484 1.29 344 15:18 20.05.2020
2900 Clear 12 1031 53 14484 1 0 14:41 20.05.2020
2901 Clear 12 1031 53 14484 1 0 14:20 20.05.2020
2902 Clear 11 1030 61 14484 2.6 10 13:40 20.05.2020
2903 Clear 10 1030 61 14484 2.6 10 13:19 20.05.2020
2904 Clouds 10 1030 63 32767 3.1 30 12:43 20.05.2020
2905 Clear 8 1030 75 14484 2.1 350 12:21 20.05.2020
2906 Clear 8 1030 75 14484 2.1 350 12:21 20.05.2020
2907 Clear 8 1029 70 14484 3.6 360 11:58 20.05.2020
2908 Clear 8 1029 70 14484 3.6 360 11:36 20.05.2020
2909 Clear 8 1029 70 14484 3.6 360 11:18 20.05.2020
2910 Clear 9 1029 49 24140 5.1 20 10:42 20.05.2020
2911 Clear 9 1029 49 24140 5.1 20 10:20 20.05.2020
2912 Clear 10 1028 63 24140 4.6 20 09:44 20.05.2020
2913 Clear 10 1028 63 24140 4.6 20 09:44 20.05.2020
2914 Clear 10 1028 64 24140 4.6 20 09:21 20.05.2020
2915 Clear 10 1028 63 24140 4.6 20 09:21 20.05.2020
2916 Clear 10 1028 63 24140 4.6 20 09:21 20.05.2020
2917 Clear 10 1028 49 14484 3.6 360 08:56 20.05.2020
2918 Clear 10 1028 49 14484 3.6 360 08:38 20.05.2020
2919 Clear 11 1028 50 24140 5.7 20 08:18 20.05.2020
2920 Clear 11 1028 46 14484 4.6 360 07:45 20.05.2020
2921 Clear 12 1028 46 24140 4.6 20 07:19 20.05.2020
2922 Clear 12 1028 62 24140 4.1 30 06:35 20.05.2020
2923 Clouds 14 1028 58 24140 3.6 20 05:23 20.05.2020
2924 Clear 15 1028 43 14484 2.1 40 04:26 20.05.2020
2925 Clear 15 1028 41 14484 4.1 10 03:42 20.05.2020
2926 Clouds 17 1027 38 14484 4.6 20 02:25 20.05.2020
2927 Clouds 18 1027 31 14484 5.7 10 01:28 20.05.2020
2928 Clouds 18 1026 31 14484 7.7 10 00:44 20.05.2020
2929 Clouds 19 1026 31 14484 7.7 10 00:23 20.05.2020
2930 Clouds 19 1027 32 14484 7.7 10 23:42 19.05.2020
2931 Clouds 19 1027 32 14484 7.7 10 23:19 19.05.2020
2932 Clouds 19 1027 32 14484 7.7 10 23:19 19.05.2020
2933 Clouds 20 1027 32 14484 7.7 20 22:56 19.05.2020
2934 Clear 19 1027 30 14484 2.6 0 22:38 19.05.2020
2935 Clear 20 1027 30 14484 2.6 0 22:19 19.05.2020
2936 Clear 20 1028 28 14484 5.7 50 21:57 19.05.2020
2937 Clear 20 1028 28 14484 5.7 50 21:38 19.05.2020
2938 Clear 20 1028 28 14484 5.7 50 21:19 19.05.2020
2939 Clear 19 1028 32 14484 3.6 30 20:57 19.05.2020
2940 Clear 19 1028 32 14484 3.6 30 20:39 19.05.2020
2941 Clear 19 1028 32 14484 3.6 30 20:20 19.05.2020
2942 Clear 19 1028 32 14484 6.2 40 19:55 19.05.2020
2943 Clear 19 1028 32 14484 6.2 40 19:36 19.05.2020
2944 Clear 19 1028 32 14484 6.2 40 19:18 19.05.2020
2945 Clear 18 1029 36 14484 5.7 60 18:40 19.05.2020
2946 Clear 18 1029 36 14484 5.7 60 18:20 19.05.2020
2947 Clear 16 1029 41 14484 4.1 50 17:43 19.05.2020
2948 Clear 16 1029 41 14484 4.1 50 17:21 19.05.2020
2949 Clear 15 1029 44 14484 5.7 60 16:59 19.05.2020
2950 Clear 15 1029 44 14484 5.7 60 16:38 19.05.2020
2951 Clear 15 1029 44 14484 5.7 60 16:20 19.05.2020
2952 Clear 14 1029 43 14484 7.7 70 15:47 19.05.2020
2953 Clear 13 1029 43 14484 7.7 70 15:23 19.05.2020
2954 Clear 11 1029 53 14484 7.7 50 14:58 19.05.2020
2955 Clear 11 1029 53 14484 7.7 50 14:39 19.05.2020
2956 Clear 11 1029 53 14484 7.7 50 14:20 19.05.2020
2957 Clear 10 1029 61 14484 5.1 50 13:58 19.05.2020
2958 Clear 9 1029 61 14484 5.1 50 13:39 19.05.2020
2959 Clear 9 1029 61 14484 5.1 50 13:21 19.05.2020
2960 Clear 8 1028 63 14484 6.2 30 12:57 19.05.2020
2961 Clear 8 1028 63 14484 6.2 30 12:38 19.05.2020
2962 Clouds 8 1028 62 32767 8.2 40 12:20 19.05.2020
2963 Clear 8 1027 62 14484 5.1 40 11:55 19.05.2020
2964 Clear 8 1027 62 14484 5.1 40 11:37 19.05.2020
2965 Clouds 8 1027 52 32767 8.2 40 11:18 19.05.2020
2966 Clear 9 1027 52 24140 6.7 40 10:43 19.05.2020
2967 Clear 9 1027 52 24140 6.7 40 10:23 19.05.2020
2968 Clear 9 1027 49 24140 7.7 40 09:55 19.05.2020
2969 Clear 9 1027 49 24140 7.7 40 09:37 19.05.2020
2970 Clear 9 1027 49 24140 7.7 40 09:18 19.05.2020
2971 Clear 10 1027 43 32767 7.7 40 08:41 19.05.2020
2972 Clear 10 1027 43 32767 7.7 40 08:23 19.05.2020
2973 Clear 11 1026 37 24140 8.7 40 07:42 19.05.2020
2974 Clear 11 1026 37 24140 8.7 40 07:24 19.05.2020
2975 Clear 12 1026 37 14484 6.2 30 06:41 19.05.2020
2976 Clear 12 1026 27 24140 8.7 40 06:22 19.05.2020
2977 Clear 13 1026 27 14484 8.2 40 05:40 19.05.2020
2978 Clear 13 1025 30 14484 5.7 40 04:54 19.05.2020
2979 Clear 15 1024 24 14484 5.1 50 03:00 19.05.2020
2980 Clear 17 1024 21 14484 6.2 40 01:23 19.05.2020
2981 Clear 18 1024 20 14484 6.2 50 00:43 19.05.2020
2982 Clear 18 1024 20 14484 6.2 50 00:21 19.05.2020
2983 Clear 18 1024 20 14484 7.2 50 23:40 18.05.2020
2984 Clear 19 1024 20 14484 7.2 50 23:21 18.05.2020
2985 Clear 19 1024 16 14484 6.7 50 23:00 18.05.2020
2986 Clear 19 1024 16 14484 6.7 50 22:40 18.05.2020
2987 Clear 18 1024 16 14484 6.7 50 22:21 18.05.2020
2988 Clear 18 1024 20 14484 4.1 40 21:43 18.05.2020
2989 Clear 18 1024 20 14484 4.1 40 21:22 18.05.2020
2990 Clear 18 1025 20 14484 5.7 60 20:59 18.05.2020
2991 Clear 17 1025 20 14484 5.7 60 20:41 18.05.2020
2992 Clear 17 1025 20 14484 5.7 60 20:21 18.05.2020
2993 Clear 17 1025 29 14484 5.1 40 19:57 18.05.2020
2994 Clear 17 1025 29 14484 5.1 40 19:39 18.05.2020
2995 Clear 17 1025 29 14484 5.1 40 19:19 18.05.2020
2996 Clear 16 1025 26 14484 5.1 30 18:45 18.05.2020
2997 Clear 15 1025 26 14484 5.1 30 18:24 18.05.2020
2998 Clear 15 1026 24 14484 5.1 50 17:41 18.05.2020
2999 Clear 15 1026 24 14484 5.1 50 17:18 18.05.2020
3000 Clear 14 1026 28 14484 6.2 50 16:59 18.05.2020
3001 Clear 14 1026 28 14484 6.2 50 16:40 18.05.2020
3002 Clear 14 1026 28 14484 6.2 50 16:20 18.05.2020
3003 Clouds 13 1026 32 14484 6.2 20 15:57 18.05.2020
3004 Clouds 13 1026 32 14484 6.2 20 15:38 18.05.2020
3005 Clouds 12 1026 32 14484 6.2 20 15:20 18.05.2020
3006 Clear 11 1026 37 14484 5.1 30 14:55 18.05.2020
3007 Clear 11 1026 37 14484 5.1 30 14:37 18.05.2020
3008 Clear 11 1026 37 14484 5.1 30 14:19 18.05.2020
3009 Clouds 10 1026 39 14484 3.6 30 13:40 18.05.2020
3010 Clouds 9 1026 39 14484 3.6 30 13:20 18.05.2020
3011 Clouds 9 1025 36 14484 5.1 20 12:58 18.05.2020
3012 Clouds 9 1025 36 14484 5.1 20 12:39 18.05.2020
3013 Clouds 9 1025 36 14484 5.1 20 12:19 18.05.2020
3014 Clouds 10 1025 36 14484 5.1 30 11:47 18.05.2020
3015 Clouds 10 1025 36 14484 5.1 30 11:27 18.05.2020
3016 Clouds 10 1024 34 14484 6.2 20 10:59 18.05.2020
3017 Clouds 10 1024 34 14484 6.2 20 10:41 18.05.2020
3018 Clouds 11 1024 34 14484 6.2 20 10:22 18.05.2020
3019 Clouds 11 1024 34 14484 6.7 20 09:44 18.05.2020
3020 Clouds 12 1024 34 14484 6.7 20 09:25 18.05.2020
3021 Clouds 13 1024 34 14484 5.7 20 08:46 18.05.2020
3022 Clouds 13 1024 34 14484 5.7 20 08:27 18.05.2020
3023 Clouds 14 1024 44 14484 5.7 40 07:58 18.05.2020
3024 Clouds 14 1024 44 14484 5.7 40 07:39 18.05.2020
3025 Clouds 14 1024 50 14484 5.7 40 07:20 18.05.2020
3026 Clouds 15 1023 54 14484 4.1 20 06:45 18.05.2020
3027 Clouds 15 1023 54 14484 4.1 20 06:18 18.05.2020
3028 Clouds 15 1023 54 14484 2.56 35 05:42 18.05.2020
3029 Clouds 16 1022 42 14484 1.5 170 03:37 18.05.2020
3030 Clear 18 1022 34 14484 1.5 170 02:31 18.05.2020
3031 Clear 19 1022 39 14484 3.1 180 01:32 18.05.2020
3032 Clouds 19 1023 34 14484 1 0 00:27 18.05.2020
3033 Clear 20 1023 32 14484 1.5 0 23:58 17.05.2020
3034 Clear 20 1023 32 14484 1.5 0 23:58 17.05.2020
3035 Clear 20 1023 32 14484 1.5 0 23:58 17.05.2020
3036 Clear 20 1023 32 14484 1.5 0 23:40 17.05.2020
3037 Clear 20 1023 32 14484 1.5 0 23:20 17.05.2020
3038 Clear 20 1023 34 14484 1.5 0 22:58 17.05.2020
3039 Clear 20 1023 34 14484 1.5 0 22:39 17.05.2020
3040 Clear 20 1023 34 14484 1.5 0 22:21 17.05.2020
3041 Clear 20 1024 37 14484 1 0 21:58 17.05.2020
3042 Clear 20 1024 37 14484 1 0 21:40 17.05.2020
3043 Clear 19 1024 37 14484 1 0 21:19 17.05.2020
3044 Clear 19 1024 42 14484 3.1 50 20:43 17.05.2020
3045 Clear 18 1024 42 14484 3.1 50 20:22 17.05.2020
3046 Clear 18 1025 42 14484 1 0 19:58 17.05.2020
3047 Clear 18 1025 42 14484 1 0 19:40 17.05.2020
3048 Clear 18 1025 42 14484 1 0 19:22 17.05.2020
3049 Clear 18 1025 39 14484 4.1 50 18:55 17.05.2020
3050 Clear 17 1025 39 14484 4.1 50 18:37 17.05.2020
3051 Clear 17 1025 39 14484 4.1 50 18:19 17.05.2020
3052 Clouds 16 1026 41 14484 3.6 70 17:40 17.05.2020
3053 Clouds 16 1026 41 14484 3.6 70 17:40 17.05.2020
3054 Clouds 16 1026 41 14484 3.6 70 17:21 17.05.2020
3055 Clouds 16 1026 41 14484 3.6 70 17:21 17.05.2020
3056 Clouds 16 1027 47 14484 4.1 40 16:56 17.05.2020
3057 Clouds 15 1027 47 14484 4.1 40 16:37 17.05.2020
3058 Clouds 15 1027 47 14484 4.1 40 16:19 17.05.2020
3059 Clouds 14 1027 54 14484 3.6 20 15:45 17.05.2020
3060 Clouds 14 1027 54 14484 3.6 20 15:24 17.05.2020
3061 Clouds 12 1026 62 14484 2.6 30 14:57 17.05.2020
3062 Clouds 12 1026 62 14484 2.6 30 14:38 17.05.2020
3063 Clouds 12 1026 62 14484 2.6 30 14:19 17.05.2020
3064 Clouds 12 1026 62 14484 2.6 30 14:19 17.05.2020
3065 Clouds 12 1026 66 32767 3.6 20 13:41 17.05.2020
3066 Clouds 11 1026 71 14484 2.6 10 13:20 17.05.2020
3067 Clouds 14 1023 62 14484 4.1 240 05:22 17.05.2020
3068 Clouds 15 1023 62 14484 4.6 240 03:31 17.05.2020
3069 Clouds 15 1022 58 14484 4.6 250 02:26 17.05.2020
3070 Clouds 16 1022 55 14484 4.1 250 01:54 17.05.2020
3071 Clouds 17 1021 51 14484 4.6 240 00:48 17.05.2020
3072 Clouds 17 1021 51 14484 4.6 240 00:30 17.05.2020
3073 Clouds 17 1021 48 14484 3.6 290 23:56 16.05.2020
3074 Clouds 17 1021 48 14484 3.6 290 23:38 16.05.2020
3075 Clouds 17 1021 48 14484 3.6 290 23:18 16.05.2020
3076 Clouds 17 1020 48 14484 3.6 310 22:42 16.05.2020
3077 Clouds 17 1020 48 14484 3.6 310 22:22 16.05.2020
3078 Clouds 17 1021 55 14484 4.1 310 21:57 16.05.2020
3079 Clouds 17 1021 55 14484 4.1 310 21:38 16.05.2020
3080 Clouds 17 1021 55 14484 4.1 310 21:19 16.05.2020
3081 Clouds 17 1021 55 14484 4.6 280 20:56 16.05.2020
3082 Clouds 17 1021 55 14484 4.6 280 20:38 16.05.2020
3083 Clouds 17 1021 55 14484 4.6 280 20:38 16.05.2020
3084 Clouds 16 1021 55 14484 4.6 280 20:19 16.05.2020
3085 Clouds 16 1020 59 14484 2.1 320 19:43 16.05.2020
3086 Clouds 16 1020 59 14484 2.1 320 19:23 16.05.2020
3087 Clouds 16 1020 62 14484 3.6 340 18:59 16.05.2020
3088 Clouds 16 1020 62 14484 3.6 340 18:59 16.05.2020
3089 Clouds 16 1020 62 14484 3.6 340 18:40 16.05.2020
3090 Clouds 15 1020 62 14484 3.6 340 18:22 16.05.2020
3091 Clouds 14 1020 66 14484 4.1 340 17:42 16.05.2020
3092 Clouds 15 1020 62 24140 4.1 330 17:21 16.05.2020
3093 Clouds 15 1019 62 14484 4.1 350 16:57 16.05.2020
3094 Clouds 14 1019 62 14484 4.1 350 16:39 16.05.2020
3095 Clouds 14 1019 62 14484 4.1 350 16:18 16.05.2020
3096 Clouds 14 1018 66 14484 4.6 350 15:54 16.05.2020
3097 Clouds 14 1018 66 14484 4.6 350 15:36 16.05.2020
3098 Clouds 13 1018 66 14484 4.6 350 15:18 16.05.2020
3099 Clouds 13 1017 76 14484 5.7 330 14:42 16.05.2020
3100 Clouds 12 1017 76 14484 5.7 330 14:20 16.05.2020
3101 Clouds 12 1017 87 14484 3.1 320 13:56 16.05.2020
3102 Clouds 12 1017 87 14484 3.1 320 13:36 16.05.2020
3103 Clouds 11 1017 87 14484 3.1 320 13:18 16.05.2020
3104 Clouds 11 1015 87 14484 4.1 320 12:43 16.05.2020
3105 Clouds 11 1015 87 14484 4.1 320 12:20 16.05.2020
3106 Clouds 11 1015 87 14484 4.1 320 12:20 16.05.2020
3107 Clouds 11 1014 87 14484 3.6 340 11:43 16.05.2020
3108 Clouds 11 1014 87 14484 3.6 340 11:24 16.05.2020
3109 Clouds 11 1013 93 14484 2.1 330 10:59 16.05.2020
3110 Clouds 11 1013 93 14484 2.1 330 10:40 16.05.2020
3111 Clouds 11 1013 93 14484 2.1 330 10:21 16.05.2020
3112 Clouds 11 1012 93 14484 2.6 330 09:58 16.05.2020
3113 Clouds 11 1012 93 14484 2.6 330 09:38 16.05.2020
3114 Clouds 11 1012 93 14484 2.6 330 09:18 16.05.2020
3115 Clouds 11 1012 93 14484 2.6 330 09:18 16.05.2020
3116 Clouds 11 1012 93 14484 2.6 300 08:42 16.05.2020
3117 Clouds 11 1012 93 14484 2.6 300 08:21 16.05.2020
3118 Clouds 11 1011 87 14484 2.1 300 07:45 16.05.2020
3119 Clouds 11 1011 87 14484 2.1 300 07:25 16.05.2020
3120 Clouds 11 1011 87 14484 2.6 300 06:57 16.05.2020
3121 Clouds 11 1011 87 14484 2.6 300 06:37 16.05.2020
3122 Clouds 11 1011 87 14484 2.6 300 06:18 16.05.2020
3123 Clouds 11 1011 87 14484 4.6 310 05:32 16.05.2020
3124 Clouds 11 1009 93 14484 6.2 340 03:36 16.05.2020
3125 Mist 11 1008 93 9656 4.6 340 02:59 16.05.2020
3126 Clouds 11 1008 100 14484 4.1 340 02:20 16.05.2020
3127 Clouds 11 1007 100 14484 3.1 350 01:47 16.05.2020
3128 Rain 11 1007 100 14484 6.2 60 01:22 16.05.2020
3129 Rain 11 1008 100 6437 5.7 20 00:46 16.05.2020
3130 Mist 11 1008 100 6437 5.7 20 00:22 16.05.2020
3131 Rain 11 1008 93 4828 7.2 10 23:41 15.05.2020
3132 Rain 11 1008 93 4828 7.2 10 23:20 15.05.2020
3133 Rain 11 1008 100 4828 6.7 350 22:58 15.05.2020
3134 Rain 11 1009 93 4023 6.2 340 22:39 15.05.2020
3135 Rain 12 1008 93 4828 4.6 330 22:18 15.05.2020
3136 Mist 13 1009 93 9656 2.6 330 21:40 15.05.2020
3137 Rain 13 1009 93 9656 2.6 330 21:22 15.05.2020
3138 Rain 13 1009 76 9656 1.5 10 20:59 15.05.2020
3139 Rain 13 1010 76 8047 1 0 20:40 15.05.2020
3140 Rain 14 1010 76 8047 1 0 20:22 15.05.2020
3141 Clouds 14 1011 67 14484 1 0 19:56 15.05.2020
3142 Clouds 14 1011 67 14484 1 0 19:37 15.05.2020
3143 Clouds 14 1011 67 14484 1 0 19:19 15.05.2020
3144 Clouds 14 1011 62 14484 1 0 18:45 15.05.2020
3145 Clouds 13 1011 62 14484 1 0 18:27 15.05.2020
3146 Clouds 13 1012 66 14484 1.37 73 17:40 15.05.2020
3147 Clouds 12 1012 66 14484 1.52 81 17:20 15.05.2020
3148 Clouds 13 1012 66 14484 2.6 150 16:58 15.05.2020
3149 Clouds 12 1012 66 14484 2.6 150 16:39 15.05.2020
3150 Clouds 12 1012 66 14484 2.6 150 16:19 15.05.2020
3151 Clouds 12 1013 66 14484 1.5 70 15:58 15.05.2020
3152 Clouds 11 1013 66 14484 1.5 70 15:39 15.05.2020
3153 Clouds 11 1013 66 14484 1.5 70 15:19 15.05.2020
3154 Clouds 11 1013 71 14484 2.6 80 14:42 15.05.2020
3155 Clouds 11 1013 71 14484 2.6 80 14:42 15.05.2020
3156 Clouds 11 1013 71 14484 2.6 80 14:24 15.05.2020
3157 Clouds 10 1013 87 14484 3.1 30 13:59 15.05.2020
3158 Clouds 10 1013 87 14484 3.1 30 13:39 15.05.2020
3159 Clouds 10 1013 87 14484 3.1 30 13:20 15.05.2020
3160 Clouds 10 1012 71 14484 4.1 60 12:40 15.05.2020
3161 Clouds 10 1012 71 14484 4.1 60 12:19 15.05.2020
3162 Rain 10 1013 66 14484 4.6 60 11:57 15.05.2020
3163 Rain 10 1013 66 14484 4.6 60 11:39 15.05.2020
3164 Rain 10 1013 66 14484 4.6 60 11:21 15.05.2020
3165 Rain 11 1013 57 14484 5.1 70 10:59 15.05.2020
3166 Rain 11 1013 57 14484 5.1 70 10:40 15.05.2020
3167 Rain 11 1013 57 14484 5.1 70 10:21 15.05.2020
3168 Clouds 11 1013 57 14484 5.1 50 09:58 15.05.2020
3169 Clouds 12 1013 50 14484 6.7 30 09:37 15.05.2020
3170 Clouds 11 1013 50 14484 6.7 30 09:18 15.05.2020
3171 Rain 12 1014 37 14484 3.6 80 08:56 15.05.2020
3172 Rain 13 1014 37 14484 3.6 80 08:37 15.05.2020
3173 Rain 13 1014 37 14484 3.6 80 08:18 15.05.2020
3174 Rain 13 1014 52 14484 3.1 80 07:43 15.05.2020
3175 Clouds 13 1014 40 14484 2.1 100 07:24 15.05.2020
3176 Clouds 13 1014 40 14484 2.1 100 07:24 15.05.2020
3177 Clouds 14 1015 30 14484 2.6 120 06:41 15.05.2020
3178 Clouds 14 1015 28 14484 1 90 05:49 15.05.2020
3179 Clouds 15 1016 21 14484 2.1 240 04:27 15.05.2020
3180 Clouds 15 1016 24 14484 3.1 250 03:45 15.05.2020
3181 Clouds 16 1016 21 14484 3.6 220 02:30 15.05.2020
3182 Clouds 17 1017 20 14484 4.1 210 01:19 15.05.2020
3183 Clear 18 1017 17 14484 2.1 260 00:46 15.05.2020
3184 Clear 18 1017 17 14484 2.1 260 00:28 15.05.2020
3185 Clear 18 1017 17 14484 5.1 240 23:44 14.05.2020
3186 Clear 18 1017 17 14484 5.1 240 23:21 14.05.2020
3187 Clouds 18 1018 17 14484 7.2 250 22:59 14.05.2020
3188 Clouds 18 1018 17 14484 7.2 250 22:40 14.05.2020
3189 Clouds 18 1018 17 14484 7.2 250 22:19 14.05.2020
3190 Clouds 18 1019 17 14484 6.2 270 21:56 14.05.2020
3191 Clouds 18 1019 17 14484 6.2 270 21:38 14.05.2020
3192 Clouds 18 1019 17 14484 6.2 270 21:19 14.05.2020
3193 Clear 17 1020 18 14484 5.1 220 20:55 14.05.2020
3194 Clear 17 1020 18 14484 5.1 220 20:36 14.05.2020
3195 Clear 17 1020 18 14484 5.1 220 20:18 14.05.2020
3196 Clear 17 1021 19 14484 5.7 230 19:40 14.05.2020
3197 Clear 17 1021 19 14484 5.7 230 19:21 14.05.2020
3198 Clear 17 1022 29 14484 4.6 210 18:58 14.05.2020
3199 Clear 16 1022 29 14484 4.6 210 18:38 14.05.2020
3200 Clear 16 1022 29 14484 4.6 210 18:20 14.05.2020
3201 Clouds 15 1023 35 14484 3.6 260 17:59 14.05.2020
3202 Clouds 14 1023 35 14484 3.6 260 17:37 14.05.2020
3203 Clouds 14 1023 35 14484 3.6 260 17:37 14.05.2020
3204 Clouds 15 1023 35 14484 3.6 260 17:19 14.05.2020
3205 Clear 12 1024 40 14484 1.5 200 16:57 14.05.2020
3206 Clear 12 1024 40 14484 1.5 200 16:38 14.05.2020
3207 Clear 12 1024 40 14484 1.5 200 16:19 14.05.2020
3208 Clear 11 1024 43 14484 3.1 250 15:56 14.05.2020
3209 Clear 11 1024 43 14484 3.1 250 15:37 14.05.2020
3210 Clear 10 1024 43 14484 3.1 250 15:18 14.05.2020
3211 Clear 8 1024 52 14484 4.1 240 14:55 14.05.2020
3212 Clear 8 1024 52 14484 4.1 240 14:36 14.05.2020
3213 Clear 8 1024 52 14484 4.1 240 14:18 14.05.2020
3214 Clear 7 1024 56 14484 5.7 250 13:42 14.05.2020
3215 Clear 7 1024 56 14484 5.7 250 13:20 14.05.2020
3216 Clear 6 1024 60 14484 4.1 240 12:59 14.05.2020
3217 Clear 5 1024 60 14484 4.1 240 12:39 14.05.2020
3218 Clear 4 1024 60 14484 4.1 240 12:20 14.05.2020
3219 Clear 4 1024 60 14484 5.7 240 11:59 14.05.2020
3220 Clear 4 1024 60 14484 5.7 240 11:59 14.05.2020
3221 Clouds 4 1024 66 0 3.13 250 11:40 14.05.2020
3222 Clouds 5 1023 66 0 3.57 254 11:21 14.05.2020
3223 Clouds 5 1024 65 0 3.57 254 10:56 14.05.2020
3224 Clouds 5 1024 64 0 3.57 254 10:38 14.05.2020
3225 Clear 5 1023 64 0 3.21 262 10:20 14.05.2020
3226 Clear 6 1023 62 0 3.21 262 09:42 14.05.2020
3227 Clear 6 1024 58 0 4.44 257 09:23 14.05.2020
3228 Clear 7 1024 58 0 4.44 257 08:43 14.05.2020
3229 Clear 7 1024 60 0 0.45 225 08:21 14.05.2020
3230 Clear 8 1023 58 0 4.75 255 07:47 14.05.2020
3231 Clear 8 1023 42 14484 7.2 260 07:25 14.05.2020
3232 Clear 8 1023 42 14484 7.2 260 06:55 14.05.2020
3233 Clear 9 1023 42 14484 7.2 260 06:34 14.05.2020
3234 Clear 10 1023 29 14484 4.6 250 05:58 14.05.2020
3235 Clear 10 1023 29 14484 4.6 250 05:36 14.05.2020
3236 Clear 10 1023 27 24140 5.1 260 04:42 14.05.2020
3237 Clear 12 1021 18 14484 3.1 280 03:32 14.05.2020
3238 Clear 12 1021 17 14484 3.6 300 02:43 14.05.2020
3239 Clear 13 1021 17 14484 3.6 300 02:19 14.05.2020
3240 Clear 14 1021 17 14484 6.7 310 01:44 14.05.2020
3241 Clear 15 1021 16 14484 7.7 290 00:51 14.05.2020
3242 Clear 15 1021 16 14484 7.7 290 00:26 14.05.2020
3243 Clear 15 1021 19 14484 8.2 280 23:45 13.05.2020
3244 Clear 15 1021 19 14484 8.2 280 23:22 13.05.2020
3245 Clear 15 1021 20 14484 5.7 290 22:58 13.05.2020
3246 Clear 15 1021 20 14484 5.7 290 22:39 13.05.2020
3247 Clear 15 1021 20 14484 5.7 290 22:21 13.05.2020
3248 Clear 14 1021 22 14484 5.7 290 21:57 13.05.2020
3249 Clear 14 1021 22 14484 5.7 290 21:38 13.05.2020
3250 Clear 13 1021 22 14484 5.7 290 21:19 13.05.2020
3251 Clear 13 1022 23 14484 5.7 310 20:41 13.05.2020
3252 Clear 13 1022 23 14484 5.7 310 20:23 13.05.2020
3253 Clear 13 1022 23 14484 5.7 290 19:56 13.05.2020
3254 Clear 13 1022 23 14484 5.7 290 19:38 13.05.2020
3255 Clear 12 1022 23 14484 5.7 290 19:19 13.05.2020
3256 Clear 12 1023 29 14484 6.2 290 18:42 13.05.2020
3257 Clear 12 1023 29 14484 6.2 290 18:42 13.05.2020
3258 Clear 10 1023 29 14484 6.2 290 18:21 13.05.2020
3259 Clear 9 1023 31 14484 4.1 300 17:40 13.05.2020
3260 Clear 9 1023 31 14484 4.1 300 17:20 13.05.2020
3261 Clear 8 1023 33 14484 4.1 330 16:59 13.05.2020
3262 Clear 9 1023 33 14484 4.1 330 16:40 13.05.2020
3263 Clear 8 1023 33 14484 4.1 330 16:19 13.05.2020
3264 Clear 8 1023 33 14484 7.2 310 15:54 13.05.2020
3265 Clear 8 1023 33 14484 7.2 310 15:36 13.05.2020
3266 Clear 7 1023 33 14484 7.2 310 15:18 13.05.2020
3267 Clear 6 1023 32 14484 5.7 330 14:41 13.05.2020
3268 Clear 6 1023 32 14484 5.7 330 14:22 13.05.2020
3269 Clear 4 1022 40 14484 3.6 300 13:58 13.05.2020
3270 Clear 4 1022 40 14484 3.6 300 13:40 13.05.2020
3271 Clear 3 1022 40 14484 3.6 300 13:21 13.05.2020
3272 Clear 3 1022 40 14484 3.6 300 13:21 13.05.2020
3273 Clear 2 1021 43 14484 3.1 300 12:57 13.05.2020
3274 Clear 2 1021 43 14484 3.1 300 12:39 13.05.2020
3275 Clear 1 1021 43 14484 3.1 300 12:18 13.05.2020
3276 Clear 1 1020 37 14484 3.6 300 11:56 13.05.2020
3277 Clear 1 1020 37 14484 3.6 300 11:36 13.05.2020
3278 Clear 1 1020 37 14484 3.6 300 11:18 13.05.2020
3279 Clear 1 1020 37 14484 4.6 280 10:56 13.05.2020
3280 Clear 2 1020 37 14484 4.6 280 10:38 13.05.2020
3281 Clear 2 1020 37 14484 4.6 280 10:18 13.05.2020
3282 Clear 2 1019 34 14484 3.6 280 09:43 13.05.2020
3283 Clear 2 1019 34 14484 3.6 280 09:23 13.05.2020
3284 Clear 2 1019 34 14484 3.6 280 09:23 13.05.2020
3285 Clear 2 1019 32 14484 3.1 280 08:57 13.05.2020
3286 Clear 2 1019 32 14484 3.1 280 08:37 13.05.2020
3287 Clear 3 1019 32 14484 3.1 280 08:18 13.05.2020
3288 Clear 3 1019 29 14484 2.1 290 07:43 13.05.2020
3289 Clear 3 1019 29 14484 2.1 290 07:24 13.05.2020
3290 Clear 4 1018 27 14484 3.6 300 06:47 13.05.2020
3291 Clear 4 1018 27 14484 3.6 300 06:27 13.05.2020
3292 Clouds 5 1017 24 14484 4.6 310 04:50 13.05.2020
3293 Clouds 7 1016 20 14484 4.6 310 03:27 13.05.2020
3294 Clouds 8 1015 19 14484 5.7 320 02:32 13.05.2020
3295 Clear 8 1014 19 14484 6.7 310 01:37 13.05.2020
3296 Clouds 9 1014 18 14484 9.3 330 00:50 13.05.2020
3297 Clouds 10 1014 18 14484 9.3 330 00:20 13.05.2020
3298 Clouds 10 1014 19 14484 9.3 310 23:40 12.05.2020
3299 Clouds 10 1014 19 14484 9.3 310 23:21 12.05.2020
3300 Clouds 10 1014 19 14484 9.3 310 23:21 12.05.2020
3301 Clouds 10 1014 19 14484 9.3 310 23:21 12.05.2020
3302 Clouds 10 1013 19 14484 6.7 290 22:59 12.05.2020
3303 Clouds 10 1013 19 14484 6.7 290 22:41 12.05.2020
3304 Clouds 10 1013 19 14484 6.7 290 22:21 12.05.2020
3305 Clouds 10 1013 21 14484 8.7 290 21:56 12.05.2020
3306 Clouds 10 1013 21 14484 8.7 290 21:37 12.05.2020
3307 Clouds 9 1013 21 14484 8.7 290 21:19 12.05.2020
3308 Clear 10 1014 21 14484 7.7 320 20:57 12.05.2020
3309 Clear 10 1014 21 14484 7.7 320 20:38 12.05.2020
3310 Clear 10 1014 21 14484 7.7 320 20:20 12.05.2020
3311 Clear 9 1014 24 14484 6.7 300 19:57 12.05.2020
3312 Clear 9 1014 24 14484 6.7 300 19:39 12.05.2020
3313 Clear 9 1014 24 14484 6.7 300 19:20 12.05.2020
3314 Clear 9 1014 24 14484 9.3 290 18:55 12.05.2020
3315 Clear 8 1015 28 14484 4.1 300 18:36 12.05.2020
3316 Clear 7 1015 28 14484 4.1 300 18:18 12.05.2020
3317 Clear 7 1015 30 14484 6.7 280 17:41 12.05.2020
3318 Clear 7 1015 30 14484 6.7 280 17:23 12.05.2020
3319 Clear 5 1015 29 14484 6.2 330 16:47 12.05.2020
3320 Clear 5 1015 29 14484 6.2 330 16:25 12.05.2020
3321 Clear 4 1015 34 14484 3.6 340 15:56 12.05.2020
3322 Clear 4 1015 34 14484 3.6 340 15:37 12.05.2020
3323 Clear 3 1015 34 14484 3.6 340 15:19 12.05.2020
3324 Clear 3 1015 34 14484 6.2 350 14:56 12.05.2020
3325 Clear 3 1015 34 14484 6.2 350 14:37 12.05.2020
3326 Clear 2 1015 34 14484 6.2 350 14:19 12.05.2020
3327 Clear 2 1014 40 14484 7.2 350 13:57 12.05.2020
3328 Clear 2 1014 40 14484 7.2 350 13:39 12.05.2020
3329 Clear 2 1014 40 14484 7.2 350 13:19 12.05.2020
3330 Clear 2 1014 40 14484 7.2 350 13:19 12.05.2020
3331 Clear 2 1014 81 14484 3.6 330 12:57 12.05.2020
3332 Clear 1 1014 81 14484 3.6 330 12:39 12.05.2020
3333 Clear 1 1014 85 14484 3.6 330 12:21 12.05.2020
3334 Clouds 0 1013 85 14484 4.6 330 11:57 12.05.2020
3335 Clouds 1 1013 85 14484 4.6 330 11:38 12.05.2020
3336 Clouds 1 1013 82 14484 4.6 330 11:20 12.05.2020
3337 Clear 1 1013 40 14484 5.1 340 10:56 12.05.2020
3338 Clear 1 1013 40 14484 5.1 340 10:38 12.05.2020
3339 Clear 2 1013 40 14484 5.1 340 10:19 12.05.2020
3340 Clouds 2 1012 37 14484 5.7 360 09:57 12.05.2020
3341 Clouds 2 1012 37 14484 5.7 360 09:38 12.05.2020
3342 Clouds 2 1012 37 14484 5.7 360 09:20 12.05.2020
3343 Clouds 3 1011 37 14484 5.7 350 08:42 12.05.2020
3344 Clouds 3 1011 37 14484 5.7 350 08:22 12.05.2020
3345 Clouds 5 1011 41 14484 6.7 350 07:58 12.05.2020
3346 Clouds 5 1011 41 14484 6.7 350 07:40 12.05.2020
3347 Clouds 6 1011 41 14484 6.7 350 07:20 12.05.2020
3348 Clouds 7 1010 65 14484 3.1 330 06:38 12.05.2020
3349 Clouds 7 1010 65 14484 3.1 330 06:20 12.05.2020
3350 Clouds 7 1010 75 14484 1 0 05:46 12.05.2020
3351 Clouds 6 1010 80 14484 2.6 250 04:41 12.05.2020
3352 Clouds 6 1009 80 14484 5.1 230 03:22 12.05.2020
3353 Clouds 7 1009 70 14484 5.7 220 02:27 12.05.2020
3354 Clouds 7 1009 65 14484 5.1 230 01:48 12.05.2020
3355 Clouds 8 1008 65 14484 2.6 220 00:59 12.05.2020
3356 Rain 8 1008 48 14484 3.56 222 00:24 12.05.2020
3357 Rain 8 1009 61 14484 3.6 270 23:57 11.05.2020
3358 Rain 8 1009 61 14484 3.6 270 23:38 11.05.2020
3359 Rain 8 1009 61 14484 3.6 270 23:20 11.05.2020
3360 Rain 9 1009 43 14484 4.1 330 22:58 11.05.2020
3361 Clouds 9 1009 45 14484 4.1 260 22:40 11.05.2020
3362 Clouds 9 1009 45 14484 4.1 260 22:19 11.05.2020
3363 Clouds 9 1009 43 14484 5.1 310 21:55 11.05.2020
3364 Clouds 10 1009 43 14484 5.1 310 21:37 11.05.2020
3365 Clouds 10 1009 43 14484 5.1 310 21:18 11.05.2020
3366 Clouds 10 1009 43 14484 5.1 220 20:57 11.05.2020
3367 Clouds 10 1009 43 14484 5.1 220 20:38 11.05.2020
3368 Clouds 10 1009 43 14484 5.1 220 20:18 11.05.2020
3369 Clouds 11 1009 39 14484 3.6 210 19:41 11.05.2020
3370 Clouds 11 1009 39 14484 3.6 210 19:22 11.05.2020
3371 Clear 10 1010 42 14484 3.6 220 18:58 11.05.2020
3372 Clear 11 1010 42 14484 3.6 220 18:39 11.05.2020
3373 Clear 10 1010 42 14484 3.6 220 18:20 11.05.2020
3374 Clouds 10 1011 45 14484 3.1 240 17:58 11.05.2020
3375 Clouds 10 1011 45 14484 3.1 240 17:40 11.05.2020
3376 Clouds 9 1011 45 14484 3.1 240 17:21 11.05.2020
3377 Clouds 9 1011 48 14484 3.1 230 16:57 11.05.2020
3378 Clouds 8 1012 48 14484 2.6 260 16:38 11.05.2020
3379 Clouds 8 1012 48 14484 2.6 260 16:19 11.05.2020
3380 Clouds 7 1012 48 14484 2.6 260 15:54 11.05.2020
3381 Clouds 7 1012 48 14484 2.6 260 15:36 11.05.2020
3382 Clouds 6 1012 48 14484 2.6 260 15:18 11.05.2020
3383 Clouds 5 1012 52 14484 4.1 310 14:41 11.05.2020
3384 Clouds 5 1012 52 14484 4.1 310 14:22 11.05.2020
3385 Clear 5 1012 55 14484 3.1 300 13:58 11.05.2020
3386 Clear 5 1012 55 14484 3.1 300 13:39 11.05.2020
3387 Clear 4 1012 55 14484 3.1 300 13:18 11.05.2020
3388 Clear 4 1012 55 14484 3.1 300 13:18 11.05.2020
3389 Clear 4 1012 55 14484 3.1 300 13:18 11.05.2020
3390 Clear 3 1011 64 14484 2.6 280 12:56 11.05.2020
3391 Clear 3 1011 64 14484 2.6 280 12:38 11.05.2020
3392 Clear 3 1011 64 14484 2.6 280 12:19 11.05.2020
3393 Clear 2 1011 59 14484 3.6 270 11:54 11.05.2020
3394 Clear 3 1011 59 14484 3.6 270 11:36 11.05.2020
3395 Clear 3 1011 59 14484 3.6 270 11:18 11.05.2020
3396 Clear 3 1011 59 14484 3.1 280 10:54 11.05.2020
3397 Clear 3 1011 59 14484 3.1 280 10:36 11.05.2020
3398 Clear 3 1011 59 14484 3.1 280 10:18 11.05.2020
3399 Clear 3 1011 55 14484 3.1 310 09:41 11.05.2020
3400 Clear 4 1011 55 14484 3.1 310 09:20 11.05.2020
3401 Clear 4 1011 60 14484 3.1 310 08:57 11.05.2020
3402 Clear 4 1011 60 14484 3.1 310 08:38 11.05.2020
3403 Clear 4 1011 60 14484 3.1 310 08:18 11.05.2020
3404 Clouds 4 1011 75 14484 2.6 270 07:47 11.05.2020
3405 Clouds 5 1011 75 14484 2.6 270 07:28 11.05.2020
3406 Clouds 6 1010 75 14484 3.6 250 06:52 11.05.2020
3407 Clouds 6 1010 75 14484 3.6 250 06:18 11.05.2020
3408 Clear 6 1010 70 14484 4.6 270 05:28 11.05.2020
3409 Clouds 7 1010 61 14484 8.2 250 04:43 11.05.2020
3410 Clouds 8 1009 65 14484 8.7 250 03:35 11.05.2020
3411 Clouds 9 1009 49 14484 5.7 260 02:34 11.05.2020
3412 Clouds 10 1009 43 32767 7.2 250 01:46 11.05.2020
3413 Clouds 10 1008 42 14484 9.8 230 00:54 11.05.2020
3414 Clouds 10 1008 42 14484 9.8 230 00:22 11.05.2020
3415 Clouds 10 1008 34 14484 11.3 260 23:45 10.05.2020
3416 Clouds 10 1008 34 14484 11.3 260 23:26 10.05.2020
3417 Clouds 10 1008 36 14484 10.3 280 22:58 10.05.2020
3418 Clouds 10 1008 36 14484 10.3 280 22:40 10.05.2020
3419 Clouds 10 1008 36 14484 10.3 280 22:22 10.05.2020
3420 Clouds 10 1009 36 14484 9.8 260 21:44 10.05.2020
3421 Clouds 9 1009 36 14484 9.8 260 21:21 10.05.2020
3422 Clouds 9 1009 39 14484 9.3 270 20:56 10.05.2020
3423 Clouds 9 1009 39 14484 9.3 270 20:38 10.05.2020
3424 Clouds 9 1009 39 14484 9.3 270 20:20 10.05.2020
3425 Clouds 9 1009 39 14484 11.8 250 19:54 10.05.2020
3426 Clouds 9 1009 39 14484 11.8 250 19:36 10.05.2020
3427 Clouds 9 1009 39 14484 11.8 250 19:18 10.05.2020
3428 Clouds 8 1009 39 14484 10.3 260 18:54 10.05.2020
3429 Clouds 8 1009 39 14484 10.3 260 18:36 10.05.2020
3430 Clouds 8 1009 39 14484 10.3 260 18:18 10.05.2020
3431 Clouds 7 1010 48 14484 9.8 270 17:55 10.05.2020
3432 Clouds 6 1010 48 14484 9.8 270 17:36 10.05.2020
3433 Clouds 6 1010 48 14484 9.8 270 17:18 10.05.2020
3434 Clouds 6 1010 48 14484 10.8 270 16:41 10.05.2020
3435 Clouds 5 1010 48 14484 10.8 270 16:20 10.05.2020
3436 Clouds 5 1010 48 14484 9.8 260 15:57 10.05.2020
3437 Clouds 5 1010 48 14484 9.8 260 15:36 10.05.2020
3438 Clouds 5 1010 48 14484 9.8 260 15:36 10.05.2020
3439 Clouds 4 1010 48 14484 9.8 260 15:18 10.05.2020
3440 Clouds 4 1011 51 14484 9.8 270 14:55 10.05.2020
3441 Clouds 4 1011 51 14484 9.8 270 14:37 10.05.2020
3442 Clouds 4 1011 51 14484 9.8 270 14:18 10.05.2020
3443 Clouds 3 1010 51 14484 7.2 270 13:55 10.05.2020
3444 Clouds 3 1010 51 14484 7.2 270 13:36 10.05.2020
3445 Clouds 3 1010 51 14484 7.2 270 13:18 10.05.2020
3446 Clouds 3 1010 51 14484 7.2 270 12:41 10.05.2020
3447 Clouds 2 1010 51 14484 7.2 270 12:21 10.05.2020
3448 Clouds 2 1010 47 14484 8.7 270 11:58 10.05.2020
3449 Clouds 2 1010 47 14484 8.7 270 11:40 10.05.2020
3450 Clouds 2 1010 47 14484 8.7 270 11:21 10.05.2020
3451 Clouds 2 1010 44 14484 5.7 290 10:54 10.05.2020
3452 Clouds 2 1010 44 14484 5.7 290 10:36 10.05.2020
3453 Clouds 2 1010 44 14484 5.7 290 10:18 10.05.2020
3454 Clouds 2 1010 43 14484 4.6 270 09:41 10.05.2020
3455 Clouds 2 1010 43 14484 4.6 270 09:22 10.05.2020
3456 Clouds 2 1010 40 14484 7.2 280 08:55 10.05.2020
3457 Clouds 2 1010 40 14484 7.2 280 08:25 10.05.2020
3458 Clouds 3 1010 40 14484 6.2 280 07:59 10.05.2020
3459 Clouds 3 1010 40 14484 6.2 280 07:38 10.05.2020
3460 Clouds 3 1010 40 14484 6.2 280 07:19 10.05.2020
3461 Clouds 3 1009 44 14484 7.7 280 06:50 10.05.2020
3462 Clouds 3 1009 44 14484 7.7 280 06:23 10.05.2020
3463 Clouds 2 1009 51 14484 6.7 280 05:45 10.05.2020
3464 Clouds 2 1009 55 14484 8.2 290 04:45 10.05.2020
3465 Clouds 2 1009 55 14484 8.2 290 04:25 10.05.2020
3466 Clouds 2 1008 55 14484 9.3 290 03:44 10.05.2020
3467 Clouds 3 1007 44 14484 8.2 310 02:59 10.05.2020
3468 Clouds 3 1007 44 14484 8.2 310 02:24 10.05.2020
3469 Clouds 4 1006 38 14484 11.8 310 01:57 10.05.2020
3470 Clouds 4 1006 38 14484 11.8 310 01:39 10.05.2020
3471 Clouds 4 1006 38 14484 11.8 310 01:18 10.05.2020
3472 Clouds 4 1005 32 14484 9.3 300 00:52 10.05.2020
3473 Clouds 5 1005 32 14484 9.3 300 00:20 10.05.2020
3474 Clouds 6 1004 32 14484 9.8 310 23:40 09.05.2020
3475 Clouds 6 1004 32 14484 9.8 310 23:21 09.05.2020
3476 Clouds 6 1003 28 14484 9.3 310 22:58 09.05.2020
3477 Clouds 6 1003 28 14484 9.3 310 22:39 09.05.2020
3478 Clouds 6 1003 28 14484 9.3 310 22:21 09.05.2020
3479 Clouds 6 1003 28 14484 8.7 290 21:56 09.05.2020
3480 Clouds 6 1003 28 14484 8.7 290 21:38 09.05.2020
3481 Clouds 6 1003 28 14484 8.7 290 21:19 09.05.2020
3482 Clouds 6 1003 32 14484 8.2 290 20:56 09.05.2020
3483 Clouds 6 1003 32 14484 8.2 290 20:37 09.05.2020
3484 Clouds 6 1003 32 14484 8.2 290 20:19 09.05.2020
3485 Clouds 5 1004 34 14484 9.8 300 19:40 09.05.2020
3486 Clouds 6 1004 27 32767 10.8 280 19:21 09.05.2020
3487 Clouds 4 1004 34 14484 9.8 280 18:58 09.05.2020
3488 Clouds 4 1004 34 14484 9.8 280 18:40 09.05.2020
3489 Clouds 4 1004 34 14484 9.8 280 18:21 09.05.2020
3490 Clouds 4 1004 41 14484 9.8 260 17:44 09.05.2020
3491 Clouds 4 1004 41 14484 9.8 260 17:23 09.05.2020
3492 Clouds 4 1004 40 14484 6.2 270 16:56 09.05.2020
3493 Clouds 4 1004 40 14484 6.2 270 16:37 09.05.2020
3494 Clouds 3 1004 40 14484 6.2 270 16:18 09.05.2020
3495 Clouds 3 1005 37 14484 6.2 310 15:42 09.05.2020
3496 Clouds 2 1005 37 14484 6.2 310 15:22 09.05.2020
3497 Clouds 2 1005 40 14484 6.2 310 14:55 09.05.2020
3498 Clouds 2 1005 40 14484 6.2 310 14:37 09.05.2020
3499 Clouds 2 1005 40 14484 6.2 310 14:18 09.05.2020
3500 Clouds 1 1005 40 14484 5.7 330 13:43 09.05.2020
3501 Clouds 1 1005 40 14484 5.7 330 13:22 09.05.2020
3502 Clouds 1 1004 40 14484 6.7 340 12:59 09.05.2020
3503 Clouds 1 1004 40 14484 6.7 340 12:39 09.05.2020
3504 Clouds 1 1004 40 14484 6.7 340 12:21 09.05.2020
3505 Clouds 1 1004 47 14484 5.7 340 11:45 09.05.2020
3506 Clouds 1 1004 47 14484 5.7 340 11:20 09.05.2020
3507 Clouds 1 1004 55 14484 5.1 10 10:54 09.05.2020
3508 Clouds 2 1004 51 14484 6.2 350 10:36 09.05.2020
3509 Clouds 2 1004 51 14484 6.2 350 10:18 09.05.2020
3510 Clouds 2 1004 51 14484 5.7 10 09:43 09.05.2020
3511 Clouds 2 1004 51 14484 5.7 10 09:20 09.05.2020
3512 Clouds 3 1004 40 14484 4.6 350 08:57 09.05.2020
3513 Clouds 3 1004 40 14484 4.6 350 08:38 09.05.2020
3514 Clouds 3 1004 40 14484 4.6 350 08:20 09.05.2020
3515 Clouds 3 1004 40 14484 4.6 350 07:44 09.05.2020
3516 Clouds 3 1004 40 14484 4.6 350 07:25 09.05.2020
3517 Clouds 3 1004 40 14484 4.1 340 06:44 09.05.2020
3518 Clouds 3 1004 40 14484 4.1 340 06:20 09.05.2020
3519 Clouds 3 1005 64 14484 3.6 250 05:42 09.05.2020
3520 Clouds 4 1005 51 14484 4.1 240 03:41 09.05.2020
3521 Clouds 4 1005 51 14484 4.1 240 02:54 09.05.2020
3522 Clouds 5 1005 51 14484 4.1 240 02:30 09.05.2020
3523 Clear 5 1006 44 14484 5.7 240 01:51 09.05.2020
3524 Clear 6 1006 44 14484 5.7 240 01:22 09.05.2020
3525 Clear 6 1006 44 14484 5.7 240 01:22 09.05.2020
3526 Clouds 6 1005 36 14484 5.7 240 00:44 09.05.2020
3527 Clouds 7 1005 36 14484 5.7 240 00:24 09.05.2020
3528 Clouds 7 1006 38 14484 4.1 250 23:48 08.05.2020
3529 Clouds 7 1006 38 14484 4.1 250 23:28 08.05.2020
3530 Clouds 7 1006 45 14484 4.6 280 22:57 08.05.2020
3531 Clouds 8 1006 45 14484 4.6 280 22:39 08.05.2020
3532 Clouds 8 1006 45 14484 4.6 280 22:19 08.05.2020
3533 Clouds 7 1007 48 14484 6.2 270 21:58 08.05.2020
3534 Clouds 7 1007 48 14484 6.2 270 21:39 08.05.2020
3535 Clouds 7 1007 48 14484 6.2 270 21:18 08.05.2020
3536 Clouds 5 1007 64 14484 4.1 280 20:56 08.05.2020
3537 Clouds 5 1007 64 14484 4.1 280 20:38 08.05.2020
3538 Clouds 5 1007 64 14484 4.1 280 20:20 08.05.2020
3539 Clouds 3 1007 69 14484 4.6 310 19:43 08.05.2020
3540 Clouds 4 1007 64 14484 5.7 310 19:23 08.05.2020
3541 Rain 3 1007 69 14484 2.1 340 18:50 08.05.2020
3542 Clouds 2 1007 69 14484 6.55 252 18:32 08.05.2020
3543 Snow 2 1007 69 4828 4.33 255 17:59 08.05.2020
3544 Clouds 2 1007 55 9656 1 0 17:40 08.05.2020
3545 Clouds 2 1007 55 9656 1 0 17:18 08.05.2020
3546 Clouds 2 1007 59 14484 4.1 130 16:42 08.05.2020
3547 Rain 2 1007 55 14484 4.1 140 16:24 08.05.2020
3548 Clouds 2 1007 55 14484 3.1 50 15:55 08.05.2020
3549 Clouds 2 1007 55 14484 3.1 50 15:37 08.05.2020
3550 Clouds 3 1007 55 14484 3.1 50 15:18 08.05.2020
3551 Clouds 2 1007 69 14484 2.1 40 14:41 08.05.2020
3552 Clouds 2 1007 69 14484 2.1 40 14:20 08.05.2020
3553 Clouds 2 1007 47 24140 3.6 350 13:58 08.05.2020
3554 Clouds 2 1007 47 24140 3.6 350 13:39 08.05.2020
3555 Clouds 2 1007 47 24140 3.6 350 13:19 08.05.2020
3556 Clouds 1 1007 59 24140 1 340 12:45 08.05.2020
3557 Clouds 0 1007 68 14484 1.5 20 12:25 08.05.2020
3558 Clear 1 1007 78 14484 1.5 280 11:57 08.05.2020
3559 Clear 0 1007 78 14484 1.5 280 11:39 08.05.2020
3560 Clear 0 1007 76 14484 1.5 280 11:20 08.05.2020
3561 Clear 1 1007 55 14484 2.6 310 10:55 08.05.2020
3562 Clear 1 1007 55 14484 2.6 310 10:37 08.05.2020
3563 Clear 1 1007 55 14484 2.6 310 10:18 08.05.2020
3564 Clear 1 1007 59 14484 3.6 320 09:41 08.05.2020
3565 Clear 1 1007 59 14484 3.6 320 09:19 08.05.2020
3566 Clear 2 1007 59 14484 4.1 310 08:55 08.05.2020
3567 Clear 2 1007 59 14484 4.1 310 08:36 08.05.2020
3568 Clear 2 1007 59 14484 4.1 310 08:18 08.05.2020
3569 Clear 3 1006 59 14484 5.1 310 07:37 08.05.2020
3570 Clear 3 1006 59 14484 5.1 310 07:19 08.05.2020
3571 Clouds 4 1006 86 14484 1.5 320 06:42 08.05.2020
3572 Clouds 5 1006 86 14484 1.5 320 06:20 08.05.2020
3573 Clouds 5 1006 80 14484 3.6 320 05:34 08.05.2020
3574 Rain 5 1005 75 14484 5.1 300 03:50 08.05.2020
3575 Rain 8 1004 65 14484 7.2 340 02:30 08.05.2020
3576 Clouds 11 1002 37 14484 11.3 240 01:41 08.05.2020
3577 Clouds 12 1002 37 14484 11.3 240 01:21 08.05.2020
3578 Clouds 14 1001 26 14484 6.2 300 00:48 08.05.2020
3579 Clouds 14 1001 26 14484 6.2 300 00:27 08.05.2020
3580 Clouds 15 1001 24 14484 9.8 240 23:57 07.05.2020
3581 Clouds 15 1001 28 14484 4.6 160 23:39 07.05.2020
3582 Clouds 15 1001 28 14484 4.6 160 23:20 07.05.2020
3583 Clouds 15 1001 30 14484 5.7 150 22:42 07.05.2020
3584 Clouds 15 1001 30 14484 5.7 150 22:21 07.05.2020
3585 Clouds 16 1002 26 14484 9.3 240 21:58 07.05.2020
3586 Clouds 16 1002 26 14484 9.3 240 21:39 07.05.2020
3587 Clouds 15 1002 26 14484 9.3 240 21:20 07.05.2020
3588 Clear 15 1003 25 14484 6.2 220 20:59 07.05.2020
3589 Clear 15 1003 25 14484 6.2 220 20:41 07.05.2020
3590 Clear 16 1003 25 14484 6.2 220 20:20 07.05.2020
3591 Clear 16 1004 26 14484 2.1 0 19:50 07.05.2020
3592 Clear 15 1004 26 14484 2.1 0 19:24 07.05.2020
3593 Clouds 15 1005 26 14484 1 0 18:59 07.05.2020
3594 Clouds 15 1005 26 14484 1 0 18:40 07.05.2020
3595 Clouds 14 1005 26 14484 1 0 18:21 07.05.2020
3596 Clear 14 1006 32 14484 1.5 0 17:43 07.05.2020
3597 Clear 14 1006 32 14484 1.5 0 17:21 07.05.2020
3598 Clear 13 1006 32 14484 1.92 185 16:56 07.05.2020
3599 Clear 12 1006 32 14484 1.92 185 16:38 07.05.2020
3600 Clear 12 1006 32 14484 1.25 161 16:18 07.05.2020
3601 Clear 11 1007 36 14484 1 0 15:55 07.05.2020
3602 Clear 10 1007 36 14484 1 0 15:36 07.05.2020
3603 Clear 9 1007 36 14484 1 0 15:18 07.05.2020
3604 Clouds 8 1007 42 14484 1.5 10 14:41 07.05.2020
3605 Clouds 8 1007 42 14484 1.5 10 14:20 07.05.2020
3606 Clouds 7 1007 41 32767 1 350 13:44 07.05.2020
3607 Clouds 7 1007 41 32767 1 350 13:25 07.05.2020
3608 Clear 4 1007 55 14484 1.5 20 12:45 07.05.2020
3609 Clear 4 1007 55 14484 1.5 20 12:45 07.05.2020
3610 Clear 3 1007 55 14484 1.5 20 12:20 07.05.2020
3611 Clear 3 1007 51 14484 2.6 10 11:59 07.05.2020
3612 Clear 3 1007 51 14484 2.6 10 11:59 07.05.2020
3613 Clear 3 1007 51 14484 2.6 10 11:39 07.05.2020
3614 Clear 3 1007 51 14484 2.6 10 11:21 07.05.2020
3615 Clear 4 1008 41 24140 2.6 360 10:43 07.05.2020
3616 Clear 4 1008 41 24140 2.6 360 10:24 07.05.2020
3617 Clear 5 1008 51 14484 2.1 350 09:54 07.05.2020
3618 Clear 5 1008 41 24140 3.1 360 09:36 07.05.2020
3619 Clear 5 1008 41 24140 3.1 360 09:18 07.05.2020
3620 Clouds 6 1008 35 24140 4.1 20 08:41 07.05.2020
3621 Clouds 6 1008 35 24140 4.1 20 08:21 07.05.2020
3622 Clouds 7 1008 33 24140 3.6 20 07:57 07.05.2020
3623 Clouds 7 1008 33 24140 3.6 20 07:39 07.05.2020
3624 Clouds 7 1008 33 24140 3.6 20 07:18 07.05.2020
3625 Clouds 8 1009 36 14484 4.6 10 06:36 07.05.2020
3626 Clouds 9 1009 29 24140 4.6 20 05:40 07.05.2020
3627 Clouds 10 1009 56 14484 3.6 30 04:26 07.05.2020
3628 Clouds 11 1009 34 14484 0.89 166 03:29 07.05.2020
3629 Clouds 12 1009 32 14484 2.1 250 02:55 07.05.2020
3630 Clouds 12 1009 32 14484 2.1 250 02:19 07.05.2020
3631 Clouds 13 1009 30 32767 2.6 210 01:25 07.05.2020
3632 Clouds 13 1009 32 14484 1.5 240 00:51 07.05.2020
3633 Clouds 13 1009 32 14484 1.5 240 00:30 07.05.2020
3634 Clear 14 1009 32 14484 4.1 260 23:58 06.05.2020
3635 Clear 14 1009 32 14484 4.1 260 23:38 06.05.2020
3636 Clear 14 1009 32 14484 4.1 260 23:19 06.05.2020
3637 Clouds 14 1010 32 14484 2.1 0 22:54 06.05.2020
3638 Clouds 14 1010 32 14484 2.1 0 22:36 06.05.2020
3639 Clouds 14 1010 32 14484 2.1 0 22:18 06.05.2020
3640 Clouds 14 1011 32 14484 2.1 0 21:42 06.05.2020
3641 Clouds 14 1011 32 14484 2.1 0 21:22 06.05.2020
3642 Clouds 13 1011 32 14484 2.6 320 20:57 06.05.2020
3643 Clouds 13 1011 32 14484 2.6 320 20:38 06.05.2020
3644 Clouds 13 1011 32 14484 2.6 320 20:20 06.05.2020
3645 Clouds 14 1012 32 32767 6.2 220 19:56 06.05.2020
3646 Clouds 13 1012 34 14484 2.6 60 19:37 06.05.2020
3647 Clouds 13 1012 34 14484 2.6 60 19:18 06.05.2020
3648 Clouds 12 1013 37 14484 3.1 0 18:55 06.05.2020
3649 Clouds 13 1013 37 14484 3.1 0 18:37 06.05.2020
3650 Clouds 12 1013 37 14484 3.1 0 18:18 06.05.2020
3651 Clear 12 1013 40 14484 2.6 40 17:54 06.05.2020
3652 Clear 12 1013 40 14484 2.6 40 17:36 06.05.2020
3653 Clear 12 1013 40 14484 2.6 40 17:18 06.05.2020
3654 Clouds 11 1014 43 14484 2.6 80 16:57 06.05.2020
3655 Clouds 10 1014 43 14484 2.6 80 16:39 06.05.2020
3656 Clouds 10 1014 43 14484 2.6 80 16:19 06.05.2020
3657 Clouds 9 1014 52 14484 3.1 20 15:45 06.05.2020
3658 Clouds 8 1014 52 14484 3.1 20 15:22 06.05.2020
3659 Clouds 7 1014 48 14484 4.1 10 14:56 06.05.2020
3660 Clouds 7 1014 48 14484 4.1 10 14:38 06.05.2020
3661 Clouds 7 1014 48 14484 4.1 10 14:19 06.05.2020
3662 Clouds 7 1015 52 14484 4.1 360 13:58 06.05.2020
3663 Clouds 6 1015 52 14484 4.1 360 13:38 06.05.2020
3664 Clouds 6 1015 52 14484 4.1 360 13:19 06.05.2020
3665 Clouds 6 1015 60 14484 2.6 360 12:43 06.05.2020
3666 Clouds 6 1015 60 14484 2.6 360 12:24 06.05.2020
3667 Clouds 5 1014 60 14484 3.1 360 11:42 06.05.2020
3668 Clouds 6 1014 60 14484 3.1 360 11:23 06.05.2020
3669 Clouds 6 1014 56 14484 2.1 350 10:58 06.05.2020
3670 Clouds 7 1014 56 14484 2.1 350 10:40 06.05.2020
3671 Clouds 7 1014 56 14484 2.1 350 10:20 06.05.2020
3672 Clouds 7 1014 69 14484 2.1 360 09:59 06.05.2020
3673 Clouds 7 1014 69 14484 2.1 360 09:38 06.05.2020
3674 Clouds 7 1014 69 14484 2.1 360 09:20 06.05.2020
3675 Clouds 8 1013 52 14484 1.5 70 08:44 06.05.2020
3676 Clouds 8 1013 52 14484 1.5 70 08:20 06.05.2020
3677 Clouds 8 1014 67 14484 1 30 07:56 06.05.2020
3678 Clouds 7 1014 67 14484 1 30 07:38 06.05.2020
3679 Clouds 8 1014 64 14484 1 30 07:19 06.05.2020
3680 Clouds 8 1014 56 14484 1 40 06:46 06.05.2020
3681 Clouds 8 1014 56 14484 1 40 06:21 06.05.2020
3682 Clouds 8 1014 45 14484 2.06 7 05:49 06.05.2020
3683 Clouds 8 1014 45 14484 2.06 7 05:49 06.05.2020
3684 Clouds 9 1014 45 14484 2.06 7 05:31 06.05.2020
3685 Clouds 9 1014 39 14484 1 340 03:54 06.05.2020
3686 Clouds 10 1014 39 14484 1 340 03:31 06.05.2020
3687 Clouds 10 1014 39 14484 0.43 352 02:55 06.05.2020
3688 Clouds 10 1014 39 14484 0.86 337 02:27 06.05.2020
3689 Clouds 11 1013 46 14484 1.5 330 01:43 06.05.2020
3690 Clouds 11 1013 46 14484 1.5 330 01:25 06.05.2020
3691 Clouds 11 1013 37 32767 3.1 0 00:44 06.05.2020
3692 Clouds 11 1013 43 14484 1.5 270 00:19 06.05.2020
3693 Clouds 11 1013 43 14484 1.5 0 23:42 05.05.2020
3694 Clouds 11 1013 40 32767 1.5 260 23:20 05.05.2020
3695 Clouds 11 1013 43 14484 3.1 340 22:57 05.05.2020
3696 Clouds 11 1013 43 14484 3.1 340 22:38 05.05.2020
3697 Clouds 11 1013 43 14484 3.1 340 22:19 05.05.2020
3698 Clouds 11 1013 43 14484 4.1 310 21:41 05.05.2020
3699 Clouds 11 1013 43 14484 4.1 310 21:22 05.05.2020
3700 Clouds 10 1013 45 14484 2.6 310 20:59 05.05.2020
3701 Clouds 10 1013 45 14484 2.6 310 20:59 05.05.2020
3702 Clouds 10 1013 45 14484 2.6 310 20:41 05.05.2020
3703 Clouds 10 1013 45 14484 2.6 310 20:20 05.05.2020
3704 Clouds 9 1013 49 14484 5.7 250 19:59 05.05.2020
3705 Clouds 9 1013 49 14484 5.7 250 19:41 05.05.2020
3706 Clouds 9 1013 49 14484 5.7 250 19:23 05.05.2020
3707 Clouds 8 1014 52 14484 4.1 290 18:57 05.05.2020
3708 Clouds 8 1014 52 14484 4.1 290 18:39 05.05.2020
3709 Clouds 7 1014 52 14484 4.1 290 18:19 05.05.2020
3710 Clouds 6 1014 56 14484 4.1 310 17:57 05.05.2020
3711 Clouds 6 1014 56 14484 4.1 310 17:57 05.05.2020
3712 Clouds 7 1014 56 14484 4.1 310 17:38 05.05.2020
3713 Clouds 6 1014 56 14484 4.1 310 17:20 05.05.2020
3714 Clouds 5 1014 60 14484 5.1 340 16:40 05.05.2020
3715 Clouds 5 1014 60 14484 5.1 340 16:21 05.05.2020
3716 Clouds 4 1014 59 14484 4.1 340 15:59 05.05.2020
3717 Clouds 4 1014 59 14484 4.1 340 15:39 05.05.2020
3718 Clouds 4 1014 59 14484 4.1 340 15:39 05.05.2020
3719 Clouds 4 1014 51 32767 5.7 310 15:21 05.05.2020
3720 Clouds 4 1014 59 14484 5.7 330 14:55 05.05.2020
3721 Clouds 3 1014 59 14484 5.7 330 14:37 05.05.2020
3722 Clouds 3 1014 59 14484 5.7 330 14:19 05.05.2020
3723 Clouds 3 1013 59 14484 5.1 310 13:56 05.05.2020
3724 Clouds 3 1013 59 14484 5.1 310 13:38 05.05.2020
3725 Clouds 3 1013 59 14484 5.1 310 13:19 05.05.2020
3726 Clouds 3 1013 69 14484 3.6 310 12:56 05.05.2020
3727 Clouds 3 1013 69 14484 3.6 310 12:37 05.05.2020
3728 Clouds 2 1013 69 14484 3.6 310 12:19 05.05.2020
3729 Clouds 2 1012 80 14484 4.1 340 11:41 05.05.2020
3730 Clouds 2 1012 80 14484 4.1 340 11:20 05.05.2020
3731 Clouds 2 1012 80 14484 5.1 350 10:56 05.05.2020
3732 Clouds 2 1012 80 14484 3.1 340 10:38 05.05.2020
3733 Clouds 3 1012 80 14484 3.1 340 10:19 05.05.2020
3734 Rain 3 1012 80 14484 5.7 320 09:55 05.05.2020
3735 Rain 3 1012 80 14484 5.7 320 09:37 05.05.2020
3736 Rain 3 1012 80 14484 5.7 320 09:18 05.05.2020
3737 Rain 4 1012 60 14484 7.7 340 08:41 05.05.2020
3738 Rain 4 1012 60 14484 7.7 340 08:19 05.05.2020
3739 Clouds 5 1011 52 14484 6.7 330 07:56 05.05.2020
3740 Clouds 5 1011 52 14484 6.7 330 07:38 05.05.2020
3741 Clouds 5 1011 52 14484 6.7 330 07:18 05.05.2020
3742 Clouds 6 1011 48 14484 7.7 340 06:40 05.05.2020
3743 Clouds 6 1011 48 14484 7.7 340 06:20 05.05.2020
3744 Clouds 7 1011 48 14484 5.7 320 05:30 05.05.2020
3745 Clouds 8 1010 49 14484 6.2 330 03:19 05.05.2020
3746 Clouds 10 1008 58 14484 5.7 330 01:25 05.05.2020
3747 Clouds 11 1008 58 14484 4.6 320 00:50 05.05.2020
3748 Clouds 11 1008 55 14484 4.6 320 00:19 05.05.2020
3749 Clouds 11 1008 55 14484 6.2 340 23:43 04.05.2020
3750 Clouds 11 1008 55 14484 6.2 340 23:43 04.05.2020
3751 Clouds 11 1008 51 14484 6.2 340 23:21 04.05.2020
3752 Clouds 10 1007 53 14484 7.2 340 22:56 04.05.2020
3753 Clouds 10 1007 53 14484 7.2 340 22:56 04.05.2020
3754 Clouds 11 1007 53 14484 7.2 340 22:37 04.05.2020
3755 Clouds 10 1007 53 14484 7.2 340 22:19 04.05.2020
3756 Clouds 11 1007 53 14484 3.6 300 21:53 04.05.2020
3757 Clouds 11 1007 53 14484 3.6 300 21:53 04.05.2020
3758 Clouds 11 1007 53 14484 3.6 300 21:53 04.05.2020
3759 Clouds 11 1007 53 14484 3.6 300 21:53 04.05.2020
3760 Clouds 11 1007 53 14484 3.6 300 21:30 04.05.2020
3761 Clouds 11 1007 53 14484 3.6 300 21:30 04.05.2020
3762 Clouds 11 1007 53 14484 3.6 300 21:30 04.05.2020
3763 Clouds 11 1007 53 14484 3.6 300 21:30 04.05.2020
3764 Clouds 11 1007 53 14484 3.6 300 21:30 04.05.2020
3765 Clouds 11 1007 57 14484 5.7 300 20:44 04.05.2020
3766 Clouds 11 1007 57 14484 5.7 300 20:23 04.05.2020
3767 Clouds 10 1007 57 14484 5.1 310 19:59 04.05.2020
3768 Clouds 10 1006 57 14484 5.1 290 19:40 04.05.2020
3769 Clouds 10 1006 57 14484 5.1 290 19:20 04.05.2020
3770 Clouds 9 1006 61 14484 5.1 330 18:55 04.05.2020
3771 Clouds 9 1006 61 14484 5.1 330 18:37 04.05.2020
3772 Clouds 8 1006 61 14484 5.1 330 18:18 04.05.2020
3773 Clouds 8 1006 65 14484 6.2 330 17:55 04.05.2020
3774 Clouds 8 1006 65 14484 6.2 330 17:37 04.05.2020
3775 Clouds 8 1006 65 14484 6.2 330 17:18 04.05.2020
3776 Clouds 8 1005 66 14484 4.6 320 16:42 04.05.2020
3777 Clouds 8 1005 66 14484 4.6 320 16:42 04.05.2020
3778 Clouds 9 1005 66 14484 4.6 320 16:21 04.05.2020
3779 Clouds 9 1005 70 14484 5.1 320 15:46 04.05.2020
3780 Clouds 9 1005 70 14484 5.1 320 15:25 04.05.2020
3781 Clouds 9 1005 70 14484 5.1 320 15:25 04.05.2020
3782 Clouds 9 1004 70 14484 4.1 320 14:57 04.05.2020
3783 Clouds 9 1004 70 14484 4.1 320 14:57 04.05.2020
3784 Clouds 9 1004 70 14484 5.1 310 14:38 04.05.2020
3785 Clouds 9 1004 70 14484 5.1 310 14:38 04.05.2020
3786 Clouds 9 1004 70 14484 5.1 310 14:38 04.05.2020
3787 Clouds 9 1004 70 14484 5.1 310 14:38 04.05.2020
3788 Clouds 9 1004 66 14484 4.1 300 13:59 04.05.2020
3789 Clouds 9 1004 66 14484 4.1 300 13:59 04.05.2020
3790 Clouds 9 1004 66 14484 4.1 300 13:59 04.05.2020
3791 Clouds 9 1004 66 14484 4.1 300 13:59 04.05.2020
3792 Clouds 9 1004 66 14484 4.1 300 13:59 04.05.2020
3793 Clear 9 1003 75 14484 3.6 300 12:49 04.05.2020
3794 Clear 9 1003 75 14484 3.6 300 12:49 04.05.2020
3795 Clear 9 1003 75 14484 3.6 300 12:48 04.05.2020
3796 Clear 9 1003 75 14484 3.6 300 12:48 04.05.2020
3797 Clear 9 1003 75 14484 3.6 300 12:48 04.05.2020
3798 Clear 9 1003 75 14484 3.6 300 12:24 04.05.2020
3799 Clear 9 1003 75 14484 3.6 300 12:23 04.05.2020
3800 Clear 9 1003 75 14484 3.6 300 12:23 04.05.2020
3801 Clear 9 1003 75 14484 3.6 300 12:23 04.05.2020
3802 Clear 9 1003 75 14484 3.6 300 12:23 04.05.2020
3803 Clouds 10 1003 66 14484 3.1 290 09:33 04.05.2020
3804 Clouds 10 1004 62 14484 2.1 290 09:02 04.05.2020
3805 Clouds 10 1004 62 14484 2.1 290 09:02 04.05.2020
3806 Clouds 10 1004 62 14484 2.1 290 08:57 04.05.2020
3807 Clouds 10 1004 62 14484 2.1 290 08:57 04.05.2020
3808 Clouds 10 1004 62 14484 2.1 290 08:57 04.05.2020
3809 Clouds 10 1003 62 14484 5.7 320 07:51 04.05.2020
3810 Clouds 10 1003 62 14484 5.7 320 07:50 04.05.2020
3811 Clouds 10 1003 62 14484 5.7 320 07:50 04.05.2020
3812 Clouds 10 1003 62 14484 5.7 320 07:50 04.05.2020
3813 Clouds 10 1003 62 14484 5.7 320 07:50 04.05.2020
3814 Clouds 11 1003 62 14484 5.7 320 07:24 04.05.2020
3815 Clouds 13 1002 66 14484 5.1 350 04:57 04.05.2020
3816 Clouds 14 1001 67 14484 6.7 360 03:21 04.05.2020
3817 Clouds 14 1001 67 14484 6.7 360 03:21 04.05.2020
3818 Clouds 14 1001 67 14484 6.7 360 03:21 04.05.2020
3819 Thunderstorm 16 1000 72 14484 5.1 0 02:31 04.05.2020
3820 Rain 16 1001 67 12874 6.7 290 00:38 04.05.2020
3821 Rain 15 1001 63 14484 6.7 320 23:46 03.05.2020
3822 Clouds 16 1000 59 14484 4.6 320 23:25 03.05.2020
3823 Clouds 18 1001 37 14484 9.8 240 22:57 03.05.2020
3824 Clouds 18 1001 37 14484 9.8 240 22:39 03.05.2020
3825 Clouds 20 1001 37 14484 9.8 240 22:21 03.05.2020
3826 Clouds 20 1002 42 14484 8.2 220 21:41 03.05.2020
3827 Clouds 20 1002 42 14484 8.2 220 21:21 03.05.2020
3828 Clear 21 1002 45 14484 8.2 230 20:47 03.05.2020
3829 Clear 21 1002 45 14484 8.2 230 20:47 03.05.2020
3830 Clear 20 1002 45 14484 8.2 230 20:23 03.05.2020
3831 Clouds 19 1003 48 14484 9.3 250 19:56 03.05.2020
3832 Clouds 19 1003 48 14484 9.3 250 19:56 03.05.2020
3833 Clouds 19 1003 48 14484 9.3 250 19:37 03.05.2020
3834 Clouds 19 1003 48 14484 9.3 250 19:37 03.05.2020
3835 Clouds 19 1003 48 14484 9.3 250 19:18 03.05.2020
3836 Clouds 18 1003 59 14484 9.3 250 18:39 03.05.2020
3837 Clouds 17 1003 59 14484 9.3 250 18:20 03.05.2020
3838 Clouds 17 1003 59 14484 9.3 250 18:20 03.05.2020
3839 Clouds 17 1003 59 14484 8.7 260 17:56 03.05.2020
3840 Clouds 17 1003 59 14484 8.7 260 17:38 03.05.2020
3841 Clouds 16 1003 59 14484 8.7 260 17:19 03.05.2020
3842 Clouds 16 1003 59 14484 8.7 260 17:19 03.05.2020
3843 Clouds 16 1003 63 14484 6.2 240 16:44 03.05.2020
3844 Clouds 16 1003 63 14484 6.2 240 16:19 03.05.2020
3845 Clouds 15 1003 67 14484 4.1 220 15:57 03.05.2020
3846 Clouds 14 1003 67 14484 4.1 220 15:38 03.05.2020
3847 Clouds 14 1003 67 14484 4.1 220 15:38 03.05.2020
3848 Clouds 13 1003 67 14484 4.1 220 15:19 03.05.2020
3849 Clouds 13 1003 66 14484 5.7 190 14:56 03.05.2020
3850 Clouds 13 1003 66 14484 5.7 190 14:38 03.05.2020
3851 Clouds 13 1003 66 14484 5.7 190 14:19 03.05.2020
3852 Clouds 13 1003 66 14484 5.7 190 14:19 03.05.2020
3853 Clouds 11 1004 81 14484 3.1 140 13:38 03.05.2020
3854 Clouds 11 1004 81 14484 3.1 140 13:38 03.05.2020
3855 Clouds 10 1004 87 14484 2.1 120 12:56 03.05.2020
3856 Clouds 10 1004 87 14484 2.1 120 12:56 03.05.2020
3857 Clouds 10 1004 87 14484 2.1 120 12:37 03.05.2020
3858 Clouds 10 1004 87 14484 3.1 120 11:58 03.05.2020
3859 Clouds 10 1005 81 14484 1.5 150 11:40 03.05.2020
3860 Clouds 10 1005 81 14484 1.5 150 11:40 03.05.2020
3861 Clouds 11 1005 81 14484 1.5 150 11:21 03.05.2020
3862 Rain 11 1006 87 14484 2.93 172 10:55 03.05.2020
3863 Rain 11 1006 81 24140 3.52 163 10:26 03.05.2020
3864 Clouds 11 1006 81 14484 3.1 160 09:42 03.05.2020
3865 Clouds 11 1006 81 14484 3.1 160 09:22 03.05.2020
3866 Clouds 11 1006 81 14484 3.1 160 09:22 03.05.2020
3867 Clouds 11 1006 81 14484 3.1 160 09:22 03.05.2020
3868 Rain 12 1007 81 14484 2.1 260 08:36 03.05.2020
3869 Rain 12 1008 71 14484 5.1 240 07:59 03.05.2020
3870 Rain 12 1008 71 14484 5.1 240 07:37 03.05.2020
3871 Rain 12 1008 71 14484 5.1 240 07:37 03.05.2020
3872 Clouds 14 1008 50 14484 7.7 240 05:59 03.05.2020
3873 Clouds 14 1008 50 14484 7.7 240 05:41 03.05.2020
3874 Clouds 15 1009 51 14484 5.7 240 04:28 03.05.2020
3875 Clouds 16 1008 44 14484 4.6 240 03:55 03.05.2020
3876 Clouds 17 1008 48 14484 4.6 240 02:38 03.05.2020
3877 Clouds 17 1008 48 14484 4.6 240 02:19 03.05.2020
3878 Clouds 17 1008 48 14484 4.6 240 02:19 03.05.2020
3879 Clouds 17 1008 42 14484 4.6 220 01:41 03.05.2020
3880 Clouds 18 1008 42 14484 4.6 220 01:22 03.05.2020
3881 Clouds 18 1009 36 14484 4.6 270 00:40 03.05.2020
3882 Clouds 18 1009 36 14484 4.6 270 00:40 03.05.2020
3883 Clouds 18 1009 36 14484 4.6 270 00:21 03.05.2020
3884 Clouds 19 1009 32 32767 5.7 280 23:49 02.05.2020
3885 Clouds 19 1009 32 32767 5.7 280 23:30 02.05.2020
3886 Clouds 18 1010 36 32767 4.6 220 22:59 02.05.2020
3887 Clouds 18 1010 36 32767 4.6 220 22:41 02.05.2020
3888 Clouds 18 1010 39 14484 4.6 220 22:22 02.05.2020
3889 Clear 18 1011 39 14484 6.2 220 21:54 02.05.2020
3890 Clear 18 1011 39 14484 6.2 220 21:36 02.05.2020
3891 Clear 18 1011 39 14484 6.2 220 21:18 02.05.2020
3892 Clear 17 1011 36 14484 5.7 260 20:54 02.05.2020
3893 Clear 17 1011 36 14484 5.7 260 20:36 02.05.2020
3894 Clear 17 1011 36 14484 5.7 260 20:36 02.05.2020
3895 Clear 17 1011 36 14484 5.7 260 20:18 02.05.2020
3896 Clear 16 1012 41 14484 3.1 180 19:39 02.05.2020
3897 Clear 16 1012 41 14484 3.1 180 19:20 02.05.2020
3898 Clear 16 1013 38 14484 4.1 310 18:59 02.05.2020
3899 Clear 16 1013 38 14484 4.1 310 18:39 02.05.2020
3900 Clear 15 1013 38 14484 4.1 310 18:21 02.05.2020
3901 Clear 14 1014 37 14484 3.6 310 17:57 02.05.2020
3902 Clear 14 1014 37 14484 3.6 310 17:38 02.05.2020
3903 Clear 14 1014 37 14484 3.6 310 17:19 02.05.2020
3904 Clear 14 1014 44 14484 3.6 360 16:56 02.05.2020
3905 Clear 13 1014 44 14484 3.6 360 16:38 02.05.2020
3906 Clear 13 1014 47 14484 3.6 360 16:20 02.05.2020
3907 Clear 13 1014 53 14484 3.6 310 15:41 02.05.2020
3908 Clear 11 1014 53 14484 3.6 310 15:20 02.05.2020
3909 Clouds 10 1014 61 14484 4.1 280 14:45 02.05.2020
3910 Clouds 10 1014 61 14484 4.1 280 14:27 02.05.2020
3911 Clear 8 1014 70 14484 3.1 290 13:59 02.05.2020
3912 Clear 7 1014 70 14484 3.1 290 13:39 02.05.2020
3913 Clear 7 1014 70 14484 3.1 290 13:19 02.05.2020
3914 Clear 5 1013 75 14484 2.1 290 12:42 02.05.2020
3915 Clear 5 1013 75 14484 2.1 290 12:23 02.05.2020
3916 Clear 5 1013 75 14484 4.1 290 11:58 02.05.2020
3917 Clear 5 1013 75 14484 4.1 290 11:39 02.05.2020
3918 Clear 5 1013 75 14484 4.1 290 11:21 02.05.2020
3919 Clear 5 1013 70 14484 3.1 290 10:56 02.05.2020
3920 Clear 6 1013 70 14484 3.1 290 10:38 02.05.2020
3921 Clear 6 1013 70 14484 3.1 290 10:20 02.05.2020
3922 Clear 6 1013 70 14484 3.1 290 10:20 02.05.2020
3923 Clear 6 1012 70 14484 3.1 290 09:54 02.05.2020
3924 Clear 6 1012 70 14484 3.1 290 09:36 02.05.2020
3925 Clear 6 1012 70 14484 3.1 290 09:18 02.05.2020
3926 Clear 6 1012 70 14484 3.1 270 08:44 02.05.2020
3927 Clear 6 1012 70 14484 3.1 270 08:25 02.05.2020
3928 Clear 6 1013 70 14484 3.1 280 07:47 02.05.2020
3929 Clear 6 1013 70 14484 3.1 280 07:27 02.05.2020
3930 Clear 7 1012 65 14484 3.1 280 06:50 02.05.2020
3931 Clear 7 1012 65 14484 2.1 290 05:28 02.05.2020
3932 Clear 8 1011 61 14484 3.1 310 04:37 02.05.2020
3933 Clear 8 1011 61 14484 3.1 310 04:18 02.05.2020
3934 Clouds 9 1009 66 14484 5.1 350 02:43 02.05.2020
3935 Clouds 10 1009 66 14484 5.1 350 02:22 02.05.2020
3936 Clouds 11 1007 62 14484 7.2 360 01:33 02.05.2020
3937 Clouds 13 1006 62 14484 6.7 350 00:46 02.05.2020
3938 Clouds 13 1006 62 14484 6.7 350 00:24 02.05.2020
3939 Clouds 15 1005 63 14484 9.3 310 23:57 01.05.2020
3940 Clouds 15 1005 63 14484 9.3 310 23:38 01.05.2020
3941 Clouds 15 1005 63 14484 9.3 310 23:19 01.05.2020
3942 Clouds 16 1004 63 14484 7.2 300 22:54 01.05.2020
3943 Clouds 16 1004 63 14484 7.2 300 22:36 01.05.2020
3944 Clouds 17 1004 63 14484 7.2 300 22:18 01.05.2020
3945 Clouds 17 1005 67 14484 6.2 300 21:54 01.05.2020
3946 Clouds 17 1004 63 14484 5.7 260 21:36 01.05.2020
3947 Clouds 17 1004 63 14484 5.7 260 21:18 01.05.2020
3948 Clouds 17 1005 72 14484 7.2 240 20:54 01.05.2020
3949 Clouds 18 1005 72 14484 7.2 240 20:36 01.05.2020
3950 Clouds 18 1005 72 14484 7.2 240 20:18 01.05.2020
3951 Clouds 17 1005 77 14484 4.6 250 19:41 01.05.2020
3952 Clouds 17 1005 77 14484 4.6 250 19:22 01.05.2020
3953 Mist 16 1006 87 9656 5.1 270 18:57 01.05.2020
3954 Mist 16 1006 87 9656 5.1 270 18:38 01.05.2020
3955 Mist 15 1006 87 9656 5.1 270 18:19 01.05.2020
3956 Rain 15 1006 87 14484 4.6 270 17:54 01.05.2020
3957 Clouds 15 1006 77 14484 8.2 240 17:36 01.05.2020
3958 Clouds 15 1006 77 14484 8.2 240 17:18 01.05.2020
3959 Clouds 15 1006 87 14484 6.7 220 16:55 01.05.2020
3960 Clouds 15 1006 87 14484 6.7 220 16:36 01.05.2020
3961 Clouds 14 1006 87 14484 6.7 220 16:18 01.05.2020
3962 Clouds 13 1006 87 14484 6.2 190 15:42 01.05.2020
3963 Clouds 13 1006 87 14484 6.2 190 15:23 01.05.2020
3964 Clouds 13 1005 87 14484 5.7 170 14:54 01.05.2020
3965 Clouds 12 1005 87 14484 5.7 170 14:36 01.05.2020
3966 Clouds 12 1005 87 14484 5.7 170 14:18 01.05.2020
3967 Rain 11 1005 93 14484 5.1 150 13:40 01.05.2020
3968 Rain 11 1005 93 14484 5.1 150 13:22 01.05.2020
3969 Rain 11 1005 93 14484 2.6 160 12:56 01.05.2020
3970 Rain 11 1005 93 14484 2.6 160 12:37 01.05.2020
3971 Rain 10 1005 93 14484 2.6 160 12:19 01.05.2020
3972 Rain 10 1005 93 14484 4.1 150 11:56 01.05.2020
3973 Rain 10 1005 93 14484 4.1 150 11:38 01.05.2020
3974 Rain 10 1005 93 14484 4.1 150 11:18 01.05.2020
3975 Rain 10 1006 81 14484 5.1 160 10:40 01.05.2020
3976 Rain 10 1006 81 14484 5.1 160 10:20 01.05.2020
3977 Rain 10 1006 76 14484 4.1 140 09:45 01.05.2020
3978 Rain 10 1006 76 14484 4.1 140 09:21 01.05.2020
3979 Rain 10 1007 76 14484 6.2 140 08:59 01.05.2020
3980 Clouds 10 1007 76 14484 8.7 130 08:41 01.05.2020
3981 Clouds 10 1007 76 14484 8.7 130 08:22 01.05.2020
3982 Clouds 10 1007 76 14484 8.7 130 08:22 01.05.2020
3983 Clouds 10 1009 81 14484 7.2 130 07:46 01.05.2020
3984 Clouds 10 1009 81 14484 7.2 130 07:23 01.05.2020
3985 Clouds 11 1010 76 14484 8.7 140 06:54 01.05.2020
3986 Clouds 11 1010 76 14484 6.2 130 05:38 01.05.2020
3987 Rain 11 1011 76 14484 5.7 140 04:49 01.05.2020
3988 Clouds 11 1011 76 14484 8.7 140 03:31 01.05.2020
3989 Clouds 11 1012 71 14484 6.7 140 02:48 01.05.2020
3990 Clouds 11 1012 71 14484 6.7 140 02:29 01.05.2020
3991 Clouds 11 1013 71 14484 5.7 130 01:36 01.05.2020
3992 Clouds 11 1013 71 14484 5.7 130 01:18 01.05.2020
3993 Clouds 11 1014 71 14484 6.7 140 00:38 01.05.2020
3994 Clouds 11 1014 71 14484 6.7 140 00:20 01.05.2020
3995 Clouds 11 1014 71 14484 7.7 150 23:55 30.04.2020
3996 Clouds 11 1014 71 14484 7.7 150 23:37 30.04.2020
3997 Clouds 11 1014 71 14484 7.7 150 23:19 30.04.2020
3998 Clouds 10 1015 76 14484 5.7 140 22:41 30.04.2020
3999 Clouds 10 1015 76 14484 5.7 140 22:21 30.04.2020
4000 Clouds 10 1016 76 14484 4.6 140 21:57 30.04.2020
4001 Clouds 10 1016 76 14484 4.6 140 21:38 30.04.2020
4002 Clouds 10 1016 76 14484 4.6 140 21:20 30.04.2020
4003 Clouds 9 1016 76 14484 7.7 150 20:54 30.04.2020
4004 Rain 9 1016 81 14484 7.7 140 20:36 30.04.2020
4005 Rain 9 1016 81 14484 7.7 140 20:18 30.04.2020
4006 Rain 9 1017 81 14484 7.2 140 19:44 30.04.2020
4007 Rain 9 1017 81 14484 7.2 140 19:25 30.04.2020
4008 Rain 9 1017 81 14484 7.2 140 18:56 30.04.2020
4009 Rain 9 1017 87 14484 5.1 130 18:38 30.04.2020
4010 Rain 9 1017 87 14484 5.1 130 18:20 30.04.2020
4011 Rain 9 1018 87 14484 5.1 140 17:57 30.04.2020
4012 Rain 9 1018 87 14484 5.1 140 17:39 30.04.2020
4013 Rain 9 1018 87 14484 5.1 140 17:20 30.04.2020
4014 Rain 9 1018 93 14484 4.6 140 16:55 30.04.2020
4015 Rain 9 1018 93 14484 4.6 140 16:36 30.04.2020
4016 Rain 9 1018 93 14484 4.6 140 16:18 30.04.2020
4017 Rain 9 1018 87 14484 4.1 150 15:44 30.04.2020
4018 Rain 9 1018 87 14484 4.1 150 15:23 30.04.2020
4019 Rain 9 1018 81 14484 3.6 130 14:43 30.04.2020
4020 Rain 9 1018 81 14484 3.6 130 14:22 30.04.2020
4021 Rain 9 1018 81 14484 3.1 120 13:59 30.04.2020
4022 Rain 9 1018 81 14484 3.1 120 13:41 30.04.2020
4023 Rain 9 1018 81 14484 3.1 120 13:23 30.04.2020
4024 Rain 9 1018 75 14484 6.2 130 12:59 30.04.2020
4025 Rain 9 1018 75 14484 6.2 130 12:41 30.04.2020
4026 Rain 9 1018 75 14484 6.2 130 12:19 30.04.2020
4027 Clouds 9 1018 70 14484 5.1 130 11:38 30.04.2020
4028 Clouds 9 1018 70 14484 5.1 130 11:19 30.04.2020
4029 Rain 9 1019 76 14484 4.1 120 10:59 30.04.2020
4030 Rain 9 1019 76 14484 4.1 110 10:40 30.04.2020
4031 Rain 9 1019 76 14484 4.1 110 10:21 30.04.2020
4032 Rain 9 1019 81 14484 3.6 140 09:57 30.04.2020
4033 Rain 9 1019 81 14484 3.6 140 09:38 30.04.2020
4034 Rain 9 1019 81 14484 3.6 140 09:20 30.04.2020
4035 Rain 10 1019 66 14484 5.1 160 08:46 30.04.2020
4036 Rain 10 1019 66 14484 5.1 160 08:26 30.04.2020
4037 Rain 11 1019 62 14484 5.1 140 07:44 30.04.2020
4038 Rain 11 1019 62 14484 5.1 140 07:26 30.04.2020
4039 Rain 12 1019 47 14484 5.7 140 06:54 30.04.2020
4040 Rain 13 1019 47 14484 5.7 140 06:29 30.04.2020
4041 Rain 14 1019 41 14484 7.7 140 05:46 30.04.2020
4042 Clouds 15 1019 33 14484 7.2 140 04:43 30.04.2020
4043 Clouds 15 1019 33 14484 7.2 140 04:20 30.04.2020
4044 Clouds 16 1019 27 14484 5.1 150 02:48 30.04.2020
4045 Clouds 16 1019 27 14484 5.1 150 02:27 30.04.2020
4046 Clouds 17 1019 27 14484 5.7 160 01:37 30.04.2020
4047 Clouds 18 1019 25 14484 5.1 170 00:50 30.04.2020
4048 Clouds 18 1019 25 14484 5.1 170 00:24 30.04.2020
4049 Clouds 19 1019 20 14484 5.7 140 23:58 29.04.2020
4050 Clouds 19 1019 20 14484 5.7 140 23:39 29.04.2020
4051 Clouds 19 1019 20 14484 5.7 140 23:21 29.04.2020
4052 Clouds 19 1020 22 14484 6.7 120 22:58 29.04.2020
4053 Clouds 19 1020 22 14484 6.7 120 22:38 29.04.2020
4054 Clouds 19 1020 22 14484 6.7 120 22:18 29.04.2020
4055 Clouds 19 1021 20 14484 5.1 120 21:38 29.04.2020
4056 Clouds 19 1021 20 14484 5.1 120 21:20 29.04.2020
4057 Clear 19 1021 22 14484 6.2 120 20:58 29.04.2020
4058 Clear 19 1021 22 14484 6.2 120 20:58 29.04.2020
4059 Clear 18 1021 22 14484 6.2 120 20:39 29.04.2020
4060 Clear 18 1021 22 14484 6.2 120 20:19 29.04.2020
4061 Clear 18 1021 22 14484 6.2 120 20:19 29.04.2020
4062 Clear 18 1021 22 14484 6.2 120 20:19 29.04.2020
4063 Clouds 18 1022 23 14484 7.7 110 19:43 29.04.2020
4064 Clouds 18 1022 23 14484 7.7 110 19:22 29.04.2020
4065 Clouds 17 1023 25 14484 5.1 110 18:58 29.04.2020
4066 Clouds 17 1023 25 14484 5.1 110 18:40 29.04.2020
4067 Clouds 17 1023 25 14484 5.1 110 18:19 29.04.2020
4068 Clear 14 1024 30 14484 3.1 130 17:44 29.04.2020
4069 Clear 14 1024 30 14484 3.1 130 17:22 29.04.2020
4070 Clear 13 1024 37 14484 3.6 130 16:57 29.04.2020
4071 Clear 13 1024 37 14484 3.6 130 16:36 29.04.2020
4072 Clear 12 1024 37 14484 3.6 130 16:18 29.04.2020
4073 Clear 11 1024 49 14484 2.1 30 15:55 29.04.2020
4074 Clear 10 1024 49 14484 2.1 30 15:37 29.04.2020
4075 Clear 9 1024 49 14484 2.1 30 15:18 29.04.2020
4076 Clear 7 1024 56 14484 2.6 20 14:43 29.04.2020
4077 Clear 7 1024 56 14484 2.6 20 14:25 29.04.2020
4078 Clear 5 1024 64 14484 2.1 20 13:57 29.04.2020
4079 Clear 5 1024 64 14484 2.1 20 13:38 29.04.2020
4080 Clear 4 1024 64 14484 2.1 20 13:19 29.04.2020
4081 Clouds 4 1024 64 32767 3.6 20 12:55 29.04.2020
4082 Clear 3 1024 69 14484 3.1 20 12:37 29.04.2020
4083 Clear 3 1024 69 14484 3.1 20 12:18 29.04.2020
4084 Clear 3 1023 64 14484 2.1 360 11:39 29.04.2020
4085 Clear 4 1023 64 14484 2.1 360 11:20 29.04.2020
4086 Clear 4 1023 64 14484 2.1 360 11:20 29.04.2020
4087 Clear 4 1023 64 14484 2.1 360 11:20 29.04.2020
4088 Clear 4 1022 59 14484 3.1 20 10:54 29.04.2020
4089 Clear 4 1022 59 14484 3.1 20 10:36 29.04.2020
4090 Clear 4 1022 59 14484 3.1 20 10:18 29.04.2020
4091 Clear 4 1022 59 14484 2.6 20 09:41 29.04.2020
4092 Clear 4 1022 59 14484 2.6 20 09:21 29.04.2020
4093 Clouds 5 1022 55 14484 2.6 20 08:44 29.04.2020
4094 Clouds 5 1022 55 14484 2.6 20 08:26 29.04.2020
4095 Clear 5 1022 52 14484 1.5 20 07:56 29.04.2020
4096 Clear 6 1022 52 14484 1.5 20 07:37 29.04.2020
4097 Clear 6 1022 52 14484 1.5 20 07:18 29.04.2020
4098 Clouds 6 1022 52 14484 2.1 20 06:45 29.04.2020
4099 Clouds 7 1022 52 14484 2.1 20 06:26 29.04.2020
4100 Clouds 7 1022 52 14484 1 10 05:20 29.04.2020
4101 Clouds 8 1022 42 24140 3.6 30 04:20 29.04.2020
4102 Clouds 9 1021 36 24140 3.6 50 03:54 29.04.2020
4103 Clouds 10 1021 34 32767 7.2 40 02:30 29.04.2020
4104 Clear 11 1021 29 14484 4.1 20 01:43 29.04.2020
4105 Clear 12 1021 29 14484 4.1 20 01:20 29.04.2020
4106 Clear 12 1020 27 14484 6.2 10 00:39 29.04.2020
4107 Clear 13 1020 27 14484 6.2 10 00:18 29.04.2020
4108 Clear 13 1020 24 14484 3.6 30 23:47 28.04.2020
4109 Clear 13 1020 24 14484 3.6 30 23:23 28.04.2020
4110 Clear 13 1020 28 14484 6.7 30 22:40 28.04.2020
4111 Clear 13 1020 28 14484 6.7 30 22:22 28.04.2020
4112 Clear 13 1020 28 14484 6.7 30 22:22 28.04.2020
4113 Clear 13 1020 27 14484 3.1 0 21:59 28.04.2020
4114 Clear 13 1020 27 14484 3.1 0 21:41 28.04.2020
4115 Clear 13 1020 27 14484 3.1 0 21:23 28.04.2020
4116 Clouds 12 1020 27 14484 3.6 350 20:59 28.04.2020
4117 Clouds 12 1020 27 14484 3.6 350 20:59 28.04.2020
4118 Clouds 13 1020 27 14484 3.6 350 20:40 28.04.2020
4119 Clouds 13 1020 27 14484 3.6 350 20:21 28.04.2020
4120 Clouds 12 1020 27 14484 6.2 10 19:58 28.04.2020
4121 Clouds 12 1021 23 32767 5.7 20 19:39 28.04.2020
4122 Clouds 12 1021 32 14484 5.7 30 19:20 28.04.2020
4123 Clouds 11 1021 32 14484 5.7 30 18:57 28.04.2020
4124 Clouds 11 1021 32 14484 5.7 30 18:38 28.04.2020
4125 Clouds 10 1021 32 14484 5.7 30 18:19 28.04.2020
4126 Clouds 10 1021 31 14484 5.1 30 17:38 28.04.2020
4127 Clouds 10 1021 31 14484 5.1 30 17:20 28.04.2020
4128 Clouds 9 1021 34 14484 6.2 40 16:58 28.04.2020
4129 Clouds 9 1021 34 14484 6.2 40 16:40 28.04.2020
4130 Clouds 9 1021 34 14484 6.2 40 16:40 28.04.2020
4131 Clouds 8 1021 34 14484 6.2 40 16:22 28.04.2020
4132 Clouds 8 1021 42 14484 4.6 20 15:56 28.04.2020
4133 Clouds 8 1021 42 14484 4.6 20 15:38 28.04.2020
4134 Clouds 7 1021 42 14484 4.6 20 15:20 28.04.2020
4135 Clouds 6 1021 48 14484 5.1 20 14:56 28.04.2020
4136 Clouds 6 1021 48 14484 5.1 20 14:56 28.04.2020
4137 Clouds 6 1021 48 14484 5.1 20 14:38 28.04.2020
4138 Clouds 6 1021 48 14484 5.1 20 14:19 28.04.2020
4139 Clouds 6 1021 48 32767 4.6 20 13:56 28.04.2020
4140 Clouds 6 1021 48 32767 4.6 20 13:37 28.04.2020
4141 Clouds 5 1021 55 14484 4.6 30 13:19 28.04.2020
4142 Clouds 5 1020 55 14484 4.1 10 12:43 28.04.2020
4143 Clouds 5 1020 55 14484 4.1 10 12:23 28.04.2020
4144 Clouds 5 1020 55 14484 4.6 360 11:43 28.04.2020
4145 Clouds 4 1020 55 14484 4.6 360 11:24 28.04.2020
4146 Clouds 4 1020 55 14484 4.6 360 11:24 28.04.2020
4147 Clouds 5 1020 48 24140 4.6 10 10:59 28.04.2020
4148 Clouds 4 1020 55 14484 4.1 350 10:39 28.04.2020
4149 Clouds 4 1020 55 14484 4.1 350 10:19 28.04.2020
4150 Clouds 4 1020 51 14484 3.6 360 09:56 28.04.2020
4151 Clouds 4 1020 51 14484 3.6 360 09:38 28.04.2020
4152 Clouds 5 1020 44 24140 5.1 20 09:20 28.04.2020
4153 Clouds 5 1020 45 24140 6.2 10 08:45 28.04.2020
4154 Clouds 5 1020 45 24140 6.2 10 08:26 28.04.2020
4155 Clouds 6 1020 44 14484 4.1 10 07:44 28.04.2020
4156 Clouds 6 1020 44 14484 4.1 10 07:19 28.04.2020
4157 Clouds 6 1020 45 14484 3.6 10 06:48 28.04.2020
4158 Clouds 6 1020 45 14484 3.6 10 06:22 28.04.2020
4159 Clouds 7 1021 48 14484 4.1 30 05:41 28.04.2020
4160 Clouds 8 1021 39 24140 3.6 50 04:56 28.04.2020
4161 Clouds 9 1020 36 14484 7.2 70 02:59 28.04.2020
4162 Clouds 9 1020 36 14484 7.2 70 02:33 28.04.2020
4163 Clouds 9 1020 34 14484 4.6 50 01:23 28.04.2020
4164 Clouds 9 1020 34 14484 7.7 30 00:55 28.04.2020
4165 Clouds 10 1020 34 14484 7.7 30 00:22 28.04.2020
4166 Clouds 10 1019 31 14484 4.6 10 23:47 27.04.2020
4167 Clouds 10 1019 31 14484 4.6 10 23:24 27.04.2020
4168 Clouds 10 1019 34 14484 6.7 40 22:55 27.04.2020
4169 Clouds 10 1019 34 14484 6.7 40 22:37 27.04.2020
4170 Clouds 10 1019 34 14484 6.7 40 22:18 27.04.2020
4171 Clouds 10 1019 34 14484 8.2 30 21:56 27.04.2020
4172 Clouds 10 1019 34 14484 8.2 30 21:37 27.04.2020
4173 Clouds 10 1019 34 14484 8.2 30 21:18 27.04.2020
4174 Clouds 10 1019 36 14484 6.7 40 20:43 27.04.2020
4175 Clouds 10 1019 36 14484 6.7 40 20:22 27.04.2020
4176 Clouds 10 1019 31 14484 5.7 50 19:58 27.04.2020
4177 Clouds 10 1019 31 14484 5.7 50 19:39 27.04.2020
4178 Clouds 10 1019 31 14484 5.7 50 19:20 27.04.2020
4179 Clouds 10 1020 36 14484 7.2 50 18:58 27.04.2020
4180 Clouds 10 1020 36 14484 7.2 50 18:40 27.04.2020
4181 Clouds 10 1020 36 14484 7.2 50 18:19 27.04.2020
4182 Clouds 9 1020 39 14484 7.2 40 17:43 27.04.2020
4183 Clouds 9 1020 39 14484 7.2 40 17:24 27.04.2020
4184 Clouds 8 1020 36 14484 8.7 40 16:58 27.04.2020
4185 Clouds 8 1020 36 14484 8.7 40 16:39 27.04.2020
4186 Clouds 8 1020 36 14484 8.7 40 16:39 27.04.2020
4187 Clouds 8 1020 36 14484 8.7 40 16:21 27.04.2020
4188 Clouds 7 1019 39 14484 9.3 40 15:56 27.04.2020
4189 Clouds 7 1019 39 14484 9.3 40 15:38 27.04.2020
4190 Clouds 7 1019 39 14484 9.3 40 15:18 27.04.2020
4191 Clouds 6 1019 41 14484 9.3 30 14:42 27.04.2020
4192 Clouds 6 1019 41 14484 9.3 30 14:23 27.04.2020
4193 Clouds 6 1019 44 14484 7.7 30 13:59 27.04.2020
4194 Clouds 5 1019 44 14484 7.7 30 13:41 27.04.2020
4195 Clouds 5 1019 44 14484 7.7 30 13:20 27.04.2020
4196 Clouds 5 1018 44 14484 7.7 30 12:56 27.04.2020
4197 Clouds 5 1018 44 14484 7.7 30 12:38 27.04.2020
4198 Clouds 5 1018 44 14484 7.7 30 12:19 27.04.2020
4199 Clouds 5 1018 44 14484 7.7 20 11:41 27.04.2020
4200 Clouds 6 1018 44 14484 7.7 20 11:19 27.04.2020
4201 Clouds 6 1018 44 14484 7.7 30 10:57 27.04.2020
4202 Clouds 6 1018 44 14484 7.7 30 10:38 27.04.2020
4203 Clouds 6 1018 44 14484 7.7 30 10:20 27.04.2020
4204 Clouds 6 1018 41 14484 7.7 30 09:44 27.04.2020
4205 Clouds 6 1018 41 14484 7.7 30 09:19 27.04.2020
4206 Clouds 6 1017 38 14484 8.2 30 08:58 27.04.2020
4207 Clouds 7 1017 38 14484 8.2 30 08:38 27.04.2020
4208 Clouds 7 1017 38 14484 8.2 30 08:19 27.04.2020
4209 Clouds 7 1017 39 14484 8.7 30 07:44 27.04.2020
4210 Clouds 7 1017 39 14484 8.7 30 07:20 27.04.2020
4211 Clouds 7 1017 36 14484 9.8 30 06:47 27.04.2020
4212 Clouds 7 1017 36 14484 9.8 30 06:25 27.04.2020
4213 Clouds 8 1017 33 14484 10.3 30 05:50 27.04.2020
4214 Clouds 9 1018 34 14484 8.2 30 04:49 27.04.2020
4215 Clouds 10 1017 29 14484 9.3 30 03:49 27.04.2020
4216 Clouds 11 1017 29 14484 6.7 40 02:58 27.04.2020
4217 Clouds 12 1017 27 14484 7.7 40 01:41 27.04.2020
4218 Clouds 13 1017 24 14484 9.3 60 00:58 27.04.2020
4219 Clouds 13 1017 24 14484 9.3 60 00:20 27.04.2020
4220 Clouds 13 1017 26 14484 8.7 30 23:56 26.04.2020
4221 Clouds 13 1017 26 14484 8.7 30 23:38 26.04.2020
4222 Clouds 13 1017 26 14484 8.7 30 23:19 26.04.2020
4223 Clouds 14 1018 24 14484 8.7 40 22:58 26.04.2020
4224 Clouds 14 1018 24 14484 8.7 40 22:39 26.04.2020
4225 Clouds 14 1018 24 14484 8.7 40 22:39 26.04.2020
4226 Clouds 14 1018 24 14484 8.7 40 22:20 26.04.2020
4227 Clouds 14 1018 24 14484 8.7 40 21:57 26.04.2020
4228 Clouds 14 1018 24 14484 8.7 40 21:38 26.04.2020
4229 Clouds 13 1018 24 14484 8.7 40 21:18 26.04.2020
4230 Clouds 13 1018 24 14484 8.7 40 21:18 26.04.2020
4231 Clouds 13 1019 28 14484 9.3 30 20:54 26.04.2020
4232 Clouds 13 1019 28 14484 9.3 30 20:36 26.04.2020
4233 Clouds 13 1019 28 14484 9.3 30 20:18 26.04.2020
4234 Clouds 12 1019 28 14484 8.2 40 19:56 26.04.2020
4235 Clouds 12 1019 28 14484 8.2 40 19:36 26.04.2020
4236 Clouds 12 1019 28 14484 8.2 40 19:18 26.04.2020
4237 Clouds 11 1020 30 14484 6.2 30 18:40 26.04.2020
4238 Clouds 10 1020 31 32767 7.7 40 18:21 26.04.2020
4239 Clouds 10 1020 29 14484 7.2 30 17:42 26.04.2020
4240 Clouds 10 1020 29 14484 7.2 30 17:22 26.04.2020
4241 Clouds 9 1020 29 14484 5.7 40 16:55 26.04.2020
4242 Clouds 9 1020 29 14484 5.7 40 16:37 26.04.2020
4243 Clouds 9 1020 29 14484 5.7 40 16:19 26.04.2020
4244 Clouds 8 1020 33 14484 5.7 40 15:56 26.04.2020
4245 Clouds 8 1020 33 14484 5.7 40 15:37 26.04.2020
4246 Clouds 7 1020 33 14484 5.7 40 15:18 26.04.2020
4247 Clouds 7 1020 33 14484 5.1 40 14:40 26.04.2020
4248 Clouds 7 1020 33 14484 5.1 40 14:19 26.04.2020
4249 Clouds 6 1020 41 24140 5.7 30 13:58 26.04.2020
4250 Clouds 6 1020 41 24140 5.7 30 13:39 26.04.2020
4251 Clouds 5 1020 41 24140 5.7 30 13:21 26.04.2020
4252 Clouds 4 1020 44 32767 6.2 20 12:55 26.04.2020
4253 Clouds 4 1020 44 32767 6.2 20 12:37 26.04.2020
4254 Clouds 4 1020 44 32767 6.2 20 12:18 26.04.2020
4255 Clouds 4 1020 40 14484 3.6 20 11:54 26.04.2020
4256 Clouds 5 1020 38 24140 5.7 30 11:36 26.04.2020
4257 Clouds 5 1020 38 24140 5.7 30 11:18 26.04.2020
4258 Clouds 5 1019 41 24140 6.2 30 10:41 26.04.2020
4259 Clouds 5 1019 41 24140 6.2 30 10:23 26.04.2020
4260 Clouds 6 1020 41 14484 4.6 20 09:58 26.04.2020
4261 Clouds 6 1020 41 14484 4.6 20 09:38 26.04.2020
4262 Clouds 6 1020 41 14484 4.6 20 09:19 26.04.2020
4263 Clouds 6 1019 48 24140 5.1 20 08:41 26.04.2020
4264 Clouds 5 1019 48 24140 5.1 20 08:22 26.04.2020
4265 Clear 5 1020 51 14484 1 0 07:49 26.04.2020
4266 Clear 5 1020 51 14484 1 0 07:24 26.04.2020
4267 Clear 4 1019 47 14484 1 90 06:50 26.04.2020
4268 Clear 5 1019 47 14484 1 90 06:31 26.04.2020
4269 Clouds 6 1019 28 14484 1 60 05:54 26.04.2020
4270 Clouds 6 1019 28 14484 1 60 05:33 26.04.2020
4271 Clear 7 1019 30 14484 1 110 04:41 26.04.2020
4272 Clear 9 1018 21 14484 1.5 160 03:43 26.04.2020
4273 Clear 11 1018 18 14484 2.1 140 02:40 26.04.2020
4274 Clear 12 1018 18 14484 2.1 140 02:19 26.04.2020
4275 Clear 13 1018 17 14484 2.1 130 01:37 26.04.2020
4276 Clear 13 1018 17 14484 2.1 130 01:18 26.04.2020
4277 Clear 14 1018 15 14484 1.11 137 00:37 26.04.2020
4278 Clear 14 1018 15 14484 0.7 20 00:18 26.04.2020
4279 Clear 15 1018 15 14484 2.1 320 23:38 25.04.2020
4280 Clear 15 1018 15 14484 2.1 320 23:19 25.04.2020
4281 Clear 15 1018 18 14484 2.6 300 22:43 25.04.2020
4282 Clear 15 1018 18 14484 2.6 300 22:21 25.04.2020
4283 Clear 14 1018 15 14484 2.1 340 21:59 25.04.2020
4284 Clouds 14 1018 15 32767 1 0 21:39 25.04.2020
4285 Clear 14 1018 15 14484 2.1 340 21:20 25.04.2020
4286 Clear 14 1019 15 14484 2.6 240 20:55 25.04.2020
4287 Clear 14 1019 15 14484 2.6 240 20:37 25.04.2020
4288 Clear 14 1019 15 14484 2.6 240 20:37 25.04.2020
4289 Clear 14 1019 15 14484 2.6 240 20:18 25.04.2020
4290 Clear 13 1019 18 14484 3.6 290 19:41 25.04.2020
4291 Clear 13 1019 18 14484 3.6 290 19:22 25.04.2020
4292 Clear 12 1019 20 14484 1.5 0 18:57 25.04.2020
4293 Clear 12 1019 20 14484 1.5 0 18:39 25.04.2020
4294 Clear 11 1019 20 14484 1.5 0 18:20 25.04.2020
4295 Clear 10 1019 18 14484 1 0 17:56 25.04.2020
4296 Clear 10 1019 18 14484 1 0 17:37 25.04.2020
4297 Clear 10 1019 18 14484 1 0 17:19 25.04.2020
4298 Clear 9 1019 22 14484 1.5 80 16:54 25.04.2020
4299 Clear 9 1019 22 14484 1.5 80 16:36 25.04.2020
4300 Clear 9 1019 22 14484 1.5 80 16:18 25.04.2020
4301 Clouds 8 1019 20 32767 2.1 0 15:40 25.04.2020
4302 Clear 6 1019 28 14484 2.6 40 15:19 25.04.2020
4303 Clear 5 1018 35 14484 2.1 20 14:58 25.04.2020
4304 Clear 5 1018 35 14484 2.1 20 14:38 25.04.2020
4305 Clear 5 1018 35 14484 2.1 20 14:20 25.04.2020
4306 Clear 3 1018 73 14484 1 20 13:43 25.04.2020
4307 Clear 3 1018 73 14484 1 20 13:19 25.04.2020
4308 Clear 1 1017 54 14484 2.48 36 12:58 25.04.2020
4309 Clear 1 1017 54 14484 2.48 36 12:40 25.04.2020
4310 Clear 1 1017 54 14484 1.91 15 12:20 25.04.2020
4311 Clear 1 1016 47 14484 2.1 360 11:57 25.04.2020
4312 Clear 1 1016 47 14484 2.1 360 11:39 25.04.2020
4313 Clear 2 1016 47 14484 2.1 360 11:20 25.04.2020
4314 Clouds 2 1015 50 14484 2.1 360 10:43 25.04.2020
4315 Clouds 2 1015 50 14484 2.1 360 10:23 25.04.2020
4316 Clouds 2 1015 50 14484 1.91 15 09:48 25.04.2020
4317 Clouds 2 1015 50 14484 1.91 15 09:29 25.04.2020
4318 Clouds 2 1014 76 14484 1 80 08:59 25.04.2020
4319 Clouds 2 1014 76 14484 1 80 08:40 25.04.2020
4320 Clouds 2 1014 76 14484 1 80 08:21 25.04.2020
4321 Clear 3 1013 37 14484 1 0 07:58 25.04.2020
4322 Clear 4 1013 37 14484 1 0 07:40 25.04.2020
4323 Clouds 5 1013 26 14484 2.6 290 06:55 25.04.2020
4324 Clouds 5 1013 26 14484 2.6 290 06:36 25.04.2020
4325 Clouds 6 1012 26 14484 3.1 300 05:42 25.04.2020
4326 Clouds 6 1012 26 14484 3.1 300 05:21 25.04.2020
4327 Clouds 8 1011 20 14484 1 50 03:00 25.04.2020
4328 Clouds 9 1011 20 14484 1 50 02:25 25.04.2020
4329 Clouds 9 1011 19 14484 2.6 50 01:55 25.04.2020
4330 Clouds 9 1011 19 14484 2.6 50 01:37 25.04.2020
4331 Clouds 10 1011 16 32767 2.1 60 01:18 25.04.2020
4332 Clouds 10 1011 15 14484 3.6 50 00:37 25.04.2020
4333 Clouds 11 1011 15 14484 3.6 40 23:57 24.04.2020
4334 Clouds 11 1011 15 14484 3.6 40 23:38 24.04.2020
4335 Clouds 11 1011 15 14484 3.6 40 23:20 24.04.2020
4336 Clouds 11 1011 14 14484 4.6 30 22:41 24.04.2020
4337 Clouds 11 1011 14 14484 4.6 30 22:20 24.04.2020
4338 Clear 11 1011 15 14484 5.7 10 21:57 24.04.2020
4339 Clear 11 1011 15 14484 5.7 10 21:39 24.04.2020
4340 Clear 11 1011 15 14484 5.7 10 21:21 24.04.2020
4341 Clear 10 1011 19 14484 4.6 30 20:56 24.04.2020
4342 Clear 10 1011 19 14484 4.6 30 20:38 24.04.2020
4343 Clear 10 1011 19 14484 4.6 30 20:18 24.04.2020
4344 Clouds 9 1012 21 14484 6.2 20 19:43 24.04.2020
4345 Clouds 9 1012 21 14484 6.2 20 19:25 24.04.2020
4346 Clouds 8 1013 22 14484 5.1 40 18:56 24.04.2020
4347 Clouds 8 1013 22 14484 5.1 40 18:38 24.04.2020
4348 Clouds 8 1013 22 14484 5.1 40 18:38 24.04.2020
4349 Clouds 8 1013 22 14484 5.1 40 18:19 24.04.2020
4350 Clear 7 1013 24 14484 6.2 20 17:42 24.04.2020
4351 Clear 7 1013 24 14484 6.2 20 17:23 24.04.2020
4352 Clear 6 1014 24 14484 6.2 50 16:59 24.04.2020
4353 Clear 6 1014 24 14484 6.2 50 16:40 24.04.2020
4354 Clear 6 1014 24 14484 6.2 50 16:21 24.04.2020
4355 Clear 5 1014 27 14484 5.1 40 15:55 24.04.2020
4356 Clear 4 1014 27 14484 5.1 40 15:37 24.04.2020
4357 Clear 4 1014 27 14484 5.1 40 15:18 24.04.2020
4358 Clear 2 1014 31 14484 6.2 50 14:40 24.04.2020
4359 Clear 2 1014 31 14484 6.2 50 14:20 24.04.2020
4360 Clear 1 1014 54 14484 4.1 10 13:55 24.04.2020
4361 Clouds 1 1014 50 32767 4.6 30 13:36 24.04.2020
4362 Clear 0 1014 54 14484 4.1 10 13:18 24.04.2020
4363 Clouds -2 1014 53 24140 4.1 40 12:41 24.04.2020
4364 Clouds -2 1014 53 24140 4.1 40 12:21 24.04.2020
4365 Clouds -2 1014 50 24140 2.1 10 11:57 24.04.2020
4366 Clouds -2 1014 50 24140 2.1 10 11:37 24.04.2020
4367 Clouds -3 1014 50 24140 2.1 10 11:19 24.04.2020
4368 Clear -3 1014 62 14484 3.06 53 10:54 24.04.2020
4369 Clear -3 1014 62 14484 3.06 53 10:36 24.04.2020
4370 Clear -3 1014 62 14484 3.06 53 10:18 24.04.2020
4371 Clear -3 1014 53 14484 3.06 53 09:45 24.04.2020
4372 Clear -3 1014 53 14484 2.28 59 09:24 24.04.2020
4373 Clear -2 1014 58 14484 1.5 50 08:55 24.04.2020
4374 Clear -2 1014 58 14484 1.5 50 08:37 24.04.2020
4375 Clouds -2 1014 50 24140 1.5 30 08:18 24.04.2020
4376 Clear -2 1015 49 14484 1.5 40 07:44 24.04.2020
4377 Clear -2 1015 49 14484 1.5 40 07:26 24.04.2020
4378 Clear -1 1015 42 14484 1 80 06:51 24.04.2020
4379 Clear -1 1015 42 14484 1 80 06:32 24.04.2020
4380 Clear 0 1015 34 14484 1 320 05:44 24.04.2020
4381 Clear 2 1015 21 14484 2.6 280 04:26 24.04.2020
4382 Clear 4 1015 21 14484 3.6 260 02:59 24.04.2020
4383 Clear 4 1015 21 14484 3.6 260 02:38 24.04.2020
4384 Clear 5 1015 21 14484 3.6 260 02:20 24.04.2020
4385 Clear 6 1014 18 14484 5.7 250 01:18 24.04.2020
4386 Clear 7 1014 16 14484 5.1 270 00:38 24.04.2020
4387 Clear 7 1014 16 14484 5.1 270 00:18 24.04.2020
4388 Clear 7 1014 16 14484 6.7 290 23:42 23.04.2020
4389 Clear 8 1014 16 14484 6.7 290 23:23 23.04.2020
4390 Clear 8 1015 16 14484 4.6 270 22:55 23.04.2020
4391 Clear 8 1015 16 14484 4.6 270 22:37 23.04.2020
4392 Clear 8 1015 16 14484 4.6 270 22:18 23.04.2020
4393 Clear 7 1015 18 14484 7.2 250 21:56 23.04.2020
4394 Clear 7 1015 18 14484 7.2 250 21:38 23.04.2020
4395 Clear 7 1015 18 14484 7.2 250 21:19 23.04.2020
4396 Clear 6 1015 20 14484 7.7 240 20:43 23.04.2020
4397 Clear 6 1015 20 14484 7.7 240 20:22 23.04.2020
4398 Clear 5 1015 21 14484 8.7 240 19:59 23.04.2020
4399 Clear 5 1015 21 14484 8.7 240 19:40 23.04.2020
4400 Clear 5 1015 21 14484 8.7 240 19:22 23.04.2020
4401 Clear 4 1016 23 14484 7.2 230 18:57 23.04.2020
4402 Clear 4 1016 23 14484 7.2 230 18:39 23.04.2020
4403 Clear 3 1016 23 14484 7.2 230 18:21 23.04.2020
4404 Clear 2 1016 20 14484 6.2 290 17:55 23.04.2020
4405 Clear 2 1016 20 14484 6.2 290 17:37 23.04.2020
4406 Clear 2 1016 20 14484 6.2 290 17:19 23.04.2020
4407 Clear 1 1016 24 14484 6.7 270 16:43 23.04.2020
4408 Clear 1 1016 24 14484 6.7 270 16:21 23.04.2020
4409 Clear 0 1016 23 14484 5.7 290 15:43 23.04.2020
4410 Clear -1 1016 23 14484 5.7 290 15:24 23.04.2020
4411 Clear -2 1015 25 14484 6.7 270 14:59 23.04.2020
4412 Clear -2 1015 25 14484 6.7 270 14:40 23.04.2020
4413 Clear -2 1015 25 14484 6.7 270 14:21 23.04.2020
4414 Clear -2 1015 30 14484 7.7 270 13:58 23.04.2020
4415 Clear -2 1015 30 14484 7.7 270 13:39 23.04.2020
4416 Clear -2 1015 30 14484 7.7 270 13:20 23.04.2020
4417 Clear -3 1015 30 14484 5.7 280 12:57 23.04.2020
4418 Clear -3 1015 30 14484 5.7 280 12:38 23.04.2020
4419 Clear -4 1015 30 14484 5.7 280 12:20 23.04.2020
4420 Clear -3 1014 32 14484 6.7 270 11:46 23.04.2020
4421 Clear -3 1014 32 14484 6.7 270 11:27 23.04.2020
4422 Clear -3 1013 30 14484 6.2 290 10:58 23.04.2020
4423 Clear -3 1013 30 14484 6.2 290 10:39 23.04.2020
4424 Clear -2 1013 30 14484 6.2 290 10:20 23.04.2020
4425 Clear -2 1013 33 14484 6.2 280 09:40 23.04.2020
4426 Clear -2 1013 33 14484 6.2 280 09:18 23.04.2020
4427 Clear -2 1013 33 14484 6.2 280 09:18 23.04.2020
4428 Clear -2 1013 36 14484 5.7 290 08:48 23.04.2020
4429 Clear -2 1013 36 14484 5.7 290 08:29 23.04.2020
4430 Clear -1 1013 36 14484 5.1 290 07:57 23.04.2020
4431 Clear -1 1013 36 14484 5.1 290 07:38 23.04.2020
4432 Clear -1 1013 36 14484 5.1 290 07:19 23.04.2020
4433 Clear -1 1012 39 14484 6.7 280 06:44 23.04.2020
4434 Clear -1 1011 42 14484 5.1 280 05:39 23.04.2020
4435 Clear -1 1011 42 14484 5.1 280 05:21 23.04.2020
4436 Clouds 0 1009 77 14484 6.7 280 02:52 23.04.2020
4437 Clouds 1 1009 78 14484 6.7 280 02:23 23.04.2020
4438 Clouds 1 1008 37 14484 9.8 290 01:38 23.04.2020
4439 Clouds 1 1007 37 14484 10.3 280 00:54 23.04.2020
4440 Clouds 2 1007 37 14484 10.3 280 00:26 23.04.2020
4441 Clouds 2 1006 34 14484 11.8 290 23:57 22.04.2020
4442 Clouds 2 1006 34 14484 11.8 290 23:57 22.04.2020
4443 Clouds 2 1006 34 14484 11.8 290 23:38 22.04.2020
4444 Clouds 2 1006 34 14484 11.8 290 23:19 22.04.2020
4445 Clouds 2 1005 37 14484 11.8 280 22:40 22.04.2020
4446 Clouds 2 1005 37 14484 11.8 280 22:20 22.04.2020
4447 Clouds 2 1004 40 14484 12.3 290 21:58 22.04.2020
4448 Clouds 2 1004 40 14484 12.3 290 21:40 22.04.2020
4449 Clouds 2 1004 40 14484 12.3 290 21:40 22.04.2020
4450 Clouds 2 1004 40 14484 12.3 290 21:21 22.04.2020
4451 Clouds 2 1004 40 14484 12.3 290 21:21 22.04.2020
4452 Clouds 1 1004 70 14484 11.3 280 20:57 22.04.2020
4453 Clouds 1 1004 70 14484 11.3 280 20:39 22.04.2020
4454 Clouds 1 1004 70 14484 11.3 280 20:18 22.04.2020
4455 Clouds 1 1004 43 14484 10.3 270 19:57 22.04.2020
4456 Clouds 1 1004 43 14484 10.3 270 19:37 22.04.2020
4457 Clouds 0 1004 43 14484 10.3 270 19:18 22.04.2020
4458 Clouds 0 1004 43 14484 10.3 270 19:18 22.04.2020
4459 Clouds 0 1003 46 14484 13.4 270 18:56 22.04.2020
4460 Clouds 0 1003 46 14484 13.4 270 18:37 22.04.2020
4461 Clouds -1 1003 46 14484 13.4 270 18:19 22.04.2020
4462 Snow -2 1004 53 14484 11.3 270 17:43 22.04.2020
4463 Snow -3 1004 53 14484 11.3 270 17:25 22.04.2020
4464 Clouds -3 1004 49 14484 9.3 270 16:56 22.04.2020
4465 Clouds -3 1004 53 14484 8.2 290 16:36 22.04.2020
4466 Clouds -4 1004 53 14484 8.2 290 16:18 22.04.2020
4467 Clouds -4 1004 53 14484 8.2 290 16:18 22.04.2020
4468 Clouds -4 1004 53 14484 8.2 290 15:40 22.04.2020
4469 Clouds -4 1004 53 14484 8.2 290 15:21 22.04.2020
4470 Snow -5 1004 53 14484 9.3 280 14:57 22.04.2020
4471 Clouds -5 1003 49 14484 10.8 290 14:37 22.04.2020
4472 Clouds -5 1003 49 14484 10.8 290 14:19 22.04.2020
4473 Clouds -5 1002 53 14484 8.7 280 13:44 22.04.2020
4474 Clouds -5 1002 53 14484 8.7 280 13:20 22.04.2020
4475 Clouds -5 1001 57 14484 10.3 280 12:54 22.04.2020
4476 Clouds -5 1001 57 14484 10.3 280 12:54 22.04.2020
4477 Clouds -5 1001 57 14484 10.3 280 12:36 22.04.2020
4478 Clouds -5 1001 57 14484 10.3 280 12:18 22.04.2020
4479 Snow -4 1000 73 9656 9.3 280 11:40 22.04.2020
4480 Snow -4 1000 73 9656 9.3 280 11:20 22.04.2020
4481 Snow -3 1000 79 2012 8.7 280 10:57 22.04.2020
4482 Snow -3 999 63 14484 10.3 260 10:38 22.04.2020
4483 Snow -2 999 63 14484 10.3 260 10:18 22.04.2020
4484 Clouds -2 999 54 14484 8.2 280 09:39 22.04.2020
4485 Clouds -2 999 54 14484 8.2 280 09:19 22.04.2020
4486 Clouds -1 999 54 14484 7.7 270 08:54 22.04.2020
4487 Clouds -1 999 54 14484 7.7 270 08:36 22.04.2020
4488 Clouds -1 999 54 14484 7.7 270 08:18 22.04.2020
4489 Clouds -1 999 63 14484 7.7 270 07:46 22.04.2020
4490 Snow -1 999 87 14484 9.3 270 07:22 22.04.2020
4491 Rain 0 999 87 14484 7.7 270 06:45 22.04.2020
4492 Clouds 0 998 55 14484 8.7 260 05:47 22.04.2020
4493 Clouds 1 998 55 14484 8.7 260 05:27 22.04.2020
4494 Clear 2 998 55 14484 6.2 250 03:55 22.04.2020
4495 Clouds 2 997 51 14484 7.7 270 02:39 22.04.2020
4496 Clouds 3 996 64 14484 8.7 270 01:43 22.04.2020
4497 Clouds 3 996 64 14484 8.7 270 01:24 22.04.2020
4498 Rain 4 996 64 14484 11.8 290 00:47 22.04.2020
4499 Clouds 5 995 65 14484 6.2 260 00:22 22.04.2020
4500 Clouds 5 995 69 14484 6.7 260 23:56 21.04.2020
4501 Rain 5 995 64 14484 14.4 260 23:37 21.04.2020
4502 Rain 4 995 64 14484 14.4 260 23:18 21.04.2020
4503 Clouds 6 994 65 14484 8.7 260 22:40 21.04.2020
4504 Clouds 6 994 65 14484 8.7 260 22:21 21.04.2020
4505 Clouds 5 994 70 14484 9.3 270 21:58 21.04.2020
4506 Rain 6 993 56 14484 12.9 250 21:40 21.04.2020
4507 Rain 6 993 68 14484 12.9 250 21:22 21.04.2020
4508 Clouds 7 993 70 14484 7.2 250 20:54 21.04.2020
4509 Rain 7 992 80 14484 9.8 220 20:36 21.04.2020
4510 Rain 6 992 80 14484 9.8 220 20:18 21.04.2020
4511 Clouds 8 991 70 14484 7.2 220 19:40 21.04.2020
4512 Clouds 8 991 70 14484 7.2 220 19:19 21.04.2020
4513 Clouds 8 991 70 14484 7.2 220 19:19 21.04.2020
4514 Rain 6 991 86 9656 4.6 170 18:56 21.04.2020
4515 Rain 6 991 80 8047 5.1 170 18:38 21.04.2020
4516 Rain 6 991 80 8047 5.1 170 18:18 21.04.2020
4517 Rain 7 991 48 14484 11.3 200 17:41 21.04.2020
4518 Rain 7 991 48 14484 11.3 200 17:22 21.04.2020
4519 Clouds 7 990 36 14484 10.3 160 16:59 21.04.2020
4520 Clouds 7 990 36 14484 10.3 160 16:38 21.04.2020
4521 Clouds 7 990 36 14484 10.3 160 16:38 21.04.2020
4522 Clouds 7 990 36 14484 10.3 160 16:19 21.04.2020
4523 Clouds 7 991 39 14484 11.3 160 15:56 21.04.2020
4524 Clouds 6 993 45 14484 6.2 160 15:38 21.04.2020
4525 Clouds 6 993 45 14484 6.2 160 15:19 21.04.2020
4526 Clouds 4 995 51 14484 5.7 150 14:45 21.04.2020
4527 Clouds 3 995 51 14484 5.7 150 14:25 21.04.2020
4528 Clear 2 997 68 14484 3.1 100 13:59 21.04.2020
4529 Clouds 1 996 59 32767 4.1 100 13:40 21.04.2020
4530 Clouds 0 996 59 32767 4.1 100 13:22 21.04.2020
4531 Clouds -1 998 63 24140 2.6 110 12:54 21.04.2020
4532 Clouds -1 998 63 24140 2.6 110 12:36 21.04.2020
4533 Clouds -1 998 63 24140 2.6 110 12:18 21.04.2020
4534 Clouds -2 999 58 14484 2.1 130 11:55 21.04.2020
4535 Clouds -2 999 58 14484 2.1 130 11:36 21.04.2020
4536 Clouds -2 999 58 14484 2.1 130 11:18 21.04.2020
4537 Clear -1 1000 58 14484 3.1 120 10:55 21.04.2020
4538 Clear -1 1000 58 14484 3.1 120 10:36 21.04.2020
4539 Clear -1 1000 58 14484 3.1 120 10:36 21.04.2020
4540 Clear -1 1000 58 14484 3.1 120 10:18 21.04.2020
4541 Clear -1 1003 54 14484 1 130 09:37 21.04.2020
4542 Clear -1 1003 54 14484 1 130 09:18 21.04.2020
4543 Clear -1 1003 54 14484 1 130 08:56 21.04.2020
4544 Clear -1 1003 54 14484 1 130 08:38 21.04.2020
4545 Clear -1 1003 54 14484 1 130 08:18 21.04.2020
4546 Clear -1 1004 54 14484 1 130 07:43 21.04.2020
4547 Clear 0 1004 54 14484 1 130 07:21 21.04.2020
4548 Clear 0 1004 50 14484 1 80 06:44 21.04.2020
4549 Clear 0 1004 50 14484 1 80 06:19 21.04.2020
4550 Clear 0 1005 67 14484 1 110 05:48 21.04.2020
4551 Clear 2 1005 43 14484 1.5 80 03:48 21.04.2020
4552 Clear 2 1005 43 14484 1.5 80 03:27 21.04.2020
4553 Clear 4 1005 23 14484 2.6 90 01:46 21.04.2020
4554 Clear 5 1005 20 14484 1 0 00:53 21.04.2020
4555 Clear 6 1005 20 14484 1 0 00:32 21.04.2020
4556 Clear 6 1006 21 14484 1 0 23:44 20.04.2020
4557 Clear 6 1006 21 14484 1 0 23:25 20.04.2020
4558 Clear 6 1006 23 14484 2.6 0 22:57 20.04.2020
4559 Clear 6 1006 23 14484 2.6 0 22:38 20.04.2020
4560 Clear 6 1006 23 14484 2.6 0 22:19 20.04.2020
4561 Clear 5 1007 23 14484 1 0 21:57 20.04.2020
4562 Clear 5 1007 23 14484 1 0 21:38 20.04.2020
4563 Clear 5 1007 23 14484 1 0 21:19 20.04.2020
4564 Clear 5 1008 23 14484 1.5 0 20:58 20.04.2020
4565 Clouds 5 1008 29 32767 4.1 230 20:38 20.04.2020
4566 Clear 4 1008 23 14484 1.5 0 20:18 20.04.2020
4567 Clear 4 1008 23 14484 1.5 0 20:18 20.04.2020
4568 Clear 4 1008 23 14484 1.5 0 20:18 20.04.2020
4569 Clear 4 1009 32 14484 2.1 0 19:57 20.04.2020
4570 Clear 4 1009 32 14484 2.1 0 19:38 20.04.2020
4571 Clear 4 1009 32 14484 2.1 0 19:19 20.04.2020
4572 Clear 3 1009 31 14484 1.5 0 18:42 20.04.2020
4573 Clear 2 1009 31 14484 1.5 0 18:23 20.04.2020
4574 Clear 2 1010 37 14484 2.03 348 17:56 20.04.2020
4575 Clear 1 1010 37 14484 2.03 348 17:37 20.04.2020
4576 Clear 1 1010 37 14484 2.03 348 17:19 20.04.2020
4577 Clouds 1 1011 66 32767 1 0 16:58 20.04.2020
4578 Clouds 1 1011 66 32767 1 0 16:39 20.04.2020
4579 Clear 0 1011 42 14484 2.1 0 16:18 20.04.2020
4580 Clear -1 1011 50 14484 3.1 340 15:43 20.04.2020
4581 Clear -1 1011 50 14484 3.1 340 15:23 20.04.2020
4582 Clear -2 1011 50 14484 5.1 20 14:58 20.04.2020
4583 Clear -2 1011 50 14484 5.1 20 14:40 20.04.2020
4584 Clear -2 1011 50 14484 5.1 20 14:19 20.04.2020
4585 Clear -2 1012 53 14484 5.1 20 13:54 20.04.2020
4586 Clear -2 1012 53 14484 5.1 20 13:54 20.04.2020
4587 Clear -2 1012 53 14484 5.1 20 13:54 20.04.2020
4588 Clear -2 1012 53 14484 5.1 20 13:36 20.04.2020
4589 Clear -2 1012 53 14484 5.1 20 13:18 20.04.2020
4590 Clouds -3 1011 58 24140 4.1 350 12:42 20.04.2020
4591 Clear -3 1011 58 14484 2.6 360 12:21 20.04.2020
4592 Clear -2 1010 54 14484 4.1 330 11:42 20.04.2020
4593 Clear -2 1010 54 14484 4.1 330 11:22 20.04.2020
4594 Clouds -2 1009 54 14484 5.7 340 10:57 20.04.2020
4595 Clouds -2 1009 54 14484 5.7 340 10:39 20.04.2020
4596 Clouds -2 1009 54 14484 5.7 340 10:20 20.04.2020
4597 Clouds -1 1008 87 14484 7.7 330 09:58 20.04.2020
4598 Clouds -1 1008 87 14484 7.7 330 09:39 20.04.2020
4599 Clouds 0 1008 84 14484 7.7 330 09:21 20.04.2020
4600 Clouds 1 1006 69 14484 5.7 290 08:42 20.04.2020
4601 Clouds 1 1006 69 14484 5.7 290 08:23 20.04.2020
4602 Clear 1 1005 74 14484 7.7 290 07:53 20.04.2020
4603 Clear 2 1005 74 14484 7.7 290 07:29 20.04.2020
4604 Clear 2 1005 74 14484 7.7 290 07:29 20.04.2020
4605 Clear 2 1004 84 14484 6.7 280 06:58 20.04.2020
4606 Clear 2 1004 84 14484 6.7 280 06:37 20.04.2020
4607 Clouds 3 1002 80 14484 5.7 280 05:45 20.04.2020
4608 Clouds 4 1002 80 24140 6.2 290 04:33 20.04.2020
4609 Clouds 7 1000 87 14484 7.2 230 02:47 20.04.2020
4610 Clouds 7 1000 87 14484 7.2 230 02:26 20.04.2020
4611 Rain 7 1000 93 6437 7.7 230 01:29 20.04.2020
4612 Clouds 7 1000 81 14484 5.7 230 00:44 20.04.2020
4613 Clouds 7 1000 81 14484 5.7 230 00:20 20.04.2020
4614 Rain 7 1000 81 14484 9.3 250 23:39 19.04.2020
4615 Rain 7 1000 81 14484 9.3 250 23:21 19.04.2020
4616 Rain 7 1000 81 14484 9.8 240 22:55 19.04.2020
4617 Rain 7 1000 81 14484 9.8 240 22:55 19.04.2020
4618 Rain 7 1001 81 14484 11.3 250 22:37 19.04.2020
4619 Rain 7 1001 81 14484 11.3 250 22:19 19.04.2020
4620 Rain 7 1001 87 14484 9.3 250 21:42 19.04.2020
4621 Rain 7 1001 87 14484 9.3 250 21:23 19.04.2020
4622 Rain 8 1001 81 14484 9.3 240 20:58 19.04.2020
4623 Rain 8 1001 81 16093 7.2 250 20:39 19.04.2020
4624 Rain 8 1001 70 14484 6.7 250 20:20 19.04.2020
4625 Rain 9 1000 53 14484 6.7 260 19:56 19.04.2020
4626 Rain 9 1000 53 14484 6.7 260 19:38 19.04.2020
4627 Rain 9 1000 53 14484 6.7 260 19:20 19.04.2020
4628 Clouds 10 1001 84 14484 9.3 260 18:56 19.04.2020
4629 Clouds 10 1001 84 14484 9.3 260 18:38 19.04.2020
4630 Clouds 10 1001 56 14484 9.3 260 18:18 19.04.2020
4631 Clouds 11 1001 46 14484 9.8 250 17:56 19.04.2020
4632 Clouds 11 1001 46 14484 9.8 250 17:37 19.04.2020
4633 Clouds 11 1001 46 14484 9.8 250 17:19 19.04.2020
4634 Clear 11 1002 56 14484 6.2 190 16:40 19.04.2020
4635 Clear 11 1002 56 14484 6.2 190 16:21 19.04.2020
4636 Clouds 11 1003 49 32767 6.7 220 15:59 19.04.2020
4637 Clear 9 1003 52 14484 6.2 190 15:40 19.04.2020
4638 Clear 8 1003 52 14484 6.2 190 15:19 19.04.2020
4639 Clear 8 1003 52 14484 6.2 190 15:19 19.04.2020
4640 Clear 6 1004 60 14484 4.6 180 14:39 19.04.2020
4641 Clear 6 1004 60 14484 4.6 180 14:21 19.04.2020
4642 Clear 5 1005 69 14484 3.6 180 13:58 19.04.2020
4643 Clouds 4 1004 65 32767 3.1 190 13:37 19.04.2020
4644 Clear 4 1005 69 14484 3.6 180 13:19 19.04.2020
4645 Clear 3 1005 69 14484 3.6 170 12:46 19.04.2020
4646 Clear 3 1005 69 14484 3.6 170 12:25 19.04.2020
4647 Clear 3 1005 64 14484 4.1 170 11:55 19.04.2020
4648 Clear 3 1005 64 14484 4.1 170 11:37 19.04.2020
4649 Clear 3 1005 64 14484 4.1 170 11:18 19.04.2020
4650 Clear 3 1006 64 14484 4.1 200 10:55 19.04.2020
4651 Clear 3 1006 64 14484 4.1 200 10:37 19.04.2020
4652 Clear 3 1006 64 14484 4.1 200 10:18 19.04.2020
4653 Clear 3 1006 69 14484 4.6 220 09:43 19.04.2020
4654 Clear 3 1006 69 14484 4.6 220 09:25 19.04.2020
4655 Clear 3 1007 59 14484 4.1 230 08:40 19.04.2020
4656 Clear 4 1007 59 14484 4.1 230 08:21 19.04.2020
4657 Clear 4 1007 55 14484 5.1 220 07:58 19.04.2020
4658 Clear 4 1007 55 14484 5.1 220 07:39 19.04.2020
4659 Clear 4 1007 55 14484 5.1 220 07:21 19.04.2020
4660 Clouds 5 1008 55 14484 5.1 220 06:27 19.04.2020
4661 Clear 5 1008 52 14484 7.2 220 05:46 19.04.2020
4662 Clear 6 1008 44 14484 5.1 230 04:22 19.04.2020
4663 Clear 7 1007 41 14484 3.6 230 02:55 19.04.2020
4664 Clear 7 1007 41 14484 3.6 230 02:20 19.04.2020
4665 Clear 8 1007 33 14484 5.1 230 01:37 19.04.2020
4666 Clear 9 1007 31 14484 5.7 260 00:42 19.04.2020
4667 Clear 10 1007 31 14484 5.7 260 00:22 19.04.2020
4668 Clouds 10 1007 31 14484 6.2 240 23:46 18.04.2020
4669 Clouds 10 1007 31 14484 6.2 240 23:21 18.04.2020
4670 Clouds 10 1008 31 24140 5.1 190 22:58 18.04.2020
4671 Clouds 9 1008 31 14484 4.6 270 22:38 18.04.2020
4672 Clouds 9 1008 31 14484 4.6 270 22:20 18.04.2020
4673 Clouds 10 1008 29 14484 6.7 220 21:56 18.04.2020
4674 Clouds 10 1008 29 14484 6.7 220 21:37 18.04.2020
4675 Clouds 9 1008 29 14484 6.7 220 21:19 18.04.2020
4676 Clouds 9 1009 29 14484 4.1 190 20:40 18.04.2020
4677 Clouds 9 1009 29 14484 4.1 190 20:22 18.04.2020
4678 Clouds 9 1010 34 14484 3.6 0 19:54 18.04.2020
4679 Clouds 9 1010 34 14484 3.6 0 19:36 18.04.2020
4680 Clouds 8 1010 34 14484 3.6 0 19:18 18.04.2020
4681 Clouds 8 1011 33 14484 1 0 18:37 18.04.2020
4682 Clouds 8 1011 33 14484 1 0 18:19 18.04.2020
4683 Clouds 7 1012 39 14484 2.1 150 17:43 18.04.2020
4684 Clouds 8 1012 39 14484 2.1 150 17:21 18.04.2020
4685 Clear 7 1012 44 14484 2.1 170 16:57 18.04.2020
4686 Clear 7 1012 44 14484 2.1 170 16:38 18.04.2020
4687 Clear 7 1012 44 14484 2.1 170 16:19 18.04.2020
4688 Clear 5 1013 59 14484 1 0 15:39 18.04.2020
4689 Clear 3 1013 59 14484 1 0 15:21 18.04.2020
4690 Clear 3 1013 73 14484 0.6 169 14:46 18.04.2020
4691 Clear 2 1013 74 14484 0.2 133 14:27 18.04.2020
4692 Clouds 1 1012 74 32767 0.2 133 13:58 18.04.2020
4693 Clouds 1 1012 74 32767 0.2 133 13:40 18.04.2020
4694 Clear -1 1012 92 14484 1 80 13:19 18.04.2020
4695 Clouds -2 1012 79 32767 1 100 12:42 18.04.2020
4696 Clouds -2 1012 79 32767 1 100 12:42 18.04.2020
4697 Clear -2 1012 79 14484 0.93 182 12:23 18.04.2020
4698 Clear -2 1012 79 14484 1 150 11:56 18.04.2020
4699 Clear -2 1012 79 14484 1 150 11:37 18.04.2020
4700 Clear -2 1012 79 14484 1 150 11:19 18.04.2020
4701 Clear -2 1012 73 14484 1 120 10:41 18.04.2020
4702 Clear -2 1012 73 14484 1 120 10:19 18.04.2020
4703 Clear -2 1013 73 14484 1 110 09:58 18.04.2020
4704 Clear -2 1013 73 14484 1 110 09:38 18.04.2020
4705 Clear -2 1013 73 14484 1 110 09:20 18.04.2020
4706 Clear -2 1013 73 14484 1 130 08:42 18.04.2020
4707 Clear -1 1013 73 14484 1 130 08:21 18.04.2020
4708 Clear -1 1014 68 14484 1.5 150 07:42 18.04.2020
4709 Clear -1 1014 68 14484 1.5 150 07:20 18.04.2020
4710 Clear 1 1015 79 14484 2.1 200 06:39 18.04.2020
4711 Clouds 1 1015 75 14484 1.5 180 05:48 18.04.2020
4712 Clouds 1 1016 75 14484 2.94 240 04:54 18.04.2020
4713 Clouds 1 1016 75 14484 2.94 240 04:29 18.04.2020
4714 Clouds 3 1015 35 14484 5.7 290 02:59 18.04.2020
4715 Clouds 3 1015 35 14484 5.7 290 02:40 18.04.2020
4716 Clouds 4 1015 35 14484 5.7 290 02:20 18.04.2020
4717 Clouds 4 1015 38 14484 5.7 260 01:37 18.04.2020
4718 Clouds 5 1015 35 14484 5.1 260 00:54 18.04.2020
4719 Clouds 6 1015 35 14484 5.1 260 00:24 18.04.2020
4720 Clouds 6 1015 33 14484 6.2 270 23:58 17.04.2020
4721 Clouds 6 1015 33 14484 6.2 270 23:40 17.04.2020
4722 Clouds 6 1015 33 14484 6.2 270 23:19 17.04.2020
4723 Clouds 5 1016 35 14484 5.1 270 22:58 17.04.2020
4724 Clouds 5 1016 35 14484 5.1 270 22:40 17.04.2020
4725 Clouds 5 1016 35 14484 5.1 270 22:19 17.04.2020
4726 Clouds 5 1016 44 14484 7.7 290 21:56 17.04.2020
4727 Rain 5 1016 48 14484 8.2 250 21:37 17.04.2020
4728 Rain 5 1016 48 14484 8.2 250 21:18 17.04.2020
4729 Clouds 5 1017 44 14484 8.2 260 20:54 17.04.2020
4730 Clouds 5 1017 44 14484 6.7 270 20:36 17.04.2020
4731 Clouds 5 1017 44 14484 6.7 270 20:18 17.04.2020
4732 Clouds 5 1017 44 14484 8.7 250 19:42 17.04.2020
4733 Clouds 5 1017 44 14484 8.7 250 19:23 17.04.2020
4734 Clouds 5 1018 44 14484 12.3 260 18:45 17.04.2020
4735 Clouds 4 1018 44 14484 7.2 250 18:24 17.04.2020
4736 Haze 4 1018 44 9656 10.3 240 17:58 17.04.2020
4737 Rain 3 1019 47 14484 6.7 250 17:37 17.04.2020
4738 Rain 3 1019 47 14484 6.7 250 17:18 17.04.2020
4739 Clouds 3 1018 51 14484 7.7 260 16:44 17.04.2020
4740 Clouds 3 1018 51 14484 7.7 260 16:23 17.04.2020
4741 Clouds 3 1019 55 14484 7.2 260 15:55 17.04.2020
4742 Clouds 2 1019 55 14484 7.2 260 15:37 17.04.2020
4743 Clouds 2 1019 55 14484 7.2 260 15:18 17.04.2020
4744 Clear 2 1019 59 14484 7.7 250 14:40 17.04.2020
4745 Clear 1 1019 59 14484 7.7 250 14:22 17.04.2020
4746 Clear 0 1018 68 14484 5.7 250 13:56 17.04.2020
4747 Clear 0 1018 68 14484 5.7 250 13:37 17.04.2020
4748 Clear 0 1018 68 14484 5.7 250 13:18 17.04.2020
4749 Clear -1 1018 63 14484 7.2 250 12:46 17.04.2020
4750 Clear -1 1018 63 14484 7.2 250 12:25 17.04.2020
4751 Clear -1 1017 63 14484 6.7 250 11:42 17.04.2020
4752 Clear -1 1017 63 14484 6.7 250 11:20 17.04.2020
4753 Clear -1 1018 63 14484 6.7 240 10:57 17.04.2020
4754 Clear -1 1018 63 14484 6.7 240 10:39 17.04.2020
4755 Clear -1 1018 63 14484 6.7 240 10:19 17.04.2020
4756 Clear -1 1017 85 14484 6.7 250 09:41 17.04.2020
4757 Clear -1 1017 79 14484 6.7 250 09:22 17.04.2020
4758 Clear 0 1017 76 0 1.34 270 08:59 17.04.2020
4759 Clear 0 1017 77 0 0.89 248 08:40 17.04.2020
4760 Clear 0 1017 79 14484 7.2 240 08:21 17.04.2020
4761 Clear 0 1017 79 14484 7.2 240 07:44 17.04.2020
4762 Clear 0 1017 79 14484 7.2 240 07:24 17.04.2020
4763 Clear 0 1017 79 14484 6.7 240 06:50 17.04.2020
4764 Clear 0 1017 78 14484 6.7 240 06:23 17.04.2020
4765 Clear 0 1017 78 14484 5.1 230 05:38 17.04.2020
4766 Clear 2 1016 43 14484 1.5 280 03:21 17.04.2020
4767 Clear 2 1015 34 14484 5.1 280 02:34 17.04.2020
4768 Clouds 3 1015 32 14484 9.3 280 01:30 17.04.2020
4769 Clouds 4 1015 41 14484 7.2 280 00:58 17.04.2020
4770 Clouds 4 1014 51 14484 8.2 230 00:20 17.04.2020
4771 Clouds 4 1014 51 14484 8.2 230 23:45 16.04.2020
4772 Clouds 4 1014 51 14484 8.2 230 23:23 16.04.2020
4773 Clouds 4 1014 60 14484 13.4 240 22:58 16.04.2020
4774 Clouds 4 1014 60 14484 13.4 240 22:39 16.04.2020
4775 Clouds 4 1014 60 14484 13.4 240 22:20 16.04.2020
4776 Clouds 4 1015 64 14484 6.7 270 21:56 16.04.2020
4777 Clouds 5 1015 44 24140 9.8 260 21:38 16.04.2020
4778 Snow 4 1015 48 16093 9.3 260 21:18 16.04.2020
4779 Clouds 4 1015 52 14484 8.7 250 20:41 16.04.2020
4780 Clouds 4 1015 52 14484 8.7 250 20:22 16.04.2020
4781 Clouds 4 1015 59 14484 9.3 230 19:56 16.04.2020
4782 Rain 3 1015 74 9656 6.7 230 19:38 16.04.2020
4783 Clouds 3 1015 80 14484 5.7 230 19:19 16.04.2020
4784 Clouds 3 1015 55 14484 9.8 250 18:45 16.04.2020
4785 Clouds 3 1015 55 14484 9.8 250 18:26 16.04.2020
4786 Clear 3 1016 51 14484 7.7 260 17:58 16.04.2020
4787 Clear 3 1016 51 14484 7.7 260 17:40 16.04.2020
4788 Clear 3 1016 51 14484 7.7 260 17:21 16.04.2020
4789 Clear 3 1016 59 14484 6.2 230 16:45 16.04.2020
4790 Clear 3 1016 59 14484 6.2 230 16:45 16.04.2020
4791 Clear 3 1016 59 14484 6.2 230 16:26 16.04.2020
4792 Clear 2 1016 69 14484 3.6 240 15:58 16.04.2020
4793 Clear 2 1016 69 14484 3.6 240 15:39 16.04.2020
4794 Clear 1 1016 78 14484 3.6 230 15:19 16.04.2020
4795 Clear 0 1016 78 14484 3.6 230 14:55 16.04.2020
4796 Clear 0 1016 79 14484 3.6 230 14:37 16.04.2020
4797 Clear -1 1015 86 14484 3.6 240 14:18 16.04.2020
4798 Clear -2 1015 86 14484 3.6 240 13:41 16.04.2020
4799 Clear -2 1015 86 14484 3.6 240 13:23 16.04.2020
4800 Clear -3 1015 79 14484 2.1 230 12:58 16.04.2020
4801 Clear -3 1015 79 14484 2.1 230 12:39 16.04.2020
4802 Clear -3 1015 79 14484 2.1 230 12:39 16.04.2020
4803 Clear -3 1014 79 14484 2.1 260 12:20 16.04.2020
4804 Clear -3 1014 79 14484 2.1 260 12:20 16.04.2020
4805 Clear -3 1014 79 14484 2.1 260 11:59 16.04.2020
4806 Clear -3 1014 79 14484 2.1 260 11:41 16.04.2020
4807 Clear -3 1014 79 14484 2.1 260 11:21 16.04.2020
4808 Clear -2 1014 79 14484 3.1 280 10:56 16.04.2020
4809 Clear -2 1014 79 14484 3.1 280 10:38 16.04.2020
4810 Clouds -2 1013 74 14484 3.1 270 10:18 16.04.2020
4811 Clouds -2 1013 74 14484 3.1 270 09:54 16.04.2020
4812 Clouds -2 1013 74 14484 3.1 270 09:36 16.04.2020
4813 Clear -2 1013 74 14484 3.6 270 09:18 16.04.2020
4814 Clear -1 1013 74 14484 3.6 270 08:41 16.04.2020
4815 Clear -1 1013 74 14484 3.6 270 08:21 16.04.2020
4816 Clear -1 1013 80 14484 4.6 260 07:46 16.04.2020
4817 Clear -1 1013 80 14484 4.6 260 07:26 16.04.2020
4818 Clouds -1 1013 82 14484 5.1 250 06:43 16.04.2020
4819 Clouds -1 1013 79 14484 5.1 250 06:25 16.04.2020
4820 Clouds 0 1012 79 14484 4.6 250 05:34 16.04.2020
4821 Clouds 0 1012 69 14484 6.7 250 03:53 16.04.2020
4822 Clouds 1 1012 69 14484 6.7 250 03:23 16.04.2020
4823 Clouds 1 1011 51 14484 4.6 240 02:47 16.04.2020
4824 Clouds 2 1011 51 14484 4.6 240 02:28 16.04.2020
4825 Clouds 3 1010 27 14484 7.2 270 01:19 16.04.2020
4826 Clouds 4 1010 27 14484 7.2 270 00:32 16.04.2020
4827 Clouds 5 1009 30 14484 6.7 260 23:59 15.04.2020
4828 Clouds 5 1009 30 14484 6.7 260 23:41 15.04.2020
4829 Clouds 5 1009 30 14484 6.7 260 23:21 15.04.2020
4830 Clouds 5 1009 27 14484 12.9 260 22:41 15.04.2020
4831 Clouds 5 1009 27 14484 12.9 260 22:22 15.04.2020
4832 Clouds 5 1010 30 14484 10.8 270 21:59 15.04.2020
4833 Clouds 5 1010 30 14484 10.8 270 21:41 15.04.2020
4834 Clouds 5 1010 30 14484 10.8 270 21:22 15.04.2020
4835 Clouds 5 1011 32 14484 8.7 250 20:58 15.04.2020
4836 Clouds 5 1011 32 14484 8.7 250 20:58 15.04.2020
4837 Clouds 5 1011 32 14484 8.7 250 20:40 15.04.2020
4838 Clouds 5 1011 32 14484 8.7 250 20:40 15.04.2020
4839 Clouds 5 1011 32 14484 8.7 250 20:22 15.04.2020
4840 Clouds 5 1011 38 14484 8.7 260 19:46 15.04.2020
4841 Clouds 4 1011 40 14484 8.7 280 19:21 15.04.2020
4842 Clouds 4 1011 40 14484 8.7 280 18:57 15.04.2020
4843 Clouds 4 1011 40 14484 8.7 280 18:39 15.04.2020
4844 Clouds 4 1012 44 14484 10.3 230 18:21 15.04.2020
4845 Clouds 4 1012 44 14484 10.3 230 17:55 15.04.2020
4846 Clouds 3 1012 44 14484 10.3 230 17:36 15.04.2020
4847 Clouds 3 1012 44 14484 10.3 230 17:36 15.04.2020
4848 Clouds 3 1012 51 14484 9.3 230 17:18 15.04.2020
4849 Clouds 3 1012 51 14484 9.3 230 16:54 15.04.2020
4850 Clouds 3 1012 51 14484 9.3 230 16:36 15.04.2020
4851 Clouds 2 1012 59 14484 9.8 240 16:18 15.04.2020
4852 Clouds 2 1012 59 14484 9.8 240 15:55 15.04.2020
4853 Clouds 2 1012 59 14484 9.8 240 15:36 15.04.2020
4854 Clouds 2 1012 64 14484 9.8 250 15:18 15.04.2020
4855 Clouds 1 1012 64 14484 9.8 250 14:42 15.04.2020
4856 Clouds 1 1012 64 14484 9.8 250 14:23 15.04.2020
4857 Clouds 1 1012 81 14484 9.3 250 14:00 15.04.2020
4858 Clouds 0 1012 81 14484 9.3 250 13:40 15.04.2020
4859 Clouds 0 1012 81 14484 9.3 250 13:21 15.04.2020
4860 Clouds 0 1012 64 14484 8.2 260 12:59 15.04.2020
4861 Clouds 0 1012 64 14484 8.2 260 12:40 15.04.2020
4862 Clouds 0 1012 64 14484 8.2 260 12:22 15.04.2020
4863 Clouds 1 1012 74 14484 8.7 250 11:58 15.04.2020
4864 Clouds 1 1012 74 14484 8.7 250 11:38 15.04.2020
4865 Clouds 1 1012 74 14484 8.7 250 11:20 15.04.2020
4866 Clouds 1 1012 74 14484 7.2 250 10:38 15.04.2020
4867 Clouds 1 1012 74 14484 9.8 240 10:20 15.04.2020
4868 Clouds 1 1012 74 14484 9.8 240 09:57 15.04.2020
4869 Clouds 1 1012 69 14484 10.3 240 09:38 15.04.2020
4870 Clouds 2 1012 69 14484 10.3 240 09:20 15.04.2020
4871 Clouds 2 1012 47 14484 9.3 230 08:55 15.04.2020
4872 Clouds 3 1012 47 14484 9.3 230 08:36 15.04.2020
4873 Clouds 3 1013 51 14484 3.6 180 08:18 15.04.2020
4874 Clouds 2 1013 51 14484 3.6 180 07:46 15.04.2020
4875 Clouds 2 1013 51 14484 3.6 180 07:27 15.04.2020
4876 Clouds 3 1013 44 14484 5.7 220 06:29 15.04.2020
4877 Clouds 4 1014 44 14484 5.7 220 05:50 15.04.2020
4878 Clouds 4 1014 44 14484 5.7 240 04:48 15.04.2020
4879 Clouds 4 1014 44 14484 5.7 240 04:23 15.04.2020
4880 Clouds 5 1014 44 14484 6.2 240 03:23 15.04.2020
4881 Clouds 5 1014 44 14484 6.7 230 02:52 15.04.2020
4882 Clouds 6 1013 35 14484 6.7 240 01:54 15.04.2020
4883 Clouds 6 1013 35 14484 6.7 240 01:25 15.04.2020
4884 Clouds 7 1014 38 14484 7.7 240 00:51 15.04.2020
4885 Clouds 7 1014 38 14484 7.7 240 00:30 15.04.2020
4886 Clouds 7 1014 39 14484 9.8 250 23:57 14.04.2020
4887 Clouds 7 1014 39 14484 9.8 250 23:38 14.04.2020
4888 Clouds 7 1014 39 14484 9.8 250 23:20 14.04.2020
4889 Clouds 7 1014 38 14484 9.8 240 22:58 14.04.2020
4890 Clouds 7 1014 38 14484 9.8 240 22:39 14.04.2020
4891 Clouds 7 1014 38 14484 9.8 240 22:21 14.04.2020
4892 Clouds 7 1015 38 14484 8.2 240 21:57 14.04.2020
4893 Clouds 7 1015 38 14484 8.2 240 21:39 14.04.2020
4894 Clouds 7 1015 38 14484 8.2 240 21:20 14.04.2020
4895 Clouds 7 1015 38 32767 11.3 250 20:59 14.04.2020
4896 Clouds 7 1015 38 32767 11.3 250 20:40 14.04.2020
4897 Clouds 7 1015 38 32767 8.7 250 20:21 14.04.2020
4898 Clouds 7 1015 38 32767 8.7 250 20:21 14.04.2020
4899 Clouds 6 1015 45 14484 8.7 260 19:41 14.04.2020
4900 Clouds 6 1015 45 14484 8.7 260 19:23 14.04.2020
4901 Clouds 6 1015 41 14484 9.3 270 18:59 14.04.2020
4902 Clouds 6 1015 41 14484 9.3 270 18:41 14.04.2020
4903 Clouds 6 1015 41 14484 9.3 270 18:22 14.04.2020
4904 Clouds 6 1015 41 14484 8.2 270 17:58 14.04.2020
4905 Clouds 6 1015 41 14484 8.2 270 17:39 14.04.2020
4906 Clouds 5 1015 41 14484 8.2 270 17:20 14.04.2020
4907 Clouds 5 1014 44 14484 11.3 270 16:57 14.04.2020
4908 Clouds 5 1014 44 14484 11.3 270 16:38 14.04.2020
4909 Clouds 5 1014 44 14484 11.3 270 16:20 14.04.2020
4910 Clouds 5 1014 44 14484 11.3 270 16:20 14.04.2020
4911 Clouds 4 1014 48 14484 12.3 280 15:56 14.04.2020
4912 Clouds 4 1014 48 14484 12.3 280 15:38 14.04.2020
4913 Clear 4 1014 59 14484 9.8 260 15:18 14.04.2020
4914 Clear 4 1014 59 14484 9.8 260 14:57 14.04.2020
4915 Clear 4 1014 59 14484 9.8 260 14:38 14.04.2020
4916 Clear 3 1014 59 14484 9.8 260 14:20 14.04.2020
4917 Clouds 3 1013 51 14484 9.8 260 13:43 14.04.2020
4918 Clouds 3 1013 51 14484 9.8 260 13:24 14.04.2020
4919 Clouds 3 1012 55 14484 11.3 250 12:56 14.04.2020
4920 Clouds 3 1012 55 14484 11.3 250 12:38 14.04.2020
4921 Clear 3 1011 55 14484 12.3 250 12:19 14.04.2020
4922 Clear 3 1011 55 14484 12.3 250 11:41 14.04.2020
4923 Clear 3 1011 55 14484 12.3 250 11:41 14.04.2020
4924 Clear 3 1011 55 14484 12.3 250 11:22 14.04.2020
4925 Clear 3 1011 59 14484 9.3 250 10:56 14.04.2020
4926 Clear 3 1011 59 14484 9.3 250 10:38 14.04.2020
4927 Clear 4 1011 59 14484 9.3 250 10:20 14.04.2020
4928 Clouds 4 1009 51 14484 13.4 250 09:42 14.04.2020
4929 Clouds 4 1009 51 14484 13.4 250 09:23 14.04.2020
4930 Clouds 4 1008 60 14484 13.4 240 08:56 14.04.2020
4931 Clouds 4 1008 60 14484 13.4 240 08:37 14.04.2020
4932 Clouds 5 1006 60 14484 15.9 250 08:19 14.04.2020
4933 Clouds 3 1008 73 0 8.91 244 07:51 14.04.2020
4934 Clouds 3 1008 73 0 8.91 244 07:26 14.04.2020
4935 Clouds 6 1005 70 14484 13.4 240 06:45 14.04.2020
4936 Clouds 7 1001 65 14484 20.1 250 05:52 14.04.2020
4937 Clouds 12 995 87 14484 19.5 240 03:48 14.04.2020
4938 Rain 15 992 93 9656 11.8 240 02:40 14.04.2020
4939 Rain 15 990 93 14484 8.2 230 01:29 14.04.2020
4940 Rain 15 989 100 6437 9.3 190 00:59 14.04.2020
4941 Rain 15 988 93 14484 7.7 180 00:32 14.04.2020
4942 Rain 15 988 93 11265 9.3 180 23:59 13.04.2020
4943 Rain 15 988 93 11265 9.3 180 23:39 13.04.2020
4944 Rain 15 989 93 8047 10.3 180 23:20 13.04.2020
4945 Rain 15 989 93 8047 10.3 180 22:55 13.04.2020
4946 Rain 15 990 87 9656 7.7 180 22:37 13.04.2020
4947 Rain 15 990 87 8047 8.7 170 22:18 13.04.2020
4948 Clouds 15 991 87 14484 10.8 170 21:42 13.04.2020
4949 Clouds 15 991 87 14484 10.8 170 21:21 13.04.2020
4950 Rain 14 993 87 14484 10.8 170 20:59 13.04.2020
4951 Rain 14 993 87 14484 10.8 170 20:40 13.04.2020
4952 Rain 14 994 82 14484 10.8 170 20:20 13.04.2020
4953 Rain 14 994 82 14484 10.8 170 19:58 13.04.2020
4954 Rain 14 994 82 14484 10.8 170 19:37 13.04.2020
4955 Rain 14 994 82 14484 10.8 170 19:37 13.04.2020
4956 Rain 14 995 82 14484 11.3 180 19:19 13.04.2020
4957 Rain 14 995 82 14484 11.3 180 19:19 13.04.2020
4958 Rain 13 995 82 14484 11.3 180 18:57 13.04.2020
4959 Clouds 13 995 82 14484 11.8 170 18:38 13.04.2020
4960 Clouds 13 996 87 14484 8.7 160 18:19 13.04.2020
4961 Clouds 12 996 87 14484 8.7 160 17:57 13.04.2020
4962 Rain 12 997 93 11265 8.2 150 17:37 13.04.2020
4963 Rain 11 998 93 9656 7.2 140 17:19 13.04.2020
4964 Rain 11 998 93 9656 7.2 140 16:58 13.04.2020
4965 Rain 11 998 93 12874 9.3 130 16:39 13.04.2020
4966 Rain 11 999 93 9656 8.7 120 16:20 13.04.2020
4967 Rain 10 999 93 9656 8.7 120 15:57 13.04.2020
4968 Rain 10 1001 93 8047 7.7 140 15:38 13.04.2020
4969 Rain 10 1001 93 8047 7.7 140 15:20 13.04.2020
4970 Rain 9 1003 87 14484 7.2 140 14:42 13.04.2020
4971 Rain 9 1003 87 14484 7.2 140 14:24 13.04.2020
4972 Rain 9 1006 87 14484 5.1 110 13:57 13.04.2020
4973 Rain 9 1006 87 14484 5.1 110 13:39 13.04.2020
4974 Rain 8 1006 87 14484 5.1 110 13:21 13.04.2020
4975 Rain 8 1008 70 14484 6.2 140 12:59 13.04.2020
4976 Rain 8 1008 70 14484 6.2 140 12:40 13.04.2020
4977 Rain 8 1008 57 14484 6.2 130 12:20 13.04.2020
4978 Rain 9 1008 57 14484 6.2 130 11:58 13.04.2020
4979 Clouds 9 1008 57 14484 3.6 120 11:40 13.04.2020
4980 Clouds 9 1011 57 14484 3.6 130 11:18 13.04.2020
4981 Clouds 9 1011 57 14484 3.6 130 10:55 13.04.2020
4982 Clouds 9 1011 57 14484 3.6 130 10:37 13.04.2020
4983 Clouds 9 1012 72 14484 2.6 120 10:18 13.04.2020
4984 Clouds 9 1012 65 14484 2.6 120 09:44 13.04.2020
4985 Clouds 9 1012 64 14484 2.6 120 09:26 13.04.2020
4986 Clouds 8 1012 66 14484 3.6 120 08:48 13.04.2020
4987 Clouds 8 1012 66 14484 3.6 120 08:48 13.04.2020
4988 Clouds 9 1012 66 14484 3.6 120 08:29 13.04.2020
4989 Clouds 9 1013 66 14484 4.1 120 07:58 13.04.2020
4990 Clouds 9 1013 66 14484 4.1 120 07:38 13.04.2020
4991 Clouds 9 1015 66 14484 3.1 120 07:20 13.04.2020
4992 Clouds 9 1015 66 14484 3.1 120 06:47 13.04.2020
4993 Clouds 10 1016 57 14484 3.1 120 05:59 13.04.2020
4994 Clouds 10 1016 57 14484 3.1 120 05:28 13.04.2020
4995 Clouds 10 1016 53 14484 2.6 120 04:52 13.04.2020
4996 Clouds 10 1016 53 14484 2.6 120 04:22 13.04.2020
4997 Clouds 10 1016 62 14484 3.1 140 03:46 13.04.2020
4998 Clouds 10 1016 65 14484 4.1 170 02:50 13.04.2020
4999 Clouds 11 1016 63 14484 4.6 170 01:54 13.04.2020
5000 Clouds 11 1016 63 14484 4.6 170 01:36 13.04.2020
5001 Clouds 12 1016 43 14484 2.6 170 00:58 13.04.2020
5002 Clouds 13 1016 43 14484 2.6 170 00:39 13.04.2020
5003 Clouds 13 1016 43 14484 3.1 180 00:18 13.04.2020
5004 Clouds 13 1016 43 14484 3.1 180 23:45 12.04.2020
5005 Clouds 13 1016 43 14484 3.1 180 23:22 12.04.2020
5006 Clouds 13 1016 41 14484 4.1 190 22:58 12.04.2020
5007 Clouds 13 1016 41 14484 4.1 190 22:37 12.04.2020
5008 Clouds 14 1016 43 14484 3.1 190 22:19 12.04.2020
5009 Clouds 14 1016 43 14484 3.1 190 21:40 12.04.2020
5010 Clouds 13 1016 41 14484 5.7 170 21:21 12.04.2020
5011 Clouds 13 1016 41 14484 5.7 170 20:57 12.04.2020
5012 Clouds 13 1016 41 14484 5.7 170 20:38 12.04.2020
5013 Clouds 12 1016 41 14484 5.7 170 20:20 12.04.2020
5014 Clouds 12 1016 41 14484 6.7 190 19:55 12.04.2020
5015 Clouds 12 1016 41 14484 6.7 190 19:36 12.04.2020
5016 Clouds 12 1016 41 14484 7.7 170 19:18 12.04.2020
5017 Clouds 12 1016 41 14484 7.7 170 18:40 12.04.2020
5018 Clouds 10 1017 53 14484 7.2 180 18:21 12.04.2020
5019 Clouds 10 1017 53 14484 7.2 180 17:56 12.04.2020
5020 Clouds 10 1017 53 14484 7.2 180 17:38 12.04.2020
5021 Clouds 9 1017 60 14484 6.2 170 17:19 12.04.2020
5022 Clouds 8 1017 60 14484 6.2 170 16:56 12.04.2020
5023 Clouds 8 1017 60 14484 6.2 170 16:37 12.04.2020
5024 Clouds 7 1017 65 14484 4.1 180 16:19 12.04.2020
5025 Clouds 6 1017 65 14484 4.1 180 15:42 12.04.2020
5026 Clouds 4 1017 65 14484 4.1 180 15:22 12.04.2020
5027 Clouds 3 1017 69 14484 3.1 190 14:41 12.04.2020
5028 Clouds 3 1017 69 14484 3.1 190 14:22 12.04.2020
5029 Clouds 1 1017 81 14484 3.1 190 13:58 12.04.2020
5030 Clouds 1 1017 81 14484 3.1 190 13:40 12.04.2020
5031 Clouds 1 1017 81 14484 3.1 190 13:21 12.04.2020
5032 Clouds 0 1016 81 14484 3.6 190 12:47 12.04.2020
5033 Clouds 0 1016 87 14484 3.6 190 12:22 12.04.2020
5034 Clouds 0 1016 87 14484 3.6 190 11:59 12.04.2020
5035 Clouds 0 1016 87 14484 3.6 190 11:40 12.04.2020
5036 Clouds 0 1016 87 14484 3.6 190 11:21 12.04.2020
5037 Clouds 0 1016 87 14484 3.6 190 11:21 12.04.2020
5038 Clouds 0 1015 69 14484 3.6 200 10:58 12.04.2020
5039 Clouds 0 1015 69 14484 3.6 200 10:39 12.04.2020
5040 Clouds 1 1015 69 14484 3.6 200 10:21 12.04.2020
5041 Clouds 1 1015 69 14484 3.6 200 10:21 12.04.2020
5042 Clouds 1 1014 74 14484 4.1 200 09:59 12.04.2020
5043 Clouds 0 1014 74 14484 4.1 200 09:39 12.04.2020
5044 Clouds 1 1014 74 14484 4.1 200 09:20 12.04.2020
5045 Clouds 1 1014 74 14484 3.6 220 08:51 12.04.2020
5046 Clouds 1 1014 74 14484 3.6 220 08:33 12.04.2020
5047 Clear 1 1014 74 14484 4.6 220 07:57 12.04.2020
5048 Clear 1 1014 74 14484 4.6 220 07:39 12.04.2020
5049 Clear 2 1013 69 14484 5.1 230 07:18 12.04.2020
5050 Clear 2 1013 69 14484 5.1 230 06:32 12.04.2020
5051 Clear 2 1013 64 14484 4.6 230 05:49 12.04.2020
5052 Clear 2 1013 64 14484 4.6 230 05:27 12.04.2020
5053 Clear 3 1012 44 14484 3.6 260 03:34 12.04.2020
5054 Clear 3 1011 38 14484 2.6 270 02:54 12.04.2020
5055 Clear 4 1011 38 14484 2.6 270 02:33 12.04.2020
5056 Clouds 5 1010 33 14484 5.7 290 01:34 12.04.2020
5057 Clouds 6 1009 33 14484 5.7 280 00:57 12.04.2020
5058 Clouds 6 1009 33 14484 5.7 280 00:38 12.04.2020
5059 Clouds 6 1009 35 14484 6.7 290 00:19 12.04.2020
5060 Clouds 7 1009 35 14484 6.7 290 23:46 11.04.2020
5061 Clouds 6 1009 35 14484 6.7 290 23:24 11.04.2020
5062 Clouds 6 1008 33 14484 6.2 300 22:41 11.04.2020
5063 Clouds 6 1008 33 14484 6.2 300 22:22 11.04.2020
5064 Clouds 6 1008 44 14484 7.7 270 21:57 11.04.2020
5065 Clouds 6 1008 44 14484 7.7 270 21:37 11.04.2020
5066 Clouds 6 1008 44 14484 7.7 270 21:37 11.04.2020
5067 Clouds 5 1008 41 14484 7.7 290 21:19 11.04.2020
5068 Clouds 5 1008 41 14484 7.7 290 20:58 11.04.2020
5069 Clouds 5 1008 41 14484 7.7 290 20:39 11.04.2020
5070 Clouds 5 1008 41 14484 7.7 290 20:20 11.04.2020
5071 Clouds 5 1008 41 14484 7.7 290 20:20 11.04.2020
5072 Clouds 5 1007 48 14484 8.7 270 19:58 11.04.2020
5073 Clouds 4 1007 48 14484 8.7 270 19:39 11.04.2020
5074 Clouds 4 1007 51 14484 8.7 270 19:19 11.04.2020
5075 Clouds 4 1007 51 14484 8.7 270 18:57 11.04.2020
5076 Clouds 4 1007 51 14484 8.7 270 18:39 11.04.2020
5077 Clouds 4 1007 55 14484 8.2 300 18:20 11.04.2020
5078 Clouds 3 1007 55 14484 8.2 300 17:59 11.04.2020
5079 Clouds 3 1007 55 14484 8.2 300 17:40 11.04.2020
5080 Clouds 3 1007 55 14484 8.2 300 17:20 11.04.2020
5081 Clouds 3 1007 59 14484 8.2 280 16:55 11.04.2020
5082 Clouds 3 1007 59 14484 8.2 280 16:37 11.04.2020
5083 Clouds 2 1006 64 14484 6.2 260 16:19 11.04.2020
5084 Clouds 2 1006 64 14484 6.2 260 16:19 11.04.2020
5085 Clouds 1 1006 64 14484 6.2 260 15:39 11.04.2020
5086 Clouds 1 1006 64 14484 6.2 270 15:19 11.04.2020
5087 Clouds 1 1006 64 14484 6.2 270 14:43 11.04.2020
5088 Clouds 1 1006 64 14484 6.2 270 14:24 11.04.2020
5089 Clouds 1 1006 64 14484 6.2 270 14:24 11.04.2020
5090 Clouds 1 1005 59 14484 6.2 270 13:59 11.04.2020
5091 Clouds 1 1005 59 14484 6.2 270 13:59 11.04.2020
5092 Clouds 1 1005 59 14484 6.2 270 13:40 11.04.2020
5093 Clouds 1 1004 89 14484 5.7 260 13:20 11.04.2020
5094 Clouds 0 1004 89 14484 5.7 260 12:43 11.04.2020
5095 Clouds 0 1004 92 14484 5.7 260 12:21 11.04.2020
5096 Clear 0 1004 92 14484 4.1 270 11:58 11.04.2020
5097 Clear 0 1004 92 14484 4.1 270 11:39 11.04.2020
5098 Clouds 0 1003 59 14484 5.7 280 11:19 11.04.2020
5099 Clouds 0 1003 59 14484 5.7 280 10:55 11.04.2020
5100 Clouds 0 1003 59 14484 5.7 280 10:36 11.04.2020
5101 Clouds 0 1003 59 24140 7.7 280 10:18 11.04.2020
5102 Clouds 1 1003 59 24140 7.7 280 09:41 11.04.2020
5103 Clouds 1 1002 59 14484 7.2 290 09:22 11.04.2020
5104 Clouds 1 1001 59 14484 6.7 290 08:54 11.04.2020
5105 Clouds 2 1001 59 14484 6.7 290 08:36 11.04.2020
5106 Clouds 2 1001 59 14484 6.7 300 08:18 11.04.2020
5107 Clouds 2 1001 59 14484 6.7 300 07:41 11.04.2020
5108 Clouds 3 1001 59 14484 6.7 300 07:23 11.04.2020
5109 Clouds 3 1000 64 14484 8.2 290 06:37 11.04.2020
5110 Clouds 3 999 69 14484 7.2 280 05:57 11.04.2020
5111 Clouds 4 999 69 24140 6.7 290 03:57 11.04.2020
5112 Clouds 4 998 65 14484 6.2 290 02:52 11.04.2020
5113 Clouds 5 997 56 14484 11.3 310 01:26 11.04.2020
5114 Clear 6 995 48 14484 4.6 320 00:56 11.04.2020
5115 Clear 6 995 48 14484 4.6 320 00:38 11.04.2020
5116 Clouds 6 994 52 14484 6.7 350 00:18 11.04.2020
5117 Clouds 7 994 52 14484 6.7 350 23:42 10.04.2020
5118 Clouds 6 994 60 14484 5.7 350 23:19 10.04.2020
5119 Clouds 6 994 60 14484 5.7 350 22:58 10.04.2020
5120 Rain 6 993 60 14484 9.3 350 22:39 10.04.2020
5121 Rain 6 993 60 14484 9.3 350 22:20 10.04.2020
5122 Clouds 6 992 61 14484 7.7 350 21:42 10.04.2020
5123 Clouds 6 992 61 14484 7.7 350 21:42 10.04.2020
5124 Clouds 6 992 61 14484 7.7 350 21:42 10.04.2020
5125 Clouds 5 992 75 14484 7.7 350 21:21 10.04.2020
5126 Clouds 5 992 80 14484 4.1 360 20:59 10.04.2020
5127 Rain 5 992 75 14484 9.8 20 20:40 10.04.2020
5128 Rain 5 992 75 14484 9.8 20 20:21 10.04.2020
5129 Clouds 5 991 65 14484 5.7 340 19:56 10.04.2020
5130 Clouds 5 991 69 14484 8.7 10 19:38 10.04.2020
5131 Clouds 5 991 69 14484 8.7 10 19:38 10.04.2020
5132 Clouds 5 990 80 14484 6.7 350 19:19 10.04.2020
5133 Clouds 4 990 80 14484 6.7 350 18:56 10.04.2020
5134 Clouds 4 990 80 14484 6.7 350 18:38 10.04.2020
5135 Clouds 4 989 86 14484 7.7 340 18:20 10.04.2020
5136 Clouds 4 989 86 14484 7.7 340 17:57 10.04.2020
5137 Clouds 4 989 86 14484 7.7 340 17:57 10.04.2020
5138 Rain 3 989 93 14484 6.2 350 17:39 10.04.2020
5139 Rain 3 989 93 14484 6.2 360 17:19 10.04.2020
5140 Rain 3 988 93 14484 6.2 360 16:46 10.04.2020
5141 Rain 2 988 93 14484 6.2 360 16:24 10.04.2020
5142 Rain 2 987 100 14484 7.7 360 15:59 10.04.2020
5143 Rain 2 986 93 14484 6.2 20 15:40 10.04.2020
5144 Rain 1 986 93 14484 6.2 20 15:22 10.04.2020
5145 Rain 1 985 100 14484 6.2 350 15:00 10.04.2020
5146 Rain 1 985 100 14484 6.2 350 14:41 10.04.2020
5147 Rain 1 985 100 14484 6.2 350 14:23 10.04.2020
5148 Snow 1 985 95 3621 4.1 310 13:57 10.04.2020
5149 Snow 1 985 95 6437 4.6 320 13:38 10.04.2020
5150 Rain 1 984 95 8047 5.7 280 13:20 10.04.2020
5151 Snow 1 984 95 8047 5.7 290 12:42 10.04.2020
5152 Snow 1 984 94 8047 5.7 290 12:22 10.04.2020
5153 Rain 1 983 94 14484 8.2 270 11:55 10.04.2020
5154 Rain 1 983 94 14484 8.2 270 11:36 10.04.2020
5155 Rain 1 983 94 14484 7.7 270 11:18 10.04.2020
5156 Rain 1 983 94 14484 7.7 270 10:42 10.04.2020
5157 Rain 2 983 94 14484 7.7 270 10:22 10.04.2020
5158 Rain 2 984 94 14484 7.7 270 09:45 10.04.2020
5159 Rain 2 984 82 14484 7.7 270 09:25 10.04.2020
5160 Rain 2 984 82 14484 8.2 270 08:56 10.04.2020
5161 Clouds 2 984 82 14484 7.2 280 08:38 10.04.2020
5162 Clouds 2 984 82 14484 7.2 280 08:38 10.04.2020
5163 Clouds 2 984 82 14484 7.7 270 08:20 10.04.2020
5164 Clouds 2 985 82 14484 7.2 260 07:44 10.04.2020
5165 Clouds 3 985 82 14484 7.2 260 07:22 10.04.2020
5166 Clouds 3 985 86 14484 8.2 270 06:45 10.04.2020
5167 Clouds 3 985 86 14484 8.2 270 06:25 10.04.2020
5168 Clouds 3 986 86 14484 5.1 260 05:38 10.04.2020
5169 Rain 3 986 86 9656 7.7 260 04:57 10.04.2020
5170 Clouds 3 987 86 14484 6.2 270 03:45 10.04.2020
5171 Clouds 3 987 86 14484 6.2 270 03:24 10.04.2020
5172 Clouds 3 987 86 14484 6.2 290 02:48 10.04.2020
5173 Clouds 3 987 86 14484 6.2 290 02:28 10.04.2020
5174 Snow 2 986 100 9656 4.6 290 01:30 10.04.2020
5175 Mist 2 986 76 3219 5.7 290 00:49 10.04.2020
5176 Mist 1 986 92 3219 5.7 290 00:23 10.04.2020
5177 Rain 1 986 92 4023 7.2 290 23:55 09.04.2020
5178 Snow 1 986 100 9656 5.1 300 23:37 09.04.2020
5179 Rain 2 985 93 14484 6.2 20 23:19 09.04.2020
5180 Rain 2 985 93 14484 6.2 30 22:41 09.04.2020
5181 Rain 2 985 93 14484 6.2 30 22:23 09.04.2020
5182 Rain 3 985 93 14484 5.1 80 21:54 09.04.2020
5183 Rain 3 985 93 14484 5.1 80 21:36 09.04.2020
5184 Rain 4 986 93 12874 5.7 40 21:18 09.04.2020
5185 Rain 4 986 93 12874 5.7 40 20:41 09.04.2020
5186 Rain 4 986 93 12874 5.7 40 20:20 09.04.2020
5187 Rain 3 987 93 9656 6.2 40 19:56 09.04.2020
5188 Rain 3 987 93 9656 6.2 40 19:36 09.04.2020
5189 Rain 3 987 93 9656 6.2 40 19:36 09.04.2020
5190 Rain 3 988 91 14484 7.2 20 19:18 09.04.2020
5191 Rain 3 988 91 14484 7.2 20 18:41 09.04.2020
5192 Rain 3 989 82 14484 6.2 20 18:18 09.04.2020
5193 Rain 4 989 82 14484 6.2 20 17:41 09.04.2020
5194 Rain 4 990 82 14484 5.1 30 17:22 09.04.2020
5195 Rain 4 990 82 14484 5.1 30 16:56 09.04.2020
5196 Clouds 5 992 60 14484 5.1 20 16:38 09.04.2020
5197 Clouds 5 993 60 14484 2.1 360 16:18 09.04.2020
5198 Clouds 5 993 60 14484 2.1 360 15:54 09.04.2020
5199 Clouds 5 993 60 14484 2.1 360 15:36 09.04.2020
5200 Clouds 5 993 60 14484 2.1 360 15:36 09.04.2020
5201 Clouds 5 994 56 14484 3.6 100 15:18 09.04.2020
5202 Clouds 5 994 56 14484 3.6 100 15:18 09.04.2020
5203 Clouds 4 994 56 14484 3.6 100 14:39 09.04.2020
5204 Clouds 4 994 56 14484 3.6 100 14:20 09.04.2020
5205 Clouds 4 996 60 14484 2.6 110 13:43 09.04.2020
5206 Clouds 3 996 60 14484 2.6 110 13:25 09.04.2020
5207 Clouds 3 997 69 14484 3.1 10 12:59 09.04.2020
5208 Clouds 3 997 69 14484 3.1 10 12:41 09.04.2020
5209 Clouds 4 997 69 14484 3.1 10 12:21 09.04.2020
5210 Clouds 4 998 69 14484 2.1 20 11:57 09.04.2020
5211 Clouds 4 998 69 14484 2.1 20 11:38 09.04.2020
5212 Clouds 4 998 60 14484 2.72 70 11:19 09.04.2020
5213 Clouds 4 998 60 14484 2.72 70 10:56 09.04.2020
5214 Clouds 4 998 60 14484 2.72 70 10:37 09.04.2020
5215 Clouds 4 999 60 14484 1.5 50 10:18 09.04.2020
5216 Clouds 5 999 60 14484 1.5 50 09:40 09.04.2020
5217 Clouds 5 999 60 14484 1.5 50 09:21 09.04.2020
5218 Clouds 5 1000 60 14484 1 100 08:59 09.04.2020
5219 Clouds 5 1000 60 14484 1 100 08:40 09.04.2020
5220 Clouds 5 1000 60 14484 1 100 08:22 09.04.2020
5221 Clouds 5 1001 60 14484 1.5 70 07:50 09.04.2020
5222 Clouds 5 1001 60 14484 1.5 70 07:22 09.04.2020
5223 Clouds 5 1002 56 14484 1 60 06:49 09.04.2020
5224 Clouds 5 1003 45 14484 2.53 87 05:49 09.04.2020
5225 Clouds 5 1003 45 14484 2.53 87 05:28 09.04.2020
5226 Clouds 7 1003 36 14484 1.5 50 02:37 09.04.2020
5227 Clouds 7 1003 36 14484 2.6 50 02:18 09.04.2020
5228 Clouds 7 1003 36 14484 2.6 50 01:39 09.04.2020
5229 Clouds 7 1003 33 14484 2.6 50 01:19 09.04.2020
5230 Clouds 7 1003 33 14484 2.6 50 01:19 09.04.2020
5231 Clouds 8 1003 33 14484 2.6 50 00:38 09.04.2020
5232 Clouds 8 1003 33 14484 2.1 10 00:19 09.04.2020
5233 Clouds 8 1003 33 14484 2.1 10 23:55 08.04.2020
5234 Clouds 8 1003 33 14484 2.1 10 23:37 08.04.2020
5235 Clouds 8 1003 36 14484 3.1 310 23:19 08.04.2020
5236 Clouds 9 1003 36 14484 3.1 310 22:42 08.04.2020
5237 Clouds 9 1003 36 14484 3.6 350 22:23 08.04.2020
5238 Clouds 9 1003 36 14484 3.6 350 21:56 08.04.2020
5239 Clouds 9 1003 36 14484 3.6 350 21:37 08.04.2020
5240 Clear 8 1004 39 14484 3.6 340 21:19 08.04.2020
5241 Clear 8 1004 39 14484 3.6 340 20:54 08.04.2020
5242 Clear 8 1004 39 14484 3.6 340 20:54 08.04.2020
5243 Clear 8 1004 39 14484 3.6 340 20:54 08.04.2020
5244 Clear 8 1004 39 14484 3.6 340 20:36 08.04.2020
5245 Clear 8 1004 39 14484 4.1 360 20:18 08.04.2020
5246 Clear 8 1004 39 14484 4.1 360 19:41 08.04.2020
5247 Clear 8 1004 42 14484 4.6 20 19:21 08.04.2020
5248 Clear 8 1004 42 14484 4.6 20 18:55 08.04.2020
5249 Clear 7 1004 42 14484 4.6 20 18:37 08.04.2020
5250 Clear 7 1004 41 14484 4.6 30 18:19 08.04.2020
5251 Clear 7 1004 41 14484 4.6 30 17:42 08.04.2020
5252 Clouds 6 1004 45 11265 6.2 30 17:22 08.04.2020
5253 Clouds 6 1004 51 14484 4.6 20 16:57 08.04.2020
5254 Clouds 5 1004 51 14484 4.6 20 16:39 08.04.2020
5255 Clouds 5 1005 55 14484 5.1 60 16:20 08.04.2020
5256 Clouds 4 1005 55 14484 5.1 60 15:39 08.04.2020
5257 Clouds 4 1005 55 14484 5.1 60 15:39 08.04.2020
5258 Clear 3 1005 64 14484 5.7 20 15:21 08.04.2020
5259 Clear 2 1005 64 14484 5.7 20 14:59 08.04.2020
5260 Clear 2 1005 64 14484 5.7 20 14:40 08.04.2020
5261 Clear 2 1005 64 14484 5.7 20 14:22 08.04.2020
5262 Clouds 1 1004 89 14484 5.1 30 13:44 08.04.2020
5263 Clouds 0 1004 89 14484 5.1 30 13:21 08.04.2020
5264 Clear 0 1004 74 14484 4.6 20 12:58 08.04.2020
5265 Clear 0 1004 74 14484 4.6 20 12:58 08.04.2020
5266 Clear 0 1004 74 14484 4.6 20 12:39 08.04.2020
5267 Clear 0 1003 68 14484 5.7 20 12:18 08.04.2020
5268 Clear 0 1003 68 14484 5.7 20 11:42 08.04.2020
5269 Clear 0 1003 68 14484 5.7 20 11:23 08.04.2020
5270 Clear 0 1004 68 14484 3.6 20 10:58 08.04.2020
5271 Clear 0 1004 68 14484 3.6 20 10:40 08.04.2020
5272 Clear 1 1004 85 14484 3.6 40 10:21 08.04.2020
5273 Clear 1 1004 85 14484 3.6 40 09:59 08.04.2020
5274 Clear 1 1004 85 14484 3.6 40 09:41 08.04.2020
5275 Clear 1 1005 81 14484 4.6 30 09:19 08.04.2020
5276 Clear 1 1005 81 14484 4.6 30 08:57 08.04.2020
5277 Clear 2 1005 81 14484 4.6 30 08:38 08.04.2020
5278 Clouds 2 1005 59 24140 5.1 40 08:20 08.04.2020
5279 Clear 3 1005 69 14484 4.6 10 07:43 08.04.2020
5280 Clear 3 1005 64 14484 4.6 10 07:21 08.04.2020
5281 Clouds 3 1005 44 24140 5.1 20 06:29 08.04.2020
5282 Clear 4 1006 44 14484 1.5 10 04:58 08.04.2020
5283 Clear 8 1007 24 14484 2.6 340 02:50 08.04.2020
5284 Clear 8 1007 24 14484 2.6 340 02:22 08.04.2020
5285 Clear 9 1006 25 14484 4.6 330 01:56 08.04.2020
5286 Clear 11 1006 25 14484 4.6 330 01:28 08.04.2020
5287 Clear 12 1006 23 14484 6.2 340 00:47 08.04.2020
5288 Clear 12 1006 23 14484 6.2 340 00:26 08.04.2020
5289 Clear 13 1006 22 14484 6.7 270 23:57 07.04.2020
5290 Clear 13 1006 22 14484 6.7 270 23:37 07.04.2020
5291 Clear 13 1007 24 14484 6.7 270 23:18 07.04.2020
5292 Clear 13 1007 24 14484 6.7 270 22:55 07.04.2020
5293 Clear 13 1007 24 14484 6.7 270 22:37 07.04.2020
5294 Clear 13 1008 27 14484 5.1 270 22:18 07.04.2020
5295 Clear 13 1008 27 14484 5.1 270 21:42 07.04.2020
5296 Clear 11 1009 27 14484 8.7 270 21:21 07.04.2020
5297 Clear 11 1009 27 14484 8.7 270 20:59 07.04.2020
5298 Clear 11 1009 27 14484 8.7 270 20:40 07.04.2020
5299 Clear 11 1009 27 14484 8.7 270 20:21 07.04.2020
5300 Clear 10 1010 32 14484 7.7 260 19:57 07.04.2020
5301 Clear 10 1010 32 14484 7.7 260 19:38 07.04.2020
5302 Clear 10 1010 39 14484 7.2 220 19:20 07.04.2020
5303 Clear 10 1010 39 14484 7.2 220 18:58 07.04.2020
5304 Clear 10 1011 36 14484 1.5 280 18:40 07.04.2020
5305 Clear 8 1012 36 14484 2.6 250 18:20 07.04.2020
5306 Clear 8 1012 36 14484 2.6 250 17:47 07.04.2020
5307 Clear 7 1013 41 14484 1 0 17:24 07.04.2020
5308 Clear 7 1013 41 14484 1 0 16:55 07.04.2020
5309 Clear 7 1013 41 14484 1 0 16:55 07.04.2020
5310 Clear 6 1013 41 14484 1 0 16:37 07.04.2020
5311 Clear 6 1013 48 14484 1.61 50 16:19 07.04.2020
5312 Clear 5 1013 48 14484 1.61 50 15:43 07.04.2020
5313 Clear 4 1013 59 14484 1.5 20 15:24 07.04.2020
5314 Clear 3 1013 59 14484 1.5 20 14:55 07.04.2020
5315 Clear 3 1013 59 14484 1.5 20 14:36 07.04.2020
5316 Clouds 3 1013 78 32767 1 20 14:18 07.04.2020
5317 Clear 0 1013 74 14484 1.5 350 13:41 07.04.2020
5318 Clear -1 1013 74 14484 2.1 360 13:19 07.04.2020
5319 Clear -1 1013 74 14484 2.1 360 12:56 07.04.2020
5320 Clear -1 1013 74 14484 2.1 360 12:37 07.04.2020
5321 Clear -1 1013 74 14484 1 30 12:19 07.04.2020
5322 Clear -1 1013 74 14484 1 30 11:46 07.04.2020
5323 -273 0 0 0 0 0 11:27 07.04.2020
5324 Clouds 1 1013 81 14484 1.5 360 10:59 07.04.2020
5325 Clouds 1 1013 81 14484 1.5 360 10:39 07.04.2020
5326 Clouds 1 1013 81 14484 2.6 40 10:20 07.04.2020
5327 Clouds 2 1013 81 14484 2.6 40 09:54 07.04.2020
5328 Clouds 2 1013 82 14484 2.6 40 09:36 07.04.2020
5329 Clouds 2 1013 69 14484 1 0 09:18 07.04.2020
5330 Clouds 2 1013 69 14484 1 0 08:39 07.04.2020
5331 Clear 3 1012 64 14484 1.5 30 08:20 07.04.2020
5332 Clear 3 1012 64 14484 1.5 30 07:44 07.04.2020
5333 Clear 3 1012 64 14484 1.5 30 07:44 07.04.2020
5334 Clear 3 1012 64 14484 1.5 30 07:44 07.04.2020
5335 Clear 3 1012 64 14484 1.5 30 07:26 07.04.2020
5336 Clear 3 1012 64 14484 1.5 30 07:26 07.04.2020
5337 Clear 4 1012 56 14484 3.1 240 06:52 07.04.2020
5338 Clear 4 1012 56 14484 3.1 240 06:26 07.04.2020
5339 Clear 5 1012 45 14484 2.1 240 05:54 07.04.2020
5340 Clear 6 1012 45 14484 2.1 240 05:25 07.04.2020
5341 Clouds 7 1012 29 14484 2.6 280 04:18 07.04.2020
5342 Clouds 8 1012 29 14484 2.6 280 03:21 07.04.2020
5343 Clouds 9 1011 25 14484 3.1 280 02:45 07.04.2020
5344 Clouds 10 1011 21 14484 6.7 290 01:38 07.04.2020
5345 Clouds 11 1011 22 14484 6.7 300 01:20 07.04.2020
5346 Clouds 12 1011 22 14484 6.7 300 00:25 07.04.2020
5347 Clouds 13 1011 27 14484 6.7 270 23:42 06.04.2020
5348 Clouds 13 1011 27 14484 6.7 270 23:21 06.04.2020
5349 Clouds 13 1012 25 14484 8.7 280 22:55 06.04.2020
5350 Clouds 13 1012 25 14484 8.7 280 22:36 06.04.2020
5351 Clear 12 1013 27 14484 8.2 270 22:18 06.04.2020
5352 Clear 12 1013 27 14484 8.2 270 21:43 06.04.2020
5353 Clear 12 1014 37 14484 9.3 250 21:20 06.04.2020
5354 Clear 12 1014 37 14484 9.3 250 20:58 06.04.2020
5355 Clear 12 1014 37 14484 9.3 250 20:58 06.04.2020
5356 Clear 11 1014 37 14484 9.3 250 20:40 06.04.2020
5357 Clear 11 1014 37 14484 9.3 250 20:21 06.04.2020
5358 Clear 11 1015 43 14484 9.8 230 19:58 06.04.2020
5359 Clear 11 1015 43 14484 9.8 230 19:39 06.04.2020
5360 Clear 11 1016 49 14484 6.2 240 19:20 06.04.2020
5361 Clear 10 1016 49 14484 6.2 240 18:43 06.04.2020
5362 Clear 7 1016 49 14484 6.2 240 18:24 06.04.2020
5363 Clear 7 1017 45 14484 7.7 240 17:59 06.04.2020
5364 Clear 7 1017 45 14484 7.7 240 17:41 06.04.2020
5365 Clear 7 1018 48 14484 7.2 250 17:19 06.04.2020
5366 Clear 7 1018 48 14484 7.2 250 16:49 06.04.2020
5367 Clear 7 1018 48 14484 7.2 250 16:30 06.04.2020
5368 Clear 2 1018 69 14484 3.1 230 15:00 06.04.2020
5369 Clear 0 1018 86 14484 2.6 230 13:45 06.04.2020
5370 Clear 0 1018 86 14484 2.6 230 13:45 06.04.2020
5371 Clear 0 1018 86 14484 2.6 230 13:23 06.04.2020
5372 Clear -1 1018 80 14484 1.5 240 12:47 06.04.2020
5373 Clear -1 1018 80 14484 1.5 240 12:47 06.04.2020
5374 Clear -1 1018 80 14484 1.5 240 12:20 06.04.2020
5375 Clear -1 1018 88 14484 1.5 300 11:47 06.04.2020
5376 Clear -1 1018 88 14484 1.5 300 11:47 06.04.2020
5377 Clear -1 1018 88 14484 1.5 300 11:47 06.04.2020
5378 Clear -1 1018 88 14484 1.5 300 11:46 06.04.2020
5379 Clear -1 1018 88 14484 1.5 300 11:28 06.04.2020
5380 Clear -1 1018 88 14484 1.5 300 11:28 06.04.2020
5381 Clear -1 1018 88 14484 1.5 300 11:28 06.04.2020
5382 Clear -1 1018 88 14484 1.5 300 11:28 06.04.2020
5383 Clouds -1 1017 88 14484 1.5 330 10:48 06.04.2020
5384 Clouds -1 1017 88 14484 1.5 330 10:48 06.04.2020
5385 Clouds -1 1017 88 14484 1.5 330 10:48 06.04.2020
5386 Clouds -1 1017 88 14484 1.5 330 10:48 06.04.2020
5387 Clouds -1 1017 88 14484 1.5 330 10:46 06.04.2020
5388 Clouds 0 1017 88 14484 1.5 330 10:21 06.04.2020
5389 Clouds 0 1017 88 14484 1.5 330 10:21 06.04.2020
5390 Clear 0 1017 64 14484 2.1 340 09:42 06.04.2020
5391 Clear 0 1017 64 14484 2.1 340 09:42 06.04.2020
5392 Clear 0 1017 64 14484 2.1 340 09:42 06.04.2020
5393 Clear 0 1017 64 14484 2.1 340 09:42 06.04.2020
5394 Clear 0 1017 64 14484 2.1 340 09:42 06.04.2020
5395 Clear 1 1017 64 14484 2.1 340 09:20 06.04.2020
5396 Clear 1 1017 69 24140 1.5 320 08:51 06.04.2020
5397 Clear 2 1017 60 14484 3.6 320 08:29 06.04.2020
5398 Clear 2 1017 60 14484 3.6 320 08:29 06.04.2020
5399 Clear 2 1017 60 14484 3.6 320 08:29 06.04.2020
5400 Clear 3 1017 64 14484 2.6 300 07:24 06.04.2020
5401 Clear 3 1017 64 14484 2.6 300 07:24 06.04.2020
5402 Clear 3 1017 64 14484 2.6 300 07:24 06.04.2020
5403 Clear 3 1017 65 14484 2.1 280 06:34 06.04.2020
5404 Clear 3 1016 69 14484 2.1 270 06:01 06.04.2020
5405 Clear 3 1016 69 14484 2.1 270 06:01 06.04.2020
5406 Clear 3 1016 69 14484 2.1 270 06:01 06.04.2020
5407 Clear 5 1016 72 14484 2.6 300 04:18 06.04.2020
5408 Clouds 7 1015 70 14484 4.6 310 02:56 06.04.2020
5409 Clouds 8 1015 66 14484 5.7 320 01:57 06.04.2020
5410 Clouds 8 1015 66 14484 5.7 320 01:57 06.04.2020
5411 Clouds 10 1014 81 14484 5.1 290 00:59 06.04.2020
5412 Clouds 10 1014 81 14484 5.1 290 00:29 06.04.2020
5413 Clouds 10 1014 81 14484 5.1 290 00:29 06.04.2020
5414 Clouds 10 1014 81 14484 5.1 280 23:59 05.04.2020
5415 Rain 10 1014 81 14484 5.7 280 23:40 05.04.2020
5416 Rain 10 1014 81 14484 5.7 280 23:20 05.04.2020
5417 Rain 10 1014 81 14484 5.7 280 23:20 05.04.2020
5418 Rain 10 1014 81 14484 5.7 280 23:20 05.04.2020
5419 Clouds 9 1014 93 14484 7.2 270 22:54 05.04.2020
5420 Clouds 9 1014 93 14484 7.2 270 22:36 05.04.2020
5421 Clouds 9 1014 93 14484 7.2 270 22:18 05.04.2020
5422 Clouds 9 1014 93 14484 5.1 240 21:43 05.04.2020
5423 Clouds 9 1014 93 14484 5.1 240 21:43 05.04.2020
5424 Clouds 9 1014 93 14484 5.1 240 21:43 05.04.2020
5425 Clouds 9 1014 93 14484 5.1 240 21:23 05.04.2020
5426 Clouds 9 1014 87 14484 5.7 250 20:25 05.04.2020
5427 Clouds 9 1014 87 14484 4.6 240 19:44 05.04.2020
5428 Clouds 9 1015 100 14484 4.1 240 19:25 05.04.2020
5429 Mist 9 1015 100 8047 4.1 240 18:50 05.04.2020
5430 Mist 9 1015 100 8047 4.1 240 18:49 05.04.2020
5431 Mist 9 1015 100 8047 4.1 240 18:49 05.04.2020
5432 Mist 9 1015 100 8047 4.1 240 18:49 05.04.2020
5433 Mist 9 1015 100 8047 4.1 240 18:49 05.04.2020
5434 Rain 9 1015 93 3219 4.6 240 18:21 05.04.2020
5435 Clouds 9 1015 87 14484 3.6 250 17:49 05.04.2020
5436 Clouds 9 1015 87 14484 3.6 250 17:49 05.04.2020
5437 Clouds 9 1015 87 14484 3.6 250 17:49 05.04.2020
5438 Clouds 9 1015 87 14484 3.6 250 17:49 05.04.2020
5439 Rain 9 1015 87 4023 3.6 240 17:22 05.04.2020
5440 Rain 8 1016 71 14484 3.6 230 16:47 05.04.2020
5441 Rain 8 1016 71 14484 3.6 230 16:47 05.04.2020
5442 Rain 8 1016 71 14484 3.6 230 16:47 05.04.2020
5443 Clouds 8 1016 76 14484 2.6 220 16:19 05.04.2020
5444 Clouds 8 1016 75 14484 2.6 190 15:46 05.04.2020
5445 Clouds 8 1016 75 14484 2.6 190 15:28 05.04.2020
5446 Clouds 8 1016 75 14484 2.6 190 15:28 05.04.2020
5447 Clouds 8 1016 75 14484 2.6 190 15:28 05.04.2020
5448 Clouds 7 1016 81 14484 1.5 120 14:48 05.04.2020
5449 Clouds 7 1016 81 14484 1.5 120 14:48 05.04.2020
5450 Clouds 7 1016 81 14484 1.5 120 14:48 05.04.2020
5451 Clouds 7 1016 81 14484 1.5 120 14:48 05.04.2020
5452 Clouds 6 1016 81 14484 1.5 130 13:59 05.04.2020
5453 Clouds 6 1016 81 14484 1.5 130 13:40 05.04.2020
5454 Clouds 6 1016 81 14484 1.5 130 13:40 05.04.2020
5455 Clouds 6 1016 81 14484 1.5 130 13:40 05.04.2020
5456 -273 0 0 0 0 0 12:20 05.04.2020
5457 Clouds 6 1016 81 14484 1.5 190 11:40 05.04.2020
5458 Clouds 6 1016 81 14484 1.5 190 11:20 05.04.2020
5459 Clouds 6 1016 81 14484 1 170 10:47 05.04.2020
5460 Rain 6 1016 81 14484 0.6 69 10:23 05.04.2020
5461 Clouds 6 1016 75 14484 1 180 09:55 05.04.2020
5462 Clouds 6 1016 75 14484 1 180 09:27 05.04.2020
5463 Clouds 6 1016 70 14484 1.28 26 08:32 05.04.2020
5464 Clouds 6 1016 81 14484 1 80 07:19 05.04.2020
5465 Clouds 6 1016 81 14484 1 80 07:19 05.04.2020
5466 Clouds 7 1017 75 14484 2.1 80 04:31 05.04.2020
5467 Clouds 7 1017 70 14484 1.5 10 03:28 05.04.2020
5468 Clouds 8 1016 75 14484 2.1 20 02:27 05.04.2020
5469 Clear 9 1016 61 14484 3.1 20 01:44 05.04.2020
5470 Clear 9 1016 61 14484 3.1 20 01:23 05.04.2020
5471 Clear 11 1016 57 14484 3.6 350 00:37 05.04.2020
5472 Clear 11 1016 57 14484 3.6 350 00:19 05.04.2020
5473 Clear 11 1016 53 14484 4.6 20 23:42 04.04.2020
5474 Clear 11 1016 53 14484 4.6 20 23:22 04.04.2020
5475 Clouds 11 1016 54 14484 3.1 30 22:57 04.04.2020
5476 Clouds 11 1016 54 14484 3.1 30 22:57 04.04.2020
5477 Clouds 12 1016 54 14484 3.1 30 22:39 04.04.2020
5478 Clouds 11 1016 54 14484 3.1 30 22:20 04.04.2020
5479 Clear 12 1017 53 14484 4.1 20 21:57 04.04.2020
5480 Clear 12 1017 53 14484 4.1 20 21:57 04.04.2020
5481 Clear 12 1017 53 14484 4.1 20 21:39 04.04.2020
5482 Clear 11 1017 53 14484 4.1 20 21:19 04.04.2020
5483 Clear 11 1017 57 14484 6.2 10 20:55 04.04.2020
5484 Clear 11 1017 57 14484 6.2 10 20:37 04.04.2020
5485 Clear 11 1017 57 14484 6.2 10 20:19 04.04.2020
5486 Clouds 10 1018 61 14484 4.1 360 19:54 04.04.2020
5487 Clouds 10 1018 61 14484 4.1 360 19:36 04.04.2020
5488 Clouds 10 1018 61 14484 4.1 360 19:18 04.04.2020
5489 Clear 9 1018 66 14484 4.1 30 18:54 04.04.2020
5490 Clear 9 1018 66 14484 4.1 30 18:36 04.04.2020
5491 Clear 9 1018 66 14484 4.1 30 18:18 04.04.2020
5492 Clear 8 1018 66 14484 4.1 10 17:39 04.04.2020
5493 Clear 8 1018 66 14484 4.1 10 17:20 04.04.2020
5494 Clear 7 1019 70 14484 5.1 360 16:46 04.04.2020
5495 Clouds 7 1018 70 14484 5.1 60 16:28 04.04.2020
5496 Clouds 6 1018 80 14484 4.6 40 15:59 04.04.2020
5497 Clouds 5 1018 80 14484 4.6 40 15:39 04.04.2020
5498 Clouds 5 1018 80 14484 4.6 40 15:20 04.04.2020
5499 Clouds 5 1018 80 14484 4.6 40 15:20 04.04.2020
5500 Clouds 4 1018 86 14484 5.1 30 14:56 04.04.2020
5501 Clouds 4 1018 86 14484 5.1 30 14:38 04.04.2020
5502 Clouds 3 1018 86 14484 5.1 30 14:20 04.04.2020
5503 Clouds 3 1018 86 14484 4.6 20 13:55 04.04.2020
5504 Clouds 3 1018 86 14484 4.6 20 13:36 04.04.2020
5505 Clouds 3 1018 86 14484 4.6 20 13:18 04.04.2020
5506 Clouds 3 1018 86 14484 4.6 10 12:43 04.04.2020
5507 Clouds 3 1018 86 14484 4.6 10 12:23 04.04.2020
5508 Clear 3 1017 93 14484 4.6 20 11:55 04.04.2020
5509 Clear 3 1017 93 14484 4.6 20 11:36 04.04.2020
5510 Clear 3 1017 93 14484 4.6 20 11:18 04.04.2020
5511 Clear 3 1017 93 14484 4.6 10 10:55 04.04.2020
5512 Clear 3 1017 93 14484 4.6 10 10:37 04.04.2020
5513 Clear 3 1017 93 14484 4.6 10 10:18 04.04.2020
5514 Clear 3 1017 89 14484 3.1 30 09:44 04.04.2020
5515 Clear 3 1017 89 14484 3.1 30 09:25 04.04.2020
5516 Clouds 4 1017 80 14484 4.1 30 08:58 04.04.2020
5517 Clouds 4 1017 80 14484 4.1 30 08:38 04.04.2020
5518 Clouds 4 1017 80 14484 4.1 30 08:19 04.04.2020
5519 Clouds 5 1017 75 14484 3.1 40 07:40 04.04.2020
5520 Clouds 5 1017 75 14484 3.1 40 07:22 04.04.2020
5521 Clouds 5 1017 75 14484 5.7 40 06:46 04.04.2020
5522 Clouds 5 1017 75 14484 5.1 40 05:57 04.04.2020
5523 Clouds 5 1017 75 14484 5.1 40 05:39 04.04.2020
5524 Clouds 5 1017 75 14484 5.1 40 05:21 04.04.2020
5525 Clouds 6 1017 75 14484 6.2 30 04:24 04.04.2020
5526 Clouds 7 1017 70 14484 7.2 40 03:45 04.04.2020
5527 Clouds 7 1016 75 14484 8.2 30 02:49 04.04.2020
5528 Clouds 7 1016 75 14484 8.2 30 02:30 04.04.2020
5529 Clouds 8 1016 70 14484 7.7 40 01:50 04.04.2020
5530 Clouds 8 1016 70 14484 7.7 40 01:22 04.04.2020
5531 Clouds 9 1015 70 14484 10.3 40 00:47 04.04.2020
5532 Clouds 9 1015 70 14484 10.3 40 00:26 04.04.2020
5533 Clouds 9 1014 70 14484 10.8 30 23:39 03.04.2020
5534 Clouds 9 1014 70 14484 10.8 30 23:21 03.04.2020
5535 Clouds 9 1014 75 14484 9.3 20 22:56 03.04.2020
5536 Clouds 9 1014 75 14484 9.3 20 22:38 03.04.2020
5537 Clouds 8 1014 75 14484 9.3 20 22:18 03.04.2020
5538 Clouds 8 1014 75 14484 10.8 30 21:43 03.04.2020
5539 Clouds 8 1014 75 14484 10.8 30 21:23 03.04.2020
5540 Clouds 8 1014 75 14484 11.8 30 20:56 03.04.2020
5541 Clouds 7 1014 75 14484 11.8 30 20:37 03.04.2020
5542 Clouds 7 1014 75 14484 11.8 30 20:19 03.04.2020
5543 Clouds 7 1014 81 14484 10.8 30 19:56 03.04.2020
5544 Rain 7 1014 87 14484 9.3 30 19:38 03.04.2020
5545 Rain 7 1014 87 14484 9.3 30 19:19 03.04.2020
5546 Clouds 7 1013 87 14484 10.3 30 18:58 03.04.2020
5547 Clouds 7 1013 87 14484 10.3 30 18:40 03.04.2020
5548 Clouds 7 1013 87 14484 10.3 30 18:22 03.04.2020
5549 Clouds 6 1013 93 14484 9.8 30 17:43 03.04.2020
5550 Clouds 6 1013 93 14484 9.8 30 17:21 03.04.2020
5551 Rain 6 1013 93 14484 9.3 20 16:58 03.04.2020
5552 Clouds 6 1013 93 14484 8.7 20 16:40 03.04.2020
5553 Clouds 6 1013 93 14484 8.7 20 16:21 03.04.2020
5554 Rain 6 1011 87 14484 8.7 30 15:58 03.04.2020
5555 Rain 6 1011 87 14484 8.7 30 15:38 03.04.2020
5556 Rain 6 1011 87 14484 8.7 30 15:19 03.04.2020
5557 Rain 6 1011 93 12874 7.2 30 14:55 03.04.2020
5558 Rain 6 1011 93 12874 7.2 30 14:55 03.04.2020
5559 Rain 6 1011 96 0 8.24 34 14:37 03.04.2020
5560 Rain 5 1010 93 12874 9.8 30 14:18 03.04.2020
5561 Rain 5 1010 93 12874 9.8 30 13:42 03.04.2020
5562 Rain 5 1010 93 12874 9.8 30 13:24 03.04.2020
5563 Rain 5 1009 100 9656 10.3 30 12:44 03.04.2020
5564 Rain 5 1009 100 9656 10.3 30 12:20 03.04.2020
5565 Rain 5 1009 93 9656 8.7 30 11:57 03.04.2020
5566 Rain 6 1009 100 8047 8.7 30 11:39 03.04.2020
5567 Rain 6 1009 100 8047 8.7 30 11:20 03.04.2020
5568 Rain 6 1008 93 8047 9.8 30 10:59 03.04.2020
5569 Rain 6 1008 100 11265 7.7 20 10:39 03.04.2020
5570 Rain 6 1008 100 11265 7.7 20 10:20 03.04.2020
5571 Rain 6 1008 100 11265 7.7 20 10:20 03.04.2020
5572 Rain 6 1008 100 11265 8.2 30 09:59 03.04.2020
5573 Rain 6 1008 100 11265 8.2 30 09:40 03.04.2020
5574 Rain 6 1008 100 11265 8.2 30 09:21 03.04.2020
5575 Rain 6 1008 100 9656 7.7 30 08:56 03.04.2020
5576 Rain 6 1008 93 8047 8.7 30 08:38 03.04.2020
5577 Rain 6 1008 93 8047 8.7 30 08:20 03.04.2020
5578 Rain 6 1008 93 9656 8.2 40 07:46 03.04.2020
5579 Rain 6 1008 93 9656 8.2 40 07:28 03.04.2020
5580 Rain 6 1008 93 14484 7.2 10 06:41 03.04.2020
5581 Rain 5 1008 93 14484 7.2 10 06:22 03.04.2020
5582 Rain 5 1008 93 14484 7.7 360 05:39 03.04.2020
5583 Rain 4 1009 93 14484 7.2 340 03:42 03.04.2020
5584 Rain 4 1009 100 14484 5.1 330 02:56 03.04.2020
5585 Rain 4 1009 93 14484 6.7 330 02:18 03.04.2020
5586 Rain 4 1009 86 14484 5.1 330 01:22 03.04.2020
5587 Rain 5 1009 86 14484 5.1 340 00:36 03.04.2020
5588 Rain 5 1009 86 14484 5.1 340 00:18 03.04.2020
5589 Rain 5 1009 86 14484 5.7 330 23:40 02.04.2020
5590 Rain 5 1009 86 14484 5.7 330 23:21 02.04.2020
5591 Rain 5 1009 86 14484 4.6 340 22:57 02.04.2020
5592 Rain 5 1009 86 14484 5.1 340 22:37 02.04.2020
5593 Rain 5 1009 86 14484 5.1 340 22:18 02.04.2020
5594 Rain 5 1009 86 14484 5.7 320 21:39 02.04.2020
5595 Rain 5 1009 86 14484 5.7 320 21:20 02.04.2020
5596 Rain 5 1009 86 14484 6.2 340 20:58 02.04.2020
5597 Rain 6 1009 80 14484 6.7 340 20:40 02.04.2020
5598 Rain 6 1009 80 14484 6.7 340 20:21 02.04.2020
5599 Rain 5 1010 80 14484 4.6 310 19:44 02.04.2020
5600 Rain 6 1010 80 14484 4.6 310 19:21 02.04.2020
5601 Rain 5 1010 75 14484 5.1 330 18:58 02.04.2020
5602 Rain 5 1010 75 14484 5.1 330 18:39 02.04.2020
5603 Rain 5 1010 75 14484 5.1 330 18:39 02.04.2020
5604 Rain 5 1010 75 14484 5.1 330 18:39 02.04.2020
5605 -273 0 0 0 0 0 18:20 02.04.2020
5606 Rain 5 1011 74 14484 6.2 340 17:56 02.04.2020
5607 Rain 5 1011 74 14484 6.2 340 17:38 02.04.2020
5608 Rain 5 1011 74 14484 6.2 340 17:19 02.04.2020
5609 Rain 5 1011 69 14484 5.7 330 16:55 02.04.2020
5610 Clouds 5 1011 64 14484 7.2 350 16:37 02.04.2020
5611 Clouds 4 1011 64 14484 7.2 350 16:19 02.04.2020
5612 Clouds 4 1011 74 14484 5.1 340 15:44 02.04.2020
5613 Clouds 3 1011 74 14484 5.1 340 15:22 02.04.2020
5614 Clouds 3 1012 74 14484 5.1 340 14:59 02.04.2020
5615 Clouds 2 1012 74 14484 5.1 340 14:40 02.04.2020
5616 Clouds 2 1012 74 14484 5.1 340 14:20 02.04.2020
5617 Clouds 2 1011 80 14484 4.1 340 13:58 02.04.2020
5618 Clouds 1 1011 80 14484 4.1 340 13:39 02.04.2020
5619 Clouds 1 1011 80 14484 4.1 340 13:21 02.04.2020
5620 Clouds 1 1011 74 14484 4.6 340 12:56 02.04.2020
5621 Clouds 1 1011 74 14484 4.6 340 12:56 02.04.2020
5622 Clouds 1 1011 74 14484 4.6 340 12:37 02.04.2020
5623 Clouds 1 1011 74 14484 4.6 340 12:19 02.04.2020
5624 Clouds 1 1012 86 14484 3.6 350 11:57 02.04.2020
5625 Clouds 1 1012 86 14484 3.6 350 11:38 02.04.2020
5626 Clouds 2 1012 86 14484 3.6 350 11:19 02.04.2020
5627 Clouds 2 1012 86 14484 3.6 350 11:19 02.04.2020
5628 Clouds 2 1011 86 14484 3.6 330 10:55 02.04.2020
5629 Clouds 2 1011 86 14484 3.6 330 10:55 02.04.2020
5630 Clouds 2 1011 86 14484 3.6 330 10:37 02.04.2020
5631 Clouds 2 1011 86 14484 3.6 330 10:18 02.04.2020
5632 Clouds 2 1012 94 14484 2.6 350 09:43 02.04.2020
5633 Clouds 2 1012 94 14484 2.6 350 09:25 02.04.2020
5634 Clouds 2 1012 96 14484 2.6 340 08:58 02.04.2020
5635 Clouds 2 1012 96 14484 2.6 340 08:40 02.04.2020
5636 Clouds 2 1012 96 14484 2.6 340 08:22 02.04.2020
5637 Clouds 2 1012 80 14484 2.6 360 07:44 02.04.2020
5638 Clouds 3 1012 80 14484 2.6 360 07:20 02.04.2020
5639 Clouds 3 1013 74 14484 3.1 10 06:58 02.04.2020
5640 Clouds 3 1013 74 14484 3.1 10 06:21 02.04.2020
5641 Clouds 3 1013 74 14484 3.6 10 05:44 02.04.2020
5642 Clouds 3 1014 74 14484 3.1 20 03:57 02.04.2020
5643 Clouds 5 1013 69 14484 4.6 20 01:34 02.04.2020
5644 Clouds 5 1013 65 14484 5.1 40 00:48 02.04.2020
5645 Clouds 5 1013 65 14484 5.1 40 00:26 02.04.2020
5646 Clouds 5 1013 60 14484 5.1 40 23:54 01.04.2020
5647 Clouds 5 1013 60 14484 5.1 40 23:36 01.04.2020
5648 Clouds 5 1013 60 14484 5.1 40 23:18 01.04.2020
5649 Clouds 5 1013 65 14484 5.1 10 22:40 01.04.2020
5650 Clouds 5 1013 65 14484 5.1 10 22:21 01.04.2020
5651 Clouds 5 1013 73 14484 5.1 10 21:55 01.04.2020
5652 Clouds 5 1013 73 14484 5.1 10 21:37 01.04.2020
5653 Clouds 5 1013 73 14484 5.1 10 21:18 01.04.2020
5654 Clouds 5 1013 73 14484 6.2 30 20:54 01.04.2020
5655 Clouds 5 1013 73 14484 6.2 30 20:54 01.04.2020
5656 Clouds 5 1013 73 14484 6.2 30 20:54 01.04.2020
5657 Clouds 5 1013 73 14484 6.2 30 20:36 01.04.2020
5658 Clouds 5 1013 73 14484 6.2 30 20:18 01.04.2020
5659 Clouds 5 1014 73 14484 5.7 10 19:42 01.04.2020
5660 Clouds 5 1014 73 14484 5.7 10 19:21 01.04.2020
5661 Clouds 5 1014 65 14484 5.7 50 18:56 01.04.2020
5662 Clouds 5 1014 65 14484 5.7 50 18:56 01.04.2020
5663 Clouds 5 1014 65 14484 5.7 50 18:38 01.04.2020
5664 Clouds 5 1014 65 14484 5.7 50 18:19 01.04.2020
5665 Clouds 4 1014 69 14484 5.1 40 17:55 01.04.2020
5666 Clouds 4 1014 69 14484 6.2 30 17:36 01.04.2020
5667 Clouds 4 1014 69 14484 6.2 30 17:18 01.04.2020
5668 Clouds 4 1015 69 14484 5.7 40 16:42 01.04.2020
5669 Clear 4 1015 69 14484 5.7 40 16:24 01.04.2020
5670 Clouds 3 1015 80 14484 4.1 50 15:58 01.04.2020
5671 Clouds 3 1015 80 14484 4.1 50 15:40 01.04.2020
5672 Clouds 3 1015 80 14484 4.1 50 15:21 01.04.2020
5673 Clouds 1 1015 86 14484 4.6 50 14:57 01.04.2020
5674 Clouds 1 1015 86 14484 4.6 50 14:38 01.04.2020
5675 Clouds 1 1015 86 14484 4.6 50 14:38 01.04.2020
5676 Clouds 1 1015 86 14484 4.6 50 14:19 01.04.2020
5677 Clouds 1 1015 86 14484 4.6 50 14:19 01.04.2020
5678 Clouds 0 1015 92 14484 4.1 30 13:58 01.04.2020
5679 Clouds 0 1015 92 14484 4.1 30 13:38 01.04.2020
5680 Clouds 0 1015 92 14484 4.1 30 13:19 01.04.2020
5681 Clouds -1 1015 92 14484 4.1 20 12:55 01.04.2020
5682 Clear -1 1015 86 14484 4.1 30 12:36 01.04.2020
5683 Clear -1 1015 86 14484 4.1 30 12:18 01.04.2020
5684 Clear -1 1015 86 14484 5.7 30 11:42 01.04.2020
5685 Clear -1 1015 86 14484 5.7 30 11:23 01.04.2020
5686 Clear -1 1015 86 14484 5.1 20 10:59 01.04.2020
5687 Clear 0 1015 86 14484 5.1 20 10:38 01.04.2020
5688 Clear 0 1015 86 14484 5.1 20 10:19 01.04.2020
5689 Clear 0 1015 86 14484 5.1 20 09:57 01.04.2020
5690 Clear 0 1015 86 14484 5.1 20 09:39 01.04.2020
5691 Clear 0 1015 86 14484 5.1 20 09:19 01.04.2020
5692 Clouds 0 1016 93 14484 4.6 40 08:42 01.04.2020
5693 Clouds 0 1016 93 14484 4.6 40 08:18 01.04.2020
5694 Clear 0 1016 93 14484 4.6 50 07:48 01.04.2020
5695 Clear 1 1016 93 14484 4.6 50 07:22 01.04.2020
5696 Clear 1 1017 93 14484 3.1 50 06:58 01.04.2020
5697 Clear 1 1017 93 14484 3.1 50 06:27 01.04.2020
5698 Clear 1 1017 64 14484 3.6 40 05:59 01.04.2020
5699 Clear 2 1018 51 14484 6.2 60 04:36 01.04.2020
5700 Clouds 3 1018 51 14484 4.6 40 03:33 01.04.2020
5701 Clouds 4 1018 51 14484 5.1 40 02:57 01.04.2020
5702 Clouds 4 1018 51 14484 5.1 40 02:21 01.04.2020
5703 Clear 5 1018 44 14484 5.1 50 01:43 01.04.2020
5704 Clear 5 1018 44 14484 5.1 50 01:22 01.04.2020
5705 Clear 6 1018 30 14484 6.2 50 00:46 01.04.2020
5706 Clear 6 1018 30 14484 6.2 50 00:46 01.04.2020
5707 Clear 7 1018 30 14484 6.2 50 00:21 01.04.2020
5708 Clear 7 1018 30 14484 6.2 50 00:21 01.04.2020
5709 Clear 7 1018 39 14484 8.7 40 23:49 31.03.2020
5710 Clear 7 1018 39 14484 8.7 40 23:28 31.03.2020
5711 Clear 7 1018 42 14484 6.7 40 22:59 31.03.2020
5712 Clear 7 1018 42 14484 6.7 40 22:38 31.03.2020
5713 Clear 7 1018 42 14484 6.7 40 22:20 31.03.2020
5714 Clear 7 1019 45 14484 6.7 40 21:57 31.03.2020
5715 Clear 7 1019 45 14484 6.7 40 21:39 31.03.2020
5716 Clear 7 1019 45 14484 6.7 40 21:20 31.03.2020
5717 Clear 7 1019 52 14484 7.7 20 20:56 31.03.2020
5718 Clear 7 1019 52 14484 7.7 20 20:37 31.03.2020
5719 Clear 7 1020 52 14484 7.7 30 20:18 31.03.2020
5720 Clear 7 1020 52 14484 7.7 30 19:55 31.03.2020
5721 Clear 7 1020 52 14484 7.7 30 19:36 31.03.2020
5722 Clear 6 1020 52 14484 7.7 30 19:18 31.03.2020
5723 Clear 6 1020 56 14484 6.7 40 18:41 31.03.2020
5724 Clear 6 1020 56 14484 6.7 40 18:20 31.03.2020
5725 Clear 5 1021 60 14484 7.2 40 17:56 31.03.2020
5726 Clear 5 1021 60 14484 7.2 40 17:56 31.03.2020
5727 Clear 5 1021 60 14484 7.2 40 17:56 31.03.2020
5728 Clear 5 1021 60 14484 7.2 40 17:38 31.03.2020
5729 Clear 5 1021 60 14484 7.2 40 17:20 31.03.2020
5730 Clear 4 1021 60 14484 7.2 50 16:42 31.03.2020
5731 Clear 4 1021 60 14484 7.2 50 16:20 31.03.2020
5732 Clouds 3 1022 74 14484 6.7 50 15:59 31.03.2020
5733 Clouds 3 1022 74 14484 6.7 50 15:41 31.03.2020
5734 Clouds 2 1022 74 14484 6.7 50 15:23 31.03.2020
5735 Clouds 2 1021 80 14484 5.7 50 15:00 31.03.2020
5736 Clouds 2 1021 80 14484 5.7 50 15:00 31.03.2020
5737 Clouds 2 1021 80 14484 5.7 50 14:41 31.03.2020
5738 Clouds 1 1021 80 14484 5.7 50 14:22 31.03.2020
5739 Clouds 1 1021 86 14484 5.1 40 13:55 31.03.2020
5740 Clouds 1 1021 86 14484 5.1 40 13:37 31.03.2020
5741 Clouds 1 1021 86 14484 5.1 40 13:18 31.03.2020
5742 Clouds 1 1020 86 14484 5.1 40 12:44 31.03.2020
5743 Clouds 1 1020 86 14484 5.1 40 12:20 31.03.2020
5744 Clouds 1 1020 86 14484 5.1 40 12:20 31.03.2020
5745 Clouds 1 1020 86 14484 5.1 30 11:55 31.03.2020
5746 Clouds 1 1020 86 14484 5.1 30 11:36 31.03.2020
5747 Clouds 1 1020 86 14484 5.1 30 11:36 31.03.2020
5748 Clouds 1 1020 86 14484 5.1 30 11:18 31.03.2020
5749 Clouds 1 1019 89 14484 5.7 40 10:55 31.03.2020
5750 Clouds 1 1019 89 14484 5.7 40 10:37 31.03.2020
5751 Clouds 1 1019 89 14484 5.7 40 10:18 31.03.2020
5752 Clouds 2 1019 89 14484 5.7 50 09:43 31.03.2020
5753 Rain 2 1019 89 14484 6.2 50 09:24 31.03.2020
5754 Rain 2 1019 93 14484 6.7 50 08:57 31.03.2020
5755 Clouds 2 1019 93 14484 5.1 50 08:39 31.03.2020
5756 Clouds 2 1019 93 14484 5.1 50 08:19 31.03.2020
5757 Clouds 2 1019 93 14484 4.1 50 07:56 31.03.2020
5758 Rain 2 1018 93 14484 5.7 50 07:38 31.03.2020
5759 Rain 2 1018 93 14484 5.7 50 07:19 31.03.2020
5760 Rain 2 1018 93 14484 6.2 50 06:47 31.03.2020
5761 Rain 2 1018 93 14484 6.2 50 06:23 31.03.2020
5762 Rain 2 1018 93 14484 6.7 50 05:39 31.03.2020
5763 Rain 3 1017 93 9656 6.2 40 03:43 31.03.2020
5764 Rain 4 1016 100 8047 3.6 20 02:25 31.03.2020
5765 Rain 4 1016 93 9656 3.1 10 01:46 31.03.2020
5766 Rain 4 1015 93 4828 2.6 20 00:51 31.03.2020
5767 Rain 4 1014 100 14484 2.6 30 00:25 31.03.2020
5768 Rain 4 1014 93 12874 2.6 10 23:59 30.03.2020
5769 Rain 5 1014 93 12874 2.6 10 23:38 30.03.2020
5770 Rain 5 1014 93 12874 2.6 10 23:18 30.03.2020
5771 Rain 5 1013 93 14484 1.5 100 22:56 30.03.2020
5772 Rain 5 1013 93 14484 1.5 100 22:37 30.03.2020
5773 Rain 5 1013 93 14484 1.5 100 22:18 30.03.2020
5774 Rain 5 1013 93 14484 2.6 140 21:55 30.03.2020
5775 Rain 6 1013 93 14484 2.6 140 21:36 30.03.2020
5776 Rain 6 1013 93 14484 2.6 140 21:18 30.03.2020
5777 Rain 6 1013 93 9656 4.1 150 20:42 30.03.2020
5778 Rain 6 1013 93 9656 4.1 150 20:24 30.03.2020
5779 Rain 6 1013 93 9656 4.1 150 20:24 30.03.2020
5780 Rain 6 1013 93 9656 4.1 150 20:24 30.03.2020
5781 Rain 6 1012 81 14484 5.1 160 19:59 30.03.2020
5782 Rain 6 1012 81 14484 5.1 160 19:40 30.03.2020
5783 Rain 6 1012 81 14484 5.1 160 19:21 30.03.2020
5784 Rain 7 1012 87 14484 3.6 160 18:57 30.03.2020
5785 Rain 7 1011 81 14484 6.2 170 18:38 30.03.2020
5786 Rain 7 1011 81 14484 6.2 170 18:20 30.03.2020
5787 Rain 7 1011 70 14484 6.2 190 17:56 30.03.2020
5788 Rain 8 1011 70 14484 6.2 190 17:37 30.03.2020
5789 Rain 8 1011 70 14484 6.2 190 17:18 30.03.2020
5790 Rain 8 1011 76 14484 7.7 160 16:55 30.03.2020
5791 Clouds 7 1011 75 14484 7.2 160 16:36 30.03.2020
5792 Clouds 7 1011 75 14484 7.2 160 16:18 30.03.2020
5793 Clouds 7 1011 81 14484 8.2 170 15:54 30.03.2020
5794 Clouds 6 1011 81 14484 8.2 170 15:36 30.03.2020
5795 Clouds 5 1011 81 14484 8.2 170 15:18 30.03.2020
5796 Clouds 5 1011 86 14484 5.7 160 14:39 30.03.2020
5797 Clouds 5 1011 86 14484 5.7 160 14:19 30.03.2020
5798 Clouds 5 1011 81 14484 6.7 160 13:59 30.03.2020
5799 Clouds 5 1011 81 14484 6.7 160 13:40 30.03.2020
5800 Clouds 5 1011 81 14484 6.7 160 13:20 30.03.2020
5801 Rain 5 1010 86 9656 5.7 170 12:56 30.03.2020
5802 Rain 5 1010 86 8047 8.2 180 12:37 30.03.2020
5803 Rain 5 1010 86 8047 8.2 180 12:19 30.03.2020
5804 Clouds 5 1009 86 14484 7.7 170 11:55 30.03.2020
5805 Clouds 5 1009 86 14484 7.7 170 11:55 30.03.2020
5806 Rain 5 1009 86 14484 6.7 170 11:37 30.03.2020
5807 Rain 5 1009 86 14484 6.7 170 11:18 30.03.2020
5808 Rain 5 1009 86 14484 8.7 170 10:39 30.03.2020
5809 Rain 5 1009 86 14484 8.7 170 10:21 30.03.2020
5810 Rain 5 1009 86 14484 8.7 170 10:21 30.03.2020
5811 Clouds 5 1010 86 14484 8.2 160 09:55 30.03.2020
5812 Clouds 5 1010 86 14484 8.2 160 09:37 30.03.2020
5813 Clouds 5 1010 86 14484 8.2 160 09:18 30.03.2020
5814 Clouds 5 1010 86 14484 8.7 160 08:40 30.03.2020
5815 Clouds 5 1010 86 14484 8.7 160 08:22 30.03.2020
5816 Rain 5 1011 86 14484 7.7 170 07:49 30.03.2020
5817 Clouds 5 1011 86 14484 7.7 160 07:26 30.03.2020
5818 Clouds 5 1011 86 14484 6.2 160 06:52 30.03.2020
5819 Rain 5 1011 86 14484 6.7 160 06:30 30.03.2020
5820 Mist 5 1011 86 4828 7.2 150 05:52 30.03.2020
5821 Rain 5 1011 86 4828 7.2 160 05:18 30.03.2020
5822 Clouds 4 1011 93 14484 6.2 140 04:22 30.03.2020
5823 Rain 4 1011 93 14484 4.1 120 03:34 30.03.2020
5824 Rain 4 1011 100 9656 5.1 110 02:37 30.03.2020
5825 Rain 4 1010 93 9656 5.1 90 01:35 30.03.2020
5826 Rain 5 1010 93 9656 5.1 90 00:47 30.03.2020
5827 Rain 5 1009 93 4828 5.7 80 00:21 30.03.2020
5828 Rain 5 1009 93 4828 5.1 80 23:41 29.03.2020
5829 Rain 5 1009 93 6437 7.7 90 23:23 29.03.2020
5830 Rain 5 1009 100 6437 7.7 100 22:57 29.03.2020
5831 Rain 5 1009 93 14484 6.7 100 22:37 29.03.2020
5832 Rain 5 1009 93 14484 6.7 100 22:19 29.03.2020
5833 Rain 5 1010 93 11265 8.2 110 21:55 29.03.2020
5834 Rain 5 1011 93 9656 6.2 110 21:36 29.03.2020
5835 Rain 5 1011 93 9656 6.2 110 21:36 29.03.2020
5836 Rain 5 1011 93 9656 6.2 110 21:18 29.03.2020
5837 Rain 5 1011 93 8047 7.7 100 20:54 29.03.2020
5838 Rain 5 1012 93 8047 6.2 100 20:36 29.03.2020
5839 Rain 6 1012 93 8047 6.2 100 20:18 29.03.2020
5840 Rain 5 1014 87 12874 6.2 100 19:42 29.03.2020
5841 Rain 5 1014 87 12874 6.2 100 19:24 29.03.2020
5842 Rain 5 1015 81 14484 5.1 90 18:58 29.03.2020
5843 Rain 5 1015 81 14484 5.1 90 18:40 29.03.2020
5844 Rain 5 1015 81 14484 5.1 90 18:20 29.03.2020
5845 Rain 5 1015 81 14484 5.1 90 18:20 29.03.2020
5846 Rain 5 1015 81 14484 5.1 90 18:20 29.03.2020
5847 Rain 5 1016 80 14484 4.1 80 17:58 29.03.2020
5848 Rain 4 1016 80 14484 4.1 80 17:40 29.03.2020
5849 Rain 4 1016 80 14484 4.1 80 17:22 29.03.2020
5850 Rain 4 1017 90 14484 5.1 110 16:58 29.03.2020
5851 Rain 4 1017 90 14484 5.1 110 16:39 29.03.2020
5852 Rain 5 1017 90 14484 5.1 110 16:20 29.03.2020
5853 Rain 5 1017 56 14484 4.1 40 15:58 29.03.2020
5854 Clouds 4 1018 60 14484 4.1 40 15:39 29.03.2020
5855 Clouds 4 1018 60 14484 4.1 40 15:19 29.03.2020
5856 Clouds 4 1018 64 14484 3.6 30 14:55 29.03.2020
5857 Clouds 4 1018 64 14484 3.6 30 14:36 29.03.2020
5858 Clouds 4 1018 64 14484 3.6 30 14:36 29.03.2020
5859 Clouds 4 1018 64 14484 3.6 30 14:18 29.03.2020
5860 Clouds 4 1019 60 14484 3.6 10 13:42 29.03.2020
5861 Clouds 4 1019 60 14484 3.6 10 13:22 29.03.2020
5862 Clouds 4 1018 64 14484 3.6 20 12:58 29.03.2020
5863 Clouds 4 1018 64 14484 3.6 20 12:39 29.03.2020
5864 Clouds 4 1018 64 14484 3.6 20 12:19 29.03.2020
5865 Clouds 4 1018 64 14484 3.6 10 11:59 29.03.2020
5866 Clouds 4 1018 64 14484 3.6 10 11:38 29.03.2020
5867 Clouds 4 1018 64 14484 3.6 10 11:19 29.03.2020
5868 Clouds 4 1019 64 14484 3.6 20 10:39 29.03.2020
5869 Clouds 4 1019 64 14484 3.6 20 10:21 29.03.2020
5870 Clouds 4 1019 64 14484 1.5 20 09:57 29.03.2020
5871 Clouds 4 1019 64 14484 1.5 20 09:38 29.03.2020
5872 Clouds 4 1019 64 14484 1.5 20 09:18 29.03.2020
5873 Clouds 4 1019 64 14484 1.5 20 09:18 29.03.2020
5874 Clouds 4 1019 55 14484 3.6 20 08:45 29.03.2020
5875 Clouds 4 1019 55 14484 3.6 20 08:26 29.03.2020
5876 Clouds 4 1020 64 14484 2.6 30 07:48 29.03.2020
5877 Clouds 4 1020 64 14484 2.6 30 07:24 29.03.2020
5878 Clouds 4 1020 60 14484 4.1 30 06:55 29.03.2020
5879 Clouds 4 1020 55 14484 4.6 40 04:57 29.03.2020
5880 Clouds 5 1021 55 14484 4.6 30 03:41 29.03.2020
5881 Clouds 5 1021 55 14484 4.6 30 03:23 29.03.2020
5882 Clouds 5 1020 60 14484 4.1 20 01:50 29.03.2020
5883 Clouds 6 1020 60 14484 4.1 20 01:23 29.03.2020
5884 Clouds 6 1020 52 14484 3.1 20 00:48 29.03.2020
5885 Clouds 6 1020 52 14484 3.1 20 00:29 29.03.2020
5886 Clouds 7 1019 56 14484 3.6 40 23:41 28.03.2020
5887 Clouds 8 1019 56 14484 3.6 40 23:23 28.03.2020
5888 Clouds 9 1019 36 14484 3.1 90 22:56 28.03.2020
5889 Clouds 9 1019 36 14484 3.1 90 22:37 28.03.2020
5890 Clouds 9 1019 36 14484 3.1 90 22:18 28.03.2020
5891 Clouds 9 1019 36 14484 3.1 60 21:41 28.03.2020
5892 Clouds 9 1019 36 14484 3.1 60 21:23 28.03.2020
5893 Clouds 9 1020 36 14484 3.6 100 20:58 28.03.2020
5894 Clouds 9 1020 36 14484 3.6 100 20:58 28.03.2020
5895 Clouds 8 1020 36 14484 3.6 100 20:39 28.03.2020
5896 Clouds 8 1020 36 14484 3.6 100 20:21 28.03.2020
5897 Clouds 8 1020 33 14484 2.1 100 19:56 28.03.2020
5898 Clouds 8 1020 33 14484 2.1 100 19:37 28.03.2020
5899 Clouds 8 1020 33 14484 2.1 100 19:18 28.03.2020
5900 Clouds 8 1021 36 14484 1.5 50 18:47 28.03.2020
5901 Clouds 7 1021 36 14484 1.5 50 18:22 28.03.2020
5902 Clouds 7 1021 35 14484 1 0 17:58 28.03.2020
5903 Clouds 6 1021 35 14484 1 0 17:38 28.03.2020
5904 Clouds 6 1021 35 14484 1 0 17:19 28.03.2020
5905 Clouds 6 1022 41 14484 2.1 80 16:42 28.03.2020
5906 Clouds 5 1022 41 14484 2.1 80 16:20 28.03.2020
5907 Clouds 5 1022 44 14484 2.6 100 15:56 28.03.2020
5908 Clouds 4 1022 44 14484 2.6 100 15:37 28.03.2020
5909 Clouds 4 1022 44 14484 2.6 100 15:18 28.03.2020
5910 Clouds 3 1022 55 14484 1 70 14:42 28.03.2020
5911 Clouds 2 1022 55 14484 1 70 14:22 28.03.2020
5912 Clear 2 1021 87 14484 1.29 90 13:57 28.03.2020
5913 Clear 1 1021 87 14484 1.29 90 13:37 28.03.2020
5914 Clear 0 1021 88 14484 1.51 86 13:18 28.03.2020
5915 Clear -2 1021 73 14484 1 60 12:38 28.03.2020
5916 Clear -3 1021 73 14484 1 60 12:19 28.03.2020
5917 Clear -3 1021 85 14484 1 90 11:42 28.03.2020
5918 Clear -3 1021 85 14484 1 90 11:42 28.03.2020
5919 Clear -3 1021 85 14484 1 90 11:21 28.03.2020
5920 Clear -3 1020 85 14484 1.5 80 10:55 28.03.2020
5921 Clear -3 1020 85 14484 1.5 80 10:36 28.03.2020
5922 Clear -3 1020 85 14484 1.5 80 10:18 28.03.2020
5923 Clear -2 1020 79 14484 1 150 09:40 28.03.2020
5924 Clear -2 1020 79 14484 1 150 09:22 28.03.2020
5925 Clear -2 1020 68 14484 1 0 08:45 28.03.2020
5926 Clear -2 1020 68 14484 1 0 08:25 28.03.2020
5927 Clear -2 1020 68 14484 1 0 07:58 28.03.2020
5928 Clear -2 1020 68 14484 1 0 07:40 28.03.2020
5929 Clear -1 1019 87 14484 1.5 20 06:54 28.03.2020
5930 Clear -1 1019 87 14484 1.5 20 06:29 28.03.2020
5931 Clear 0 1019 55 14484 1 0 05:38 28.03.2020
5932 Clear 0 1019 55 14484 1 0 05:19 28.03.2020
5933 Clear 0 1019 55 14484 2.1 40 04:39 28.03.2020
5934 Clear 3 1017 44 14484 3.1 290 02:52 28.03.2020
5935 Clear 5 1016 38 14484 4.1 300 01:48 28.03.2020
5936 Clear 5 1016 38 14484 4.1 300 01:23 28.03.2020
5937 Clear 6 1016 33 14484 4.6 280 00:51 28.03.2020
5938 Clear 7 1016 33 14484 4.6 280 00:28 28.03.2020
5939 Clear 8 1015 26 14484 5.1 280 23:44 27.03.2020
5940 Clear 8 1015 26 14484 5.1 280 23:26 27.03.2020
5941 Clear 9 1014 36 14484 6.2 260 22:57 27.03.2020
5942 Clear 9 1014 36 14484 6.2 260 22:39 27.03.2020
5943 Clear 9 1014 36 14484 6.2 260 22:21 27.03.2020
5944 Clear 9 1014 36 14484 5.7 260 21:59 27.03.2020
5945 Clear 9 1014 36 14484 5.7 260 21:40 27.03.2020
5946 Clear 9 1014 36 14484 5.7 260 21:22 27.03.2020
5947 Clear 8 1014 49 14484 6.7 230 20:57 27.03.2020
5948 Clear 8 1014 49 14484 6.7 230 20:39 27.03.2020
5949 Clear 8 1014 49 14484 6.7 230 20:19 27.03.2020
5950 Clear 8 1013 42 14484 5.1 250 19:55 27.03.2020
5951 Clear 8 1013 42 14484 5.1 250 19:36 27.03.2020
5952 Clear 8 1013 42 14484 5.1 250 19:18 27.03.2020
5953 Clouds 8 1013 48 14484 2.1 290 18:42 27.03.2020
5954 Clouds 7 1013 48 14484 2.1 290 18:23 27.03.2020
5955 Clear 7 1013 52 14484 4.6 330 17:55 27.03.2020
5956 Clear 6 1013 52 14484 4.6 330 17:36 27.03.2020
5957 Clear 6 1013 52 14484 4.6 330 17:18 27.03.2020
5958 Clear 5 1013 60 14484 3.1 290 16:44 27.03.2020
5959 Clear 5 1013 60 14484 3.1 290 16:25 27.03.2020
5960 Clear 5 1013 65 14484 4.6 290 15:45 27.03.2020
5961 Clear 5 1013 65 14484 4.6 290 15:26 27.03.2020
5962 Clear 4 1012 74 14484 4.1 280 14:56 27.03.2020
5963 Clear 4 1012 74 14484 4.1 280 14:37 27.03.2020
5964 Clear 3 1012 74 14484 4.1 280 14:18 27.03.2020
5965 Clear 2 1011 80 14484 6.2 270 13:43 27.03.2020
5966 Clear 2 1011 80 14484 6.2 270 13:22 27.03.2020
5967 Clear 1 1010 86 14484 4.1 270 12:59 27.03.2020
5968 Clear 1 1010 86 14484 4.1 270 12:41 27.03.2020
5969 Clear 1 1010 86 14484 4.1 270 12:19 27.03.2020
5970 Clear 1 1009 86 14484 5.7 290 11:43 27.03.2020
5971 Clear 1 1009 86 14484 5.7 290 11:25 27.03.2020
5972 Clear 1 1009 80 14484 5.7 270 10:57 27.03.2020
5973 Clear 1 1009 80 14484 5.7 270 10:39 27.03.2020
5974 Clear 1 1009 80 14484 5.7 270 10:20 27.03.2020
5975 Clear 2 1008 91 14484 5.7 270 09:58 27.03.2020
5976 Clear 2 1008 91 14484 5.7 270 09:39 27.03.2020
5977 Clear 2 1008 91 14484 5.7 270 09:21 27.03.2020
5978 Clear 2 1007 91 14484 4.6 280 08:58 27.03.2020
5979 Clear 2 1007 91 14484 4.6 280 08:39 27.03.2020
5980 Clear 2 1007 91 14484 4.6 280 08:21 27.03.2020
5981 Clouds 2 1008 82 24140 4.1 260 07:53 27.03.2020
5982 Clouds 3 1007 80 14484 5.1 280 07:28 27.03.2020
5983 Clouds 3 1007 86 24140 5.1 260 06:59 27.03.2020
5984 Clouds 3 1007 86 24140 5.1 260 06:37 27.03.2020
5985 Clouds 4 1005 86 14484 7.2 290 05:38 27.03.2020
5986 Clouds 7 1004 93 14484 6.2 270 02:52 27.03.2020
5987 Clouds 7 1004 93 11265 3.6 210 01:54 27.03.2020
5988 Rain 7 1005 93 14484 4.6 180 00:56 27.03.2020
5989 Rain 7 1005 93 14484 4.6 180 00:37 27.03.2020
5990 Rain 8 1005 93 14484 4.6 180 00:18 27.03.2020
5991 Rain 8 1005 93 14484 4.6 180 00:18 27.03.2020
5992 Rain 8 1006 66 14484 5.7 210 23:36 26.03.2020
5993 Rain 8 1006 66 14484 5.7 210 23:18 26.03.2020
5994 Rain 9 1004 53 14484 6.7 170 22:54 26.03.2020
5995 Rain 10 1004 53 14484 6.7 170 22:36 26.03.2020
5996 Rain 11 1004 53 14484 6.7 170 22:18 26.03.2020
5997 Clouds 11 1006 53 14484 9.8 170 21:39 26.03.2020
5998 Clouds 11 1006 53 14484 9.8 170 21:21 26.03.2020
5999 Clouds 10 1008 57 14484 7.2 160 20:58 26.03.2020
6000 Clouds 10 1008 57 14484 7.2 160 20:39 26.03.2020
6001 Clouds 10 1008 57 14484 7.2 160 20:20 26.03.2020
6002 Clear 10 1009 57 14484 4.6 170 19:57 26.03.2020
6003 Clear 10 1009 57 14484 4.6 170 19:57 26.03.2020
6004 Clear 10 1009 57 14484 4.6 170 19:39 26.03.2020
6005 Clear 10 1009 57 14484 4.6 170 19:20 26.03.2020
6006 Clouds 9 1011 57 14484 7.7 170 18:58 26.03.2020
6007 Clouds 9 1011 57 14484 7.7 170 18:39 26.03.2020
6008 Clouds 9 1011 57 14484 7.7 170 18:21 26.03.2020
6009 Clouds 8 1012 65 14484 5.1 170 17:44 26.03.2020
6010 Clouds 6 1012 65 14484 5.1 170 17:19 26.03.2020
6011 Clouds 5 1014 85 14484 4.6 160 16:55 26.03.2020
6012 Clouds 5 1014 85 14484 4.6 160 16:55 26.03.2020
6013 Clouds 6 1014 85 14484 4.6 160 16:37 26.03.2020
6014 Clouds 6 1014 85 14484 4.6 160 16:18 26.03.2020
6015 Clouds 5 1014 65 14484 6.7 170 15:41 26.03.2020
6016 Clouds 5 1014 65 14484 6.7 170 15:22 26.03.2020
6017 Clouds 5 1015 69 14484 4.6 160 14:59 26.03.2020
6018 Clouds 4 1015 69 14484 4.6 160 14:41 26.03.2020
6019 Clouds 4 1015 69 14484 4.6 160 14:23 26.03.2020
6020 Clouds 3 1015 69 14484 4.1 150 13:54 26.03.2020
6021 Clouds 3 1015 69 14484 4.1 150 13:36 26.03.2020
6022 Clouds 3 1015 69 14484 4.1 150 13:18 26.03.2020
6023 Clouds 3 1016 69 14484 3.6 150 12:38 26.03.2020
6024 Clouds 3 1016 69 14484 3.6 150 12:20 26.03.2020
6025 Clouds 3 1016 74 14484 2.1 160 11:46 26.03.2020
6026 Clouds 3 1016 74 14484 2.1 160 11:22 26.03.2020
6027 Clouds 3 1016 69 14484 2.6 160 10:57 26.03.2020
6028 Clouds 3 1016 69 14484 2.6 160 10:38 26.03.2020
6029 Clouds 3 1016 69 14484 2.6 160 10:19 26.03.2020
6030 Clouds 3 1016 74 14484 3.1 180 09:44 26.03.2020
6031 Clouds 3 1016 74 14484 3.1 180 09:21 26.03.2020
6032 Clouds 4 1016 69 14484 3.6 170 08:57 26.03.2020
6033 Clouds 4 1016 69 14484 3.6 170 08:38 26.03.2020
6034 Clouds 4 1016 69 14484 3.6 170 08:19 26.03.2020
6035 Clouds 4 1016 64 14484 3.6 160 07:44 26.03.2020
6036 Clouds 4 1016 64 14484 3.6 160 07:22 26.03.2020
6037 Clouds 4 1016 69 14484 2.6 140 06:56 26.03.2020
6038 Clouds 4 1016 69 24140 2.6 130 06:27 26.03.2020
6039 Clouds 4 1016 64 14484 2.6 160 05:22 26.03.2020
6040 Clouds 4 1017 60 14484 4.1 160 03:45 26.03.2020
6041 Clouds 5 1017 60 14484 3.6 160 02:56 26.03.2020
6042 Clouds 6 1017 56 14484 3.1 140 01:50 26.03.2020
6043 Clouds 7 1018 52 14484 3.6 170 00:56 26.03.2020
6044 Clouds 7 1018 52 14484 3.6 170 00:22 26.03.2020
6045 Clouds 7 1017 52 14484 6.2 160 23:41 25.03.2020
6046 Clouds 7 1017 52 14484 6.2 160 23:22 25.03.2020
6047 Clouds 8 1018 49 14484 6.7 170 22:42 25.03.2020
6048 Clouds 8 1018 49 14484 6.7 170 22:22 25.03.2020
6049 Clouds 8 1018 52 14484 6.2 180 21:57 25.03.2020
6050 Clouds 8 1018 52 14484 6.2 180 21:38 25.03.2020
6051 Clouds 8 1018 52 14484 6.2 180 21:20 25.03.2020
6052 Clouds 8 1018 49 14484 6.7 150 20:56 25.03.2020
6053 Clouds 8 1018 49 14484 6.7 150 20:37 25.03.2020
6054 Clouds 8 1018 49 14484 6.7 150 20:18 25.03.2020
6055 Clouds 8 1018 49 14484 6.7 150 20:18 25.03.2020
6056 Clear 7 1019 52 14484 6.7 150 19:43 25.03.2020
6057 Clear 7 1019 52 14484 6.7 150 19:23 25.03.2020
6058 Clear 7 1019 52 14484 7.2 190 18:59 25.03.2020
6059 Clear 7 1020 52 14484 6.7 140 18:40 25.03.2020
6060 Clear 7 1020 52 14484 6.7 140 18:22 25.03.2020
6061 Clouds 6 1020 56 14484 6.2 140 17:56 25.03.2020
6062 Clouds 6 1020 56 14484 6.2 140 17:38 25.03.2020
6063 Clouds 6 1020 56 14484 6.2 140 17:38 25.03.2020
6064 Clouds 5 1020 56 14484 6.2 140 17:20 25.03.2020
6065 Clouds 4 1021 60 14484 5.7 130 16:55 25.03.2020
6066 Clouds 4 1021 60 14484 5.7 130 16:36 25.03.2020
6067 Clouds 4 1021 60 14484 5.7 130 16:18 25.03.2020
6068 Clouds 3 1022 74 14484 3.6 100 15:41 25.03.2020
6069 Clouds 2 1022 74 14484 3.6 100 15:20 25.03.2020
6070 Clouds 1 1022 91 14484 2.1 100 14:56 25.03.2020
6071 Clouds 1 1022 91 14484 2.1 100 14:37 25.03.2020
6072 Clouds 1 1022 98 14484 2.1 100 14:18 25.03.2020
6073 Clear 0 1022 92 14484 2.6 90 13:42 25.03.2020
6074 Clear 0 1022 92 14484 2.6 90 13:22 25.03.2020
6075 Mist -2 1022 92 9656 1.5 100 12:38 25.03.2020
6076 Mist -2 1022 92 9656 1.5 100 12:20 25.03.2020
6077 Clear -3 1022 100 14484 3.1 120 11:56 25.03.2020
6078 Clear -3 1022 100 14484 3.1 120 11:38 25.03.2020
6079 Clear -3 1022 100 14484 3.1 120 11:20 25.03.2020
6080 Clear -3 1022 92 12874 1 70 10:57 25.03.2020
6081 Clear -3 1022 92 12874 1 70 10:39 25.03.2020
6082 Clear -3 1022 92 12874 1 70 10:18 25.03.2020
6083 Clear -2 1022 92 14484 3.1 170 09:43 25.03.2020
6084 Clear -2 1022 92 14484 3.1 170 09:24 25.03.2020
6085 Clear -1 1022 92 14484 2.1 160 08:57 25.03.2020
6086 Clear -1 1022 92 14484 2.1 160 08:39 25.03.2020
6087 Clear -1 1022 92 14484 2.1 160 08:19 25.03.2020
6088 Clear -1 1022 92 14484 2.1 160 08:19 25.03.2020
6089 Clear -1 1022 92 14484 2.6 150 07:41 25.03.2020
6090 Clear -1 1022 92 14484 2.6 150 07:23 25.03.2020
6091 Clear -1 1022 92 14484 2.6 150 06:50 25.03.2020
6092 Clear -1 1022 92 14484 2.6 150 06:28 25.03.2020
6093 Clear 0 1023 98 14484 3.6 180 05:58 25.03.2020
6094 Clear 0 1023 98 14484 3.6 180 05:37 25.03.2020
6095 Clouds 1 1023 98 14484 2.6 160 04:41 25.03.2020
6096 Clear 2 1023 80 14484 1.5 220 03:52 25.03.2020
6097 Clear 2 1023 80 14484 1.5 220 03:29 25.03.2020
6098 Clear 3 1022 69 14484 2.6 200 01:31 25.03.2020
6099 Clear 4 1022 64 14484 4.6 240 00:49 25.03.2020
6100 Clear 4 1022 64 14484 4.6 240 00:26 25.03.2020
6101 Clear 5 1021 60 14484 5.1 240 23:53 24.03.2020
6102 Clear 5 1021 60 14484 5.1 240 23:28 24.03.2020
6103 Clear 6 1021 60 14484 4.1 210 22:58 24.03.2020
6104 Clear 6 1021 60 14484 4.1 210 22:38 24.03.2020
6105 Clear 6 1021 60 14484 4.1 210 22:20 24.03.2020
6106 Clear 6 1021 60 14484 4.1 210 22:20 24.03.2020
6107 Clouds 6 1021 60 14484 1 0 21:57 24.03.2020
6108 Clouds 6 1021 60 14484 1 0 21:39 24.03.2020
6109 Clouds 6 1021 60 14484 1 0 21:18 24.03.2020
6110 Clear 5 1021 60 14484 1 0 20:57 24.03.2020
6111 Clear 5 1021 60 14484 1 0 20:39 24.03.2020
6112 Clear 6 1021 60 14484 1 0 20:21 24.03.2020
6113 Clouds 5 1022 64 14484 3.6 260 19:46 24.03.2020
6114 Clouds 4 1022 64 14484 3.6 260 19:20 24.03.2020
6115 Clouds 4 1022 69 14484 2.6 310 18:56 24.03.2020
6116 Clouds 4 1022 64 14484 1.76 247 18:38 24.03.2020
6117 Clouds 3 1022 64 14484 1.76 247 18:19 24.03.2020
6118 Clouds 3 1023 69 14484 1.76 247 17:56 24.03.2020
6119 Clouds 3 1023 69 14484 1.76 247 17:38 24.03.2020
6120 Clouds 3 1023 69 14484 1.76 264 17:19 24.03.2020
6121 Clouds 2 1023 86 12874 1 0 16:56 24.03.2020
6122 Clouds 2 1023 86 12874 1 0 16:37 24.03.2020
6123 Clouds 2 1023 86 12874 1 0 16:19 24.03.2020
6124 Haze 1 1022 80 9656 1 0 15:42 24.03.2020
6125 Haze 1 1022 80 9656 1 0 15:23 24.03.2020
6126 Clouds 0 1022 96 11265 1 310 14:44 24.03.2020
6127 Clouds 1 1022 95 12874 1.5 310 14:22 24.03.2020
6128 Mist 0 1022 98 9656 1.5 310 13:59 24.03.2020
6129 Mist 0 1022 100 6437 1.5 320 13:40 24.03.2020
6130 Mist 0 1022 100 6437 1.5 320 13:22 24.03.2020
6131 Mist -1 1021 100 6437 1.5 310 12:42 24.03.2020
6132 Mist -1 1021 100 6437 1.5 310 12:24 24.03.2020
6133 Mist -1 1020 100 8047 1.5 320 11:41 24.03.2020
6134 Mist -1 1020 100 8047 1.5 320 11:22 24.03.2020
6135 Mist -1 1020 100 4828 1.5 360 10:59 24.03.2020
6136 Mist -1 1020 100 4828 2.6 350 10:41 24.03.2020
6137 Mist -1 1020 100 4828 2.6 350 10:18 24.03.2020
6138 Mist -1 1019 100 4828 2.1 350 09:46 24.03.2020
6139 Mist -1 1019 100 4828 2.1 350 09:27 24.03.2020
6140 Mist -1 1019 100 8047 2.1 360 08:57 24.03.2020
6141 Mist -1 1019 100 8047 2.1 360 08:38 24.03.2020
6142 Mist -1 1019 100 8047 2.1 360 08:19 24.03.2020
6143 Mist -1 1020 100 4828 1.5 350 07:44 24.03.2020
6144 Snow -1 1020 100 4828 1 20 07:22 24.03.2020
6145 Snow -1 1020 100 3219 1 40 06:42 24.03.2020
6146 Snow -1 1020 100 4828 0.43 139 06:21 24.03.2020
6147 Snow -1 1021 100 4828 2.6 110 04:52 24.03.2020
6148 Snow -1 1022 100 2816 2.1 110 03:41 24.03.2020
6149 Snow -1 1022 100 4023 1.5 100 02:44 24.03.2020
6150 Snow -1 1023 100 2816 3.1 130 00:57 24.03.2020
6151 Snow -1 1023 100 2816 3.6 130 00:28 24.03.2020
6152 Snow -1 1023 100 4828 3.1 130 23:59 23.03.2020
6153 Snow -1 1023 98 2816 4.6 110 23:38 23.03.2020
6154 Snow -1 1024 100 4828 3.6 130 23:19 23.03.2020
6155 Snow 0 1024 100 2012 4.1 130 22:45 23.03.2020
6156 Snow 0 1025 92 2012 2.6 150 22:23 23.03.2020
6157 Snow -1 1025 92 2012 2.1 160 21:55 23.03.2020
6158 Snow -1 1025 92 1609 4.1 160 21:37 23.03.2020
6159 Snow -1 1025 92 1609 4.1 160 21:37 23.03.2020
6160 Snow 0 1025 92 1609 4.1 160 21:19 23.03.2020
6161 Snow 0 1025 92 1006 5.1 150 20:56 23.03.2020
6162 Snow 0 1026 89 1006 7.2 140 20:38 23.03.2020
6163 Snow 1 1026 60 1006 7.2 140 20:19 23.03.2020
6164 Clouds 1 1026 59 8047 5.7 160 19:42 23.03.2020
6165 Clouds 2 1027 51 14484 6.2 170 19:23 23.03.2020
6166 Clouds 2 1027 55 11265 6.2 160 18:56 23.03.2020
6167 Clouds 2 1028 47 14484 8.2 180 18:38 23.03.2020
6168 Clouds 2 1028 47 14484 8.2 180 18:19 23.03.2020
6169 Snow 1 1028 64 9656 7.2 150 17:42 23.03.2020
6170 Rain 1 1029 43 14484 9.3 190 17:21 23.03.2020
6171 Snow 1 1029 50 24140 7.7 150 16:56 23.03.2020
6172 Clouds 1 1030 43 14484 9.3 180 16:38 23.03.2020
6173 Clouds 1 1030 43 14484 9.3 180 16:19 23.03.2020
6174 Clouds 1 1030 43 14484 8.7 180 15:41 23.03.2020
6175 Clouds 1 1031 47 14484 8.2 170 15:19 23.03.2020
6176 Clouds 0 1031 56 14484 4.6 160 14:38 23.03.2020
6177 Clouds -2 1031 68 14484 4.6 160 14:20 23.03.2020
6178 Clouds -2 1031 58 14484 2.6 140 13:59 23.03.2020
6179 Clouds -3 1031 58 14484 2.6 140 13:40 23.03.2020
6180 Clouds -4 1031 58 14484 2.6 140 13:20 23.03.2020
6181 Clouds -4 1032 58 14484 3.1 120 12:44 23.03.2020
6182 Clouds -4 1032 58 14484 3.1 120 12:25 23.03.2020
6183 Clouds -5 1034 73 14484 2.6 30 11:59 23.03.2020
6184 Clouds -5 1034 73 14484 2.6 30 11:40 23.03.2020
6185 Clouds -5 1034 73 14484 2.6 30 11:20 23.03.2020
6186 Clouds -5 1034 73 14484 2.6 30 11:20 23.03.2020
6187 Clouds -5 1034 73 14484 2.1 40 10:58 23.03.2020
6188 Clouds -6 1034 73 14484 2.1 40 10:38 23.03.2020
6189 Clouds -6 1034 73 14484 2.1 40 10:38 23.03.2020
6190 Clouds -6 1034 73 14484 2.1 40 10:20 23.03.2020
6191 Clouds -6 1035 67 14484 2.6 10 09:44 23.03.2020
6192 Clouds -6 1035 67 14484 2.6 10 09:21 23.03.2020
6193 Clouds -6 1036 73 14484 2.6 30 08:57 23.03.2020
6194 Clouds -6 1036 73 14484 2.6 30 08:36 23.03.2020
6195 Clouds -6 1036 73 14484 2.6 30 08:18 23.03.2020
6196 Clear -6 1037 67 14484 3.1 40 07:45 23.03.2020
6197 Clear -6 1037 67 14484 3.1 40 07:27 23.03.2020
6198 Clear -6 1037 67 14484 3.6 30 06:52 23.03.2020
6199 Clear -6 1038 73 14484 3.6 30 05:55 23.03.2020
6200 Clear -6 1038 73 14484 3.6 30 05:29 23.03.2020
6201 Clear -5 1039 57 14484 1 60 03:41 23.03.2020
6202 Clear -5 1040 53 14484 1.5 70 02:29 23.03.2020
6203 Clear -4 1040 45 14484 2.1 110 01:34 23.03.2020
6204 Clear -3 1040 35 14484 2.6 110 00:40 23.03.2020
6205 Clear -2 1041 30 14484 2.6 110 23:48 22.03.2020
6206 Clear -2 1041 30 14484 2.6 110 23:26 22.03.2020
6207 Clear -2 1041 30 14484 2.6 110 23:26 22.03.2020
6208 Clear -2 1041 33 14484 2.1 70 22:47 22.03.2020
6209 Clear -2 1041 33 14484 2.1 70 22:26 22.03.2020
6210 Clear -2 1041 36 14484 2.6 80 21:57 22.03.2020
6211 Clear -2 1041 36 14484 2.6 80 21:57 22.03.2020
6212 Clear -2 1041 36 14484 2.6 80 21:39 22.03.2020
6213 Clear -2 1041 36 14484 2.6 80 21:20 22.03.2020
6214 Clear -2 1042 38 14484 3.6 30 20:56 22.03.2020
6215 Clear -2 1042 38 14484 3.6 30 20:38 22.03.2020
6216 Clear -2 1042 38 14484 3.6 30 20:20 22.03.2020
6217 Clear -3 1043 38 14484 2.1 0 19:55 22.03.2020
6218 Clear -3 1043 38 14484 2.1 0 19:37 22.03.2020
6219 Clear -3 1043 38 14484 2.1 0 19:18 22.03.2020
6220 Clear -3 1043 35 14484 2.1 40 18:55 22.03.2020
6221 Clear -3 1043 35 14484 2.1 40 18:37 22.03.2020
6222 Clear -4 1043 35 14484 2.1 40 18:18 22.03.2020
6223 Clear -4 1043 45 14484 3.6 50 17:55 22.03.2020
6224 Clear -4 1043 45 14484 3.6 50 17:36 22.03.2020
6225 Clear -4 1043 45 14484 3.6 50 17:18 22.03.2020
6226 Clear -4 1043 45 14484 2.1 60 16:41 22.03.2020
6227 Clear -5 1043 45 14484 2.1 60 16:22 22.03.2020
6228 Clear -5 1043 44 14484 3.6 360 15:59 22.03.2020
6229 Clear -5 1043 44 14484 3.6 360 15:39 22.03.2020
6230 Clear -6 1043 52 14484 3.1 360 14:47 22.03.2020
6231 Clear -7 1043 52 14484 3.1 360 14:20 22.03.2020
6232 Clear -7 1042 61 14484 3.6 10 13:58 22.03.2020
6233 Clear -7 1042 61 14484 3.6 10 13:58 22.03.2020
6234 Clear -7 1042 61 14484 3.6 10 13:40 22.03.2020
6235 Clear -8 1042 61 14484 3.6 10 13:19 22.03.2020
6236 Clear -9 1041 66 14484 3.1 360 12:44 22.03.2020
6237 Clear -9 1041 66 14484 3.1 360 12:23 22.03.2020
6238 Clear -9 1040 57 14484 2.02 60 11:58 22.03.2020
6239 Clear -9 1040 57 14484 2.02 60 11:39 22.03.2020
6240 Clear -9 1040 57 14484 2.02 60 11:21 22.03.2020
6241 Clear -9 1039 61 14484 2.33 42 10:44 22.03.2020
6242 Clear -9 1039 61 14484 2.33 42 10:24 22.03.2020
6243 Clear -9 1039 61 14484 2.33 42 10:24 22.03.2020
6244 Clear -9 1039 66 14484 1 350 10:00 22.03.2020
6245 Clear -9 1039 66 14484 1 350 09:40 22.03.2020
6246 Clear -8 1039 66 14484 1 350 09:19 22.03.2020
6247 Clear -8 1038 61 14484 1.5 50 08:42 22.03.2020
6248 Clear -8 1038 61 14484 1.5 50 08:24 22.03.2020
6249 Clear -7 1038 57 14484 3.1 10 07:50 22.03.2020
6250 Clear -7 1038 57 14484 3.1 10 07:23 22.03.2020
6251 Clear -7 1038 52 14484 4.1 20 06:35 22.03.2020
6252 Clear -6 1037 53 14484 5.7 20 05:31 22.03.2020
6253 Clear -5 1036 49 14484 3.6 340 03:25 22.03.2020
6254 Clouds -4 1034 35 14484 4.1 310 01:27 22.03.2020
6255 Clear -4 1033 32 14484 3.6 290 00:47 22.03.2020
6256 Clear -3 1033 32 14484 3.6 290 00:25 22.03.2020
6257 Clouds -2 1033 33 14484 3.1 270 23:43 21.03.2020
6258 Clouds -2 1033 33 14484 3.1 270 23:19 21.03.2020
6259 Clouds -2 1032 30 14484 6.2 300 22:55 21.03.2020
6260 Clouds -2 1032 30 14484 6.2 300 22:37 21.03.2020
6261 Clouds -2 1032 30 14484 6.2 300 22:18 21.03.2020
6262 Clouds -1 1031 30 14484 2.6 310 21:54 21.03.2020
6263 Clouds -1 1031 30 14484 2.6 310 21:36 21.03.2020
6264 Clouds -2 1031 30 14484 2.6 310 21:18 21.03.2020
6265 Clear -2 1032 33 14484 6.7 320 20:41 21.03.2020
6266 Clear -2 1032 33 14484 6.7 320 20:20 21.03.2020
6267 Clear -2 1033 42 14484 5.7 320 19:44 21.03.2020
6268 Clear -3 1033 42 14484 5.7 320 19:25 21.03.2020
6269 Clear -3 1033 45 14484 3.1 260 18:59 21.03.2020
6270 Clear -3 1033 45 14484 3.1 260 18:39 21.03.2020
6271 Clear -3 1033 45 14484 3.1 260 18:20 21.03.2020
6272 Clear -4 1033 41 14484 4.6 310 17:57 21.03.2020
6273 Clear -4 1033 41 14484 4.6 310 17:39 21.03.2020
6274 Clear -4 1033 41 14484 4.6 310 17:20 21.03.2020
6275 Clear -5 1033 41 14484 5.1 310 16:41 21.03.2020
6276 Clear -5 1033 41 14484 5.1 310 16:22 21.03.2020
6277 Clear -6 1032 37 14484 5.1 350 15:57 21.03.2020
6278 Clear -6 1032 37 14484 5.1 350 15:39 21.03.2020
6279 Clear -6 1032 37 14484 5.1 350 15:21 21.03.2020
6280 Clear -6 1031 41 14484 5.1 310 14:55 21.03.2020
6281 Clear -6 1031 41 14484 5.1 310 14:37 21.03.2020
6282 Clear -7 1031 41 14484 5.1 310 14:18 21.03.2020
6283 Clear -7 1030 44 14484 6.7 330 13:57 21.03.2020
6284 Clear -7 1030 44 14484 6.7 330 13:38 21.03.2020
6285 Clear -7 1030 44 14484 6.7 330 13:19 21.03.2020
6286 Clear -7 1028 48 14484 5.1 310 12:41 21.03.2020
6287 Clear -7 1028 48 14484 5.1 310 12:21 21.03.2020
6288 Clear -7 1027 44 14484 5.7 330 11:59 21.03.2020
6289 Clear -7 1027 44 14484 5.7 330 11:39 21.03.2020
6290 Clear -7 1027 44 14484 5.7 330 11:39 21.03.2020
6291 Clear -6 1027 44 14484 5.7 330 11:20 21.03.2020
6292 Clear -6 1025 57 14484 5.1 300 10:58 21.03.2020
6293 Clear -6 1025 57 14484 5.1 300 10:40 21.03.2020
6294 Clear -6 1025 57 14484 5.1 300 10:22 21.03.2020
6295 Clear -5 1024 58 14484 5.1 320 09:59 21.03.2020
6296 Clear -5 1024 58 14484 5.1 320 09:39 21.03.2020
6297 Clear -5 1024 58 14484 5.1 320 09:39 21.03.2020
6298 Clear -5 1024 58 14484 5.1 320 09:20 21.03.2020
6299 Clouds -4 1022 58 14484 8.2 310 08:55 21.03.2020
6300 Clouds -4 1022 58 14484 8.2 310 08:37 21.03.2020
6301 Clouds -4 1022 58 14484 8.2 310 08:19 21.03.2020
6302 Clouds -3 1020 63 14484 7.7 290 07:37 21.03.2020
6303 Clouds -3 1020 63 14484 7.7 290 07:19 21.03.2020
6304 Clouds -2 1018 58 14484 8.2 310 06:44 21.03.2020
6305 Clouds -2 1018 58 14484 8.2 310 06:24 21.03.2020
6306 Clouds 0 1016 55 14484 8.7 310 05:40 21.03.2020
6307 Clouds 1 1014 64 14484 9.8 300 04:26 21.03.2020
6308 Clouds 4 1009 61 14484 7.7 280 02:37 21.03.2020
6309 Clouds 5 1006 70 14484 9.8 290 01:45 21.03.2020
6310 Clouds 5 1006 70 14484 9.8 290 01:25 21.03.2020
6311 Clouds 7 1002 66 14484 12.3 280 00:43 21.03.2020
6312 Clouds 7 1002 66 14484 12.3 280 00:23 21.03.2020
6313 Clear 9 999 66 14484 13.9 270 23:44 20.03.2020
6314 Clear 10 999 66 14484 13.9 270 23:22 20.03.2020
6315 Clouds 12 996 67 14484 15.4 270 22:44 20.03.2020
6316 Clouds 12 996 67 14484 15.4 270 22:44 20.03.2020
6317 Clouds 13 996 67 14484 15.4 270 22:25 20.03.2020
6318 Clouds 14 997 71 32767 13.4 280 21:59 20.03.2020
6319 Rain 15 995 72 24140 11.3 250 21:40 20.03.2020
6320 Rain 15 995 72 24140 11.3 250 21:20 20.03.2020
6321 Clouds 14 994 82 14484 15.9 240 20:59 20.03.2020
6322 Thunderstorm 13 994 93 9656 9.8 220 20:41 20.03.2020
6323 Thunderstorm 12 994 93 9656 9.8 220 20:20 20.03.2020
6324 Rain 11 994 93 24140 16.5 240 19:48 20.03.2020
6325 Rain 10 995 93 14484 8.7 170 19:22 20.03.2020
6326 Rain 10 996 87 4023 5.1 150 18:58 20.03.2020
6327 Rain 10 996 87 4828 5.7 150 18:39 20.03.2020
6328 Rain 10 996 87 4828 5.7 150 18:20 20.03.2020
6329 Rain 10 997 87 9656 6.7 150 17:56 20.03.2020
6330 Clouds 9 999 93 14484 8.7 180 17:38 20.03.2020
6331 Clouds 8 999 93 14484 8.7 180 17:19 20.03.2020
6332 Clouds 8 1000 93 14484 7.2 180 16:42 20.03.2020
6333 Clouds 7 1000 93 14484 7.2 180 16:21 20.03.2020
6334 Rain 7 1001 93 14484 7.2 180 15:58 20.03.2020
6335 Rain 6 1001 100 2816 7.7 180 15:39 20.03.2020
6336 Rain 6 1001 100 2816 7.7 180 15:20 20.03.2020
6337 Rain 6 1002 93 4828 10.8 180 14:42 20.03.2020
6338 Rain 5 1002 93 3621 3.1 140 14:21 20.03.2020
6339 Rain 5 1002 93 3621 3.1 140 14:21 20.03.2020
6340 Rain 5 1003 93 3219 8.2 180 13:50 20.03.2020
6341 Clouds 5 1003 93 11265 8.2 170 13:26 20.03.2020
6342 Rain 5 1004 100 4828 8.7 170 12:59 20.03.2020
6343 Rain 5 1005 100 3621 7.7 160 12:38 20.03.2020
6344 Rain 5 1005 100 3621 7.7 160 12:20 20.03.2020
6345 Rain 4 1006 93 4828 7.7 150 11:41 20.03.2020
6346 Rain 4 1006 93 4828 7.7 150 11:21 20.03.2020
6347 Rain 4 1008 93 14484 5.1 150 10:58 20.03.2020
6348 Rain 4 1009 93 14484 5.1 140 10:40 20.03.2020
6349 Rain 4 1009 93 14484 5.1 140 10:18 20.03.2020
6350 Rain 4 1011 93 14484 4.1 140 09:47 20.03.2020
6351 Rain 4 1011 93 14484 4.1 140 09:21 20.03.2020
6352 Rain 4 1014 80 14484 1.5 140 08:59 20.03.2020
6353 Rain 4 1014 80 14484 1.5 140 08:40 20.03.2020
6354 Rain 4 1014 80 14484 1.5 140 08:19 20.03.2020
6355 Clouds 4 1015 80 14484 4.1 120 07:45 20.03.2020
6356 Clouds 4 1015 80 14484 4.1 120 07:26 20.03.2020
6357 Clouds 4 1017 86 14484 3.1 140 06:47 20.03.2020
6358 Clouds 4 1017 86 14484 3.1 140 06:29 20.03.2020
6359 Clouds 4 1020 80 14484 3.1 120 04:49 20.03.2020
6360 Clouds 3 1021 99 14484 2.1 80 03:18 20.03.2020
6361 Clear 3 1023 80 14484 2.1 30 01:51 20.03.2020
6362 Clear 4 1023 74 14484 2.6 20 00:46 20.03.2020
6363 Clear 4 1023 74 14484 2.6 20 00:24 20.03.2020
6364 Clouds 6 1024 98 14484 3.1 40 23:42 19.03.2020
6365 Clouds 6 1024 98 14484 3.1 40 23:23 19.03.2020
6366 Clouds 7 1024 60 14484 4.1 30 22:55 19.03.2020
6367 Clouds 7 1024 60 14484 4.1 30 22:37 19.03.2020
6368 Clouds 6 1024 60 14484 4.1 30 22:18 19.03.2020
6369 Clouds 7 1025 96 14484 4.1 40 21:40 19.03.2020
6370 Clouds 7 1025 96 14484 4.1 40 21:20 19.03.2020
6371 Clouds 7 1025 96 14484 3.1 50 20:55 19.03.2020
6372 Clouds 7 1025 96 14484 3.1 50 20:37 19.03.2020
6373 Clouds 8 1025 95 14484 3.1 50 20:19 19.03.2020
6374 Clouds 8 1025 65 14484 3.6 90 19:55 19.03.2020
6375 Clouds 8 1025 65 14484 3.6 90 19:36 19.03.2020
6376 Clouds 7 1025 65 14484 3.6 90 19:18 19.03.2020
6377 Clouds 6 1026 65 14484 3.1 100 18:42 19.03.2020
6378 Clouds 6 1026 65 14484 3.1 100 18:22 19.03.2020
6379 Clouds 5 1027 64 14484 3.6 30 17:56 19.03.2020
6380 Clouds 4 1027 64 14484 3.6 30 17:38 19.03.2020
6381 Clouds 3 1027 64 14484 3.6 30 17:18 19.03.2020
6382 Clouds 2 1028 64 14484 4.1 20 16:43 19.03.2020
6383 Clouds 2 1028 64 14484 4.1 20 16:22 19.03.2020
6384 Clouds 1 1027 69 14484 4.1 20 15:44 19.03.2020
6385 Clouds 2 1027 69 14484 4.1 20 15:25 19.03.2020
6386 Clouds 1 1026 96 14484 4.6 30 14:55 19.03.2020
6387 Clouds 1 1026 96 14484 4.6 30 14:37 19.03.2020
6388 Clouds 2 1026 89 14484 4.6 30 14:18 19.03.2020
6389 Clouds 1 1027 74 14484 5.1 20 13:39 19.03.2020
6390 Clouds 0 1027 74 14484 5.1 20 13:19 19.03.2020
6391 Clouds 0 1027 68 14484 4.6 30 12:55 19.03.2020
6392 Clouds 0 1027 68 14484 4.6 30 12:37 19.03.2020
6393 Clouds 0 1027 68 14484 4.6 30 12:18 19.03.2020
6394 Clouds 0 1027 68 14484 5.1 20 11:41 19.03.2020
6395 Clouds -1 1027 68 14484 5.1 20 11:23 19.03.2020
6396 Clouds 0 1026 86 14484 4.6 10 10:56 19.03.2020
6397 Clouds 0 1026 86 14484 4.6 10 10:36 19.03.2020
6398 Clouds 0 1026 86 14484 4.6 10 10:18 19.03.2020
6399 Clouds 0 1026 86 14484 4.1 30 09:42 19.03.2020
6400 Clouds 0 1026 86 14484 4.1 30 09:24 19.03.2020
6401 Clouds 0 1027 86 14484 3.6 30 08:48 19.03.2020
6402 Clouds 0 1027 82 14484 3.6 30 08:23 19.03.2020
6403 Clouds 0 1027 78 14484 4.6 30 07:59 19.03.2020
6404 Clouds 0 1027 78 14484 4.6 30 07:38 19.03.2020
6405 Clouds 0 1027 78 14484 4.6 30 07:19 19.03.2020
6406 Clouds 0 1028 78 14484 3.6 40 06:27 19.03.2020
6407 Clouds 0 1028 78 14484 4.6 30 05:25 19.03.2020
6408 Clouds 0 1029 75 14484 3.1 30 04:47 19.03.2020
6409 Clouds 0 1030 75 14484 2.6 40 03:55 19.03.2020
6410 Clouds 1 1030 74 14484 2.1 40 01:58 19.03.2020
6411 Clouds 1 1030 64 14484 2.1 50 00:53 19.03.2020
6412 Clouds 1 1030 64 14484 2.1 50 00:19 19.03.2020
6413 Clouds 2 1030 43 14484 2.6 90 23:43 18.03.2020
6414 Clouds 2 1030 43 14484 2.6 90 23:23 18.03.2020
6415 Clouds 2 1031 47 14484 3.1 130 22:43 18.03.2020
6416 Clouds 2 1031 47 14484 3.1 130 22:23 18.03.2020
6417 Clouds 2 1031 40 14484 3.6 160 21:58 18.03.2020
6418 Clouds 3 1031 40 14484 3.6 160 21:40 18.03.2020
6419 Clouds 3 1031 40 14484 3.6 160 21:20 18.03.2020
6420 Clouds 3 1032 43 14484 4.6 100 20:55 18.03.2020
6421 Clouds 3 1032 43 14484 4.6 100 20:37 18.03.2020
6422 Clouds 2 1032 43 14484 4.6 100 20:19 18.03.2020
6423 Clear 2 1032 40 14484 2.6 0 19:41 18.03.2020
6424 Clear 2 1032 40 14484 2.6 0 19:21 18.03.2020
6425 Clear 2 1033 37 14484 4.1 130 18:59 18.03.2020
6426 Clear 2 1033 37 14484 4.1 130 18:40 18.03.2020
6427 Clear 2 1033 37 14484 4.1 130 18:19 18.03.2020
6428 Clear 2 1033 37 14484 4.1 130 18:19 18.03.2020
6429 Clouds 1 1033 78 14484 2.6 10 17:56 18.03.2020
6430 Clouds 1 1033 78 14484 2.6 10 17:38 18.03.2020
6431 Clouds 1 1033 76 14484 2.6 10 17:19 18.03.2020
6432 Clouds 1 1034 36 14484 0.38 16 16:43 18.03.2020
6433 Clouds 1 1034 36 14484 0.38 16 16:21 18.03.2020
6434 Clouds 0 1033 33 32767 2.6 50 15:58 18.03.2020
6435 Clouds 0 1033 36 14484 2.1 50 15:38 18.03.2020
6436 Clouds 0 1033 33 32767 2.6 50 15:20 18.03.2020
6437 Clouds -1 1032 54 14484 2.6 20 14:43 18.03.2020
6438 Clouds -2 1032 54 14484 2.6 20 14:21 18.03.2020
6439 Clouds -2 1031 58 14484 2.1 10 13:42 18.03.2020
6440 Clouds -3 1031 58 14484 2.1 10 13:19 18.03.2020
6441 Clouds -3 1031 58 14484 2.1 10 13:19 18.03.2020
6442 Clouds -3 1030 58 14484 3.6 350 12:55 18.03.2020
6443 Clouds -3 1030 58 14484 3.6 350 12:37 18.03.2020
6444 Clouds -3 1030 58 14484 3.6 350 12:19 18.03.2020
6445 Clear -3 1029 63 14484 3.1 360 11:38 18.03.2020
6446 Clear -3 1029 63 14484 3.1 360 11:19 18.03.2020
6447 Clear -3 1027 68 14484 3.6 330 10:57 18.03.2020
6448 Clear -3 1027 68 14484 3.6 330 10:37 18.03.2020
6449 Clear -2 1027 68 14484 3.6 330 10:19 18.03.2020
6450 Clear -2 1026 74 14484 2.6 310 09:43 18.03.2020
6451 Clear -2 1026 74 14484 2.6 310 09:24 18.03.2020
6452 Clouds -1 1025 87 14484 3.6 330 08:56 18.03.2020
6453 Clouds -1 1025 87 14484 3.6 330 08:38 18.03.2020
6454 Clouds -1 1025 87 14484 3.6 330 08:38 18.03.2020
6455 Clouds -1 1025 89 14484 3.6 330 08:20 18.03.2020
6456 Clear 0 1023 59 14484 6.7 290 07:44 18.03.2020
6457 Clear 0 1023 59 14484 6.7 290 07:26 18.03.2020
6458 Clouds 0 1022 83 14484 3.6 220 06:44 18.03.2020
6459 Clouds 0 1022 83 14484 3.6 220 06:18 18.03.2020
6460 Clouds 0 1022 83 14484 3.6 220 05:34 18.03.2020
6461 Clear 1 1021 74 14484 3.1 270 04:24 18.03.2020
6462 Clouds 2 1019 74 24140 2.6 280 02:43 18.03.2020
6463 Clouds 3 1018 64 14484 4.1 290 01:48 18.03.2020
6464 Clouds 3 1017 74 32767 1 0 01:26 18.03.2020
6465 Clouds 4 1015 81 14484 6.7 240 00:24 18.03.2020
6466 Clouds 5 1014 70 14484 7.2 240 23:48 17.03.2020
6467 Clouds 5 1014 70 14484 7.2 240 23:27 17.03.2020
6468 Clouds 5 1013 70 14484 9.8 250 22:57 17.03.2020
6469 Clouds 5 1013 70 14484 9.8 250 22:37 17.03.2020
6470 Clouds 5 1013 70 14484 9.8 250 22:19 17.03.2020
6471 Clouds 5 1013 80 14484 8.7 250 21:39 17.03.2020
6472 Clouds 5 1013 80 14484 8.7 250 21:21 17.03.2020
6473 Clouds 5 1013 80 14484 8.7 250 21:21 17.03.2020
6474 Clouds 5 1013 80 14484 8.7 250 21:21 17.03.2020
6475 Clouds 4 1013 86 14484 7.7 230 20:40 17.03.2020
6476 Clouds 4 1013 86 14484 7.7 230 20:40 17.03.2020
6477 Clouds 4 1013 86 14484 7.7 230 20:21 17.03.2020
6478 Rain 3 1013 93 14484 10.3 240 19:58 17.03.2020
6479 Rain 3 1013 93 14484 10.3 240 19:39 17.03.2020
6480 Rain 3 1013 93 14484 10.3 240 19:18 17.03.2020
6481 Rain 3 1014 86 24140 10.8 230 18:56 17.03.2020
6482 Rain 3 1014 86 24140 10.8 230 18:37 17.03.2020
6483 Rain 2 1012 93 12874 5.1 230 18:19 17.03.2020
6484 Snow 2 1013 99 3219 8.2 190 17:40 17.03.2020
6485 Snow 2 1013 99 3219 8.2 190 17:40 17.03.2020
6486 Snow 2 1013 99 3219 8.2 190 17:21 17.03.2020
6487 Snow 2 1013 99 3219 6.2 190 16:55 17.03.2020
6488 Rain 2 1013 99 24140 5.1 180 16:37 17.03.2020
6489 Rain 2 1013 99 24140 5.1 180 16:18 17.03.2020
6490 Snow 1 1014 99 4828 8.7 180 15:43 17.03.2020
6491 Snow 1 1014 99 2414 8.7 180 15:21 17.03.2020
6492 Snow 1 1014 99 3621 6.7 180 14:43 17.03.2020
6493 Snow 1 1014 99 3621 6.7 180 14:43 17.03.2020
6494 Snow 1 1015 86 3621 8.7 180 14:21 17.03.2020
6495 Snow 1 1015 86 4023 9.8 170 13:45 17.03.2020
6496 Snow 1 1016 86 8047 8.2 170 13:27 17.03.2020
6497 Snow 1 1016 86 9656 9.3 170 12:59 17.03.2020
6498 Snow 1 1016 83 4828 11.3 170 12:40 17.03.2020
6499 Snow 1 1016 83 4828 11.3 170 12:22 17.03.2020
6500 Snow 1 1017 86 4828 11.3 170 11:47 17.03.2020
6501 Snow 1 1017 83 4828 10.8 180 11:28 17.03.2020
6502 Snow 1 1017 86 6437 7.2 150 10:58 17.03.2020
6503 Snow 1 1018 80 8047 8.2 180 10:38 17.03.2020
6504 Snow 1 1018 80 8047 8.2 180 10:20 17.03.2020
6505 Clouds 1 1019 64 12874 10.3 180 09:59 17.03.2020
6506 Rain 1 1019 59 14484 10.3 170 09:39 17.03.2020
6507 Rain 1 1019 59 14484 10.3 170 09:19 17.03.2020
6508 Rain 1 1019 59 14484 9.8 180 08:47 17.03.2020
6509 Clouds 1 1019 55 14484 10.8 180 08:22 17.03.2020
6510 Clouds 1 1021 51 14484 7.7 180 07:50 17.03.2020
6511 Clouds 0 1021 51 14484 7.7 180 07:26 17.03.2020
6512 Clouds 0 1021 43 14484 8.7 180 06:58 17.03.2020
6513 Clouds -1 1021 43 14484 8.7 180 06:33 17.03.2020
6514 Clouds -2 1022 67 14484 6.7 180 05:49 17.03.2020
6515 Clouds -3 1026 68 14484 2.1 20 03:43 17.03.2020
6516 Clouds -3 1027 68 14484 3.6 30 02:46 17.03.2020
6517 Clouds -3 1027 68 14484 3.1 40 01:43 17.03.2020
6518 Clouds -3 1027 68 14484 3.1 40 01:24 17.03.2020
6519 Clouds -3 1029 58 14484 3.6 50 00:38 17.03.2020
6520 Clear -2 1030 54 14484 3.6 40 23:45 16.03.2020
6521 Clear -2 1030 54 14484 3.6 40 23:27 16.03.2020
6522 Clouds -1 1030 46 14484 4.6 30 22:41 16.03.2020
6523 Clouds -1 1030 46 14484 4.6 30 22:41 16.03.2020
6524 Clouds -1 1030 46 14484 4.6 30 22:23 16.03.2020
6525 Clear -1 1032 39 14484 2.6 100 21:57 16.03.2020
6526 Clear -1 1032 39 14484 2.6 100 21:39 16.03.2020
6527 Clear -1 1032 39 14484 2.6 100 21:21 16.03.2020
6528 Clouds -1 1033 39 14484 2.6 80 20:56 16.03.2020
6529 Clouds -1 1033 39 14484 2.6 80 20:37 16.03.2020
6530 Clouds -1 1033 39 14484 2.6 80 20:19 16.03.2020
6531 Clear -2 1035 45 14484 3.1 70 19:41 16.03.2020
6532 Clear -2 1035 45 14484 3.1 70 19:20 16.03.2020
6533 Clear -3 1036 45 14484 2.6 60 18:43 16.03.2020
6534 Clear -3 1036 45 14484 2.6 60 18:22 16.03.2020
6535 Clear -4 1037 49 14484 3.1 10 17:56 16.03.2020
6536 Clear -4 1037 49 14484 3.1 10 17:37 16.03.2020
6537 Clear -5 1038 52 14484 3.6 30 17:18 16.03.2020
6538 Clear -5 1038 52 14484 3.6 30 16:45 16.03.2020
6539 Clear -5 1038 52 14484 3.6 30 16:27 16.03.2020
6540 Clear -6 1039 57 14484 3.1 30 15:56 16.03.2020
6541 Clear -6 1039 57 14484 3.1 30 15:37 16.03.2020
6542 Clear -7 1039 57 14484 3.1 30 15:18 16.03.2020
6543 Clear -8 1039 52 14484 3.1 50 14:39 16.03.2020
6544 Clear -8 1039 52 14484 3.1 50 14:19 16.03.2020
6545 Clear -9 1040 61 14484 4.1 50 13:41 16.03.2020
6546 Clear -9 1040 61 14484 4.1 50 13:22 16.03.2020
6547 Clear -10 1040 66 14484 2.1 30 12:45 16.03.2020
6548 Clear -10 1040 66 14484 2.1 30 12:26 16.03.2020
6549 Clear -10 1040 66 14484 2.6 30 11:58 16.03.2020
6550 Clear -10 1040 66 14484 2.6 30 11:39 16.03.2020
6551 Clear -10 1040 66 14484 2.6 30 11:18 16.03.2020
6552 Clear -10 1039 61 14484 3.6 10 10:41 16.03.2020
6553 Clear -9 1039 61 14484 3.6 10 10:19 16.03.2020
6554 Clear -9 1039 61 14484 3.6 30 09:44 16.03.2020
6555 Clear -9 1039 61 14484 3.6 30 09:24 16.03.2020
6556 Clear -8 1039 57 14484 4.1 40 08:54 16.03.2020
6557 Clear -8 1039 57 14484 4.1 40 08:25 16.03.2020
6558 Clear -8 1040 57 14484 3.6 20 07:50 16.03.2020
6559 Clear -7 1040 57 14484 3.6 20 07:27 16.03.2020
6560 Clear -7 1039 52 14484 4.6 360 06:54 16.03.2020
6561 Clear -7 1039 52 14484 4.6 360 06:26 16.03.2020
6562 Clear -6 1039 48 14484 4.1 10 05:50 16.03.2020
6563 Clear -4 1038 49 14484 4.3 32 02:45 16.03.2020
6564 Clear -4 1037 53 14484 2.6 230 01:20 16.03.2020
6565 Clear -3 1037 53 14484 4.1 230 00:40 16.03.2020
6566 Clear -2 1037 42 14484 2.6 240 23:48 15.03.2020
6567 Clear -2 1037 42 14484 2.6 240 23:20 15.03.2020
6568 Clear -2 1037 36 14484 2.6 240 22:43 15.03.2020
6569 Clear -1 1037 36 14484 2.6 240 22:23 15.03.2020
6570 Clear -2 1037 36 14484 3.6 330 21:59 15.03.2020
6571 Clear -1 1037 36 14484 3.6 330 21:38 15.03.2020
6572 Clear -2 1037 36 14484 3.6 330 21:19 15.03.2020
6573 Clear -2 1037 42 14484 2.1 0 20:43 15.03.2020
6574 Clear -3 1037 42 14484 2.1 0 20:22 15.03.2020
6575 Clear -3 1037 45 14484 4.1 340 19:58 15.03.2020
6576 Clear -3 1037 45 14484 4.1 340 19:40 15.03.2020
6577 Clear -3 1037 45 14484 4.1 340 19:21 15.03.2020
6578 Clear -4 1038 53 14484 4.6 340 18:56 15.03.2020
6579 Clear -4 1038 53 14484 4.6 340 18:38 15.03.2020
6580 Clear -4 1038 53 14484 4.6 340 18:20 15.03.2020
6581 Clouds -5 1038 57 14484 2.1 280 17:41 15.03.2020
6582 Clouds -5 1038 57 14484 2.1 280 17:22 15.03.2020
6583 Clouds -5 1038 52 14484 3.6 20 16:59 15.03.2020
6584 Clouds -6 1038 52 14484 3.6 20 16:40 15.03.2020
6585 Clouds -6 1038 52 14484 3.6 20 16:21 15.03.2020
6586 Clear -6 1038 61 14484 5.1 20 15:56 15.03.2020
6587 Clear -6 1038 61 14484 5.1 20 15:38 15.03.2020
6588 Clear -7 1038 61 14484 5.1 20 15:19 15.03.2020
6589 Clouds -7 1037 61 14484 6.7 10 14:40 15.03.2020
6590 Clouds -7 1037 61 14484 6.7 10 14:22 15.03.2020
6591 Clouds -7 1037 67 14484 7.7 20 13:56 15.03.2020
6592 Clouds -8 1037 67 14484 7.7 20 13:38 15.03.2020
6593 Clouds -8 1037 67 14484 7.7 20 13:18 15.03.2020
6594 Clouds -8 1036 67 14484 5.7 360 12:40 15.03.2020
6595 Clouds -8 1036 67 14484 5.7 360 12:22 15.03.2020
6596 Clear -7 1035 62 14484 4.6 20 11:45 15.03.2020
6597 Clear -7 1035 62 14484 4.6 20 11:26 15.03.2020
6598 Clear -7 1034 62 14484 6.2 10 10:59 15.03.2020
6599 Clear -7 1034 62 14484 6.2 10 10:41 15.03.2020
6600 Clear -6 1034 62 14484 6.2 10 10:22 15.03.2020
6601 Clear -6 1034 62 14484 6.2 10 10:22 15.03.2020
6602 Clear -6 1032 62 14484 5.7 360 09:59 15.03.2020
6603 Clear -6 1032 62 14484 5.7 360 09:39 15.03.2020
6604 Clear -5 1032 62 14484 5.7 360 09:20 15.03.2020
6605 Clear -5 1032 62 14484 6.2 360 08:41 15.03.2020
6606 Clear -5 1032 62 14484 6.2 360 08:20 15.03.2020
6607 Clear -4 1031 58 14484 5.1 350 07:50 15.03.2020
6608 Clear -4 1031 58 14484 5.1 350 07:23 15.03.2020
6609 Clear -3 1030 53 14484 4.6 350 06:44 15.03.2020
6610 Clear -2 1030 50 14484 5.7 350 05:49 15.03.2020
6611 Clouds -1 1030 54 14484 2.6 10 04:58 15.03.2020
6612 Clouds -1 1030 54 14484 2.6 10 04:40 15.03.2020
6613 Clouds 0 1030 54 14484 2.6 10 04:21 15.03.2020
6614 Clouds 0 1029 37 14484 5.1 320 03:25 15.03.2020
6615 Clouds 1 1028 34 14484 6.7 310 02:36 15.03.2020
6616 Clouds 2 1028 31 24140 6.2 320 01:19 15.03.2020
6617 Clear 2 1026 32 14484 6.2 320 00:42 15.03.2020
6618 Clear 3 1026 32 14484 6.2 320 00:20 15.03.2020
6619 Clear 4 1025 30 14484 7.7 310 23:41 14.03.2020
6620 Clear 4 1025 30 14484 7.7 310 23:20 14.03.2020
6621 Clear 5 1024 32 14484 8.7 300 22:57 14.03.2020
6622 Clear 5 1024 32 14484 8.7 300 22:38 14.03.2020
6623 Clear 5 1024 32 14484 8.7 300 22:20 14.03.2020
6624 Clear 5 1023 35 14484 7.7 290 21:56 14.03.2020
6625 Clear 5 1023 35 14484 7.7 290 21:36 14.03.2020
6626 Clear 5 1023 35 14484 7.7 290 21:18 14.03.2020
6627 Clear 5 1023 41 14484 7.2 270 20:58 14.03.2020
6628 Clear 5 1023 41 14484 7.2 270 20:39 14.03.2020
6629 Clear 5 1023 41 14484 7.2 270 20:19 14.03.2020
6630 Clear 5 1022 44 14484 7.2 290 19:42 14.03.2020
6631 Clear 5 1022 44 14484 7.2 290 19:42 14.03.2020
6632 Clear 5 1022 44 14484 7.2 290 19:24 14.03.2020
6633 Clouds 5 1022 51 14484 8.7 280 18:41 14.03.2020
6634 Clouds 4 1022 51 14484 8.7 280 18:23 14.03.2020
6635 Clouds 4 1022 51 14484 11.3 280 17:56 14.03.2020
6636 Clouds 4 1022 51 14484 11.3 280 17:38 14.03.2020
6637 Clouds 3 1022 51 14484 11.3 280 17:20 14.03.2020
6638 Clouds 3 1022 47 14484 7.2 290 16:41 14.03.2020
6639 Clouds 3 1022 47 14484 7.2 290 16:23 14.03.2020
6640 Clouds 3 1021 51 14484 11.8 280 15:56 14.03.2020
6641 Clouds 3 1021 51 14484 11.8 280 15:26 14.03.2020
6642 Clouds 3 1019 55 14484 10.8 280 14:58 14.03.2020
6643 Clouds 2 1019 55 14484 10.8 280 14:36 14.03.2020
6644 Clouds 1 1019 55 14484 10.8 280 14:18 14.03.2020
6645 Clouds 1 1018 64 14484 7.7 270 13:42 14.03.2020
6646 Clouds 1 1018 64 14484 7.7 270 13:23 14.03.2020
6647 Clouds 1 1017 59 14484 10.8 280 12:47 14.03.2020
6648 Clouds 1 1017 59 14484 10.8 280 12:27 14.03.2020
6649 Clouds 1 1015 55 14484 11.3 260 11:59 14.03.2020
6650 Clouds 1 1015 55 14484 11.3 260 11:39 14.03.2020
6651 Clouds 2 1015 55 14484 11.3 260 11:20 14.03.2020
6652 Clouds 2 1014 59 14484 12.9 260 10:46 14.03.2020
6653 Clouds 2 1014 59 14484 12.9 260 10:27 14.03.2020
6654 Clouds 2 1012 59 14484 13.9 260 09:57 14.03.2020
6655 Clouds 2 1012 59 14484 13.9 260 09:39 14.03.2020
6656 Clouds 2 1012 59 14484 13.9 260 09:19 14.03.2020
6657 Clouds 2 1012 64 14484 11.8 260 08:45 14.03.2020
6658 Snow 3 1013 59 24140 14.4 260 08:23 14.03.2020
6659 Clouds 3 1011 59 14484 12.3 250 07:39 14.03.2020
6660 Clouds 3 1011 59 14484 12.3 250 07:20 14.03.2020
6661 Clouds 3 1010 59 14484 11.3 250 06:41 14.03.2020
6662 Clouds 3 1010 59 14484 12.3 250 05:56 14.03.2020
6663 Clouds 3 1009 59 14484 13.9 250 04:51 14.03.2020
6664 Clouds 4 1008 55 14484 12.9 250 03:25 14.03.2020
6665 Clouds 4 1008 55 14484 13.4 250 02:35 14.03.2020
6666 Clouds 4 1008 55 14484 13.4 250 02:35 14.03.2020
6667 Clouds 4 1007 60 14484 12.9 240 01:27 14.03.2020
6668 Clouds 5 1006 56 14484 10.8 240 00:22 14.03.2020
6669 Clouds 5 1005 56 14484 13.4 240 23:38 13.03.2020
6670 Clouds 5 1005 56 14484 13.4 240 23:18 13.03.2020
6671 Clear 6 1004 56 14484 12.9 240 22:41 13.03.2020
6672 Clear 6 1004 56 14484 12.9 240 22:20 13.03.2020
6673 Clouds 7 1003 63 14484 13.4 240 21:40 13.03.2020
6674 Clouds 7 1003 63 14484 13.4 240 21:18 13.03.2020
6675 Clouds 7 1001 65 14484 17 250 20:42 13.03.2020
6676 Clouds 7 1001 65 14484 17 250 20:22 13.03.2020
6677 Clouds 8 999 66 14484 18 240 19:55 13.03.2020
6678 Clouds 8 999 66 14484 18 240 19:36 13.03.2020
6679 Clouds 8 999 66 14484 18 240 19:18 13.03.2020
6680 Rain 7 999 93 14484 8.2 190 18:39 13.03.2020
6681 Rain 7 999 93 14484 8.2 190 18:21 13.03.2020
6682 Rain 6 998 100 8047 11.3 180 17:42 13.03.2020
6683 Rain 5 998 100 8047 11.3 180 17:21 13.03.2020
6684 Rain 5 997 87 16093 9.8 170 16:56 13.03.2020
6685 Mist 5 998 93 4828 11.3 180 16:38 13.03.2020
6686 Mist 5 998 93 4828 11.3 180 16:19 13.03.2020
6687 Mist 4 998 93 4828 9.3 170 15:42 13.03.2020
6688 Rain 4 999 86 8047 10.3 160 15:21 13.03.2020
6689 Rain 4 999 86 19312 15.4 140 14:55 13.03.2020
6690 Rain 4 1001 93 8047 9.8 150 14:36 13.03.2020
6691 Rain 3 1001 93 8047 9.8 150 14:18 13.03.2020